<?xml version="1.0" encoding="UTF-8" standalone="no" ?>
<gpx xmlns="http://www.topografix.com/GPX/1/1" xmlns:xsi="http://www.w3.org/2001/XMLSchema-instance" xsi:schemaLocation="http://www.topografix.com/GPX/1/1 http://www.topografix.com/GPX/1/1/gpx.xsd" version="1.1" creator="VisuGPX - https://www.visugpx.com">
  <metadata>
    <name>SSOL-29/1</name>
    <desc><![CDATA[Sortie en groupe, très boueuse par endroit]]></desc>
  </metadata>
  <trk>
    <name><![CDATA[Ssol 29/1]]></name>
    <desc><![CDATA[(null)]]></desc>
    <trkseg>
      <trkpt lat="47.71697" lon="7.39457">
        <ele>248.621094</ele>
        <time>2012-01-29T07:47:12Z</time>
      </trkpt>
      <trkpt lat="47.71697" lon="7.39456">
        <ele>248.621094</ele>
        <time>2012-01-29T07:47:17Z</time>
      </trkpt>
      <trkpt lat="47.71698" lon="7.39461">
        <ele>249.313843</ele>
        <time>2012-01-29T07:47:18Z</time>
      </trkpt>
      <trkpt lat="47.71698" lon="7.39463">
        <ele>253.191055</ele>
        <time>2012-01-29T07:47:20Z</time>
      </trkpt>
      <trkpt lat="47.71763" lon="7.39463">
        <ele>343.547058</ele>
        <time>2012-01-29T07:47:23Z</time>
      </trkpt>
      <trkpt lat="47.71733" lon="7.39414">
        <ele>270.250488</ele>
        <time>2012-01-29T07:47:24Z</time>
      </trkpt>
      <trkpt lat="47.71727" lon="7.39434">
        <ele>289.499847</ele>
        <time>2012-01-29T07:47:26Z</time>
      </trkpt>
      <trkpt lat="47.71727" lon="7.39434">
        <ele>289.499847</ele>
        <time>2012-01-29T07:47:27Z</time>
      </trkpt>
      <trkpt lat="47.7172" lon="7.3945">
        <ele>274.180511</ele>
        <time>2012-01-29T07:47:28Z</time>
      </trkpt>
      <trkpt lat="47.7172" lon="7.3945">
        <ele>274.180511</ele>
        <time>2012-01-29T07:47:29Z</time>
      </trkpt>
      <trkpt lat="47.7172" lon="7.39451">
        <ele>263.684906</ele>
        <time>2012-01-29T07:47:31Z</time>
      </trkpt>
      <trkpt lat="47.7172" lon="7.39451">
        <ele>263.684906</ele>
        <time>2012-01-29T07:47:32Z</time>
      </trkpt>
      <trkpt lat="47.7172" lon="7.39451">
        <ele>263.684906</ele>
        <time>2012-01-29T07:47:33Z</time>
      </trkpt>
      <trkpt lat="47.7172" lon="7.39452">
        <ele>257.131866</ele>
        <time>2012-01-29T07:47:34Z</time>
      </trkpt>
      <trkpt lat="47.7172" lon="7.39452">
        <ele>257.131866</ele>
        <time>2012-01-29T07:47:35Z</time>
      </trkpt>
      <trkpt lat="47.7172" lon="7.39452">
        <ele>257.131866</ele>
        <time>2012-01-29T07:47:36Z</time>
      </trkpt>
      <trkpt lat="47.7172" lon="7.39452">
        <ele>257.131866</ele>
        <time>2012-01-29T07:47:37Z</time>
      </trkpt>
      <trkpt lat="47.7172" lon="7.39452">
        <ele>257.131866</ele>
        <time>2012-01-29T07:47:38Z</time>
      </trkpt>
      <trkpt lat="47.7172" lon="7.39452">
        <ele>257.131866</ele>
        <time>2012-01-29T07:47:39Z</time>
      </trkpt>
      <trkpt lat="47.7172" lon="7.39452">
        <ele>257.131866</ele>
        <time>2012-01-29T07:47:40Z</time>
      </trkpt>
      <trkpt lat="47.7172" lon="7.39452">
        <ele>257.131866</ele>
        <time>2012-01-29T07:47:41Z</time>
      </trkpt>
      <trkpt lat="47.7172" lon="7.39452">
        <ele>257.131866</ele>
        <time>2012-01-29T07:47:42Z</time>
      </trkpt>
      <trkpt lat="47.7172" lon="7.39452">
        <ele>257.131866</ele>
        <time>2012-01-29T07:47:43Z</time>
      </trkpt>
      <trkpt lat="47.7172" lon="7.39452">
        <ele>257.131866</ele>
        <time>2012-01-29T07:47:44Z</time>
      </trkpt>
      <trkpt lat="47.7172" lon="7.39452">
        <ele>257.131866</ele>
        <time>2012-01-29T07:47:45Z</time>
      </trkpt>
      <trkpt lat="47.7172" lon="7.39452">
        <ele>257.131866</ele>
        <time>2012-01-29T07:47:46Z</time>
      </trkpt>
      <trkpt lat="47.7172" lon="7.39452">
        <ele>257.131866</ele>
        <time>2012-01-29T07:47:47Z</time>
      </trkpt>
      <trkpt lat="47.7172" lon="7.39452">
        <ele>257.131866</ele>
        <time>2012-01-29T07:47:48Z</time>
      </trkpt>
      <trkpt lat="47.7172" lon="7.39452">
        <ele>257.131866</ele>
        <time>2012-01-29T07:47:49Z</time>
      </trkpt>
      <trkpt lat="47.7172" lon="7.39452">
        <ele>257.131866</ele>
        <time>2012-01-29T07:47:50Z</time>
      </trkpt>
      <trkpt lat="47.7172" lon="7.39452">
        <ele>255.975769</ele>
        <time>2012-01-29T07:47:51Z</time>
      </trkpt>
      <trkpt lat="47.7172" lon="7.39452">
        <ele>254.761871</ele>
        <time>2012-01-29T07:47:52Z</time>
      </trkpt>
      <trkpt lat="47.7172" lon="7.39452">
        <ele>253.068878</ele>
        <time>2012-01-29T07:47:53Z</time>
      </trkpt>
      <trkpt lat="47.7172" lon="7.39452">
        <ele>252.65213</ele>
        <time>2012-01-29T07:47:54Z</time>
      </trkpt>
      <trkpt lat="47.7172" lon="7.39452">
        <ele>259.1185</ele>
        <time>2012-01-29T07:47:55Z</time>
      </trkpt>
      <trkpt lat="47.7172" lon="7.39452">
        <ele>257.334198</ele>
        <time>2012-01-29T07:47:56Z</time>
      </trkpt>
      <trkpt lat="47.7172" lon="7.39452">
        <ele>257.631836</ele>
        <time>2012-01-29T07:47:57Z</time>
      </trkpt>
      <trkpt lat="47.7172" lon="7.39452">
        <ele>254.368439</ele>
        <time>2012-01-29T07:47:58Z</time>
      </trkpt>
      <trkpt lat="47.7172" lon="7.39452">
        <ele>256.883209</ele>
        <time>2012-01-29T07:47:59Z</time>
      </trkpt>
      <trkpt lat="47.7172" lon="7.39452">
        <ele>259.706665</ele>
        <time>2012-01-29T07:48:00Z</time>
      </trkpt>
      <trkpt lat="47.7172" lon="7.39452">
        <ele>260.731384</ele>
        <time>2012-01-29T07:48:01Z</time>
      </trkpt>
      <trkpt lat="47.7172" lon="7.39452">
        <ele>258.958832</ele>
        <time>2012-01-29T07:48:02Z</time>
      </trkpt>
      <trkpt lat="47.7172" lon="7.39452">
        <ele>258.766724</ele>
        <time>2012-01-29T07:48:03Z</time>
      </trkpt>
      <trkpt lat="47.7172" lon="7.39452">
        <ele>257.978577</ele>
        <time>2012-01-29T07:48:04Z</time>
      </trkpt>
      <trkpt lat="47.7172" lon="7.39452">
        <ele>257.738373</ele>
        <time>2012-01-29T07:48:05Z</time>
      </trkpt>
      <trkpt lat="47.7172" lon="7.39452">
        <ele>257.350891</ele>
        <time>2012-01-29T07:48:06Z</time>
      </trkpt>
      <trkpt lat="47.7172" lon="7.39452">
        <ele>260.225586</ele>
        <time>2012-01-29T07:48:07Z</time>
      </trkpt>
      <trkpt lat="47.7172" lon="7.39452">
        <ele>260.441223</ele>
        <time>2012-01-29T07:48:08Z</time>
      </trkpt>
      <trkpt lat="47.7172" lon="7.39452">
        <ele>260.186371</ele>
        <time>2012-01-29T07:48:09Z</time>
      </trkpt>
      <trkpt lat="47.7172" lon="7.39452">
        <ele>259.163025</ele>
        <time>2012-01-29T07:48:10Z</time>
      </trkpt>
      <trkpt lat="47.7172" lon="7.39452">
        <ele>258.42865</ele>
        <time>2012-01-29T07:48:11Z</time>
      </trkpt>
      <trkpt lat="47.7172" lon="7.39452">
        <ele>257.423523</ele>
        <time>2012-01-29T07:48:12Z</time>
      </trkpt>
      <trkpt lat="47.7172" lon="7.39452">
        <ele>257.096283</ele>
        <time>2012-01-29T07:48:13Z</time>
      </trkpt>
      <trkpt lat="47.7172" lon="7.39452">
        <ele>256.776337</ele>
        <time>2012-01-29T07:48:14Z</time>
      </trkpt>
      <trkpt lat="47.7172" lon="7.39452">
        <ele>256.796814</ele>
        <time>2012-01-29T07:48:15Z</time>
      </trkpt>
      <trkpt lat="47.7172" lon="7.39452">
        <ele>257.452911</ele>
        <time>2012-01-29T07:48:16Z</time>
      </trkpt>
      <trkpt lat="47.7172" lon="7.39452">
        <ele>254.742401</ele>
        <time>2012-01-29T07:48:17Z</time>
      </trkpt>
      <trkpt lat="47.7172" lon="7.39452">
        <ele>254.778625</ele>
        <time>2012-01-29T07:48:18Z</time>
      </trkpt>
      <trkpt lat="47.71721" lon="7.39451">
        <ele>261.390991</ele>
        <time>2012-01-29T07:48:19Z</time>
      </trkpt>
      <trkpt lat="47.71721" lon="7.39451">
        <ele>258.814911</ele>
        <time>2012-01-29T07:48:20Z</time>
      </trkpt>
      <trkpt lat="47.71721" lon="7.39451">
        <ele>257.116028</ele>
        <time>2012-01-29T07:48:21Z</time>
      </trkpt>
      <trkpt lat="47.71721" lon="7.39451">
        <ele>254.557648</ele>
        <time>2012-01-29T07:48:22Z</time>
      </trkpt>
      <trkpt lat="47.71721" lon="7.39451">
        <ele>258.992798</ele>
        <time>2012-01-29T07:48:23Z</time>
      </trkpt>
      <trkpt lat="47.7172" lon="7.39451">
        <ele>253.910522</ele>
        <time>2012-01-29T07:48:24Z</time>
      </trkpt>
      <trkpt lat="47.7172" lon="7.39451">
        <ele>254.937042</ele>
        <time>2012-01-29T07:48:25Z</time>
      </trkpt>
      <trkpt lat="47.7172" lon="7.39451">
        <ele>254.168976</ele>
        <time>2012-01-29T07:48:26Z</time>
      </trkpt>
      <trkpt lat="47.7172" lon="7.39451">
        <ele>254.990509</ele>
        <time>2012-01-29T07:48:27Z</time>
      </trkpt>
      <trkpt lat="47.7172" lon="7.39451">
        <ele>254.522186</ele>
        <time>2012-01-29T07:48:28Z</time>
      </trkpt>
      <trkpt lat="47.7172" lon="7.3945">
        <ele>257.384888</ele>
        <time>2012-01-29T07:48:29Z</time>
      </trkpt>
      <trkpt lat="47.7172" lon="7.3945">
        <ele>259.297333</ele>
        <time>2012-01-29T07:48:30Z</time>
      </trkpt>
      <trkpt lat="47.7172" lon="7.3945">
        <ele>257.197021</ele>
        <time>2012-01-29T07:48:31Z</time>
      </trkpt>
      <trkpt lat="47.7172" lon="7.39451">
        <ele>258.88327</ele>
        <time>2012-01-29T07:48:32Z</time>
      </trkpt>
      <trkpt lat="47.71719" lon="7.39453">
        <ele>260.766571</ele>
        <time>2012-01-29T07:48:33Z</time>
      </trkpt>
      <trkpt lat="47.71718" lon="7.39455">
        <ele>261.269531</ele>
        <time>2012-01-29T07:48:34Z</time>
      </trkpt>
      <trkpt lat="47.71716" lon="7.39458">
        <ele>261.31311</ele>
        <time>2012-01-29T07:48:35Z</time>
      </trkpt>
      <trkpt lat="47.71715" lon="7.39461">
        <ele>259.173004</ele>
        <time>2012-01-29T07:48:36Z</time>
      </trkpt>
      <trkpt lat="47.71715" lon="7.39464">
        <ele>259.104614</ele>
        <time>2012-01-29T07:48:37Z</time>
      </trkpt>
      <trkpt lat="47.71715" lon="7.39467">
        <ele>259.715424</ele>
        <time>2012-01-29T07:48:38Z</time>
      </trkpt>
      <trkpt lat="47.71715" lon="7.39471">
        <ele>259.697266</ele>
        <time>2012-01-29T07:48:39Z</time>
      </trkpt>
      <trkpt lat="47.71715" lon="7.39474">
        <ele>259.490082</ele>
        <time>2012-01-29T07:48:40Z</time>
      </trkpt>
      <trkpt lat="47.71716" lon="7.39478">
        <ele>258.942841</ele>
        <time>2012-01-29T07:48:41Z</time>
      </trkpt>
      <trkpt lat="47.71717" lon="7.39482">
        <ele>258.782959</ele>
        <time>2012-01-29T07:48:42Z</time>
      </trkpt>
      <trkpt lat="47.71718" lon="7.39486">
        <ele>258.301392</ele>
        <time>2012-01-29T07:48:43Z</time>
      </trkpt>
      <trkpt lat="47.71719" lon="7.3949">
        <ele>258.564026</ele>
        <time>2012-01-29T07:48:44Z</time>
      </trkpt>
      <trkpt lat="47.71719" lon="7.39495">
        <ele>258.38559</ele>
        <time>2012-01-29T07:48:45Z</time>
      </trkpt>
      <trkpt lat="47.7172" lon="7.39501">
        <ele>258.489899</ele>
        <time>2012-01-29T07:48:46Z</time>
      </trkpt>
      <trkpt lat="47.71721" lon="7.39507">
        <ele>258.394348</ele>
        <time>2012-01-29T07:48:47Z</time>
      </trkpt>
      <trkpt lat="47.71722" lon="7.39514">
        <ele>259.040253</ele>
        <time>2012-01-29T07:48:48Z</time>
      </trkpt>
      <trkpt lat="47.71723" lon="7.3952">
        <ele>260.123871</ele>
        <time>2012-01-29T07:48:49Z</time>
      </trkpt>
      <trkpt lat="47.71724" lon="7.39527">
        <ele>259.774567</ele>
        <time>2012-01-29T07:48:50Z</time>
      </trkpt>
      <trkpt lat="47.71725" lon="7.39534">
        <ele>259.537231</ele>
        <time>2012-01-29T07:48:51Z</time>
      </trkpt>
      <trkpt lat="47.71726" lon="7.39542">
        <ele>259.217804</ele>
        <time>2012-01-29T07:48:52Z</time>
      </trkpt>
      <trkpt lat="47.71726" lon="7.39549">
        <ele>259.95694</ele>
        <time>2012-01-29T07:48:53Z</time>
      </trkpt>
      <trkpt lat="47.71727" lon="7.39558">
        <ele>260.252411</ele>
        <time>2012-01-29T07:48:54Z</time>
      </trkpt>
      <trkpt lat="47.71727" lon="7.39568">
        <ele>259.473511</ele>
        <time>2012-01-29T07:48:55Z</time>
      </trkpt>
      <trkpt lat="47.71726" lon="7.39579">
        <ele>258.391815</ele>
        <time>2012-01-29T07:48:56Z</time>
      </trkpt>
      <trkpt lat="47.71723" lon="7.3959">
        <ele>255.806274</ele>
        <time>2012-01-29T07:48:57Z</time>
      </trkpt>
      <trkpt lat="47.7172" lon="7.39598">
        <ele>254.4776</ele>
        <time>2012-01-29T07:48:58Z</time>
      </trkpt>
      <trkpt lat="47.71716" lon="7.39603">
        <ele>253.620178</ele>
        <time>2012-01-29T07:48:59Z</time>
      </trkpt>
      <trkpt lat="47.71712" lon="7.39607">
        <ele>252.767273</ele>
        <time>2012-01-29T07:49:00Z</time>
      </trkpt>
      <trkpt lat="47.71709" lon="7.3961">
        <ele>252.35553</ele>
        <time>2012-01-29T07:49:01Z</time>
      </trkpt>
      <trkpt lat="47.71707" lon="7.39614">
        <ele>252.433563</ele>
        <time>2012-01-29T07:49:02Z</time>
      </trkpt>
      <trkpt lat="47.71705" lon="7.39617">
        <ele>251.533295</ele>
        <time>2012-01-29T07:49:03Z</time>
      </trkpt>
      <trkpt lat="47.71704" lon="7.3962">
        <ele>251.739899</ele>
        <time>2012-01-29T07:49:04Z</time>
      </trkpt>
      <trkpt lat="47.71703" lon="7.39623">
        <ele>250.801758</ele>
        <time>2012-01-29T07:49:05Z</time>
      </trkpt>
      <trkpt lat="47.71703" lon="7.39623">
        <ele>250.801758</ele>
        <time>2012-01-29T07:49:06Z</time>
      </trkpt>
      <trkpt lat="47.71703" lon="7.39623">
        <ele>250.801758</ele>
        <time>2012-01-29T07:49:07Z</time>
      </trkpt>
      <trkpt lat="47.71703" lon="7.39623">
        <ele>250.801758</ele>
        <time>2012-01-29T07:49:08Z</time>
      </trkpt>
      <trkpt lat="47.71703" lon="7.39623">
        <ele>250.801758</ele>
        <time>2012-01-29T07:49:09Z</time>
      </trkpt>
      <trkpt lat="47.71703" lon="7.39623">
        <ele>250.801758</ele>
        <time>2012-01-29T07:49:10Z</time>
      </trkpt>
      <trkpt lat="47.71703" lon="7.39627">
        <ele>246.884186</ele>
        <time>2012-01-29T07:49:11Z</time>
      </trkpt>
      <trkpt lat="47.71704" lon="7.3963">
        <ele>245.938385</ele>
        <time>2012-01-29T07:49:12Z</time>
      </trkpt>
      <trkpt lat="47.71704" lon="7.39632">
        <ele>247.122772</ele>
        <time>2012-01-29T07:49:13Z</time>
      </trkpt>
      <trkpt lat="47.71704" lon="7.39633">
        <ele>243.091949</ele>
        <time>2012-01-29T07:49:14Z</time>
      </trkpt>
      <trkpt lat="47.71705" lon="7.39635">
        <ele>247.194305</ele>
        <time>2012-01-29T07:49:15Z</time>
      </trkpt>
      <trkpt lat="47.71705" lon="7.39638">
        <ele>247.474884</ele>
        <time>2012-01-29T07:49:16Z</time>
      </trkpt>
      <trkpt lat="47.71705" lon="7.3964">
        <ele>250.798004</ele>
        <time>2012-01-29T07:49:17Z</time>
      </trkpt>
      <trkpt lat="47.71705" lon="7.39642">
        <ele>252.095459</ele>
        <time>2012-01-29T07:49:18Z</time>
      </trkpt>
      <trkpt lat="47.71705" lon="7.39643">
        <ele>253.509338</ele>
        <time>2012-01-29T07:49:19Z</time>
      </trkpt>
      <trkpt lat="47.71705" lon="7.39644">
        <ele>252.670532</ele>
        <time>2012-01-29T07:49:20Z</time>
      </trkpt>
      <trkpt lat="47.71705" lon="7.39644">
        <ele>252.670532</ele>
        <time>2012-01-29T07:49:21Z</time>
      </trkpt>
      <trkpt lat="47.71705" lon="7.39644">
        <ele>252.670532</ele>
        <time>2012-01-29T07:49:22Z</time>
      </trkpt>
      <trkpt lat="47.71705" lon="7.39644">
        <ele>252.670532</ele>
        <time>2012-01-29T07:49:23Z</time>
      </trkpt>
      <trkpt lat="47.71705" lon="7.39644">
        <ele>252.670532</ele>
        <time>2012-01-29T07:49:24Z</time>
      </trkpt>
      <trkpt lat="47.71705" lon="7.39644">
        <ele>252.670532</ele>
        <time>2012-01-29T07:49:25Z</time>
      </trkpt>
      <trkpt lat="47.71705" lon="7.39644">
        <ele>252.670532</ele>
        <time>2012-01-29T07:49:26Z</time>
      </trkpt>
      <trkpt lat="47.71705" lon="7.39644">
        <ele>252.670532</ele>
        <time>2012-01-29T07:49:27Z</time>
      </trkpt>
      <trkpt lat="47.71705" lon="7.39644">
        <ele>252.670532</ele>
        <time>2012-01-29T07:49:28Z</time>
      </trkpt>
      <trkpt lat="47.71705" lon="7.39644">
        <ele>252.670532</ele>
        <time>2012-01-29T07:49:29Z</time>
      </trkpt>
      <trkpt lat="47.71705" lon="7.39644">
        <ele>252.670532</ele>
        <time>2012-01-29T07:49:30Z</time>
      </trkpt>
      <trkpt lat="47.71705" lon="7.39644">
        <ele>252.670532</ele>
        <time>2012-01-29T07:49:31Z</time>
      </trkpt>
      <trkpt lat="47.71705" lon="7.39644">
        <ele>252.670532</ele>
        <time>2012-01-29T07:49:32Z</time>
      </trkpt>
      <trkpt lat="47.71705" lon="7.39644">
        <ele>252.670532</ele>
        <time>2012-01-29T07:49:33Z</time>
      </trkpt>
      <trkpt lat="47.71705" lon="7.39644">
        <ele>252.670532</ele>
        <time>2012-01-29T07:49:34Z</time>
      </trkpt>
      <trkpt lat="47.71705" lon="7.39644">
        <ele>252.670532</ele>
        <time>2012-01-29T07:49:35Z</time>
      </trkpt>
      <trkpt lat="47.71705" lon="7.39644">
        <ele>252.670532</ele>
        <time>2012-01-29T07:49:36Z</time>
      </trkpt>
      <trkpt lat="47.71705" lon="7.39644">
        <ele>252.670532</ele>
        <time>2012-01-29T07:49:37Z</time>
      </trkpt>
      <trkpt lat="47.71705" lon="7.39644">
        <ele>252.670532</ele>
        <time>2012-01-29T07:49:38Z</time>
      </trkpt>
      <trkpt lat="47.71705" lon="7.39644">
        <ele>252.670532</ele>
        <time>2012-01-29T07:49:39Z</time>
      </trkpt>
      <trkpt lat="47.71705" lon="7.39644">
        <ele>252.670532</ele>
        <time>2012-01-29T07:49:40Z</time>
      </trkpt>
      <trkpt lat="47.71705" lon="7.39644">
        <ele>252.670532</ele>
        <time>2012-01-29T07:49:41Z</time>
      </trkpt>
      <trkpt lat="47.71705" lon="7.39644">
        <ele>252.670532</ele>
        <time>2012-01-29T07:49:42Z</time>
      </trkpt>
      <trkpt lat="47.71705" lon="7.39644">
        <ele>252.670532</ele>
        <time>2012-01-29T07:49:43Z</time>
      </trkpt>
      <trkpt lat="47.71705" lon="7.39644">
        <ele>252.670532</ele>
        <time>2012-01-29T07:49:44Z</time>
      </trkpt>
      <trkpt lat="47.71705" lon="7.39644">
        <ele>252.670532</ele>
        <time>2012-01-29T07:49:45Z</time>
      </trkpt>
      <trkpt lat="47.71707" lon="7.39651">
        <ele>246.51535</ele>
        <time>2012-01-29T07:49:46Z</time>
      </trkpt>
      <trkpt lat="47.71707" lon="7.39651">
        <ele>246.51535</ele>
        <time>2012-01-29T07:49:47Z</time>
      </trkpt>
      <trkpt lat="47.71707" lon="7.39651">
        <ele>246.51535</ele>
        <time>2012-01-29T07:49:48Z</time>
      </trkpt>
      <trkpt lat="47.71707" lon="7.39651">
        <ele>246.51535</ele>
        <time>2012-01-29T07:49:49Z</time>
      </trkpt>
      <trkpt lat="47.71707" lon="7.39651">
        <ele>246.51535</ele>
        <time>2012-01-29T07:49:50Z</time>
      </trkpt>
      <trkpt lat="47.71707" lon="7.39651">
        <ele>246.51535</ele>
        <time>2012-01-29T07:49:51Z</time>
      </trkpt>
      <trkpt lat="47.71707" lon="7.39651">
        <ele>246.51535</ele>
        <time>2012-01-29T07:49:52Z</time>
      </trkpt>
      <trkpt lat="47.71707" lon="7.39651">
        <ele>246.51535</ele>
        <time>2012-01-29T07:49:53Z</time>
      </trkpt>
      <trkpt lat="47.71707" lon="7.39651">
        <ele>246.51535</ele>
        <time>2012-01-29T07:49:54Z</time>
      </trkpt>
      <trkpt lat="47.71707" lon="7.39651">
        <ele>246.51535</ele>
        <time>2012-01-29T07:49:55Z</time>
      </trkpt>
      <trkpt lat="47.71707" lon="7.39651">
        <ele>246.51535</ele>
        <time>2012-01-29T07:49:56Z</time>
      </trkpt>
      <trkpt lat="47.71707" lon="7.39651">
        <ele>246.51535</ele>
        <time>2012-01-29T07:49:57Z</time>
      </trkpt>
      <trkpt lat="47.71707" lon="7.39651">
        <ele>246.51535</ele>
        <time>2012-01-29T07:49:58Z</time>
      </trkpt>
      <trkpt lat="47.71707" lon="7.39651">
        <ele>246.51535</ele>
        <time>2012-01-29T07:49:59Z</time>
      </trkpt>
      <trkpt lat="47.71707" lon="7.39651">
        <ele>246.51535</ele>
        <time>2012-01-29T07:50:00Z</time>
      </trkpt>
      <trkpt lat="47.71707" lon="7.39651">
        <ele>246.51535</ele>
        <time>2012-01-29T07:50:01Z</time>
      </trkpt>
      <trkpt lat="47.71707" lon="7.39651">
        <ele>246.51535</ele>
        <time>2012-01-29T07:50:02Z</time>
      </trkpt>
      <trkpt lat="47.71707" lon="7.39651">
        <ele>246.51535</ele>
        <time>2012-01-29T07:50:03Z</time>
      </trkpt>
      <trkpt lat="47.71707" lon="7.39651">
        <ele>246.51535</ele>
        <time>2012-01-29T07:50:04Z</time>
      </trkpt>
      <trkpt lat="47.71707" lon="7.39651">
        <ele>246.51535</ele>
        <time>2012-01-29T07:50:05Z</time>
      </trkpt>
      <trkpt lat="47.71707" lon="7.39651">
        <ele>246.51535</ele>
        <time>2012-01-29T07:50:06Z</time>
      </trkpt>
      <trkpt lat="47.71707" lon="7.39651">
        <ele>246.51535</ele>
        <time>2012-01-29T07:50:07Z</time>
      </trkpt>
      <trkpt lat="47.71707" lon="7.39651">
        <ele>246.51535</ele>
        <time>2012-01-29T07:50:08Z</time>
      </trkpt>
      <trkpt lat="47.71707" lon="7.39651">
        <ele>246.51535</ele>
        <time>2012-01-29T07:50:09Z</time>
      </trkpt>
      <trkpt lat="47.71707" lon="7.39651">
        <ele>246.51535</ele>
        <time>2012-01-29T07:50:10Z</time>
      </trkpt>
      <trkpt lat="47.71707" lon="7.39651">
        <ele>246.51535</ele>
        <time>2012-01-29T07:50:11Z</time>
      </trkpt>
      <trkpt lat="47.71707" lon="7.39651">
        <ele>246.51535</ele>
        <time>2012-01-29T07:50:12Z</time>
      </trkpt>
      <trkpt lat="47.71707" lon="7.39651">
        <ele>246.51535</ele>
        <time>2012-01-29T07:50:13Z</time>
      </trkpt>
      <trkpt lat="47.71707" lon="7.39651">
        <ele>246.51535</ele>
        <time>2012-01-29T07:50:14Z</time>
      </trkpt>
      <trkpt lat="47.71707" lon="7.39651">
        <ele>246.51535</ele>
        <time>2012-01-29T07:50:15Z</time>
      </trkpt>
      <trkpt lat="47.71707" lon="7.39651">
        <ele>246.51535</ele>
        <time>2012-01-29T07:50:16Z</time>
      </trkpt>
      <trkpt lat="47.71707" lon="7.39651">
        <ele>246.51535</ele>
        <time>2012-01-29T07:50:17Z</time>
      </trkpt>
      <trkpt lat="47.71707" lon="7.39651">
        <ele>246.51535</ele>
        <time>2012-01-29T07:50:18Z</time>
      </trkpt>
      <trkpt lat="47.71707" lon="7.39651">
        <ele>246.51535</ele>
        <time>2012-01-29T07:50:19Z</time>
      </trkpt>
      <trkpt lat="47.71707" lon="7.39651">
        <ele>246.51535</ele>
        <time>2012-01-29T07:50:20Z</time>
      </trkpt>
      <trkpt lat="47.71707" lon="7.39651">
        <ele>246.51535</ele>
        <time>2012-01-29T07:50:21Z</time>
      </trkpt>
      <trkpt lat="47.71707" lon="7.39651">
        <ele>246.51535</ele>
        <time>2012-01-29T07:50:22Z</time>
      </trkpt>
      <trkpt lat="47.71707" lon="7.39651">
        <ele>246.51535</ele>
        <time>2012-01-29T07:50:23Z</time>
      </trkpt>
      <trkpt lat="47.71707" lon="7.39651">
        <ele>246.51535</ele>
        <time>2012-01-29T07:50:24Z</time>
      </trkpt>
      <trkpt lat="47.71707" lon="7.39651">
        <ele>246.51535</ele>
        <time>2012-01-29T07:50:25Z</time>
      </trkpt>
      <trkpt lat="47.71707" lon="7.39651">
        <ele>246.51535</ele>
        <time>2012-01-29T07:50:26Z</time>
      </trkpt>
      <trkpt lat="47.71707" lon="7.39651">
        <ele>246.51535</ele>
        <time>2012-01-29T07:50:27Z</time>
      </trkpt>
      <trkpt lat="47.71707" lon="7.39651">
        <ele>246.51535</ele>
        <time>2012-01-29T07:50:28Z</time>
      </trkpt>
      <trkpt lat="47.71707" lon="7.39651">
        <ele>246.51535</ele>
        <time>2012-01-29T07:50:29Z</time>
      </trkpt>
      <trkpt lat="47.71707" lon="7.39651">
        <ele>246.51535</ele>
        <time>2012-01-29T07:50:30Z</time>
      </trkpt>
      <trkpt lat="47.71707" lon="7.39651">
        <ele>246.51535</ele>
        <time>2012-01-29T07:50:31Z</time>
      </trkpt>
      <trkpt lat="47.71707" lon="7.39651">
        <ele>246.51535</ele>
        <time>2012-01-29T07:50:32Z</time>
      </trkpt>
      <trkpt lat="47.71707" lon="7.39651">
        <ele>246.51535</ele>
        <time>2012-01-29T07:50:33Z</time>
      </trkpt>
      <trkpt lat="47.71707" lon="7.39651">
        <ele>246.51535</ele>
        <time>2012-01-29T07:50:34Z</time>
      </trkpt>
      <trkpt lat="47.71707" lon="7.39651">
        <ele>246.51535</ele>
        <time>2012-01-29T07:50:35Z</time>
      </trkpt>
      <trkpt lat="47.71707" lon="7.39651">
        <ele>246.51535</ele>
        <time>2012-01-29T07:50:36Z</time>
      </trkpt>
      <trkpt lat="47.71707" lon="7.39651">
        <ele>246.51535</ele>
        <time>2012-01-29T07:50:37Z</time>
      </trkpt>
      <trkpt lat="47.71707" lon="7.39651">
        <ele>246.51535</ele>
        <time>2012-01-29T07:50:38Z</time>
      </trkpt>
      <trkpt lat="47.71707" lon="7.39651">
        <ele>246.51535</ele>
        <time>2012-01-29T07:50:39Z</time>
      </trkpt>
      <trkpt lat="47.71707" lon="7.39651">
        <ele>246.51535</ele>
        <time>2012-01-29T07:50:40Z</time>
      </trkpt>
      <trkpt lat="47.71707" lon="7.39651">
        <ele>246.51535</ele>
        <time>2012-01-29T07:50:41Z</time>
      </trkpt>
      <trkpt lat="47.71707" lon="7.39651">
        <ele>246.51535</ele>
        <time>2012-01-29T07:50:42Z</time>
      </trkpt>
      <trkpt lat="47.71707" lon="7.39651">
        <ele>246.51535</ele>
        <time>2012-01-29T07:50:43Z</time>
      </trkpt>
      <trkpt lat="47.71707" lon="7.39651">
        <ele>246.51535</ele>
        <time>2012-01-29T07:50:44Z</time>
      </trkpt>
      <trkpt lat="47.71707" lon="7.39651">
        <ele>246.51535</ele>
        <time>2012-01-29T07:50:45Z</time>
      </trkpt>
      <trkpt lat="47.71707" lon="7.39651">
        <ele>246.51535</ele>
        <time>2012-01-29T07:50:46Z</time>
      </trkpt>
      <trkpt lat="47.71707" lon="7.39651">
        <ele>246.51535</ele>
        <time>2012-01-29T07:50:47Z</time>
      </trkpt>
      <trkpt lat="47.71707" lon="7.39651">
        <ele>246.51535</ele>
        <time>2012-01-29T07:50:48Z</time>
      </trkpt>
      <trkpt lat="47.71707" lon="7.39651">
        <ele>246.51535</ele>
        <time>2012-01-29T07:50:49Z</time>
      </trkpt>
      <trkpt lat="47.71707" lon="7.39651">
        <ele>246.51535</ele>
        <time>2012-01-29T07:50:50Z</time>
      </trkpt>
      <trkpt lat="47.71707" lon="7.39651">
        <ele>246.51535</ele>
        <time>2012-01-29T07:50:51Z</time>
      </trkpt>
      <trkpt lat="47.71707" lon="7.39651">
        <ele>246.51535</ele>
        <time>2012-01-29T07:50:52Z</time>
      </trkpt>
      <trkpt lat="47.71707" lon="7.39651">
        <ele>246.51535</ele>
        <time>2012-01-29T07:50:53Z</time>
      </trkpt>
      <trkpt lat="47.71707" lon="7.39651">
        <ele>246.51535</ele>
        <time>2012-01-29T07:50:54Z</time>
      </trkpt>
      <trkpt lat="47.71707" lon="7.39651">
        <ele>246.51535</ele>
        <time>2012-01-29T07:50:55Z</time>
      </trkpt>
      <trkpt lat="47.71707" lon="7.39651">
        <ele>246.51535</ele>
        <time>2012-01-29T07:50:56Z</time>
      </trkpt>
      <trkpt lat="47.71707" lon="7.39651">
        <ele>246.51535</ele>
        <time>2012-01-29T07:50:57Z</time>
      </trkpt>
      <trkpt lat="47.71707" lon="7.39651">
        <ele>246.51535</ele>
        <time>2012-01-29T07:50:58Z</time>
      </trkpt>
      <trkpt lat="47.71707" lon="7.39651">
        <ele>246.51535</ele>
        <time>2012-01-29T07:50:59Z</time>
      </trkpt>
      <trkpt lat="47.71707" lon="7.39651">
        <ele>246.51535</ele>
        <time>2012-01-29T07:51:00Z</time>
      </trkpt>
      <trkpt lat="47.71707" lon="7.39651">
        <ele>246.51535</ele>
        <time>2012-01-29T07:51:01Z</time>
      </trkpt>
      <trkpt lat="47.71707" lon="7.39651">
        <ele>246.51535</ele>
        <time>2012-01-29T07:51:02Z</time>
      </trkpt>
      <trkpt lat="47.71707" lon="7.39651">
        <ele>246.51535</ele>
        <time>2012-01-29T07:51:03Z</time>
      </trkpt>
      <trkpt lat="47.71707" lon="7.39651">
        <ele>246.51535</ele>
        <time>2012-01-29T07:51:04Z</time>
      </trkpt>
      <trkpt lat="47.71707" lon="7.39651">
        <ele>246.51535</ele>
        <time>2012-01-29T07:51:05Z</time>
      </trkpt>
      <trkpt lat="47.71707" lon="7.39651">
        <ele>246.51535</ele>
        <time>2012-01-29T07:51:06Z</time>
      </trkpt>
      <trkpt lat="47.71707" lon="7.39651">
        <ele>246.51535</ele>
        <time>2012-01-29T07:51:07Z</time>
      </trkpt>
      <trkpt lat="47.71707" lon="7.39651">
        <ele>246.51535</ele>
        <time>2012-01-29T07:51:08Z</time>
      </trkpt>
      <trkpt lat="47.71707" lon="7.39651">
        <ele>246.51535</ele>
        <time>2012-01-29T07:51:09Z</time>
      </trkpt>
      <trkpt lat="47.71707" lon="7.39651">
        <ele>246.51535</ele>
        <time>2012-01-29T07:51:10Z</time>
      </trkpt>
      <trkpt lat="47.71707" lon="7.39651">
        <ele>246.51535</ele>
        <time>2012-01-29T07:51:11Z</time>
      </trkpt>
      <trkpt lat="47.71707" lon="7.39651">
        <ele>246.51535</ele>
        <time>2012-01-29T07:51:12Z</time>
      </trkpt>
      <trkpt lat="47.71707" lon="7.39651">
        <ele>246.51535</ele>
        <time>2012-01-29T07:51:13Z</time>
      </trkpt>
      <trkpt lat="47.71707" lon="7.39651">
        <ele>246.51535</ele>
        <time>2012-01-29T07:51:14Z</time>
      </trkpt>
      <trkpt lat="47.71707" lon="7.39651">
        <ele>246.51535</ele>
        <time>2012-01-29T07:51:15Z</time>
      </trkpt>
      <trkpt lat="47.71707" lon="7.39651">
        <ele>246.51535</ele>
        <time>2012-01-29T07:51:16Z</time>
      </trkpt>
      <trkpt lat="47.71707" lon="7.39651">
        <ele>246.51535</ele>
        <time>2012-01-29T07:51:17Z</time>
      </trkpt>
      <trkpt lat="47.71707" lon="7.39651">
        <ele>246.51535</ele>
        <time>2012-01-29T07:51:18Z</time>
      </trkpt>
      <trkpt lat="47.71707" lon="7.39651">
        <ele>246.51535</ele>
        <time>2012-01-29T07:51:19Z</time>
      </trkpt>
      <trkpt lat="47.71707" lon="7.39651">
        <ele>246.51535</ele>
        <time>2012-01-29T07:51:20Z</time>
      </trkpt>
      <trkpt lat="47.71707" lon="7.39651">
        <ele>246.51535</ele>
        <time>2012-01-29T07:51:21Z</time>
      </trkpt>
      <trkpt lat="47.71707" lon="7.39651">
        <ele>246.51535</ele>
        <time>2012-01-29T07:51:22Z</time>
      </trkpt>
      <trkpt lat="47.71707" lon="7.39651">
        <ele>246.51535</ele>
        <time>2012-01-29T07:51:23Z</time>
      </trkpt>
      <trkpt lat="47.71707" lon="7.39651">
        <ele>246.51535</ele>
        <time>2012-01-29T07:51:24Z</time>
      </trkpt>
      <trkpt lat="47.71707" lon="7.39651">
        <ele>246.51535</ele>
        <time>2012-01-29T07:51:25Z</time>
      </trkpt>
      <trkpt lat="47.71707" lon="7.39651">
        <ele>246.51535</ele>
        <time>2012-01-29T07:51:26Z</time>
      </trkpt>
      <trkpt lat="47.71707" lon="7.39651">
        <ele>246.51535</ele>
        <time>2012-01-29T07:51:27Z</time>
      </trkpt>
      <trkpt lat="47.71707" lon="7.39651">
        <ele>246.51535</ele>
        <time>2012-01-29T07:51:28Z</time>
      </trkpt>
      <trkpt lat="47.71707" lon="7.39651">
        <ele>246.51535</ele>
        <time>2012-01-29T07:51:29Z</time>
      </trkpt>
      <trkpt lat="47.71707" lon="7.39651">
        <ele>246.51535</ele>
        <time>2012-01-29T07:51:30Z</time>
      </trkpt>
      <trkpt lat="47.71707" lon="7.39651">
        <ele>246.51535</ele>
        <time>2012-01-29T07:51:31Z</time>
      </trkpt>
      <trkpt lat="47.71707" lon="7.39651">
        <ele>246.51535</ele>
        <time>2012-01-29T07:51:32Z</time>
      </trkpt>
      <trkpt lat="47.71707" lon="7.39651">
        <ele>246.51535</ele>
        <time>2012-01-29T07:51:33Z</time>
      </trkpt>
      <trkpt lat="47.71707" lon="7.39651">
        <ele>246.51535</ele>
        <time>2012-01-29T07:51:34Z</time>
      </trkpt>
      <trkpt lat="47.71707" lon="7.39651">
        <ele>246.51535</ele>
        <time>2012-01-29T07:51:35Z</time>
      </trkpt>
      <trkpt lat="47.71707" lon="7.39651">
        <ele>246.51535</ele>
        <time>2012-01-29T07:51:36Z</time>
      </trkpt>
      <trkpt lat="47.71707" lon="7.39651">
        <ele>246.51535</ele>
        <time>2012-01-29T07:51:37Z</time>
      </trkpt>
      <trkpt lat="47.71707" lon="7.39651">
        <ele>246.51535</ele>
        <time>2012-01-29T07:51:38Z</time>
      </trkpt>
      <trkpt lat="47.71707" lon="7.39651">
        <ele>246.51535</ele>
        <time>2012-01-29T07:51:39Z</time>
      </trkpt>
      <trkpt lat="47.71707" lon="7.39651">
        <ele>246.51535</ele>
        <time>2012-01-29T07:51:40Z</time>
      </trkpt>
      <trkpt lat="47.71707" lon="7.39651">
        <ele>246.51535</ele>
        <time>2012-01-29T07:51:41Z</time>
      </trkpt>
      <trkpt lat="47.71707" lon="7.39651">
        <ele>246.51535</ele>
        <time>2012-01-29T07:51:42Z</time>
      </trkpt>
      <trkpt lat="47.71707" lon="7.39651">
        <ele>246.51535</ele>
        <time>2012-01-29T07:51:43Z</time>
      </trkpt>
      <trkpt lat="47.71707" lon="7.39651">
        <ele>246.51535</ele>
        <time>2012-01-29T07:51:44Z</time>
      </trkpt>
      <trkpt lat="47.71707" lon="7.39651">
        <ele>246.51535</ele>
        <time>2012-01-29T07:51:45Z</time>
      </trkpt>
      <trkpt lat="47.71707" lon="7.39651">
        <ele>246.51535</ele>
        <time>2012-01-29T07:51:46Z</time>
      </trkpt>
      <trkpt lat="47.71707" lon="7.39651">
        <ele>246.51535</ele>
        <time>2012-01-29T07:51:47Z</time>
      </trkpt>
      <trkpt lat="47.71707" lon="7.39651">
        <ele>246.51535</ele>
        <time>2012-01-29T07:51:48Z</time>
      </trkpt>
      <trkpt lat="47.71707" lon="7.39653">
        <ele>249.022278</ele>
        <time>2012-01-29T07:51:49Z</time>
      </trkpt>
      <trkpt lat="47.71705" lon="7.39654">
        <ele>249.666748</ele>
        <time>2012-01-29T07:51:50Z</time>
      </trkpt>
      <trkpt lat="47.71703" lon="7.39655">
        <ele>250.836395</ele>
        <time>2012-01-29T07:51:51Z</time>
      </trkpt>
      <trkpt lat="47.71701" lon="7.39657">
        <ele>251.381226</ele>
        <time>2012-01-29T07:51:52Z</time>
      </trkpt>
      <trkpt lat="47.71698" lon="7.39659">
        <ele>252.569336</ele>
        <time>2012-01-29T07:51:53Z</time>
      </trkpt>
      <trkpt lat="47.71695" lon="7.39662">
        <ele>252.641357</ele>
        <time>2012-01-29T07:51:54Z</time>
      </trkpt>
      <trkpt lat="47.71691" lon="7.39665">
        <ele>253.178864</ele>
        <time>2012-01-29T07:51:55Z</time>
      </trkpt>
      <trkpt lat="47.71686" lon="7.39668">
        <ele>252.204865</ele>
        <time>2012-01-29T07:51:56Z</time>
      </trkpt>
      <trkpt lat="47.71682" lon="7.39672">
        <ele>250.590057</ele>
        <time>2012-01-29T07:51:57Z</time>
      </trkpt>
      <trkpt lat="47.71678" lon="7.39676">
        <ele>252.073151</ele>
        <time>2012-01-29T07:51:58Z</time>
      </trkpt>
      <trkpt lat="47.71674" lon="7.3968">
        <ele>255.523468</ele>
        <time>2012-01-29T07:51:59Z</time>
      </trkpt>
      <trkpt lat="47.71669" lon="7.39685">
        <ele>255.294159</ele>
        <time>2012-01-29T07:52:00Z</time>
      </trkpt>
      <trkpt lat="47.71664" lon="7.39691">
        <ele>254.877411</ele>
        <time>2012-01-29T07:52:01Z</time>
      </trkpt>
      <trkpt lat="47.71658" lon="7.39696">
        <ele>253.998749</ele>
        <time>2012-01-29T07:52:02Z</time>
      </trkpt>
      <trkpt lat="47.71652" lon="7.39702">
        <ele>253.33075</ele>
        <time>2012-01-29T07:52:03Z</time>
      </trkpt>
      <trkpt lat="47.71647" lon="7.39705">
        <ele>253.922668</ele>
        <time>2012-01-29T07:52:04Z</time>
      </trkpt>
      <trkpt lat="47.71642" lon="7.39709">
        <ele>254.591064</ele>
        <time>2012-01-29T07:52:05Z</time>
      </trkpt>
      <trkpt lat="47.71636" lon="7.39713">
        <ele>256.509583</ele>
        <time>2012-01-29T07:52:06Z</time>
      </trkpt>
      <trkpt lat="47.71629" lon="7.39717">
        <ele>257.23761</ele>
        <time>2012-01-29T07:52:07Z</time>
      </trkpt>
      <trkpt lat="47.71622" lon="7.39721">
        <ele>255.725952</ele>
        <time>2012-01-29T07:52:08Z</time>
      </trkpt>
      <trkpt lat="47.71614" lon="7.39724">
        <ele>255.006989</ele>
        <time>2012-01-29T07:52:09Z</time>
      </trkpt>
      <trkpt lat="47.71607" lon="7.39728">
        <ele>256.889069</ele>
        <time>2012-01-29T07:52:10Z</time>
      </trkpt>
      <trkpt lat="47.716" lon="7.39731">
        <ele>257.623108</ele>
        <time>2012-01-29T07:52:11Z</time>
      </trkpt>
      <trkpt lat="47.71593" lon="7.39736">
        <ele>260.185364</ele>
        <time>2012-01-29T07:52:12Z</time>
      </trkpt>
      <trkpt lat="47.71588" lon="7.39743">
        <ele>258.385956</ele>
        <time>2012-01-29T07:52:13Z</time>
      </trkpt>
      <trkpt lat="47.71585" lon="7.39752">
        <ele>257.399323</ele>
        <time>2012-01-29T07:52:14Z</time>
      </trkpt>
      <trkpt lat="47.71582" lon="7.39761">
        <ele>256.677582</ele>
        <time>2012-01-29T07:52:15Z</time>
      </trkpt>
      <trkpt lat="47.71581" lon="7.39771">
        <ele>255.131683</ele>
        <time>2012-01-29T07:52:16Z</time>
      </trkpt>
      <trkpt lat="47.71581" lon="7.39781">
        <ele>254.502319</ele>
        <time>2012-01-29T07:52:17Z</time>
      </trkpt>
      <trkpt lat="47.71583" lon="7.39791">
        <ele>253.519196</ele>
        <time>2012-01-29T07:52:18Z</time>
      </trkpt>
      <trkpt lat="47.71586" lon="7.398">
        <ele>253.930206</ele>
        <time>2012-01-29T07:52:19Z</time>
      </trkpt>
      <trkpt lat="47.71588" lon="7.39808">
        <ele>254.68222</ele>
        <time>2012-01-29T07:52:20Z</time>
      </trkpt>
      <trkpt lat="47.71591" lon="7.39817">
        <ele>254.423615</ele>
        <time>2012-01-29T07:52:21Z</time>
      </trkpt>
      <trkpt lat="47.71594" lon="7.39826">
        <ele>254.315155</ele>
        <time>2012-01-29T07:52:22Z</time>
      </trkpt>
      <trkpt lat="47.71597" lon="7.39835">
        <ele>253.734375</ele>
        <time>2012-01-29T07:52:23Z</time>
      </trkpt>
      <trkpt lat="47.71599" lon="7.39844">
        <ele>252.612335</ele>
        <time>2012-01-29T07:52:24Z</time>
      </trkpt>
      <trkpt lat="47.71601" lon="7.39854">
        <ele>252.282654</ele>
        <time>2012-01-29T07:52:25Z</time>
      </trkpt>
      <trkpt lat="47.71602" lon="7.39863">
        <ele>251.752411</ele>
        <time>2012-01-29T07:52:26Z</time>
      </trkpt>
      <trkpt lat="47.71602" lon="7.39874">
        <ele>250.001282</ele>
        <time>2012-01-29T07:52:27Z</time>
      </trkpt>
      <trkpt lat="47.71602" lon="7.39884">
        <ele>246.4953</ele>
        <time>2012-01-29T07:52:28Z</time>
      </trkpt>
      <trkpt lat="47.71601" lon="7.39894">
        <ele>245.206757</ele>
        <time>2012-01-29T07:52:29Z</time>
      </trkpt>
      <trkpt lat="47.716" lon="7.39902">
        <ele>249.485016</ele>
        <time>2012-01-29T07:52:30Z</time>
      </trkpt>
      <trkpt lat="47.71599" lon="7.39912">
        <ele>252.258728</ele>
        <time>2012-01-29T07:52:31Z</time>
      </trkpt>
      <trkpt lat="47.71598" lon="7.39921">
        <ele>252.482513</ele>
        <time>2012-01-29T07:52:32Z</time>
      </trkpt>
      <trkpt lat="47.71598" lon="7.39931">
        <ele>249.985992</ele>
        <time>2012-01-29T07:52:33Z</time>
      </trkpt>
      <trkpt lat="47.71597" lon="7.3994">
        <ele>248.981537</ele>
        <time>2012-01-29T07:52:34Z</time>
      </trkpt>
      <trkpt lat="47.71597" lon="7.39949">
        <ele>251.656128</ele>
        <time>2012-01-29T07:52:35Z</time>
      </trkpt>
      <trkpt lat="47.71596" lon="7.39958">
        <ele>246.668335</ele>
        <time>2012-01-29T07:52:36Z</time>
      </trkpt>
      <trkpt lat="47.71595" lon="7.39967">
        <ele>246.619904</ele>
        <time>2012-01-29T07:52:37Z</time>
      </trkpt>
      <trkpt lat="47.71595" lon="7.39976">
        <ele>249.005371</ele>
        <time>2012-01-29T07:52:38Z</time>
      </trkpt>
      <trkpt lat="47.71595" lon="7.39987">
        <ele>246.956421</ele>
        <time>2012-01-29T07:52:39Z</time>
      </trkpt>
      <trkpt lat="47.71595" lon="7.39998">
        <ele>243.783234</ele>
        <time>2012-01-29T07:52:40Z</time>
      </trkpt>
      <trkpt lat="47.71595" lon="7.40007">
        <ele>245.317261</ele>
        <time>2012-01-29T07:52:41Z</time>
      </trkpt>
      <trkpt lat="47.71595" lon="7.40018">
        <ele>242.116547</ele>
        <time>2012-01-29T07:52:42Z</time>
      </trkpt>
      <trkpt lat="47.71594" lon="7.4003">
        <ele>242.156647</ele>
        <time>2012-01-29T07:52:43Z</time>
      </trkpt>
      <trkpt lat="47.71594" lon="7.4004">
        <ele>245.639954</ele>
        <time>2012-01-29T07:52:44Z</time>
      </trkpt>
      <trkpt lat="47.71594" lon="7.40048">
        <ele>242.947021</ele>
        <time>2012-01-29T07:52:45Z</time>
      </trkpt>
      <trkpt lat="47.71593" lon="7.40058">
        <ele>241.948517</ele>
        <time>2012-01-29T07:52:46Z</time>
      </trkpt>
      <trkpt lat="47.71592" lon="7.40069">
        <ele>246.55484</ele>
        <time>2012-01-29T07:52:47Z</time>
      </trkpt>
      <trkpt lat="47.71591" lon="7.40079">
        <ele>248.376526</ele>
        <time>2012-01-29T07:52:48Z</time>
      </trkpt>
      <trkpt lat="47.7159" lon="7.40089">
        <ele>246.94931</ele>
        <time>2012-01-29T07:52:49Z</time>
      </trkpt>
      <trkpt lat="47.71589" lon="7.40099">
        <ele>247.335358</ele>
        <time>2012-01-29T07:52:50Z</time>
      </trkpt>
      <trkpt lat="47.71587" lon="7.4011">
        <ele>244.022552</ele>
        <time>2012-01-29T07:52:51Z</time>
      </trkpt>
      <trkpt lat="47.71586" lon="7.40121">
        <ele>247.777313</ele>
        <time>2012-01-29T07:52:52Z</time>
      </trkpt>
      <trkpt lat="47.71585" lon="7.40132">
        <ele>247.458618</ele>
        <time>2012-01-29T07:52:53Z</time>
      </trkpt>
      <trkpt lat="47.71584" lon="7.40143">
        <ele>248.113373</ele>
        <time>2012-01-29T07:52:54Z</time>
      </trkpt>
      <trkpt lat="47.71583" lon="7.40155">
        <ele>246.958527</ele>
        <time>2012-01-29T07:52:55Z</time>
      </trkpt>
      <trkpt lat="47.71581" lon="7.40167">
        <ele>248.467682</ele>
        <time>2012-01-29T07:52:56Z</time>
      </trkpt>
      <trkpt lat="47.7158" lon="7.40177">
        <ele>247.526245</ele>
        <time>2012-01-29T07:52:57Z</time>
      </trkpt>
      <trkpt lat="47.71579" lon="7.40189">
        <ele>248.336823</ele>
        <time>2012-01-29T07:52:58Z</time>
      </trkpt>
      <trkpt lat="47.71578" lon="7.40198">
        <ele>248.613739</ele>
        <time>2012-01-29T07:52:59Z</time>
      </trkpt>
      <trkpt lat="47.71577" lon="7.40209">
        <ele>246.797211</ele>
        <time>2012-01-29T07:53:00Z</time>
      </trkpt>
      <trkpt lat="47.71575" lon="7.40221">
        <ele>249.744171</ele>
        <time>2012-01-29T07:53:01Z</time>
      </trkpt>
      <trkpt lat="47.71574" lon="7.40232">
        <ele>250.517914</ele>
        <time>2012-01-29T07:53:02Z</time>
      </trkpt>
      <trkpt lat="47.71571" lon="7.40244">
        <ele>252.805328</ele>
        <time>2012-01-29T07:53:03Z</time>
      </trkpt>
      <trkpt lat="47.71568" lon="7.40255">
        <ele>251.38443</ele>
        <time>2012-01-29T07:53:04Z</time>
      </trkpt>
      <trkpt lat="47.71565" lon="7.40267">
        <ele>249.165375</ele>
        <time>2012-01-29T07:53:05Z</time>
      </trkpt>
      <trkpt lat="47.71561" lon="7.40278">
        <ele>249.110748</ele>
        <time>2012-01-29T07:53:06Z</time>
      </trkpt>
      <trkpt lat="47.71558" lon="7.40287">
        <ele>249.634033</ele>
        <time>2012-01-29T07:53:07Z</time>
      </trkpt>
      <trkpt lat="47.71553" lon="7.40295">
        <ele>248.381561</ele>
        <time>2012-01-29T07:53:08Z</time>
      </trkpt>
      <trkpt lat="47.71548" lon="7.40304">
        <ele>249.803284</ele>
        <time>2012-01-29T07:53:09Z</time>
      </trkpt>
      <trkpt lat="47.71542" lon="7.40313">
        <ele>247.053528</ele>
        <time>2012-01-29T07:53:10Z</time>
      </trkpt>
      <trkpt lat="47.71537" lon="7.40321">
        <ele>249.538574</ele>
        <time>2012-01-29T07:53:11Z</time>
      </trkpt>
      <trkpt lat="47.71532" lon="7.4033">
        <ele>249.538574</ele>
        <time>2012-01-29T07:53:12Z</time>
      </trkpt>
      <trkpt lat="47.71526" lon="7.40336">
        <ele>247.253845</ele>
        <time>2012-01-29T07:53:13Z</time>
      </trkpt>
      <trkpt lat="47.7152" lon="7.40345">
        <ele>247.318481</ele>
        <time>2012-01-29T07:53:14Z</time>
      </trkpt>
      <trkpt lat="47.71514" lon="7.40354">
        <ele>246.146454</ele>
        <time>2012-01-29T07:53:15Z</time>
      </trkpt>
      <trkpt lat="47.71509" lon="7.40362">
        <ele>246.288147</ele>
        <time>2012-01-29T07:53:16Z</time>
      </trkpt>
      <trkpt lat="47.71504" lon="7.40369">
        <ele>246.276703</ele>
        <time>2012-01-29T07:53:17Z</time>
      </trkpt>
      <trkpt lat="47.71498" lon="7.40377">
        <ele>246.731903</ele>
        <time>2012-01-29T07:53:18Z</time>
      </trkpt>
      <trkpt lat="47.71493" lon="7.40384">
        <ele>247.078186</ele>
        <time>2012-01-29T07:53:19Z</time>
      </trkpt>
      <trkpt lat="47.71487" lon="7.40391">
        <ele>247.703094</ele>
        <time>2012-01-29T07:53:20Z</time>
      </trkpt>
      <trkpt lat="47.71481" lon="7.40397">
        <ele>247.534637</ele>
        <time>2012-01-29T07:53:21Z</time>
      </trkpt>
      <trkpt lat="47.71475" lon="7.40403">
        <ele>248.809113</ele>
        <time>2012-01-29T07:53:22Z</time>
      </trkpt>
      <trkpt lat="47.71468" lon="7.40408">
        <ele>248.569122</ele>
        <time>2012-01-29T07:53:23Z</time>
      </trkpt>
      <trkpt lat="47.71461" lon="7.40414">
        <ele>247.55426</ele>
        <time>2012-01-29T07:53:24Z</time>
      </trkpt>
      <trkpt lat="47.71456" lon="7.40419">
        <ele>246.948181</ele>
        <time>2012-01-29T07:53:25Z</time>
      </trkpt>
      <trkpt lat="47.7145" lon="7.40425">
        <ele>247.42395</ele>
        <time>2012-01-29T07:53:26Z</time>
      </trkpt>
      <trkpt lat="47.71444" lon="7.40431">
        <ele>247.938599</ele>
        <time>2012-01-29T07:53:27Z</time>
      </trkpt>
      <trkpt lat="47.71438" lon="7.40438">
        <ele>248.559113</ele>
        <time>2012-01-29T07:53:28Z</time>
      </trkpt>
      <trkpt lat="47.71433" lon="7.40443">
        <ele>248.534882</ele>
        <time>2012-01-29T07:53:29Z</time>
      </trkpt>
      <trkpt lat="47.71428" lon="7.40448">
        <ele>248.263672</ele>
        <time>2012-01-29T07:53:30Z</time>
      </trkpt>
      <trkpt lat="47.71424" lon="7.40455">
        <ele>248.709167</ele>
        <time>2012-01-29T07:53:31Z</time>
      </trkpt>
      <trkpt lat="47.71422" lon="7.40463">
        <ele>249.033447</ele>
        <time>2012-01-29T07:53:32Z</time>
      </trkpt>
      <trkpt lat="47.71422" lon="7.4047">
        <ele>248.539581</ele>
        <time>2012-01-29T07:53:33Z</time>
      </trkpt>
      <trkpt lat="47.71424" lon="7.40477">
        <ele>247.056793</ele>
        <time>2012-01-29T07:53:34Z</time>
      </trkpt>
      <trkpt lat="47.71427" lon="7.40485">
        <ele>246.905396</ele>
        <time>2012-01-29T07:53:35Z</time>
      </trkpt>
      <trkpt lat="47.7143" lon="7.40492">
        <ele>246.317627</ele>
        <time>2012-01-29T07:53:36Z</time>
      </trkpt>
      <trkpt lat="47.71433" lon="7.40499">
        <ele>245.557587</ele>
        <time>2012-01-29T07:53:37Z</time>
      </trkpt>
      <trkpt lat="47.71437" lon="7.40507">
        <ele>245.26889</ele>
        <time>2012-01-29T07:53:38Z</time>
      </trkpt>
      <trkpt lat="47.71441" lon="7.40514">
        <ele>244.774109</ele>
        <time>2012-01-29T07:53:39Z</time>
      </trkpt>
      <trkpt lat="47.71445" lon="7.40522">
        <ele>244.790405</ele>
        <time>2012-01-29T07:53:40Z</time>
      </trkpt>
      <trkpt lat="47.71449" lon="7.40529">
        <ele>244.040894</ele>
        <time>2012-01-29T07:53:41Z</time>
      </trkpt>
      <trkpt lat="47.71454" lon="7.40537">
        <ele>245.343018</ele>
        <time>2012-01-29T07:53:42Z</time>
      </trkpt>
      <trkpt lat="47.71459" lon="7.40543">
        <ele>245.93512</ele>
        <time>2012-01-29T07:53:43Z</time>
      </trkpt>
      <trkpt lat="47.71465" lon="7.40551">
        <ele>246.09845</ele>
        <time>2012-01-29T07:53:44Z</time>
      </trkpt>
      <trkpt lat="47.7147" lon="7.40558">
        <ele>245.487915</ele>
        <time>2012-01-29T07:53:45Z</time>
      </trkpt>
      <trkpt lat="47.71475" lon="7.40563">
        <ele>242.882416</ele>
        <time>2012-01-29T07:53:46Z</time>
      </trkpt>
      <trkpt lat="47.7148" lon="7.40569">
        <ele>240.137329</ele>
        <time>2012-01-29T07:53:47Z</time>
      </trkpt>
      <trkpt lat="47.71485" lon="7.40575">
        <ele>238.111328</ele>
        <time>2012-01-29T07:53:48Z</time>
      </trkpt>
      <trkpt lat="47.71489" lon="7.40581">
        <ele>243.042969</ele>
        <time>2012-01-29T07:53:49Z</time>
      </trkpt>
      <trkpt lat="47.71494" lon="7.40587">
        <ele>242.610626</ele>
        <time>2012-01-29T07:53:50Z</time>
      </trkpt>
      <trkpt lat="47.715" lon="7.40593">
        <ele>243.850891</ele>
        <time>2012-01-29T07:53:51Z</time>
      </trkpt>
      <trkpt lat="47.71504" lon="7.40598">
        <ele>244.371613</ele>
        <time>2012-01-29T07:53:52Z</time>
      </trkpt>
      <trkpt lat="47.71508" lon="7.40603">
        <ele>244.390808</ele>
        <time>2012-01-29T07:53:53Z</time>
      </trkpt>
      <trkpt lat="47.71513" lon="7.40609">
        <ele>241.5271</ele>
        <time>2012-01-29T07:53:54Z</time>
      </trkpt>
      <trkpt lat="47.71518" lon="7.40615">
        <ele>239.914307</ele>
        <time>2012-01-29T07:53:55Z</time>
      </trkpt>
      <trkpt lat="47.71523" lon="7.40621">
        <ele>239.693329</ele>
        <time>2012-01-29T07:53:56Z</time>
      </trkpt>
      <trkpt lat="47.71528" lon="7.40627">
        <ele>240.485321</ele>
        <time>2012-01-29T07:53:57Z</time>
      </trkpt>
      <trkpt lat="47.71534" lon="7.40634">
        <ele>242.644775</ele>
        <time>2012-01-29T07:53:58Z</time>
      </trkpt>
      <trkpt lat="47.71539" lon="7.40639">
        <ele>242.55069</ele>
        <time>2012-01-29T07:53:59Z</time>
      </trkpt>
      <trkpt lat="47.71542" lon="7.40643">
        <ele>240.617279</ele>
        <time>2012-01-29T07:54:00Z</time>
      </trkpt>
      <trkpt lat="47.71547" lon="7.40647">
        <ele>239.970398</ele>
        <time>2012-01-29T07:54:01Z</time>
      </trkpt>
      <trkpt lat="47.71551" lon="7.40652">
        <ele>239.504883</ele>
        <time>2012-01-29T07:54:02Z</time>
      </trkpt>
      <trkpt lat="47.71556" lon="7.40657">
        <ele>242.379333</ele>
        <time>2012-01-29T07:54:03Z</time>
      </trkpt>
      <trkpt lat="47.7156" lon="7.40663">
        <ele>244.46817</ele>
        <time>2012-01-29T07:54:04Z</time>
      </trkpt>
      <trkpt lat="47.71564" lon="7.40668">
        <ele>244.187073</ele>
        <time>2012-01-29T07:54:05Z</time>
      </trkpt>
      <trkpt lat="47.71569" lon="7.40675">
        <ele>243.715668</ele>
        <time>2012-01-29T07:54:06Z</time>
      </trkpt>
      <trkpt lat="47.71574" lon="7.40682">
        <ele>245.983795</ele>
        <time>2012-01-29T07:54:07Z</time>
      </trkpt>
      <trkpt lat="47.71578" lon="7.40688">
        <ele>244.263702</ele>
        <time>2012-01-29T07:54:08Z</time>
      </trkpt>
      <trkpt lat="47.71582" lon="7.40695">
        <ele>243.645508</ele>
        <time>2012-01-29T07:54:09Z</time>
      </trkpt>
      <trkpt lat="47.71585" lon="7.40702">
        <ele>245.09552</ele>
        <time>2012-01-29T07:54:10Z</time>
      </trkpt>
      <trkpt lat="47.71589" lon="7.40709">
        <ele>243.775513</ele>
        <time>2012-01-29T07:54:11Z</time>
      </trkpt>
      <trkpt lat="47.71592" lon="7.40716">
        <ele>244.55777</ele>
        <time>2012-01-29T07:54:12Z</time>
      </trkpt>
      <trkpt lat="47.71595" lon="7.40723">
        <ele>247.173492</ele>
        <time>2012-01-29T07:54:13Z</time>
      </trkpt>
      <trkpt lat="47.71598" lon="7.4073">
        <ele>245.791626</ele>
        <time>2012-01-29T07:54:14Z</time>
      </trkpt>
      <trkpt lat="47.71601" lon="7.40738">
        <ele>243.824799</ele>
        <time>2012-01-29T07:54:15Z</time>
      </trkpt>
      <trkpt lat="47.71603" lon="7.40745">
        <ele>244.789764</ele>
        <time>2012-01-29T07:54:16Z</time>
      </trkpt>
      <trkpt lat="47.71606" lon="7.40751">
        <ele>244.320435</ele>
        <time>2012-01-29T07:54:17Z</time>
      </trkpt>
      <trkpt lat="47.71609" lon="7.4076">
        <ele>242.978943</ele>
        <time>2012-01-29T07:54:18Z</time>
      </trkpt>
      <trkpt lat="47.71612" lon="7.40768">
        <ele>245.546356</ele>
        <time>2012-01-29T07:54:19Z</time>
      </trkpt>
      <trkpt lat="47.71615" lon="7.40778">
        <ele>245.828613</ele>
        <time>2012-01-29T07:54:20Z</time>
      </trkpt>
      <trkpt lat="47.71617" lon="7.40786">
        <ele>247.93866</ele>
        <time>2012-01-29T07:54:21Z</time>
      </trkpt>
      <trkpt lat="47.7162" lon="7.40794">
        <ele>244.766876</ele>
        <time>2012-01-29T07:54:22Z</time>
      </trkpt>
      <trkpt lat="47.71622" lon="7.40801">
        <ele>244.540955</ele>
        <time>2012-01-29T07:54:23Z</time>
      </trkpt>
      <trkpt lat="47.71625" lon="7.40808">
        <ele>242.813293</ele>
        <time>2012-01-29T07:54:24Z</time>
      </trkpt>
      <trkpt lat="47.71628" lon="7.40815">
        <ele>246.294861</ele>
        <time>2012-01-29T07:54:25Z</time>
      </trkpt>
      <trkpt lat="47.71632" lon="7.40823">
        <ele>247.402954</ele>
        <time>2012-01-29T07:54:26Z</time>
      </trkpt>
      <trkpt lat="47.71635" lon="7.40831">
        <ele>243.571472</ele>
        <time>2012-01-29T07:54:27Z</time>
      </trkpt>
      <trkpt lat="47.71639" lon="7.40839">
        <ele>239.332947</ele>
        <time>2012-01-29T07:54:28Z</time>
      </trkpt>
      <trkpt lat="47.71642" lon="7.40847">
        <ele>240.733582</ele>
        <time>2012-01-29T07:54:29Z</time>
      </trkpt>
      <trkpt lat="47.71645" lon="7.40854">
        <ele>241.814301</ele>
        <time>2012-01-29T07:54:30Z</time>
      </trkpt>
      <trkpt lat="47.71648" lon="7.40859">
        <ele>238.303467</ele>
        <time>2012-01-29T07:54:31Z</time>
      </trkpt>
      <trkpt lat="47.71652" lon="7.40866">
        <ele>238.65918</ele>
        <time>2012-01-29T07:54:32Z</time>
      </trkpt>
      <trkpt lat="47.71655" lon="7.40873">
        <ele>239.188965</ele>
        <time>2012-01-29T07:54:33Z</time>
      </trkpt>
      <trkpt lat="47.71658" lon="7.40878">
        <ele>242.448151</ele>
        <time>2012-01-29T07:54:34Z</time>
      </trkpt>
      <trkpt lat="47.71661" lon="7.40885">
        <ele>243.791962</ele>
        <time>2012-01-29T07:54:35Z</time>
      </trkpt>
      <trkpt lat="47.71665" lon="7.40892">
        <ele>239.124268</ele>
        <time>2012-01-29T07:54:36Z</time>
      </trkpt>
      <trkpt lat="47.7167" lon="7.40899">
        <ele>240.391022</ele>
        <time>2012-01-29T07:54:37Z</time>
      </trkpt>
      <trkpt lat="47.71674" lon="7.40907">
        <ele>238.888153</ele>
        <time>2012-01-29T07:54:38Z</time>
      </trkpt>
      <trkpt lat="47.71678" lon="7.40914">
        <ele>240.139709</ele>
        <time>2012-01-29T07:54:39Z</time>
      </trkpt>
      <trkpt lat="47.71682" lon="7.40922">
        <ele>238.784698</ele>
        <time>2012-01-29T07:54:40Z</time>
      </trkpt>
      <trkpt lat="47.71686" lon="7.40928">
        <ele>240.231201</ele>
        <time>2012-01-29T07:54:41Z</time>
      </trkpt>
      <trkpt lat="47.7169" lon="7.40933">
        <ele>242.029846</ele>
        <time>2012-01-29T07:54:42Z</time>
      </trkpt>
      <trkpt lat="47.71694" lon="7.40938">
        <ele>237.995758</ele>
        <time>2012-01-29T07:54:43Z</time>
      </trkpt>
      <trkpt lat="47.71698" lon="7.40944">
        <ele>241.29071</ele>
        <time>2012-01-29T07:54:44Z</time>
      </trkpt>
      <trkpt lat="47.71702" lon="7.4095">
        <ele>241.031067</ele>
        <time>2012-01-29T07:54:45Z</time>
      </trkpt>
      <trkpt lat="47.71706" lon="7.40957">
        <ele>244.408539</ele>
        <time>2012-01-29T07:54:46Z</time>
      </trkpt>
      <trkpt lat="47.71711" lon="7.40963">
        <ele>241.924164</ele>
        <time>2012-01-29T07:54:47Z</time>
      </trkpt>
      <trkpt lat="47.71715" lon="7.40969">
        <ele>241.566956</ele>
        <time>2012-01-29T07:54:48Z</time>
      </trkpt>
      <trkpt lat="47.7172" lon="7.40975">
        <ele>244.086884</ele>
        <time>2012-01-29T07:54:49Z</time>
      </trkpt>
      <trkpt lat="47.71724" lon="7.40981">
        <ele>244.053284</ele>
        <time>2012-01-29T07:54:50Z</time>
      </trkpt>
      <trkpt lat="47.71728" lon="7.40988">
        <ele>242.706635</ele>
        <time>2012-01-29T07:54:51Z</time>
      </trkpt>
      <trkpt lat="47.71732" lon="7.40994">
        <ele>241.040802</ele>
        <time>2012-01-29T07:54:52Z</time>
      </trkpt>
      <trkpt lat="47.71735" lon="7.40999">
        <ele>243.194183</ele>
        <time>2012-01-29T07:54:53Z</time>
      </trkpt>
      <trkpt lat="47.71739" lon="7.41005">
        <ele>242.692535</ele>
        <time>2012-01-29T07:54:54Z</time>
      </trkpt>
      <trkpt lat="47.71744" lon="7.41011">
        <ele>242.617706</ele>
        <time>2012-01-29T07:54:55Z</time>
      </trkpt>
      <trkpt lat="47.71747" lon="7.41016">
        <ele>240.119751</ele>
        <time>2012-01-29T07:54:56Z</time>
      </trkpt>
      <trkpt lat="47.71752" lon="7.41021">
        <ele>242.170624</ele>
        <time>2012-01-29T07:54:57Z</time>
      </trkpt>
      <trkpt lat="47.71757" lon="7.41027">
        <ele>244.404541</ele>
        <time>2012-01-29T07:54:58Z</time>
      </trkpt>
      <trkpt lat="47.71762" lon="7.41033">
        <ele>242.165039</ele>
        <time>2012-01-29T07:54:59Z</time>
      </trkpt>
      <trkpt lat="47.71767" lon="7.41038">
        <ele>240.984589</ele>
        <time>2012-01-29T07:55:00Z</time>
      </trkpt>
      <trkpt lat="47.71771" lon="7.41041">
        <ele>240.60083</ele>
        <time>2012-01-29T07:55:01Z</time>
      </trkpt>
      <trkpt lat="47.71776" lon="7.41045">
        <ele>242.94281</ele>
        <time>2012-01-29T07:55:02Z</time>
      </trkpt>
      <trkpt lat="47.71782" lon="7.4105">
        <ele>240.853607</ele>
        <time>2012-01-29T07:55:03Z</time>
      </trkpt>
      <trkpt lat="47.71787" lon="7.41054">
        <ele>241.541443</ele>
        <time>2012-01-29T07:55:04Z</time>
      </trkpt>
      <trkpt lat="47.71793" lon="7.41058">
        <ele>242.342468</ele>
        <time>2012-01-29T07:55:05Z</time>
      </trkpt>
      <trkpt lat="47.71798" lon="7.41061">
        <ele>242.56076</ele>
        <time>2012-01-29T07:55:06Z</time>
      </trkpt>
      <trkpt lat="47.71804" lon="7.41065">
        <ele>244.886261</ele>
        <time>2012-01-29T07:55:07Z</time>
      </trkpt>
      <trkpt lat="47.71808" lon="7.41068">
        <ele>244.603485</ele>
        <time>2012-01-29T07:55:08Z</time>
      </trkpt>
      <trkpt lat="47.71814" lon="7.41071">
        <ele>242.670624</ele>
        <time>2012-01-29T07:55:09Z</time>
      </trkpt>
      <trkpt lat="47.71819" lon="7.41074">
        <ele>237.729218</ele>
        <time>2012-01-29T07:55:10Z</time>
      </trkpt>
      <trkpt lat="47.71825" lon="7.41078">
        <ele>242.855957</ele>
        <time>2012-01-29T07:55:11Z</time>
      </trkpt>
      <trkpt lat="47.71831" lon="7.41081">
        <ele>241.211426</ele>
        <time>2012-01-29T07:55:12Z</time>
      </trkpt>
      <trkpt lat="47.71836" lon="7.41084">
        <ele>240.026581</ele>
        <time>2012-01-29T07:55:13Z</time>
      </trkpt>
      <trkpt lat="47.71841" lon="7.41087">
        <ele>239.930298</ele>
        <time>2012-01-29T07:55:14Z</time>
      </trkpt>
      <trkpt lat="47.71846" lon="7.4109">
        <ele>242.394226</ele>
        <time>2012-01-29T07:55:15Z</time>
      </trkpt>
      <trkpt lat="47.71851" lon="7.41093">
        <ele>244.302246</ele>
        <time>2012-01-29T07:55:16Z</time>
      </trkpt>
      <trkpt lat="47.71857" lon="7.41096">
        <ele>247.119385</ele>
        <time>2012-01-29T07:55:17Z</time>
      </trkpt>
      <trkpt lat="47.71863" lon="7.41098">
        <ele>249.687286</ele>
        <time>2012-01-29T07:55:18Z</time>
      </trkpt>
      <trkpt lat="47.71869" lon="7.41101">
        <ele>253.684875</ele>
        <time>2012-01-29T07:55:19Z</time>
      </trkpt>
      <trkpt lat="47.71875" lon="7.41104">
        <ele>246.477081</ele>
        <time>2012-01-29T07:55:20Z</time>
      </trkpt>
      <trkpt lat="47.71881" lon="7.41107">
        <ele>248.907623</ele>
        <time>2012-01-29T07:55:21Z</time>
      </trkpt>
      <trkpt lat="47.71887" lon="7.41111">
        <ele>246.927032</ele>
        <time>2012-01-29T07:55:22Z</time>
      </trkpt>
      <trkpt lat="47.71894" lon="7.41114">
        <ele>244.65567</ele>
        <time>2012-01-29T07:55:23Z</time>
      </trkpt>
      <trkpt lat="47.719" lon="7.41118">
        <ele>245.197266</ele>
        <time>2012-01-29T07:55:24Z</time>
      </trkpt>
      <trkpt lat="47.71905" lon="7.41121">
        <ele>246.650635</ele>
        <time>2012-01-29T07:55:25Z</time>
      </trkpt>
      <trkpt lat="47.7191" lon="7.41124">
        <ele>244.452484</ele>
        <time>2012-01-29T07:55:26Z</time>
      </trkpt>
      <trkpt lat="47.71916" lon="7.41128">
        <ele>241.527618</ele>
        <time>2012-01-29T07:55:27Z</time>
      </trkpt>
      <trkpt lat="47.71921" lon="7.41132">
        <ele>239.172272</ele>
        <time>2012-01-29T07:55:28Z</time>
      </trkpt>
      <trkpt lat="47.71926" lon="7.41136">
        <ele>239.172272</ele>
        <time>2012-01-29T07:55:29Z</time>
      </trkpt>
      <trkpt lat="47.71931" lon="7.41141">
        <ele>240.92691</ele>
        <time>2012-01-29T07:55:30Z</time>
      </trkpt>
      <trkpt lat="47.71936" lon="7.41146">
        <ele>240.641937</ele>
        <time>2012-01-29T07:55:31Z</time>
      </trkpt>
      <trkpt lat="47.71941" lon="7.41151">
        <ele>240.197632</ele>
        <time>2012-01-29T07:55:32Z</time>
      </trkpt>
      <trkpt lat="47.71945" lon="7.41157">
        <ele>240.023895</ele>
        <time>2012-01-29T07:55:33Z</time>
      </trkpt>
      <trkpt lat="47.71949" lon="7.41162">
        <ele>240.262573</ele>
        <time>2012-01-29T07:55:34Z</time>
      </trkpt>
      <trkpt lat="47.71953" lon="7.41168">
        <ele>240.285797</ele>
        <time>2012-01-29T07:55:35Z</time>
      </trkpt>
      <trkpt lat="47.71957" lon="7.41173">
        <ele>240.603973</ele>
        <time>2012-01-29T07:55:36Z</time>
      </trkpt>
      <trkpt lat="47.71961" lon="7.41179">
        <ele>240.827911</ele>
        <time>2012-01-29T07:55:37Z</time>
      </trkpt>
      <trkpt lat="47.71966" lon="7.41186">
        <ele>241.008118</ele>
        <time>2012-01-29T07:55:38Z</time>
      </trkpt>
      <trkpt lat="47.71969" lon="7.41192">
        <ele>241.543121</ele>
        <time>2012-01-29T07:55:39Z</time>
      </trkpt>
      <trkpt lat="47.71974" lon="7.41199">
        <ele>241.977722</ele>
        <time>2012-01-29T07:55:40Z</time>
      </trkpt>
      <trkpt lat="47.71978" lon="7.41205">
        <ele>242.12085</ele>
        <time>2012-01-29T07:55:41Z</time>
      </trkpt>
      <trkpt lat="47.71982" lon="7.41211">
        <ele>242.182831</ele>
        <time>2012-01-29T07:55:42Z</time>
      </trkpt>
      <trkpt lat="47.71986" lon="7.41218">
        <ele>242.365112</ele>
        <time>2012-01-29T07:55:43Z</time>
      </trkpt>
      <trkpt lat="47.7199" lon="7.41224">
        <ele>242.176697</ele>
        <time>2012-01-29T07:55:44Z</time>
      </trkpt>
      <trkpt lat="47.71994" lon="7.41231">
        <ele>241.611115</ele>
        <time>2012-01-29T07:55:45Z</time>
      </trkpt>
      <trkpt lat="47.71998" lon="7.41237">
        <ele>243.207733</ele>
        <time>2012-01-29T07:55:46Z</time>
      </trkpt>
      <trkpt lat="47.72003" lon="7.41244">
        <ele>242.716278</ele>
        <time>2012-01-29T07:55:47Z</time>
      </trkpt>
      <trkpt lat="47.72007" lon="7.41252">
        <ele>242.049164</ele>
        <time>2012-01-29T07:55:48Z</time>
      </trkpt>
      <trkpt lat="47.72011" lon="7.41257">
        <ele>241.366882</ele>
        <time>2012-01-29T07:55:49Z</time>
      </trkpt>
      <trkpt lat="47.72015" lon="7.41264">
        <ele>239.295441</ele>
        <time>2012-01-29T07:55:50Z</time>
      </trkpt>
      <trkpt lat="47.72019" lon="7.4127">
        <ele>242.010986</ele>
        <time>2012-01-29T07:55:51Z</time>
      </trkpt>
      <trkpt lat="47.72023" lon="7.41275">
        <ele>240.348724</ele>
        <time>2012-01-29T07:55:52Z</time>
      </trkpt>
      <trkpt lat="47.72026" lon="7.41281">
        <ele>238.006439</ele>
        <time>2012-01-29T07:55:53Z</time>
      </trkpt>
      <trkpt lat="47.7203" lon="7.41286">
        <ele>237.052887</ele>
        <time>2012-01-29T07:55:54Z</time>
      </trkpt>
      <trkpt lat="47.72034" lon="7.41293">
        <ele>239.210907</ele>
        <time>2012-01-29T07:55:55Z</time>
      </trkpt>
      <trkpt lat="47.72038" lon="7.41299">
        <ele>239.600922</ele>
        <time>2012-01-29T07:55:56Z</time>
      </trkpt>
      <trkpt lat="47.72041" lon="7.41304">
        <ele>243.738159</ele>
        <time>2012-01-29T07:55:57Z</time>
      </trkpt>
      <trkpt lat="47.72045" lon="7.4131">
        <ele>240.104126</ele>
        <time>2012-01-29T07:55:58Z</time>
      </trkpt>
      <trkpt lat="47.7205" lon="7.41317">
        <ele>241.836548</ele>
        <time>2012-01-29T07:55:59Z</time>
      </trkpt>
      <trkpt lat="47.72054" lon="7.41323">
        <ele>242.896881</ele>
        <time>2012-01-29T07:56:00Z</time>
      </trkpt>
      <trkpt lat="47.72059" lon="7.4133">
        <ele>237.293091</ele>
        <time>2012-01-29T07:56:01Z</time>
      </trkpt>
      <trkpt lat="47.72063" lon="7.41337">
        <ele>238.640686</ele>
        <time>2012-01-29T07:56:02Z</time>
      </trkpt>
      <trkpt lat="47.72067" lon="7.41343">
        <ele>243.848816</ele>
        <time>2012-01-29T07:56:03Z</time>
      </trkpt>
      <trkpt lat="47.7207" lon="7.41349">
        <ele>243.777527</ele>
        <time>2012-01-29T07:56:04Z</time>
      </trkpt>
      <trkpt lat="47.72074" lon="7.41355">
        <ele>245.441162</ele>
        <time>2012-01-29T07:56:05Z</time>
      </trkpt>
      <trkpt lat="47.72078" lon="7.41362">
        <ele>242.556946</ele>
        <time>2012-01-29T07:56:06Z</time>
      </trkpt>
      <trkpt lat="47.72082" lon="7.41369">
        <ele>239.488739</ele>
        <time>2012-01-29T07:56:07Z</time>
      </trkpt>
      <trkpt lat="47.72086" lon="7.41375">
        <ele>239.692932</ele>
        <time>2012-01-29T07:56:08Z</time>
      </trkpt>
      <trkpt lat="47.7209" lon="7.41382">
        <ele>236.902283</ele>
        <time>2012-01-29T07:56:09Z</time>
      </trkpt>
      <trkpt lat="47.72094" lon="7.41388">
        <ele>238.633331</ele>
        <time>2012-01-29T07:56:10Z</time>
      </trkpt>
      <trkpt lat="47.72097" lon="7.41395">
        <ele>241.223572</ele>
        <time>2012-01-29T07:56:11Z</time>
      </trkpt>
      <trkpt lat="47.72101" lon="7.41402">
        <ele>237.890717</ele>
        <time>2012-01-29T07:56:12Z</time>
      </trkpt>
      <trkpt lat="47.72104" lon="7.41408">
        <ele>237.484741</ele>
        <time>2012-01-29T07:56:13Z</time>
      </trkpt>
      <trkpt lat="47.72107" lon="7.41414">
        <ele>233.616425</ele>
        <time>2012-01-29T07:56:14Z</time>
      </trkpt>
      <trkpt lat="47.72111" lon="7.4142">
        <ele>236.52359</ele>
        <time>2012-01-29T07:56:15Z</time>
      </trkpt>
      <trkpt lat="47.72115" lon="7.41426">
        <ele>235.655548</ele>
        <time>2012-01-29T07:56:16Z</time>
      </trkpt>
      <trkpt lat="47.7212" lon="7.41434">
        <ele>231.406708</ele>
        <time>2012-01-29T07:56:17Z</time>
      </trkpt>
      <trkpt lat="47.72124" lon="7.4144">
        <ele>235.070526</ele>
        <time>2012-01-29T07:56:18Z</time>
      </trkpt>
      <trkpt lat="47.72129" lon="7.41446">
        <ele>233.928772</ele>
        <time>2012-01-29T07:56:19Z</time>
      </trkpt>
      <trkpt lat="47.72133" lon="7.4145">
        <ele>231.325989</ele>
        <time>2012-01-29T07:56:20Z</time>
      </trkpt>
      <trkpt lat="47.72137" lon="7.41454">
        <ele>231.193268</ele>
        <time>2012-01-29T07:56:21Z</time>
      </trkpt>
      <trkpt lat="47.72142" lon="7.41458">
        <ele>231.350952</ele>
        <time>2012-01-29T07:56:22Z</time>
      </trkpt>
      <trkpt lat="47.72148" lon="7.41462">
        <ele>235.700195</ele>
        <time>2012-01-29T07:56:23Z</time>
      </trkpt>
      <trkpt lat="47.72153" lon="7.41467">
        <ele>235.700195</ele>
        <time>2012-01-29T07:56:24Z</time>
      </trkpt>
      <trkpt lat="47.72158" lon="7.4147">
        <ele>237.966003</ele>
        <time>2012-01-29T07:56:25Z</time>
      </trkpt>
      <trkpt lat="47.72164" lon="7.41474">
        <ele>235.967407</ele>
        <time>2012-01-29T07:56:26Z</time>
      </trkpt>
      <trkpt lat="47.72169" lon="7.41477">
        <ele>237.147797</ele>
        <time>2012-01-29T07:56:27Z</time>
      </trkpt>
      <trkpt lat="47.72174" lon="7.41481">
        <ele>238.699493</ele>
        <time>2012-01-29T07:56:28Z</time>
      </trkpt>
      <trkpt lat="47.72179" lon="7.41484">
        <ele>240.693481</ele>
        <time>2012-01-29T07:56:29Z</time>
      </trkpt>
      <trkpt lat="47.72185" lon="7.41487">
        <ele>241.983124</ele>
        <time>2012-01-29T07:56:30Z</time>
      </trkpt>
      <trkpt lat="47.7219" lon="7.41491">
        <ele>242.94754</ele>
        <time>2012-01-29T07:56:31Z</time>
      </trkpt>
      <trkpt lat="47.72195" lon="7.41495">
        <ele>243.172119</ele>
        <time>2012-01-29T07:56:32Z</time>
      </trkpt>
      <trkpt lat="47.72199" lon="7.41499">
        <ele>243.914764</ele>
        <time>2012-01-29T07:56:33Z</time>
      </trkpt>
      <trkpt lat="47.72204" lon="7.41503">
        <ele>245.219452</ele>
        <time>2012-01-29T07:56:34Z</time>
      </trkpt>
      <trkpt lat="47.72209" lon="7.41507">
        <ele>240.981079</ele>
        <time>2012-01-29T07:56:35Z</time>
      </trkpt>
      <trkpt lat="47.72214" lon="7.41511">
        <ele>245.890167</ele>
        <time>2012-01-29T07:56:36Z</time>
      </trkpt>
      <trkpt lat="47.72218" lon="7.41516">
        <ele>244.443634</ele>
        <time>2012-01-29T07:56:37Z</time>
      </trkpt>
      <trkpt lat="47.72223" lon="7.41522">
        <ele>243.651215</ele>
        <time>2012-01-29T07:56:38Z</time>
      </trkpt>
      <trkpt lat="47.72228" lon="7.41528">
        <ele>244.605621</ele>
        <time>2012-01-29T07:56:39Z</time>
      </trkpt>
      <trkpt lat="47.72232" lon="7.41534">
        <ele>246.273102</ele>
        <time>2012-01-29T07:56:40Z</time>
      </trkpt>
      <trkpt lat="47.72236" lon="7.41541">
        <ele>244.432983</ele>
        <time>2012-01-29T07:56:41Z</time>
      </trkpt>
      <trkpt lat="47.7224" lon="7.41548">
        <ele>245.792725</ele>
        <time>2012-01-29T07:56:42Z</time>
      </trkpt>
      <trkpt lat="47.72243" lon="7.41556">
        <ele>249.00174</ele>
        <time>2012-01-29T07:56:43Z</time>
      </trkpt>
      <trkpt lat="47.72246" lon="7.41563">
        <ele>246.359711</ele>
        <time>2012-01-29T07:56:44Z</time>
      </trkpt>
      <trkpt lat="47.72248" lon="7.4157">
        <ele>247.384583</ele>
        <time>2012-01-29T07:56:45Z</time>
      </trkpt>
      <trkpt lat="47.7225" lon="7.41578">
        <ele>247.240417</ele>
        <time>2012-01-29T07:56:46Z</time>
      </trkpt>
      <trkpt lat="47.72251" lon="7.41584">
        <ele>243.007904</ele>
        <time>2012-01-29T07:56:47Z</time>
      </trkpt>
      <trkpt lat="47.72252" lon="7.41592">
        <ele>242.401184</ele>
        <time>2012-01-29T07:56:48Z</time>
      </trkpt>
      <trkpt lat="47.72254" lon="7.41602">
        <ele>238.814758</ele>
        <time>2012-01-29T07:56:49Z</time>
      </trkpt>
      <trkpt lat="47.72255" lon="7.4161">
        <ele>242.484894</ele>
        <time>2012-01-29T07:56:50Z</time>
      </trkpt>
      <trkpt lat="47.72256" lon="7.41619">
        <ele>242.119568</ele>
        <time>2012-01-29T07:56:51Z</time>
      </trkpt>
      <trkpt lat="47.72257" lon="7.41628">
        <ele>240.640228</ele>
        <time>2012-01-29T07:56:52Z</time>
      </trkpt>
      <trkpt lat="47.72258" lon="7.41635">
        <ele>247.063171</ele>
        <time>2012-01-29T07:56:53Z</time>
      </trkpt>
      <trkpt lat="47.72259" lon="7.41644">
        <ele>245.554321</ele>
        <time>2012-01-29T07:56:54Z</time>
      </trkpt>
      <trkpt lat="47.7226" lon="7.41653">
        <ele>243.551208</ele>
        <time>2012-01-29T07:56:55Z</time>
      </trkpt>
      <trkpt lat="47.72261" lon="7.41663">
        <ele>239.717407</ele>
        <time>2012-01-29T07:56:56Z</time>
      </trkpt>
      <trkpt lat="47.72262" lon="7.41672">
        <ele>242.278473</ele>
        <time>2012-01-29T07:56:57Z</time>
      </trkpt>
      <trkpt lat="47.72262" lon="7.4168">
        <ele>241.048645</ele>
        <time>2012-01-29T07:56:58Z</time>
      </trkpt>
      <trkpt lat="47.72263" lon="7.41688">
        <ele>242.715454</ele>
        <time>2012-01-29T07:56:59Z</time>
      </trkpt>
      <trkpt lat="47.72263" lon="7.41695">
        <ele>238.560089</ele>
        <time>2012-01-29T07:57:00Z</time>
      </trkpt>
      <trkpt lat="47.72264" lon="7.41701">
        <ele>240.214935</ele>
        <time>2012-01-29T07:57:01Z</time>
      </trkpt>
      <trkpt lat="47.72264" lon="7.41709">
        <ele>238.22699</ele>
        <time>2012-01-29T07:57:02Z</time>
      </trkpt>
      <trkpt lat="47.72265" lon="7.41716">
        <ele>239.025513</ele>
        <time>2012-01-29T07:57:03Z</time>
      </trkpt>
      <trkpt lat="47.72266" lon="7.41722">
        <ele>237.330658</ele>
        <time>2012-01-29T07:57:04Z</time>
      </trkpt>
      <trkpt lat="47.72267" lon="7.41729">
        <ele>239.064117</ele>
        <time>2012-01-29T07:57:05Z</time>
      </trkpt>
      <trkpt lat="47.72268" lon="7.41735">
        <ele>235.110657</ele>
        <time>2012-01-29T07:57:06Z</time>
      </trkpt>
      <trkpt lat="47.72269" lon="7.41743">
        <ele>235.171204</ele>
        <time>2012-01-29T07:57:07Z</time>
      </trkpt>
      <trkpt lat="47.7227" lon="7.4175">
        <ele>235.878296</ele>
        <time>2012-01-29T07:57:08Z</time>
      </trkpt>
      <trkpt lat="47.72272" lon="7.41755">
        <ele>240.549957</ele>
        <time>2012-01-29T07:57:09Z</time>
      </trkpt>
      <trkpt lat="47.72273" lon="7.41758">
        <ele>239.924622</ele>
        <time>2012-01-29T07:57:10Z</time>
      </trkpt>
      <trkpt lat="47.72274" lon="7.4176">
        <ele>239.845947</ele>
        <time>2012-01-29T07:57:11Z</time>
      </trkpt>
      <trkpt lat="47.72275" lon="7.41763">
        <ele>240.775513</ele>
        <time>2012-01-29T07:57:12Z</time>
      </trkpt>
      <trkpt lat="47.72276" lon="7.41768">
        <ele>241.472412</ele>
        <time>2012-01-29T07:57:13Z</time>
      </trkpt>
      <trkpt lat="47.72277" lon="7.41772">
        <ele>241.510773</ele>
        <time>2012-01-29T07:57:14Z</time>
      </trkpt>
      <trkpt lat="47.72279" lon="7.41774">
        <ele>243.152405</ele>
        <time>2012-01-29T07:57:15Z</time>
      </trkpt>
      <trkpt lat="47.72279" lon="7.41778">
        <ele>242.356384</ele>
        <time>2012-01-29T07:57:16Z</time>
      </trkpt>
      <trkpt lat="47.7228" lon="7.41782">
        <ele>242.207367</ele>
        <time>2012-01-29T07:57:17Z</time>
      </trkpt>
      <trkpt lat="47.7228" lon="7.41788">
        <ele>244.098602</ele>
        <time>2012-01-29T07:57:18Z</time>
      </trkpt>
      <trkpt lat="47.72282" lon="7.41795">
        <ele>243.870209</ele>
        <time>2012-01-29T07:57:19Z</time>
      </trkpt>
      <trkpt lat="47.72284" lon="7.41801">
        <ele>245.256348</ele>
        <time>2012-01-29T07:57:20Z</time>
      </trkpt>
      <trkpt lat="47.72285" lon="7.41806">
        <ele>243.099945</ele>
        <time>2012-01-29T07:57:21Z</time>
      </trkpt>
      <trkpt lat="47.72287" lon="7.41811">
        <ele>243.551483</ele>
        <time>2012-01-29T07:57:22Z</time>
      </trkpt>
      <trkpt lat="47.7229" lon="7.41816">
        <ele>244.012939</ele>
        <time>2012-01-29T07:57:23Z</time>
      </trkpt>
      <trkpt lat="47.72292" lon="7.41822">
        <ele>241.089081</ele>
        <time>2012-01-29T07:57:24Z</time>
      </trkpt>
      <trkpt lat="47.72294" lon="7.41827">
        <ele>241.135864</ele>
        <time>2012-01-29T07:57:25Z</time>
      </trkpt>
      <trkpt lat="47.72297" lon="7.41832">
        <ele>239.022614</ele>
        <time>2012-01-29T07:57:26Z</time>
      </trkpt>
      <trkpt lat="47.72299" lon="7.41838">
        <ele>238.745056</ele>
        <time>2012-01-29T07:57:27Z</time>
      </trkpt>
      <trkpt lat="47.72303" lon="7.41844">
        <ele>240.555237</ele>
        <time>2012-01-29T07:57:28Z</time>
      </trkpt>
      <trkpt lat="47.72305" lon="7.41848">
        <ele>239.773102</ele>
        <time>2012-01-29T07:57:29Z</time>
      </trkpt>
      <trkpt lat="47.72308" lon="7.41854">
        <ele>240.57254</ele>
        <time>2012-01-29T07:57:30Z</time>
      </trkpt>
      <trkpt lat="47.72311" lon="7.41859">
        <ele>242.646484</ele>
        <time>2012-01-29T07:57:31Z</time>
      </trkpt>
      <trkpt lat="47.72313" lon="7.41863">
        <ele>245.308014</ele>
        <time>2012-01-29T07:57:32Z</time>
      </trkpt>
      <trkpt lat="47.72316" lon="7.41867">
        <ele>246.450775</ele>
        <time>2012-01-29T07:57:33Z</time>
      </trkpt>
      <trkpt lat="47.72319" lon="7.41871">
        <ele>246.838531</ele>
        <time>2012-01-29T07:57:34Z</time>
      </trkpt>
      <trkpt lat="47.72322" lon="7.41876">
        <ele>245.930267</ele>
        <time>2012-01-29T07:57:35Z</time>
      </trkpt>
      <trkpt lat="47.72326" lon="7.41882">
        <ele>243.77594</ele>
        <time>2012-01-29T07:57:36Z</time>
      </trkpt>
      <trkpt lat="47.72329" lon="7.41888">
        <ele>243.785004</ele>
        <time>2012-01-29T07:57:37Z</time>
      </trkpt>
      <trkpt lat="47.72332" lon="7.41892">
        <ele>244.05899</ele>
        <time>2012-01-29T07:57:38Z</time>
      </trkpt>
      <trkpt lat="47.72336" lon="7.41896">
        <ele>240.742554</ele>
        <time>2012-01-29T07:57:39Z</time>
      </trkpt>
      <trkpt lat="47.7234" lon="7.41898">
        <ele>243.906433</ele>
        <time>2012-01-29T07:57:40Z</time>
      </trkpt>
      <trkpt lat="47.72344" lon="7.41901">
        <ele>242.675873</ele>
        <time>2012-01-29T07:57:41Z</time>
      </trkpt>
      <trkpt lat="47.72348" lon="7.41905">
        <ele>239.907013</ele>
        <time>2012-01-29T07:57:42Z</time>
      </trkpt>
      <trkpt lat="47.72352" lon="7.41908">
        <ele>239.907013</ele>
        <time>2012-01-29T07:57:43Z</time>
      </trkpt>
      <trkpt lat="47.72357" lon="7.4191">
        <ele>239.992676</ele>
        <time>2012-01-29T07:57:44Z</time>
      </trkpt>
      <trkpt lat="47.72362" lon="7.41912">
        <ele>241.252289</ele>
        <time>2012-01-29T07:57:45Z</time>
      </trkpt>
      <trkpt lat="47.72367" lon="7.41915">
        <ele>241.546204</ele>
        <time>2012-01-29T07:57:46Z</time>
      </trkpt>
      <trkpt lat="47.72371" lon="7.41916">
        <ele>240.862091</ele>
        <time>2012-01-29T07:57:47Z</time>
      </trkpt>
      <trkpt lat="47.72376" lon="7.41918">
        <ele>240.956757</ele>
        <time>2012-01-29T07:57:48Z</time>
      </trkpt>
      <trkpt lat="47.7238" lon="7.41919">
        <ele>242.306641</ele>
        <time>2012-01-29T07:57:49Z</time>
      </trkpt>
      <trkpt lat="47.72384" lon="7.4192">
        <ele>240.803101</ele>
        <time>2012-01-29T07:57:50Z</time>
      </trkpt>
      <trkpt lat="47.72389" lon="7.41921">
        <ele>238.773071</ele>
        <time>2012-01-29T07:57:51Z</time>
      </trkpt>
      <trkpt lat="47.72394" lon="7.41922">
        <ele>238.158234</ele>
        <time>2012-01-29T07:57:52Z</time>
      </trkpt>
      <trkpt lat="47.72398" lon="7.41923">
        <ele>239.084259</ele>
        <time>2012-01-29T07:57:53Z</time>
      </trkpt>
      <trkpt lat="47.72403" lon="7.41923">
        <ele>240.00351</ele>
        <time>2012-01-29T07:57:54Z</time>
      </trkpt>
      <trkpt lat="47.72408" lon="7.41924">
        <ele>240.626801</ele>
        <time>2012-01-29T07:57:55Z</time>
      </trkpt>
      <trkpt lat="47.72413" lon="7.41924">
        <ele>241.06311</ele>
        <time>2012-01-29T07:57:56Z</time>
      </trkpt>
      <trkpt lat="47.72417" lon="7.41925">
        <ele>242.388</ele>
        <time>2012-01-29T07:57:57Z</time>
      </trkpt>
      <trkpt lat="47.72422" lon="7.41925">
        <ele>243.64267</ele>
        <time>2012-01-29T07:57:58Z</time>
      </trkpt>
      <trkpt lat="47.72427" lon="7.41925">
        <ele>243.741577</ele>
        <time>2012-01-29T07:57:59Z</time>
      </trkpt>
      <trkpt lat="47.72431" lon="7.41925">
        <ele>245.062927</ele>
        <time>2012-01-29T07:58:00Z</time>
      </trkpt>
      <trkpt lat="47.72435" lon="7.41925">
        <ele>245.926605</ele>
        <time>2012-01-29T07:58:01Z</time>
      </trkpt>
      <trkpt lat="47.72439" lon="7.41925">
        <ele>245.293701</ele>
        <time>2012-01-29T07:58:02Z</time>
      </trkpt>
      <trkpt lat="47.72444" lon="7.41926">
        <ele>244.990112</ele>
        <time>2012-01-29T07:58:03Z</time>
      </trkpt>
      <trkpt lat="47.72448" lon="7.41926">
        <ele>246.128113</ele>
        <time>2012-01-29T07:58:04Z</time>
      </trkpt>
      <trkpt lat="47.72453" lon="7.41926">
        <ele>246.735931</ele>
        <time>2012-01-29T07:58:05Z</time>
      </trkpt>
      <trkpt lat="47.72457" lon="7.41926">
        <ele>246.705933</ele>
        <time>2012-01-29T07:58:06Z</time>
      </trkpt>
      <trkpt lat="47.72462" lon="7.41927">
        <ele>245.958801</ele>
        <time>2012-01-29T07:58:07Z</time>
      </trkpt>
      <trkpt lat="47.72467" lon="7.41927">
        <ele>245.505615</ele>
        <time>2012-01-29T07:58:08Z</time>
      </trkpt>
      <trkpt lat="47.72472" lon="7.41928">
        <ele>245.625549</ele>
        <time>2012-01-29T07:58:09Z</time>
      </trkpt>
      <trkpt lat="47.72477" lon="7.41928">
        <ele>243.920074</ele>
        <time>2012-01-29T07:58:10Z</time>
      </trkpt>
      <trkpt lat="47.72482" lon="7.41929">
        <ele>243.479401</ele>
        <time>2012-01-29T07:58:11Z</time>
      </trkpt>
      <trkpt lat="47.72486" lon="7.4193">
        <ele>244.701477</ele>
        <time>2012-01-29T07:58:12Z</time>
      </trkpt>
      <trkpt lat="47.72491" lon="7.4193">
        <ele>246.154633</ele>
        <time>2012-01-29T07:58:13Z</time>
      </trkpt>
      <trkpt lat="47.72496" lon="7.41931">
        <ele>247.053528</ele>
        <time>2012-01-29T07:58:14Z</time>
      </trkpt>
      <trkpt lat="47.725" lon="7.41931">
        <ele>247.558868</ele>
        <time>2012-01-29T07:58:15Z</time>
      </trkpt>
      <trkpt lat="47.72505" lon="7.41931">
        <ele>247.533813</ele>
        <time>2012-01-29T07:58:16Z</time>
      </trkpt>
      <trkpt lat="47.72509" lon="7.41931">
        <ele>245.655701</ele>
        <time>2012-01-29T07:58:17Z</time>
      </trkpt>
      <trkpt lat="47.72513" lon="7.41932">
        <ele>245.492798</ele>
        <time>2012-01-29T07:58:18Z</time>
      </trkpt>
      <trkpt lat="47.72518" lon="7.41932">
        <ele>245.698761</ele>
        <time>2012-01-29T07:58:19Z</time>
      </trkpt>
      <trkpt lat="47.72522" lon="7.41932">
        <ele>245.419556</ele>
        <time>2012-01-29T07:58:20Z</time>
      </trkpt>
      <trkpt lat="47.72527" lon="7.41933">
        <ele>244.702118</ele>
        <time>2012-01-29T07:58:21Z</time>
      </trkpt>
      <trkpt lat="47.7253" lon="7.41936">
        <ele>243.566071</ele>
        <time>2012-01-29T07:58:22Z</time>
      </trkpt>
      <trkpt lat="47.72532" lon="7.41942">
        <ele>241.751526</ele>
        <time>2012-01-29T07:58:23Z</time>
      </trkpt>
      <trkpt lat="47.72533" lon="7.41949">
        <ele>243.027252</ele>
        <time>2012-01-29T07:58:24Z</time>
      </trkpt>
      <trkpt lat="47.72534" lon="7.41956">
        <ele>244.229614</ele>
        <time>2012-01-29T07:58:25Z</time>
      </trkpt>
      <trkpt lat="47.72534" lon="7.41962">
        <ele>243.597778</ele>
        <time>2012-01-29T07:58:26Z</time>
      </trkpt>
      <trkpt lat="47.72534" lon="7.41969">
        <ele>242.553894</ele>
        <time>2012-01-29T07:58:27Z</time>
      </trkpt>
      <trkpt lat="47.72533" lon="7.41976">
        <ele>242.767944</ele>
        <time>2012-01-29T07:58:28Z</time>
      </trkpt>
      <trkpt lat="47.72533" lon="7.41983">
        <ele>243.527344</ele>
        <time>2012-01-29T07:58:29Z</time>
      </trkpt>
      <trkpt lat="47.72532" lon="7.41991">
        <ele>243.937561</ele>
        <time>2012-01-29T07:58:30Z</time>
      </trkpt>
      <trkpt lat="47.72532" lon="7.41999">
        <ele>243.263916</ele>
        <time>2012-01-29T07:58:31Z</time>
      </trkpt>
      <trkpt lat="47.72531" lon="7.42006">
        <ele>243.478821</ele>
        <time>2012-01-29T07:58:32Z</time>
      </trkpt>
      <trkpt lat="47.72531" lon="7.42015">
        <ele>243.67218</ele>
        <time>2012-01-29T07:58:33Z</time>
      </trkpt>
      <trkpt lat="47.7253" lon="7.42023">
        <ele>239.129913</ele>
        <time>2012-01-29T07:58:34Z</time>
      </trkpt>
      <trkpt lat="47.7253" lon="7.42032">
        <ele>243.84729</ele>
        <time>2012-01-29T07:58:35Z</time>
      </trkpt>
      <trkpt lat="47.7253" lon="7.42037">
        <ele>244.848236</ele>
        <time>2012-01-29T07:58:36Z</time>
      </trkpt>
      <trkpt lat="47.7253" lon="7.42044">
        <ele>246.562256</ele>
        <time>2012-01-29T07:58:37Z</time>
      </trkpt>
      <trkpt lat="47.72532" lon="7.42049">
        <ele>249.679169</ele>
        <time>2012-01-29T07:58:38Z</time>
      </trkpt>
      <trkpt lat="47.72535" lon="7.42054">
        <ele>244.653534</ele>
        <time>2012-01-29T07:58:39Z</time>
      </trkpt>
      <trkpt lat="47.72539" lon="7.42056">
        <ele>243.32373</ele>
        <time>2012-01-29T07:58:40Z</time>
      </trkpt>
      <trkpt lat="47.72544" lon="7.42058">
        <ele>241.154114</ele>
        <time>2012-01-29T07:58:41Z</time>
      </trkpt>
      <trkpt lat="47.72548" lon="7.4206">
        <ele>241.154114</ele>
        <time>2012-01-29T07:58:42Z</time>
      </trkpt>
      <trkpt lat="47.72553" lon="7.42059">
        <ele>241.804993</ele>
        <time>2012-01-29T07:58:43Z</time>
      </trkpt>
      <trkpt lat="47.72557" lon="7.4206">
        <ele>240.864746</ele>
        <time>2012-01-29T07:58:44Z</time>
      </trkpt>
      <trkpt lat="47.72562" lon="7.4206">
        <ele>240.628387</ele>
        <time>2012-01-29T07:58:45Z</time>
      </trkpt>
      <trkpt lat="47.72567" lon="7.42061">
        <ele>240.259552</ele>
        <time>2012-01-29T07:58:46Z</time>
      </trkpt>
      <trkpt lat="47.72572" lon="7.42062">
        <ele>240.867645</ele>
        <time>2012-01-29T07:58:47Z</time>
      </trkpt>
      <trkpt lat="47.72577" lon="7.42063">
        <ele>240.968964</ele>
        <time>2012-01-29T07:58:48Z</time>
      </trkpt>
      <trkpt lat="47.72582" lon="7.42064">
        <ele>242.09256</ele>
        <time>2012-01-29T07:58:49Z</time>
      </trkpt>
      <trkpt lat="47.72587" lon="7.42064">
        <ele>243.942047</ele>
        <time>2012-01-29T07:58:50Z</time>
      </trkpt>
      <trkpt lat="47.72593" lon="7.42064">
        <ele>244.477783</ele>
        <time>2012-01-29T07:58:51Z</time>
      </trkpt>
      <trkpt lat="47.72598" lon="7.42065">
        <ele>245.066254</ele>
        <time>2012-01-29T07:58:52Z</time>
      </trkpt>
      <trkpt lat="47.72603" lon="7.42065">
        <ele>247.02066</ele>
        <time>2012-01-29T07:58:53Z</time>
      </trkpt>
      <trkpt lat="47.72608" lon="7.42066">
        <ele>247.098175</ele>
        <time>2012-01-29T07:58:54Z</time>
      </trkpt>
      <trkpt lat="47.72612" lon="7.42067">
        <ele>247.679413</ele>
        <time>2012-01-29T07:58:55Z</time>
      </trkpt>
      <trkpt lat="47.72617" lon="7.42067">
        <ele>244.408417</ele>
        <time>2012-01-29T07:58:56Z</time>
      </trkpt>
      <trkpt lat="47.72622" lon="7.42068">
        <ele>243.722321</ele>
        <time>2012-01-29T07:58:57Z</time>
      </trkpt>
      <trkpt lat="47.72628" lon="7.42069">
        <ele>242.015442</ele>
        <time>2012-01-29T07:58:58Z</time>
      </trkpt>
      <trkpt lat="47.72634" lon="7.4207">
        <ele>241.74826</ele>
        <time>2012-01-29T07:58:59Z</time>
      </trkpt>
      <trkpt lat="47.72639" lon="7.42071">
        <ele>241.939148</ele>
        <time>2012-01-29T07:59:00Z</time>
      </trkpt>
      <trkpt lat="47.72644" lon="7.42072">
        <ele>242.412628</ele>
        <time>2012-01-29T07:59:01Z</time>
      </trkpt>
      <trkpt lat="47.72649" lon="7.42073">
        <ele>243.161804</ele>
        <time>2012-01-29T07:59:02Z</time>
      </trkpt>
      <trkpt lat="47.72655" lon="7.42074">
        <ele>241.668304</ele>
        <time>2012-01-29T07:59:03Z</time>
      </trkpt>
      <trkpt lat="47.7266" lon="7.42075">
        <ele>242.767334</ele>
        <time>2012-01-29T07:59:04Z</time>
      </trkpt>
      <trkpt lat="47.72664" lon="7.42075">
        <ele>244.762665</ele>
        <time>2012-01-29T07:59:05Z</time>
      </trkpt>
      <trkpt lat="47.72668" lon="7.42076">
        <ele>246.887543</ele>
        <time>2012-01-29T07:59:06Z</time>
      </trkpt>
      <trkpt lat="47.72672" lon="7.42076">
        <ele>246.287445</ele>
        <time>2012-01-29T07:59:07Z</time>
      </trkpt>
      <trkpt lat="47.72677" lon="7.42076">
        <ele>245.050446</ele>
        <time>2012-01-29T07:59:08Z</time>
      </trkpt>
      <trkpt lat="47.72682" lon="7.42077">
        <ele>244.368927</ele>
        <time>2012-01-29T07:59:09Z</time>
      </trkpt>
      <trkpt lat="47.72687" lon="7.42077">
        <ele>246.867615</ele>
        <time>2012-01-29T07:59:10Z</time>
      </trkpt>
      <trkpt lat="47.72692" lon="7.42078">
        <ele>248.206451</ele>
        <time>2012-01-29T07:59:11Z</time>
      </trkpt>
      <trkpt lat="47.72696" lon="7.42078">
        <ele>248.206451</ele>
        <time>2012-01-29T07:59:12Z</time>
      </trkpt>
      <trkpt lat="47.72701" lon="7.42078">
        <ele>246.804657</ele>
        <time>2012-01-29T07:59:13Z</time>
      </trkpt>
      <trkpt lat="47.72706" lon="7.42078">
        <ele>245.125275</ele>
        <time>2012-01-29T07:59:14Z</time>
      </trkpt>
      <trkpt lat="47.72711" lon="7.42078">
        <ele>244.359344</ele>
        <time>2012-01-29T07:59:15Z</time>
      </trkpt>
      <trkpt lat="47.72715" lon="7.42078">
        <ele>244.107635</ele>
        <time>2012-01-29T07:59:16Z</time>
      </trkpt>
      <trkpt lat="47.72718" lon="7.42079">
        <ele>242.7995</ele>
        <time>2012-01-29T07:59:17Z</time>
      </trkpt>
      <trkpt lat="47.72722" lon="7.42079">
        <ele>242.237488</ele>
        <time>2012-01-29T07:59:18Z</time>
      </trkpt>
      <trkpt lat="47.72725" lon="7.42079">
        <ele>242.38147</ele>
        <time>2012-01-29T07:59:19Z</time>
      </trkpt>
      <trkpt lat="47.72728" lon="7.42082">
        <ele>242.969025</ele>
        <time>2012-01-29T07:59:20Z</time>
      </trkpt>
      <trkpt lat="47.72731" lon="7.42087">
        <ele>242.967224</ele>
        <time>2012-01-29T07:59:21Z</time>
      </trkpt>
      <trkpt lat="47.72732" lon="7.42092">
        <ele>243.235718</ele>
        <time>2012-01-29T07:59:22Z</time>
      </trkpt>
      <trkpt lat="47.72733" lon="7.42098">
        <ele>242.873901</ele>
        <time>2012-01-29T07:59:23Z</time>
      </trkpt>
      <trkpt lat="47.72732" lon="7.42103">
        <ele>243.206055</ele>
        <time>2012-01-29T07:59:24Z</time>
      </trkpt>
      <trkpt lat="47.72731" lon="7.42109">
        <ele>243.784454</ele>
        <time>2012-01-29T07:59:25Z</time>
      </trkpt>
      <trkpt lat="47.7273" lon="7.42115">
        <ele>244.796234</ele>
        <time>2012-01-29T07:59:26Z</time>
      </trkpt>
      <trkpt lat="47.7273" lon="7.42121">
        <ele>245.559387</ele>
        <time>2012-01-29T07:59:27Z</time>
      </trkpt>
      <trkpt lat="47.72729" lon="7.42127">
        <ele>245.404053</ele>
        <time>2012-01-29T07:59:28Z</time>
      </trkpt>
      <trkpt lat="47.72729" lon="7.42133">
        <ele>245.686127</ele>
        <time>2012-01-29T07:59:29Z</time>
      </trkpt>
      <trkpt lat="47.72729" lon="7.4214">
        <ele>245.279694</ele>
        <time>2012-01-29T07:59:30Z</time>
      </trkpt>
      <trkpt lat="47.72729" lon="7.42147">
        <ele>244.872437</ele>
        <time>2012-01-29T07:59:31Z</time>
      </trkpt>
      <trkpt lat="47.72728" lon="7.42154">
        <ele>244.093445</ele>
        <time>2012-01-29T07:59:32Z</time>
      </trkpt>
      <trkpt lat="47.72728" lon="7.4216">
        <ele>244.942719</ele>
        <time>2012-01-29T07:59:33Z</time>
      </trkpt>
      <trkpt lat="47.72728" lon="7.42167">
        <ele>244.748657</ele>
        <time>2012-01-29T07:59:34Z</time>
      </trkpt>
      <trkpt lat="47.72727" lon="7.42173">
        <ele>245.560669</ele>
        <time>2012-01-29T07:59:35Z</time>
      </trkpt>
      <trkpt lat="47.72727" lon="7.42179">
        <ele>244.987701</ele>
        <time>2012-01-29T07:59:36Z</time>
      </trkpt>
      <trkpt lat="47.72727" lon="7.42186">
        <ele>244.220886</ele>
        <time>2012-01-29T07:59:37Z</time>
      </trkpt>
      <trkpt lat="47.72726" lon="7.42192">
        <ele>243.056335</ele>
        <time>2012-01-29T07:59:38Z</time>
      </trkpt>
      <trkpt lat="47.72726" lon="7.42197">
        <ele>242.693481</ele>
        <time>2012-01-29T07:59:39Z</time>
      </trkpt>
      <trkpt lat="47.72726" lon="7.42202">
        <ele>242.379639</ele>
        <time>2012-01-29T07:59:40Z</time>
      </trkpt>
      <trkpt lat="47.72727" lon="7.42205">
        <ele>244.069336</ele>
        <time>2012-01-29T07:59:41Z</time>
      </trkpt>
      <trkpt lat="47.72727" lon="7.42207">
        <ele>244.611664</ele>
        <time>2012-01-29T07:59:42Z</time>
      </trkpt>
      <trkpt lat="47.72727" lon="7.42207">
        <ele>244.611664</ele>
        <time>2012-01-29T07:59:43Z</time>
      </trkpt>
      <trkpt lat="47.72729" lon="7.42208">
        <ele>244.83017</ele>
        <time>2012-01-29T07:59:44Z</time>
      </trkpt>
      <trkpt lat="47.72731" lon="7.42209">
        <ele>245.523834</ele>
        <time>2012-01-29T07:59:45Z</time>
      </trkpt>
      <trkpt lat="47.72732" lon="7.42211">
        <ele>244.819885</ele>
        <time>2012-01-29T07:59:46Z</time>
      </trkpt>
      <trkpt lat="47.72734" lon="7.42213">
        <ele>244.667328</ele>
        <time>2012-01-29T07:59:47Z</time>
      </trkpt>
      <trkpt lat="47.72737" lon="7.42216">
        <ele>244.580505</ele>
        <time>2012-01-29T07:59:48Z</time>
      </trkpt>
      <trkpt lat="47.72739" lon="7.42217">
        <ele>244.432037</ele>
        <time>2012-01-29T07:59:49Z</time>
      </trkpt>
      <trkpt lat="47.72743" lon="7.42219">
        <ele>243.463959</ele>
        <time>2012-01-29T07:59:50Z</time>
      </trkpt>
      <trkpt lat="47.72747" lon="7.4222">
        <ele>244.024994</ele>
        <time>2012-01-29T07:59:51Z</time>
      </trkpt>
      <trkpt lat="47.7275" lon="7.42222">
        <ele>245.187439</ele>
        <time>2012-01-29T07:59:52Z</time>
      </trkpt>
      <trkpt lat="47.72754" lon="7.42223">
        <ele>245.039551</ele>
        <time>2012-01-29T07:59:53Z</time>
      </trkpt>
      <trkpt lat="47.72758" lon="7.42225">
        <ele>244.602386</ele>
        <time>2012-01-29T07:59:54Z</time>
      </trkpt>
      <trkpt lat="47.72762" lon="7.42227">
        <ele>244.576172</ele>
        <time>2012-01-29T07:59:55Z</time>
      </trkpt>
      <trkpt lat="47.72766" lon="7.42228">
        <ele>244.551575</ele>
        <time>2012-01-29T07:59:56Z</time>
      </trkpt>
      <trkpt lat="47.72771" lon="7.42229">
        <ele>243.911469</ele>
        <time>2012-01-29T07:59:57Z</time>
      </trkpt>
      <trkpt lat="47.72775" lon="7.42231">
        <ele>243.741516</ele>
        <time>2012-01-29T07:59:58Z</time>
      </trkpt>
      <trkpt lat="47.7278" lon="7.42232">
        <ele>243.812439</ele>
        <time>2012-01-29T07:59:59Z</time>
      </trkpt>
      <trkpt lat="47.72784" lon="7.42233">
        <ele>243.004883</ele>
        <time>2012-01-29T08:00:00Z</time>
      </trkpt>
      <trkpt lat="47.72789" lon="7.42235">
        <ele>243.157074</ele>
        <time>2012-01-29T08:00:01Z</time>
      </trkpt>
      <trkpt lat="47.72793" lon="7.42236">
        <ele>242.817322</ele>
        <time>2012-01-29T08:00:02Z</time>
      </trkpt>
      <trkpt lat="47.72798" lon="7.42237">
        <ele>242.375519</ele>
        <time>2012-01-29T08:00:03Z</time>
      </trkpt>
      <trkpt lat="47.72802" lon="7.42238">
        <ele>242.982941</ele>
        <time>2012-01-29T08:00:04Z</time>
      </trkpt>
      <trkpt lat="47.72807" lon="7.42239">
        <ele>243.058289</ele>
        <time>2012-01-29T08:00:05Z</time>
      </trkpt>
      <trkpt lat="47.72811" lon="7.42241">
        <ele>242.772034</ele>
        <time>2012-01-29T08:00:06Z</time>
      </trkpt>
      <trkpt lat="47.72815" lon="7.42242">
        <ele>242.437256</ele>
        <time>2012-01-29T08:00:07Z</time>
      </trkpt>
      <trkpt lat="47.72819" lon="7.42243">
        <ele>243.231903</ele>
        <time>2012-01-29T08:00:08Z</time>
      </trkpt>
      <trkpt lat="47.72822" lon="7.42245">
        <ele>242.901794</ele>
        <time>2012-01-29T08:00:09Z</time>
      </trkpt>
      <trkpt lat="47.72826" lon="7.42248">
        <ele>242.702698</ele>
        <time>2012-01-29T08:00:10Z</time>
      </trkpt>
      <trkpt lat="47.72828" lon="7.42252">
        <ele>242.886902</ele>
        <time>2012-01-29T08:00:11Z</time>
      </trkpt>
      <trkpt lat="47.72829" lon="7.42259">
        <ele>242.667938</ele>
        <time>2012-01-29T08:00:12Z</time>
      </trkpt>
      <trkpt lat="47.72829" lon="7.42265">
        <ele>243.273224</ele>
        <time>2012-01-29T08:00:13Z</time>
      </trkpt>
      <trkpt lat="47.72829" lon="7.42272">
        <ele>242.640411</ele>
        <time>2012-01-29T08:00:14Z</time>
      </trkpt>
      <trkpt lat="47.72829" lon="7.42279">
        <ele>242.381592</ele>
        <time>2012-01-29T08:00:15Z</time>
      </trkpt>
      <trkpt lat="47.72829" lon="7.42285">
        <ele>242.989532</ele>
        <time>2012-01-29T08:00:16Z</time>
      </trkpt>
      <trkpt lat="47.72829" lon="7.42292">
        <ele>243.282562</ele>
        <time>2012-01-29T08:00:17Z</time>
      </trkpt>
      <trkpt lat="47.72829" lon="7.42298">
        <ele>243.229858</ele>
        <time>2012-01-29T08:00:18Z</time>
      </trkpt>
      <trkpt lat="47.72829" lon="7.42304">
        <ele>243.099213</ele>
        <time>2012-01-29T08:00:19Z</time>
      </trkpt>
      <trkpt lat="47.72829" lon="7.4231">
        <ele>242.96759</ele>
        <time>2012-01-29T08:00:20Z</time>
      </trkpt>
      <trkpt lat="47.72828" lon="7.42317">
        <ele>243.694336</ele>
        <time>2012-01-29T08:00:21Z</time>
      </trkpt>
      <trkpt lat="47.72828" lon="7.42323">
        <ele>244.535583</ele>
        <time>2012-01-29T08:00:22Z</time>
      </trkpt>
      <trkpt lat="47.72828" lon="7.4233">
        <ele>243.530579</ele>
        <time>2012-01-29T08:00:23Z</time>
      </trkpt>
      <trkpt lat="47.72828" lon="7.42336">
        <ele>243.351166</ele>
        <time>2012-01-29T08:00:24Z</time>
      </trkpt>
      <trkpt lat="47.72828" lon="7.42342">
        <ele>243.388245</ele>
        <time>2012-01-29T08:00:25Z</time>
      </trkpt>
      <trkpt lat="47.72828" lon="7.42348">
        <ele>243.634369</ele>
        <time>2012-01-29T08:00:26Z</time>
      </trkpt>
      <trkpt lat="47.72828" lon="7.42355">
        <ele>245.234497</ele>
        <time>2012-01-29T08:00:27Z</time>
      </trkpt>
      <trkpt lat="47.72827" lon="7.42359">
        <ele>246.42038</ele>
        <time>2012-01-29T08:00:28Z</time>
      </trkpt>
      <trkpt lat="47.72826" lon="7.42362">
        <ele>245.619202</ele>
        <time>2012-01-29T08:00:29Z</time>
      </trkpt>
      <trkpt lat="47.72825" lon="7.42364">
        <ele>245.490814</ele>
        <time>2012-01-29T08:00:30Z</time>
      </trkpt>
      <trkpt lat="47.72823" lon="7.42366">
        <ele>245.149414</ele>
        <time>2012-01-29T08:00:31Z</time>
      </trkpt>
      <trkpt lat="47.72822" lon="7.42367">
        <ele>243.542755</ele>
        <time>2012-01-29T08:00:32Z</time>
      </trkpt>
      <trkpt lat="47.72819" lon="7.42367">
        <ele>243.810364</ele>
        <time>2012-01-29T08:00:33Z</time>
      </trkpt>
      <trkpt lat="47.72816" lon="7.42368">
        <ele>243.543213</ele>
        <time>2012-01-29T08:00:34Z</time>
      </trkpt>
      <trkpt lat="47.72812" lon="7.42367">
        <ele>244.496216</ele>
        <time>2012-01-29T08:00:35Z</time>
      </trkpt>
      <trkpt lat="47.72808" lon="7.42366">
        <ele>244.231934</ele>
        <time>2012-01-29T08:00:36Z</time>
      </trkpt>
      <trkpt lat="47.72804" lon="7.42365">
        <ele>244.966125</ele>
        <time>2012-01-29T08:00:37Z</time>
      </trkpt>
      <trkpt lat="47.728" lon="7.42363">
        <ele>246.354462</ele>
        <time>2012-01-29T08:00:38Z</time>
      </trkpt>
      <trkpt lat="47.72796" lon="7.4236">
        <ele>246.571289</ele>
        <time>2012-01-29T08:00:39Z</time>
      </trkpt>
      <trkpt lat="47.72792" lon="7.42357">
        <ele>247.276917</ele>
        <time>2012-01-29T08:00:40Z</time>
      </trkpt>
      <trkpt lat="47.72789" lon="7.42355">
        <ele>246.647797</ele>
        <time>2012-01-29T08:00:41Z</time>
      </trkpt>
      <trkpt lat="47.72786" lon="7.42353">
        <ele>246.919403</ele>
        <time>2012-01-29T08:00:42Z</time>
      </trkpt>
      <trkpt lat="47.72783" lon="7.42351">
        <ele>247.538025</ele>
        <time>2012-01-29T08:00:43Z</time>
      </trkpt>
      <trkpt lat="47.72782" lon="7.42351">
        <ele>248.18869</ele>
        <time>2012-01-29T08:00:44Z</time>
      </trkpt>
      <trkpt lat="47.72782" lon="7.42351">
        <ele>248.18869</ele>
        <time>2012-01-29T08:00:45Z</time>
      </trkpt>
      <trkpt lat="47.72782" lon="7.42351">
        <ele>248.18869</ele>
        <time>2012-01-29T08:00:46Z</time>
      </trkpt>
      <trkpt lat="47.72782" lon="7.42351">
        <ele>248.18869</ele>
        <time>2012-01-29T08:00:47Z</time>
      </trkpt>
      <trkpt lat="47.72782" lon="7.42351">
        <ele>248.18869</ele>
        <time>2012-01-29T08:00:48Z</time>
      </trkpt>
      <trkpt lat="47.72782" lon="7.42351">
        <ele>248.18869</ele>
        <time>2012-01-29T08:00:49Z</time>
      </trkpt>
      <trkpt lat="47.72782" lon="7.42351">
        <ele>248.18869</ele>
        <time>2012-01-29T08:00:50Z</time>
      </trkpt>
      <trkpt lat="47.72782" lon="7.42351">
        <ele>248.18869</ele>
        <time>2012-01-29T08:00:51Z</time>
      </trkpt>
      <trkpt lat="47.72782" lon="7.42351">
        <ele>248.18869</ele>
        <time>2012-01-29T08:00:52Z</time>
      </trkpt>
      <trkpt lat="47.72782" lon="7.42351">
        <ele>248.18869</ele>
        <time>2012-01-29T08:00:53Z</time>
      </trkpt>
      <trkpt lat="47.72782" lon="7.42351">
        <ele>248.18869</ele>
        <time>2012-01-29T08:00:54Z</time>
      </trkpt>
      <trkpt lat="47.72782" lon="7.42351">
        <ele>248.18869</ele>
        <time>2012-01-29T08:00:55Z</time>
      </trkpt>
      <trkpt lat="47.72782" lon="7.42351">
        <ele>248.18869</ele>
        <time>2012-01-29T08:00:56Z</time>
      </trkpt>
      <trkpt lat="47.72782" lon="7.42351">
        <ele>248.18869</ele>
        <time>2012-01-29T08:00:57Z</time>
      </trkpt>
      <trkpt lat="47.72782" lon="7.42351">
        <ele>248.18869</ele>
        <time>2012-01-29T08:00:58Z</time>
      </trkpt>
      <trkpt lat="47.72782" lon="7.42351">
        <ele>248.18869</ele>
        <time>2012-01-29T08:00:59Z</time>
      </trkpt>
      <trkpt lat="47.72782" lon="7.42351">
        <ele>248.18869</ele>
        <time>2012-01-29T08:01:00Z</time>
      </trkpt>
      <trkpt lat="47.72782" lon="7.42351">
        <ele>248.18869</ele>
        <time>2012-01-29T08:01:01Z</time>
      </trkpt>
      <trkpt lat="47.72782" lon="7.42351">
        <ele>248.18869</ele>
        <time>2012-01-29T08:01:02Z</time>
      </trkpt>
      <trkpt lat="47.72782" lon="7.42351">
        <ele>248.18869</ele>
        <time>2012-01-29T08:01:03Z</time>
      </trkpt>
      <trkpt lat="47.72782" lon="7.42351">
        <ele>248.18869</ele>
        <time>2012-01-29T08:01:04Z</time>
      </trkpt>
      <trkpt lat="47.72782" lon="7.42351">
        <ele>248.18869</ele>
        <time>2012-01-29T08:01:05Z</time>
      </trkpt>
      <trkpt lat="47.72782" lon="7.42351">
        <ele>248.18869</ele>
        <time>2012-01-29T08:01:06Z</time>
      </trkpt>
      <trkpt lat="47.72782" lon="7.42351">
        <ele>248.18869</ele>
        <time>2012-01-29T08:01:07Z</time>
      </trkpt>
      <trkpt lat="47.72782" lon="7.42351">
        <ele>248.18869</ele>
        <time>2012-01-29T08:01:08Z</time>
      </trkpt>
      <trkpt lat="47.72782" lon="7.42351">
        <ele>248.18869</ele>
        <time>2012-01-29T08:01:09Z</time>
      </trkpt>
      <trkpt lat="47.72782" lon="7.42351">
        <ele>248.18869</ele>
        <time>2012-01-29T08:01:10Z</time>
      </trkpt>
      <trkpt lat="47.72782" lon="7.42351">
        <ele>248.18869</ele>
        <time>2012-01-29T08:01:11Z</time>
      </trkpt>
      <trkpt lat="47.72782" lon="7.42351">
        <ele>248.18869</ele>
        <time>2012-01-29T08:01:12Z</time>
      </trkpt>
      <trkpt lat="47.72782" lon="7.42351">
        <ele>248.18869</ele>
        <time>2012-01-29T08:01:13Z</time>
      </trkpt>
      <trkpt lat="47.72782" lon="7.42351">
        <ele>248.18869</ele>
        <time>2012-01-29T08:01:14Z</time>
      </trkpt>
      <trkpt lat="47.72782" lon="7.42351">
        <ele>248.18869</ele>
        <time>2012-01-29T08:01:15Z</time>
      </trkpt>
      <trkpt lat="47.72782" lon="7.42351">
        <ele>248.18869</ele>
        <time>2012-01-29T08:01:16Z</time>
      </trkpt>
      <trkpt lat="47.72782" lon="7.42351">
        <ele>248.18869</ele>
        <time>2012-01-29T08:01:17Z</time>
      </trkpt>
      <trkpt lat="47.72782" lon="7.42351">
        <ele>248.18869</ele>
        <time>2012-01-29T08:01:18Z</time>
      </trkpt>
      <trkpt lat="47.72782" lon="7.42351">
        <ele>248.18869</ele>
        <time>2012-01-29T08:01:19Z</time>
      </trkpt>
      <trkpt lat="47.72782" lon="7.42351">
        <ele>248.18869</ele>
        <time>2012-01-29T08:01:20Z</time>
      </trkpt>
      <trkpt lat="47.72782" lon="7.42351">
        <ele>248.18869</ele>
        <time>2012-01-29T08:01:21Z</time>
      </trkpt>
      <trkpt lat="47.72782" lon="7.42351">
        <ele>248.18869</ele>
        <time>2012-01-29T08:01:22Z</time>
      </trkpt>
      <trkpt lat="47.72782" lon="7.42351">
        <ele>248.18869</ele>
        <time>2012-01-29T08:01:23Z</time>
      </trkpt>
      <trkpt lat="47.72782" lon="7.42357">
        <ele>244.522003</ele>
        <time>2012-01-29T08:01:24Z</time>
      </trkpt>
      <trkpt lat="47.72782" lon="7.42357">
        <ele>245.647247</ele>
        <time>2012-01-29T08:01:25Z</time>
      </trkpt>
      <trkpt lat="47.72782" lon="7.42357">
        <ele>246.090149</ele>
        <time>2012-01-29T08:01:26Z</time>
      </trkpt>
      <trkpt lat="47.72782" lon="7.42357">
        <ele>245.991364</ele>
        <time>2012-01-29T08:01:27Z</time>
      </trkpt>
      <trkpt lat="47.72783" lon="7.42357">
        <ele>246.714752</ele>
        <time>2012-01-29T08:01:28Z</time>
      </trkpt>
      <trkpt lat="47.72783" lon="7.42357">
        <ele>247.03598</ele>
        <time>2012-01-29T08:01:29Z</time>
      </trkpt>
      <trkpt lat="47.72782" lon="7.42356">
        <ele>245.43396</ele>
        <time>2012-01-29T08:01:30Z</time>
      </trkpt>
      <trkpt lat="47.72782" lon="7.42356">
        <ele>244.84848</ele>
        <time>2012-01-29T08:01:31Z</time>
      </trkpt>
      <trkpt lat="47.72782" lon="7.42356">
        <ele>243.771912</ele>
        <time>2012-01-29T08:01:32Z</time>
      </trkpt>
      <trkpt lat="47.72782" lon="7.42356">
        <ele>244.782684</ele>
        <time>2012-01-29T08:01:33Z</time>
      </trkpt>
      <trkpt lat="47.72782" lon="7.42356">
        <ele>241.549683</ele>
        <time>2012-01-29T08:01:34Z</time>
      </trkpt>
      <trkpt lat="47.72782" lon="7.42356">
        <ele>245.595459</ele>
        <time>2012-01-29T08:01:35Z</time>
      </trkpt>
      <trkpt lat="47.72782" lon="7.42356">
        <ele>244.874573</ele>
        <time>2012-01-29T08:01:36Z</time>
      </trkpt>
      <trkpt lat="47.72782" lon="7.42356">
        <ele>246.624664</ele>
        <time>2012-01-29T08:01:37Z</time>
      </trkpt>
      <trkpt lat="47.72782" lon="7.42356">
        <ele>248.068939</ele>
        <time>2012-01-29T08:01:38Z</time>
      </trkpt>
      <trkpt lat="47.72782" lon="7.42356">
        <ele>245.782898</ele>
        <time>2012-01-29T08:01:39Z</time>
      </trkpt>
      <trkpt lat="47.72782" lon="7.42356">
        <ele>246.503418</ele>
        <time>2012-01-29T08:01:40Z</time>
      </trkpt>
      <trkpt lat="47.72782" lon="7.42356">
        <ele>246.49704</ele>
        <time>2012-01-29T08:01:41Z</time>
      </trkpt>
      <trkpt lat="47.72782" lon="7.42356">
        <ele>246.973663</ele>
        <time>2012-01-29T08:01:42Z</time>
      </trkpt>
      <trkpt lat="47.72782" lon="7.42356">
        <ele>247.336304</ele>
        <time>2012-01-29T08:01:43Z</time>
      </trkpt>
      <trkpt lat="47.72782" lon="7.42356">
        <ele>250.582458</ele>
        <time>2012-01-29T08:01:44Z</time>
      </trkpt>
      <trkpt lat="47.72782" lon="7.42356">
        <ele>250.561737</ele>
        <time>2012-01-29T08:01:45Z</time>
      </trkpt>
      <trkpt lat="47.72782" lon="7.42356">
        <ele>248.697021</ele>
        <time>2012-01-29T08:01:46Z</time>
      </trkpt>
      <trkpt lat="47.72782" lon="7.42356">
        <ele>249.090881</ele>
        <time>2012-01-29T08:01:47Z</time>
      </trkpt>
      <trkpt lat="47.72782" lon="7.42356">
        <ele>249.894409</ele>
        <time>2012-01-29T08:01:48Z</time>
      </trkpt>
      <trkpt lat="47.72782" lon="7.42356">
        <ele>247.058838</ele>
        <time>2012-01-29T08:01:49Z</time>
      </trkpt>
      <trkpt lat="47.72782" lon="7.42356">
        <ele>247.309998</ele>
        <time>2012-01-29T08:01:50Z</time>
      </trkpt>
      <trkpt lat="47.72782" lon="7.42356">
        <ele>248.455505</ele>
        <time>2012-01-29T08:01:51Z</time>
      </trkpt>
      <trkpt lat="47.72782" lon="7.42356">
        <ele>250.691681</ele>
        <time>2012-01-29T08:01:52Z</time>
      </trkpt>
      <trkpt lat="47.72782" lon="7.42356">
        <ele>251.8284</ele>
        <time>2012-01-29T08:01:53Z</time>
      </trkpt>
      <trkpt lat="47.72782" lon="7.42356">
        <ele>250.692444</ele>
        <time>2012-01-29T08:01:54Z</time>
      </trkpt>
      <trkpt lat="47.72782" lon="7.42356">
        <ele>250.643036</ele>
        <time>2012-01-29T08:01:55Z</time>
      </trkpt>
      <trkpt lat="47.72782" lon="7.42356">
        <ele>250.835327</ele>
        <time>2012-01-29T08:01:56Z</time>
      </trkpt>
      <trkpt lat="47.72782" lon="7.42356">
        <ele>250.430267</ele>
        <time>2012-01-29T08:01:57Z</time>
      </trkpt>
      <trkpt lat="47.72782" lon="7.42356">
        <ele>251.78006</ele>
        <time>2012-01-29T08:01:58Z</time>
      </trkpt>
      <trkpt lat="47.72782" lon="7.42356">
        <ele>251.337036</ele>
        <time>2012-01-29T08:01:59Z</time>
      </trkpt>
      <trkpt lat="47.72782" lon="7.42356">
        <ele>250.348358</ele>
        <time>2012-01-29T08:02:00Z</time>
      </trkpt>
      <trkpt lat="47.72782" lon="7.42356">
        <ele>251.867645</ele>
        <time>2012-01-29T08:02:01Z</time>
      </trkpt>
      <trkpt lat="47.72782" lon="7.42356">
        <ele>249.392578</ele>
        <time>2012-01-29T08:02:02Z</time>
      </trkpt>
      <trkpt lat="47.72782" lon="7.42356">
        <ele>250.162567</ele>
        <time>2012-01-29T08:02:03Z</time>
      </trkpt>
      <trkpt lat="47.72782" lon="7.42356">
        <ele>249.334839</ele>
        <time>2012-01-29T08:02:04Z</time>
      </trkpt>
      <trkpt lat="47.72782" lon="7.42356">
        <ele>250.404053</ele>
        <time>2012-01-29T08:02:05Z</time>
      </trkpt>
      <trkpt lat="47.72782" lon="7.42356">
        <ele>250.66684</ele>
        <time>2012-01-29T08:02:06Z</time>
      </trkpt>
      <trkpt lat="47.72782" lon="7.42356">
        <ele>251.117859</ele>
        <time>2012-01-29T08:02:07Z</time>
      </trkpt>
      <trkpt lat="47.72782" lon="7.42356">
        <ele>250.632965</ele>
        <time>2012-01-29T08:02:08Z</time>
      </trkpt>
      <trkpt lat="47.72782" lon="7.42356">
        <ele>250.637146</ele>
        <time>2012-01-29T08:02:09Z</time>
      </trkpt>
      <trkpt lat="47.72782" lon="7.42356">
        <ele>250.639313</ele>
        <time>2012-01-29T08:02:10Z</time>
      </trkpt>
      <trkpt lat="47.72782" lon="7.42356">
        <ele>250.437103</ele>
        <time>2012-01-29T08:02:11Z</time>
      </trkpt>
      <trkpt lat="47.72782" lon="7.42356">
        <ele>250.370911</ele>
        <time>2012-01-29T08:02:12Z</time>
      </trkpt>
      <trkpt lat="47.72782" lon="7.42356">
        <ele>250.297394</ele>
        <time>2012-01-29T08:02:13Z</time>
      </trkpt>
      <trkpt lat="47.72782" lon="7.42356">
        <ele>249.029999</ele>
        <time>2012-01-29T08:02:14Z</time>
      </trkpt>
      <trkpt lat="47.72782" lon="7.42356">
        <ele>248.198853</ele>
        <time>2012-01-29T08:02:15Z</time>
      </trkpt>
      <trkpt lat="47.72782" lon="7.42356">
        <ele>247.376526</ele>
        <time>2012-01-29T08:02:16Z</time>
      </trkpt>
      <trkpt lat="47.72782" lon="7.42356">
        <ele>247.076111</ele>
        <time>2012-01-29T08:02:17Z</time>
      </trkpt>
      <trkpt lat="47.72782" lon="7.42356">
        <ele>247.01297</ele>
        <time>2012-01-29T08:02:18Z</time>
      </trkpt>
      <trkpt lat="47.72782" lon="7.42356">
        <ele>247.325928</ele>
        <time>2012-01-29T08:02:19Z</time>
      </trkpt>
      <trkpt lat="47.72782" lon="7.42356">
        <ele>247.694061</ele>
        <time>2012-01-29T08:02:20Z</time>
      </trkpt>
      <trkpt lat="47.72782" lon="7.42356">
        <ele>248.235199</ele>
        <time>2012-01-29T08:02:21Z</time>
      </trkpt>
      <trkpt lat="47.72782" lon="7.42356">
        <ele>248.6297</ele>
        <time>2012-01-29T08:02:22Z</time>
      </trkpt>
      <trkpt lat="47.72782" lon="7.42356">
        <ele>249.292145</ele>
        <time>2012-01-29T08:02:23Z</time>
      </trkpt>
      <trkpt lat="47.72782" lon="7.42356">
        <ele>250.556763</ele>
        <time>2012-01-29T08:02:24Z</time>
      </trkpt>
      <trkpt lat="47.72782" lon="7.42356">
        <ele>252.019592</ele>
        <time>2012-01-29T08:02:25Z</time>
      </trkpt>
      <trkpt lat="47.72782" lon="7.42356">
        <ele>252.708649</ele>
        <time>2012-01-29T08:02:26Z</time>
      </trkpt>
      <trkpt lat="47.72782" lon="7.42356">
        <ele>252.772461</ele>
        <time>2012-01-29T08:02:27Z</time>
      </trkpt>
      <trkpt lat="47.72782" lon="7.42356">
        <ele>252.476746</ele>
        <time>2012-01-29T08:02:28Z</time>
      </trkpt>
      <trkpt lat="47.72782" lon="7.42356">
        <ele>251.623566</ele>
        <time>2012-01-29T08:02:29Z</time>
      </trkpt>
      <trkpt lat="47.72782" lon="7.42356">
        <ele>251.809082</ele>
        <time>2012-01-29T08:02:30Z</time>
      </trkpt>
      <trkpt lat="47.72782" lon="7.42356">
        <ele>254.428619</ele>
        <time>2012-01-29T08:02:31Z</time>
      </trkpt>
      <trkpt lat="47.72782" lon="7.42356">
        <ele>257.871918</ele>
        <time>2012-01-29T08:02:32Z</time>
      </trkpt>
      <trkpt lat="47.72782" lon="7.42356">
        <ele>261.846344</ele>
        <time>2012-01-29T08:02:33Z</time>
      </trkpt>
      <trkpt lat="47.72782" lon="7.42356">
        <ele>264.370056</ele>
        <time>2012-01-29T08:02:34Z</time>
      </trkpt>
      <trkpt lat="47.72782" lon="7.42356">
        <ele>263.932373</ele>
        <time>2012-01-29T08:02:35Z</time>
      </trkpt>
      <trkpt lat="47.72782" lon="7.42356">
        <ele>263.162262</ele>
        <time>2012-01-29T08:02:36Z</time>
      </trkpt>
      <trkpt lat="47.72782" lon="7.42356">
        <ele>261.588348</ele>
        <time>2012-01-29T08:02:37Z</time>
      </trkpt>
      <trkpt lat="47.72782" lon="7.42356">
        <ele>259.724396</ele>
        <time>2012-01-29T08:02:38Z</time>
      </trkpt>
      <trkpt lat="47.72782" lon="7.42356">
        <ele>259.369415</ele>
        <time>2012-01-29T08:02:39Z</time>
      </trkpt>
      <trkpt lat="47.72782" lon="7.42356">
        <ele>258.595184</ele>
        <time>2012-01-29T08:02:40Z</time>
      </trkpt>
      <trkpt lat="47.72782" lon="7.42356">
        <ele>257.994141</ele>
        <time>2012-01-29T08:02:41Z</time>
      </trkpt>
      <trkpt lat="47.72782" lon="7.42356">
        <ele>256.300201</ele>
        <time>2012-01-29T08:02:42Z</time>
      </trkpt>
      <trkpt lat="47.72782" lon="7.42356">
        <ele>256.200897</ele>
        <time>2012-01-29T08:02:43Z</time>
      </trkpt>
      <trkpt lat="47.72782" lon="7.42356">
        <ele>255.474792</ele>
        <time>2012-01-29T08:02:44Z</time>
      </trkpt>
      <trkpt lat="47.72782" lon="7.42356">
        <ele>254.73999</ele>
        <time>2012-01-29T08:02:45Z</time>
      </trkpt>
      <trkpt lat="47.72782" lon="7.42356">
        <ele>254.682617</ele>
        <time>2012-01-29T08:02:46Z</time>
      </trkpt>
      <trkpt lat="47.72782" lon="7.42356">
        <ele>254.296692</ele>
        <time>2012-01-29T08:02:47Z</time>
      </trkpt>
      <trkpt lat="47.72782" lon="7.42356">
        <ele>253.948029</ele>
        <time>2012-01-29T08:02:48Z</time>
      </trkpt>
      <trkpt lat="47.72782" lon="7.42356">
        <ele>253.767761</ele>
        <time>2012-01-29T08:02:49Z</time>
      </trkpt>
      <trkpt lat="47.72782" lon="7.42356">
        <ele>253.165894</ele>
        <time>2012-01-29T08:02:50Z</time>
      </trkpt>
      <trkpt lat="47.72782" lon="7.42356">
        <ele>252.754181</ele>
        <time>2012-01-29T08:02:51Z</time>
      </trkpt>
      <trkpt lat="47.72782" lon="7.42356">
        <ele>252.075897</ele>
        <time>2012-01-29T08:02:52Z</time>
      </trkpt>
      <trkpt lat="47.72782" lon="7.42356">
        <ele>251.883698</ele>
        <time>2012-01-29T08:02:53Z</time>
      </trkpt>
      <trkpt lat="47.72782" lon="7.42356">
        <ele>254.999481</ele>
        <time>2012-01-29T08:02:54Z</time>
      </trkpt>
      <trkpt lat="47.72782" lon="7.42356">
        <ele>256.16861</ele>
        <time>2012-01-29T08:02:55Z</time>
      </trkpt>
      <trkpt lat="47.72783" lon="7.42357">
        <ele>253.106964</ele>
        <time>2012-01-29T08:02:56Z</time>
      </trkpt>
      <trkpt lat="47.72783" lon="7.42357">
        <ele>250.490448</ele>
        <time>2012-01-29T08:02:57Z</time>
      </trkpt>
      <trkpt lat="47.72783" lon="7.42357">
        <ele>249.306488</ele>
        <time>2012-01-29T08:02:58Z</time>
      </trkpt>
      <trkpt lat="47.72783" lon="7.42358">
        <ele>249.241821</ele>
        <time>2012-01-29T08:02:59Z</time>
      </trkpt>
      <trkpt lat="47.72783" lon="7.42358">
        <ele>247.559296</ele>
        <time>2012-01-29T08:03:00Z</time>
      </trkpt>
      <trkpt lat="47.72783" lon="7.42359">
        <ele>246.138153</ele>
        <time>2012-01-29T08:03:01Z</time>
      </trkpt>
      <trkpt lat="47.72783" lon="7.42359">
        <ele>247.81488</ele>
        <time>2012-01-29T08:03:02Z</time>
      </trkpt>
      <trkpt lat="47.72783" lon="7.42359">
        <ele>246.731232</ele>
        <time>2012-01-29T08:03:03Z</time>
      </trkpt>
      <trkpt lat="47.72783" lon="7.42359">
        <ele>245.964722</ele>
        <time>2012-01-29T08:03:04Z</time>
      </trkpt>
      <trkpt lat="47.72783" lon="7.42359">
        <ele>247.371796</ele>
        <time>2012-01-29T08:03:05Z</time>
      </trkpt>
      <trkpt lat="47.72783" lon="7.42359">
        <ele>248.539978</ele>
        <time>2012-01-29T08:03:06Z</time>
      </trkpt>
      <trkpt lat="47.72783" lon="7.42359">
        <ele>248.331757</ele>
        <time>2012-01-29T08:03:07Z</time>
      </trkpt>
      <trkpt lat="47.72783" lon="7.42359">
        <ele>247.835663</ele>
        <time>2012-01-29T08:03:08Z</time>
      </trkpt>
      <trkpt lat="47.72783" lon="7.42359">
        <ele>245.462433</ele>
        <time>2012-01-29T08:03:09Z</time>
      </trkpt>
      <trkpt lat="47.72783" lon="7.42359">
        <ele>243.905518</ele>
        <time>2012-01-29T08:03:10Z</time>
      </trkpt>
      <trkpt lat="47.72783" lon="7.42359">
        <ele>246.399567</ele>
        <time>2012-01-29T08:03:11Z</time>
      </trkpt>
      <trkpt lat="47.72783" lon="7.42359">
        <ele>249.348297</ele>
        <time>2012-01-29T08:03:12Z</time>
      </trkpt>
      <trkpt lat="47.72783" lon="7.42359">
        <ele>247.124908</ele>
        <time>2012-01-29T08:03:13Z</time>
      </trkpt>
      <trkpt lat="47.72783" lon="7.42361">
        <ele>247.679169</ele>
        <time>2012-01-29T08:03:14Z</time>
      </trkpt>
      <trkpt lat="47.72783" lon="7.42361">
        <ele>249.051514</ele>
        <time>2012-01-29T08:03:15Z</time>
      </trkpt>
      <trkpt lat="47.72783" lon="7.42361">
        <ele>249.272461</ele>
        <time>2012-01-29T08:03:16Z</time>
      </trkpt>
      <trkpt lat="47.72783" lon="7.42361">
        <ele>249.949738</ele>
        <time>2012-01-29T08:03:17Z</time>
      </trkpt>
      <trkpt lat="47.72783" lon="7.42361">
        <ele>251.806</ele>
        <time>2012-01-29T08:03:18Z</time>
      </trkpt>
      <trkpt lat="47.72783" lon="7.42361">
        <ele>249.483948</ele>
        <time>2012-01-29T08:03:19Z</time>
      </trkpt>
      <trkpt lat="47.72783" lon="7.42361">
        <ele>247.904816</ele>
        <time>2012-01-29T08:03:20Z</time>
      </trkpt>
      <trkpt lat="47.72783" lon="7.42366">
        <ele>245.578461</ele>
        <time>2012-01-29T08:03:21Z</time>
      </trkpt>
      <trkpt lat="47.72782" lon="7.42365">
        <ele>246.895142</ele>
        <time>2012-01-29T08:03:22Z</time>
      </trkpt>
      <trkpt lat="47.72782" lon="7.42365">
        <ele>250.768311</ele>
        <time>2012-01-29T08:03:23Z</time>
      </trkpt>
      <trkpt lat="47.72782" lon="7.42365">
        <ele>250.45752</ele>
        <time>2012-01-29T08:03:24Z</time>
      </trkpt>
      <trkpt lat="47.72782" lon="7.42365">
        <ele>247.284851</ele>
        <time>2012-01-29T08:03:25Z</time>
      </trkpt>
      <trkpt lat="47.72782" lon="7.42365">
        <ele>247.498871</ele>
        <time>2012-01-29T08:03:26Z</time>
      </trkpt>
      <trkpt lat="47.72782" lon="7.42365">
        <ele>247.77652</ele>
        <time>2012-01-29T08:03:27Z</time>
      </trkpt>
      <trkpt lat="47.72782" lon="7.42365">
        <ele>250.361938</ele>
        <time>2012-01-29T08:03:28Z</time>
      </trkpt>
      <trkpt lat="47.72782" lon="7.42365">
        <ele>247.223175</ele>
        <time>2012-01-29T08:03:29Z</time>
      </trkpt>
      <trkpt lat="47.72782" lon="7.42365">
        <ele>248.843567</ele>
        <time>2012-01-29T08:03:31Z</time>
      </trkpt>
      <trkpt lat="47.72782" lon="7.42365">
        <ele>246.449768</ele>
        <time>2012-01-29T08:03:32Z</time>
      </trkpt>
      <trkpt lat="47.72782" lon="7.42365">
        <ele>246.552124</ele>
        <time>2012-01-29T08:03:33Z</time>
      </trkpt>
      <trkpt lat="47.72782" lon="7.42365">
        <ele>245.822968</ele>
        <time>2012-01-29T08:03:34Z</time>
      </trkpt>
      <trkpt lat="47.72782" lon="7.42365">
        <ele>245.587311</ele>
        <time>2012-01-29T08:03:35Z</time>
      </trkpt>
      <trkpt lat="47.72782" lon="7.42365">
        <ele>244.914856</ele>
        <time>2012-01-29T08:03:36Z</time>
      </trkpt>
      <trkpt lat="47.72782" lon="7.42365">
        <ele>239.841736</ele>
        <time>2012-01-29T08:03:38Z</time>
      </trkpt>
      <trkpt lat="47.72782" lon="7.42365">
        <ele>242.220886</ele>
        <time>2012-01-29T08:03:39Z</time>
      </trkpt>
      <trkpt lat="47.72782" lon="7.42365">
        <ele>242.479248</ele>
        <time>2012-01-29T08:03:40Z</time>
      </trkpt>
      <trkpt lat="47.72782" lon="7.42365">
        <ele>238.181244</ele>
        <time>2012-01-29T08:03:41Z</time>
      </trkpt>
      <trkpt lat="47.72781" lon="7.42367">
        <ele>245.000336</ele>
        <time>2012-01-29T08:03:43Z</time>
      </trkpt>
      <trkpt lat="47.72781" lon="7.42367">
        <ele>241.947571</ele>
        <time>2012-01-29T08:03:44Z</time>
      </trkpt>
      <trkpt lat="47.72781" lon="7.42367">
        <ele>243.472931</ele>
        <time>2012-01-29T08:03:45Z</time>
      </trkpt>
      <trkpt lat="47.72781" lon="7.42367">
        <ele>243.15097</ele>
        <time>2012-01-29T08:03:46Z</time>
      </trkpt>
      <trkpt lat="47.72781" lon="7.42367">
        <ele>244.727753</ele>
        <time>2012-01-29T08:03:47Z</time>
      </trkpt>
      <trkpt lat="47.72781" lon="7.42366">
        <ele>244.791748</ele>
        <time>2012-01-29T08:03:48Z</time>
      </trkpt>
      <trkpt lat="47.72781" lon="7.42366">
        <ele>244.02774</ele>
        <time>2012-01-29T08:03:50Z</time>
      </trkpt>
      <trkpt lat="47.72781" lon="7.42366">
        <ele>245.318939</ele>
        <time>2012-01-29T08:03:51Z</time>
      </trkpt>
      <trkpt lat="47.72781" lon="7.42366">
        <ele>246.606049</ele>
        <time>2012-01-29T08:03:52Z</time>
      </trkpt>
      <trkpt lat="47.72781" lon="7.42366">
        <ele>245.229553</ele>
        <time>2012-01-29T08:03:53Z</time>
      </trkpt>
      <trkpt lat="47.72781" lon="7.42366">
        <ele>244.303436</ele>
        <time>2012-01-29T08:03:54Z</time>
      </trkpt>
      <trkpt lat="47.72781" lon="7.42366">
        <ele>242.178497</ele>
        <time>2012-01-29T08:03:56Z</time>
      </trkpt>
      <trkpt lat="47.72781" lon="7.42366">
        <ele>239.599823</ele>
        <time>2012-01-29T08:03:57Z</time>
      </trkpt>
      <trkpt lat="47.72781" lon="7.42366">
        <ele>238.677734</ele>
        <time>2012-01-29T08:03:58Z</time>
      </trkpt>
      <trkpt lat="47.72781" lon="7.42366">
        <ele>238.571075</ele>
        <time>2012-01-29T08:03:59Z</time>
      </trkpt>
      <trkpt lat="47.72781" lon="7.42366">
        <ele>240.469055</ele>
        <time>2012-01-29T08:04:00Z</time>
      </trkpt>
      <trkpt lat="47.72781" lon="7.42366">
        <ele>241.218536</ele>
        <time>2012-01-29T08:04:01Z</time>
      </trkpt>
      <trkpt lat="47.72781" lon="7.42366">
        <ele>243.371582</ele>
        <time>2012-01-29T08:04:03Z</time>
      </trkpt>
      <trkpt lat="47.72781" lon="7.42366">
        <ele>244.399658</ele>
        <time>2012-01-29T08:04:04Z</time>
      </trkpt>
      <trkpt lat="47.72781" lon="7.42366">
        <ele>243.847473</ele>
        <time>2012-01-29T08:04:05Z</time>
      </trkpt>
      <trkpt lat="47.72781" lon="7.42366">
        <ele>243.181824</ele>
        <time>2012-01-29T08:04:06Z</time>
      </trkpt>
      <trkpt lat="47.72781" lon="7.42366">
        <ele>242.970581</ele>
        <time>2012-01-29T08:04:07Z</time>
      </trkpt>
      <trkpt lat="47.72781" lon="7.42366">
        <ele>243.540466</ele>
        <time>2012-01-29T08:04:08Z</time>
      </trkpt>
      <trkpt lat="47.72781" lon="7.42366">
        <ele>242.324341</ele>
        <time>2012-01-29T08:04:09Z</time>
      </trkpt>
      <trkpt lat="47.72781" lon="7.42366">
        <ele>242.158478</ele>
        <time>2012-01-29T08:04:10Z</time>
      </trkpt>
      <trkpt lat="47.72781" lon="7.42366">
        <ele>239.932556</ele>
        <time>2012-01-29T08:04:12Z</time>
      </trkpt>
      <trkpt lat="47.72781" lon="7.42366">
        <ele>237.870636</ele>
        <time>2012-01-29T08:04:13Z</time>
      </trkpt>
      <trkpt lat="47.72781" lon="7.42366">
        <ele>236.634521</ele>
        <time>2012-01-29T08:04:14Z</time>
      </trkpt>
      <trkpt lat="47.72781" lon="7.42366">
        <ele>237.174225</ele>
        <time>2012-01-29T08:04:15Z</time>
      </trkpt>
      <trkpt lat="47.72781" lon="7.42366">
        <ele>238.378998</ele>
        <time>2012-01-29T08:04:16Z</time>
      </trkpt>
      <trkpt lat="47.72781" lon="7.42366">
        <ele>238.383118</ele>
        <time>2012-01-29T08:04:18Z</time>
      </trkpt>
      <trkpt lat="47.72781" lon="7.42366">
        <ele>239.187347</ele>
        <time>2012-01-29T08:04:19Z</time>
      </trkpt>
      <trkpt lat="47.72781" lon="7.42366">
        <ele>240.643646</ele>
        <time>2012-01-29T08:04:20Z</time>
      </trkpt>
      <trkpt lat="47.72781" lon="7.42366">
        <ele>239.023529</ele>
        <time>2012-01-29T08:04:21Z</time>
      </trkpt>
      <trkpt lat="47.7278" lon="7.42364">
        <ele>241.293671</ele>
        <time>2012-01-29T08:04:23Z</time>
      </trkpt>
      <trkpt lat="47.7278" lon="7.42364">
        <ele>241.758057</ele>
        <time>2012-01-29T08:04:24Z</time>
      </trkpt>
      <trkpt lat="47.7278" lon="7.42364">
        <ele>241.902039</ele>
        <time>2012-01-29T08:04:25Z</time>
      </trkpt>
      <trkpt lat="47.7278" lon="7.42364">
        <ele>242.234589</ele>
        <time>2012-01-29T08:04:26Z</time>
      </trkpt>
      <trkpt lat="47.7278" lon="7.42364">
        <ele>243.665863</ele>
        <time>2012-01-29T08:04:27Z</time>
      </trkpt>
      <trkpt lat="47.7278" lon="7.42364">
        <ele>244.375</ele>
        <time>2012-01-29T08:04:29Z</time>
      </trkpt>
      <trkpt lat="47.7278" lon="7.42364">
        <ele>243.647614</ele>
        <time>2012-01-29T08:04:30Z</time>
      </trkpt>
      <trkpt lat="47.7278" lon="7.42364">
        <ele>243.077606</ele>
        <time>2012-01-29T08:04:31Z</time>
      </trkpt>
      <trkpt lat="47.7278" lon="7.42364">
        <ele>242.409607</ele>
        <time>2012-01-29T08:04:32Z</time>
      </trkpt>
      <trkpt lat="47.7278" lon="7.42364">
        <ele>243.365051</ele>
        <time>2012-01-29T08:04:34Z</time>
      </trkpt>
      <trkpt lat="47.7278" lon="7.42364">
        <ele>244.078949</ele>
        <time>2012-01-29T08:04:35Z</time>
      </trkpt>
      <trkpt lat="47.7278" lon="7.42364">
        <ele>245.290771</ele>
        <time>2012-01-29T08:04:36Z</time>
      </trkpt>
      <trkpt lat="47.7278" lon="7.42364">
        <ele>246.999451</ele>
        <time>2012-01-29T08:04:37Z</time>
      </trkpt>
      <trkpt lat="47.7278" lon="7.42364">
        <ele>248.042755</ele>
        <time>2012-01-29T08:04:38Z</time>
      </trkpt>
      <trkpt lat="47.7278" lon="7.42364">
        <ele>249.031189</ele>
        <time>2012-01-29T08:04:40Z</time>
      </trkpt>
      <trkpt lat="47.7278" lon="7.42364">
        <ele>248.333008</ele>
        <time>2012-01-29T08:04:41Z</time>
      </trkpt>
      <trkpt lat="47.7278" lon="7.42364">
        <ele>247.402374</ele>
        <time>2012-01-29T08:04:42Z</time>
      </trkpt>
      <trkpt lat="47.7278" lon="7.42364">
        <ele>246.324219</ele>
        <time>2012-01-29T08:04:43Z</time>
      </trkpt>
      <trkpt lat="47.7278" lon="7.42364">
        <ele>246.122131</ele>
        <time>2012-01-29T08:04:45Z</time>
      </trkpt>
      <trkpt lat="47.7278" lon="7.42364">
        <ele>245.964752</ele>
        <time>2012-01-29T08:04:46Z</time>
      </trkpt>
      <trkpt lat="47.7278" lon="7.42364">
        <ele>245.329254</ele>
        <time>2012-01-29T08:04:47Z</time>
      </trkpt>
      <trkpt lat="47.7278" lon="7.42364">
        <ele>244.57132</ele>
        <time>2012-01-29T08:04:48Z</time>
      </trkpt>
      <trkpt lat="47.7278" lon="7.42364">
        <ele>242.140747</ele>
        <time>2012-01-29T08:04:49Z</time>
      </trkpt>
      <trkpt lat="47.7278" lon="7.42364">
        <ele>247.842621</ele>
        <time>2012-01-29T08:04:51Z</time>
      </trkpt>
      <trkpt lat="47.7278" lon="7.42364">
        <ele>249.807068</ele>
        <time>2012-01-29T08:04:52Z</time>
      </trkpt>
      <trkpt lat="47.7278" lon="7.42364">
        <ele>249.51297</ele>
        <time>2012-01-29T08:04:53Z</time>
      </trkpt>
      <trkpt lat="47.7278" lon="7.42364">
        <ele>248.411774</ele>
        <time>2012-01-29T08:04:54Z</time>
      </trkpt>
      <trkpt lat="47.7278" lon="7.42364">
        <ele>247.96991</ele>
        <time>2012-01-29T08:04:55Z</time>
      </trkpt>
      <trkpt lat="47.7278" lon="7.42364">
        <ele>250.138702</ele>
        <time>2012-01-29T08:04:57Z</time>
      </trkpt>
      <trkpt lat="47.7278" lon="7.42364">
        <ele>251.185333</ele>
        <time>2012-01-29T08:04:58Z</time>
      </trkpt>
      <trkpt lat="47.7278" lon="7.42364">
        <ele>251.738739</ele>
        <time>2012-01-29T08:04:59Z</time>
      </trkpt>
      <trkpt lat="47.7278" lon="7.42364">
        <ele>251.867004</ele>
        <time>2012-01-29T08:05:00Z</time>
      </trkpt>
      <trkpt lat="47.7278" lon="7.42364">
        <ele>247.370056</ele>
        <time>2012-01-29T08:05:01Z</time>
      </trkpt>
      <trkpt lat="47.7278" lon="7.42364">
        <ele>247.917633</ele>
        <time>2012-01-29T08:05:03Z</time>
      </trkpt>
      <trkpt lat="47.7278" lon="7.42364">
        <ele>247.953705</ele>
        <time>2012-01-29T08:05:04Z</time>
      </trkpt>
      <trkpt lat="47.7278" lon="7.42364">
        <ele>248.771027</ele>
        <time>2012-01-29T08:05:05Z</time>
      </trkpt>
      <trkpt lat="47.7278" lon="7.42364">
        <ele>247.63623</ele>
        <time>2012-01-29T08:05:06Z</time>
      </trkpt>
      <trkpt lat="47.7278" lon="7.42364">
        <ele>244.211823</ele>
        <time>2012-01-29T08:05:08Z</time>
      </trkpt>
      <trkpt lat="47.7278" lon="7.42364">
        <ele>242.212128</ele>
        <time>2012-01-29T08:05:09Z</time>
      </trkpt>
      <trkpt lat="47.7278" lon="7.42364">
        <ele>242.415253</ele>
        <time>2012-01-29T08:05:10Z</time>
      </trkpt>
      <trkpt lat="47.7278" lon="7.42364">
        <ele>242.6073</ele>
        <time>2012-01-29T08:05:11Z</time>
      </trkpt>
      <trkpt lat="47.7278" lon="7.42364">
        <ele>241.509003</ele>
        <time>2012-01-29T08:05:13Z</time>
      </trkpt>
      <trkpt lat="47.7278" lon="7.42364">
        <ele>240.648224</ele>
        <time>2012-01-29T08:05:14Z</time>
      </trkpt>
      <trkpt lat="47.7278" lon="7.42364">
        <ele>238.9758</ele>
        <time>2012-01-29T08:05:15Z</time>
      </trkpt>
      <trkpt lat="47.7278" lon="7.42364">
        <ele>238.401001</ele>
        <time>2012-01-29T08:05:16Z</time>
      </trkpt>
      <trkpt lat="47.72781" lon="7.42363">
        <ele>239.249298</ele>
        <time>2012-01-29T08:05:17Z</time>
      </trkpt>
      <trkpt lat="47.72781" lon="7.42363">
        <ele>238.349426</ele>
        <time>2012-01-29T08:05:19Z</time>
      </trkpt>
      <trkpt lat="47.72781" lon="7.42363">
        <ele>238.787231</ele>
        <time>2012-01-29T08:05:20Z</time>
      </trkpt>
      <trkpt lat="47.72781" lon="7.42362">
        <ele>238.314972</ele>
        <time>2012-01-29T08:05:21Z</time>
      </trkpt>
      <trkpt lat="47.72781" lon="7.42362">
        <ele>236.241241</ele>
        <time>2012-01-29T08:05:23Z</time>
      </trkpt>
      <trkpt lat="47.72781" lon="7.42362">
        <ele>235.018433</ele>
        <time>2012-01-29T08:05:24Z</time>
      </trkpt>
      <trkpt lat="47.72781" lon="7.42362">
        <ele>234.038391</ele>
        <time>2012-01-29T08:05:25Z</time>
      </trkpt>
      <trkpt lat="47.72781" lon="7.42362">
        <ele>232.769287</ele>
        <time>2012-01-29T08:05:26Z</time>
      </trkpt>
      <trkpt lat="47.72781" lon="7.42362">
        <ele>232.237915</ele>
        <time>2012-01-29T08:05:28Z</time>
      </trkpt>
      <trkpt lat="47.72781" lon="7.42361">
        <ele>234.219971</ele>
        <time>2012-01-29T08:05:29Z</time>
      </trkpt>
      <trkpt lat="47.72781" lon="7.42361">
        <ele>237.211365</ele>
        <time>2012-01-29T08:05:30Z</time>
      </trkpt>
      <trkpt lat="47.72781" lon="7.42361">
        <ele>242.286194</ele>
        <time>2012-01-29T08:05:32Z</time>
      </trkpt>
      <trkpt lat="47.72781" lon="7.42361">
        <ele>243.516449</ele>
        <time>2012-01-29T08:05:33Z</time>
      </trkpt>
      <trkpt lat="47.72781" lon="7.42361">
        <ele>243.791992</ele>
        <time>2012-01-29T08:05:34Z</time>
      </trkpt>
      <trkpt lat="47.72781" lon="7.42359">
        <ele>243.411102</ele>
        <time>2012-01-29T08:05:35Z</time>
      </trkpt>
      <trkpt lat="47.72781" lon="7.42359">
        <ele>245.450867</ele>
        <time>2012-01-29T08:05:37Z</time>
      </trkpt>
      <trkpt lat="47.72781" lon="7.42359">
        <ele>247.0112</ele>
        <time>2012-01-29T08:05:38Z</time>
      </trkpt>
      <trkpt lat="47.72781" lon="7.42359">
        <ele>247.544617</ele>
        <time>2012-01-29T08:05:39Z</time>
      </trkpt>
      <trkpt lat="47.72781" lon="7.42359">
        <ele>245.126892</ele>
        <time>2012-01-29T08:05:40Z</time>
      </trkpt>
      <trkpt lat="47.72781" lon="7.42359">
        <ele>243.044617</ele>
        <time>2012-01-29T08:05:42Z</time>
      </trkpt>
      <trkpt lat="47.72781" lon="7.42359">
        <ele>242.276825</ele>
        <time>2012-01-29T08:05:43Z</time>
      </trkpt>
      <trkpt lat="47.72781" lon="7.42359">
        <ele>243.756531</ele>
        <time>2012-01-29T08:05:44Z</time>
      </trkpt>
      <trkpt lat="47.72781" lon="7.42359">
        <ele>244.029877</ele>
        <time>2012-01-29T08:05:45Z</time>
      </trkpt>
      <trkpt lat="47.72781" lon="7.42359">
        <ele>244.635986</ele>
        <time>2012-01-29T08:05:47Z</time>
      </trkpt>
      <trkpt lat="47.72781" lon="7.42359">
        <ele>244.911224</ele>
        <time>2012-01-29T08:05:48Z</time>
      </trkpt>
      <trkpt lat="47.72781" lon="7.42359">
        <ele>246.358124</ele>
        <time>2012-01-29T08:05:49Z</time>
      </trkpt>
      <trkpt lat="47.72781" lon="7.42359">
        <ele>245.090546</ele>
        <time>2012-01-29T08:05:50Z</time>
      </trkpt>
      <trkpt lat="47.72781" lon="7.42359">
        <ele>245.355896</ele>
        <time>2012-01-29T08:05:52Z</time>
      </trkpt>
      <trkpt lat="47.72781" lon="7.42359">
        <ele>245.989899</ele>
        <time>2012-01-29T08:05:53Z</time>
      </trkpt>
      <trkpt lat="47.72781" lon="7.42359">
        <ele>246.897339</ele>
        <time>2012-01-29T08:05:54Z</time>
      </trkpt>
      <trkpt lat="47.72781" lon="7.42359">
        <ele>247.158813</ele>
        <time>2012-01-29T08:05:56Z</time>
      </trkpt>
      <trkpt lat="47.72781" lon="7.42359">
        <ele>247.104584</ele>
        <time>2012-01-29T08:05:57Z</time>
      </trkpt>
      <trkpt lat="47.72781" lon="7.42359">
        <ele>246.884308</ele>
        <time>2012-01-29T08:05:58Z</time>
      </trkpt>
      <trkpt lat="47.72781" lon="7.42359">
        <ele>247.167603</ele>
        <time>2012-01-29T08:05:59Z</time>
      </trkpt>
      <trkpt lat="47.72781" lon="7.42359">
        <ele>246.069824</ele>
        <time>2012-01-29T08:06:01Z</time>
      </trkpt>
      <trkpt lat="47.72781" lon="7.42359">
        <ele>246.386169</ele>
        <time>2012-01-29T08:06:02Z</time>
      </trkpt>
      <trkpt lat="47.72781" lon="7.42359">
        <ele>246.082703</ele>
        <time>2012-01-29T08:06:03Z</time>
      </trkpt>
      <trkpt lat="47.72781" lon="7.42359">
        <ele>246.078491</ele>
        <time>2012-01-29T08:06:04Z</time>
      </trkpt>
      <trkpt lat="47.72781" lon="7.42359">
        <ele>247.380066</ele>
        <time>2012-01-29T08:06:06Z</time>
      </trkpt>
      <trkpt lat="47.72781" lon="7.42359">
        <ele>246.671387</ele>
        <time>2012-01-29T08:06:07Z</time>
      </trkpt>
      <trkpt lat="47.72781" lon="7.42359">
        <ele>245.981415</ele>
        <time>2012-01-29T08:06:08Z</time>
      </trkpt>
      <trkpt lat="47.72781" lon="7.42359">
        <ele>245.216858</ele>
        <time>2012-01-29T08:06:10Z</time>
      </trkpt>
      <trkpt lat="47.72781" lon="7.42359">
        <ele>244.928345</ele>
        <time>2012-01-29T08:06:11Z</time>
      </trkpt>
      <trkpt lat="47.72781" lon="7.42359">
        <ele>243.201965</ele>
        <time>2012-01-29T08:06:12Z</time>
      </trkpt>
      <trkpt lat="47.72783" lon="7.42357">
        <ele>248.02774</ele>
        <time>2012-01-29T08:06:14Z</time>
      </trkpt>
      <trkpt lat="47.72783" lon="7.42357">
        <ele>249.021484</ele>
        <time>2012-01-29T08:06:15Z</time>
      </trkpt>
      <trkpt lat="47.72783" lon="7.42357">
        <ele>248.615692</ele>
        <time>2012-01-29T08:06:16Z</time>
      </trkpt>
      <trkpt lat="47.72783" lon="7.42357">
        <ele>250.548889</ele>
        <time>2012-01-29T08:06:18Z</time>
      </trkpt>
      <trkpt lat="47.72783" lon="7.42357">
        <ele>251.508942</ele>
        <time>2012-01-29T08:06:19Z</time>
      </trkpt>
      <trkpt lat="47.72783" lon="7.42357">
        <ele>253.347076</ele>
        <time>2012-01-29T08:06:20Z</time>
      </trkpt>
      <trkpt lat="47.72783" lon="7.42357">
        <ele>256.139862</ele>
        <time>2012-01-29T08:06:22Z</time>
      </trkpt>
      <trkpt lat="47.72783" lon="7.42357">
        <ele>255.482849</ele>
        <time>2012-01-29T08:06:23Z</time>
      </trkpt>
      <trkpt lat="47.72783" lon="7.42357">
        <ele>254.164215</ele>
        <time>2012-01-29T08:06:24Z</time>
      </trkpt>
      <trkpt lat="47.72783" lon="7.42357">
        <ele>253.589233</ele>
        <time>2012-01-29T08:06:25Z</time>
      </trkpt>
      <trkpt lat="47.72783" lon="7.42357">
        <ele>250.888519</ele>
        <time>2012-01-29T08:06:27Z</time>
      </trkpt>
      <trkpt lat="47.72783" lon="7.42357">
        <ele>250.917542</ele>
        <time>2012-01-29T08:06:28Z</time>
      </trkpt>
      <trkpt lat="47.72783" lon="7.42357">
        <ele>250.149506</ele>
        <time>2012-01-29T08:06:29Z</time>
      </trkpt>
      <trkpt lat="47.72783" lon="7.42357">
        <ele>250.828674</ele>
        <time>2012-01-29T08:06:31Z</time>
      </trkpt>
      <trkpt lat="47.72783" lon="7.42357">
        <ele>249.74884</ele>
        <time>2012-01-29T08:06:32Z</time>
      </trkpt>
      <trkpt lat="47.72783" lon="7.42357">
        <ele>249.572327</ele>
        <time>2012-01-29T08:06:33Z</time>
      </trkpt>
      <trkpt lat="47.72783" lon="7.42357">
        <ele>249.308228</ele>
        <time>2012-01-29T08:06:35Z</time>
      </trkpt>
      <trkpt lat="47.72783" lon="7.42357">
        <ele>249.348328</ele>
        <time>2012-01-29T08:06:36Z</time>
      </trkpt>
      <trkpt lat="47.72783" lon="7.42357">
        <ele>249.749817</ele>
        <time>2012-01-29T08:06:37Z</time>
      </trkpt>
      <trkpt lat="47.72783" lon="7.42357">
        <ele>250.216187</ele>
        <time>2012-01-29T08:06:39Z</time>
      </trkpt>
      <trkpt lat="47.72783" lon="7.42357">
        <ele>250.511841</ele>
        <time>2012-01-29T08:06:40Z</time>
      </trkpt>
      <trkpt lat="47.72783" lon="7.42357">
        <ele>250.334778</ele>
        <time>2012-01-29T08:06:41Z</time>
      </trkpt>
      <trkpt lat="47.72783" lon="7.42357">
        <ele>250.851044</ele>
        <time>2012-01-29T08:06:43Z</time>
      </trkpt>
      <trkpt lat="47.72783" lon="7.42357">
        <ele>250.390137</ele>
        <time>2012-01-29T08:06:44Z</time>
      </trkpt>
      <trkpt lat="47.72783" lon="7.42357">
        <ele>250.147766</ele>
        <time>2012-01-29T08:06:45Z</time>
      </trkpt>
      <trkpt lat="47.72783" lon="7.42357">
        <ele>249.683441</ele>
        <time>2012-01-29T08:06:46Z</time>
      </trkpt>
      <trkpt lat="47.72783" lon="7.42357">
        <ele>251.522705</ele>
        <time>2012-01-29T08:06:48Z</time>
      </trkpt>
      <trkpt lat="47.72783" lon="7.42357">
        <ele>252.33075</ele>
        <time>2012-01-29T08:06:49Z</time>
      </trkpt>
      <trkpt lat="47.72783" lon="7.42357">
        <ele>252.39975</ele>
        <time>2012-01-29T08:06:50Z</time>
      </trkpt>
      <trkpt lat="47.72783" lon="7.42357">
        <ele>251.527527</ele>
        <time>2012-01-29T08:06:52Z</time>
      </trkpt>
      <trkpt lat="47.72783" lon="7.42357">
        <ele>249.403198</ele>
        <time>2012-01-29T08:06:53Z</time>
      </trkpt>
      <trkpt lat="47.72783" lon="7.42357">
        <ele>248.939728</ele>
        <time>2012-01-29T08:06:54Z</time>
      </trkpt>
      <trkpt lat="47.72783" lon="7.42357">
        <ele>248.828003</ele>
        <time>2012-01-29T08:06:56Z</time>
      </trkpt>
      <trkpt lat="47.72783" lon="7.42357">
        <ele>248.730347</ele>
        <time>2012-01-29T08:06:57Z</time>
      </trkpt>
      <trkpt lat="47.72783" lon="7.42357">
        <ele>248.748871</ele>
        <time>2012-01-29T08:06:59Z</time>
      </trkpt>
      <trkpt lat="47.72782" lon="7.42358">
        <ele>249.797333</ele>
        <time>2012-01-29T08:07:00Z</time>
      </trkpt>
      <trkpt lat="47.72782" lon="7.42359">
        <ele>249.893646</ele>
        <time>2012-01-29T08:07:01Z</time>
      </trkpt>
      <trkpt lat="47.72783" lon="7.4236">
        <ele>249.213806</ele>
        <time>2012-01-29T08:07:03Z</time>
      </trkpt>
      <trkpt lat="47.72783" lon="7.42361">
        <ele>249.06015</ele>
        <time>2012-01-29T08:07:04Z</time>
      </trkpt>
      <trkpt lat="47.72782" lon="7.42363">
        <ele>246.388489</ele>
        <time>2012-01-29T08:07:06Z</time>
      </trkpt>
      <trkpt lat="47.72782" lon="7.42363">
        <ele>244.291534</ele>
        <time>2012-01-29T08:07:07Z</time>
      </trkpt>
      <trkpt lat="47.72782" lon="7.42363">
        <ele>243.791229</ele>
        <time>2012-01-29T08:07:08Z</time>
      </trkpt>
      <trkpt lat="47.72781" lon="7.42363">
        <ele>246.949463</ele>
        <time>2012-01-29T08:07:10Z</time>
      </trkpt>
      <trkpt lat="47.72781" lon="7.42363">
        <ele>247.467712</ele>
        <time>2012-01-29T08:07:11Z</time>
      </trkpt>
      <trkpt lat="47.72781" lon="7.42363">
        <ele>248.533539</ele>
        <time>2012-01-29T08:07:12Z</time>
      </trkpt>
      <trkpt lat="47.72781" lon="7.42363">
        <ele>247.982666</ele>
        <time>2012-01-29T08:07:14Z</time>
      </trkpt>
      <trkpt lat="47.72781" lon="7.42363">
        <ele>247.887909</ele>
        <time>2012-01-29T08:07:15Z</time>
      </trkpt>
      <trkpt lat="47.72781" lon="7.42363">
        <ele>245.358093</ele>
        <time>2012-01-29T08:07:17Z</time>
      </trkpt>
      <trkpt lat="47.72781" lon="7.42363">
        <ele>244.657684</ele>
        <time>2012-01-29T08:07:18Z</time>
      </trkpt>
      <trkpt lat="47.72781" lon="7.42363">
        <ele>244.322845</ele>
        <time>2012-01-29T08:07:19Z</time>
      </trkpt>
      <trkpt lat="47.72781" lon="7.42362">
        <ele>244.480377</ele>
        <time>2012-01-29T08:07:21Z</time>
      </trkpt>
      <trkpt lat="47.72781" lon="7.42362">
        <ele>244.996277</ele>
        <time>2012-01-29T08:07:22Z</time>
      </trkpt>
      <trkpt lat="47.7278" lon="7.42361">
        <ele>245.377838</ele>
        <time>2012-01-29T08:07:23Z</time>
      </trkpt>
      <trkpt lat="47.7278" lon="7.42361">
        <ele>244.580994</ele>
        <time>2012-01-29T08:07:25Z</time>
      </trkpt>
      <trkpt lat="47.7278" lon="7.42361">
        <ele>243.674805</ele>
        <time>2012-01-29T08:07:26Z</time>
      </trkpt>
      <trkpt lat="47.7278" lon="7.42361">
        <ele>244.258026</ele>
        <time>2012-01-29T08:07:27Z</time>
      </trkpt>
      <trkpt lat="47.7278" lon="7.42361">
        <ele>243.660797</ele>
        <time>2012-01-29T08:07:29Z</time>
      </trkpt>
      <trkpt lat="47.72781" lon="7.42358">
        <ele>246.674988</ele>
        <time>2012-01-29T08:07:30Z</time>
      </trkpt>
      <trkpt lat="47.72782" lon="7.42357">
        <ele>246.105927</ele>
        <time>2012-01-29T08:07:31Z</time>
      </trkpt>
      <trkpt lat="47.72782" lon="7.42357">
        <ele>247.3591</ele>
        <time>2012-01-29T08:07:33Z</time>
      </trkpt>
      <trkpt lat="47.72782" lon="7.42357">
        <ele>246.866974</ele>
        <time>2012-01-29T08:07:34Z</time>
      </trkpt>
      <trkpt lat="47.72782" lon="7.42357">
        <ele>248.462372</ele>
        <time>2012-01-29T08:07:35Z</time>
      </trkpt>
      <trkpt lat="47.72781" lon="7.42358">
        <ele>248.96814</ele>
        <time>2012-01-29T08:07:37Z</time>
      </trkpt>
      <trkpt lat="47.72781" lon="7.42358">
        <ele>248.042023</ele>
        <time>2012-01-29T08:07:38Z</time>
      </trkpt>
      <trkpt lat="47.72781" lon="7.42358">
        <ele>246.926392</ele>
        <time>2012-01-29T08:07:40Z</time>
      </trkpt>
      <trkpt lat="47.72781" lon="7.42358">
        <ele>246.393463</ele>
        <time>2012-01-29T08:07:41Z</time>
      </trkpt>
      <trkpt lat="47.72781" lon="7.42358">
        <ele>245.782501</ele>
        <time>2012-01-29T08:07:42Z</time>
      </trkpt>
      <trkpt lat="47.72781" lon="7.42358">
        <ele>246.544312</ele>
        <time>2012-01-29T08:07:44Z</time>
      </trkpt>
      <trkpt lat="47.72781" lon="7.42358">
        <ele>246.577881</ele>
        <time>2012-01-29T08:07:45Z</time>
      </trkpt>
      <trkpt lat="47.72781" lon="7.42358">
        <ele>246.450348</ele>
        <time>2012-01-29T08:07:46Z</time>
      </trkpt>
      <trkpt lat="47.72781" lon="7.42356">
        <ele>244.390747</ele>
        <time>2012-01-29T08:07:48Z</time>
      </trkpt>
      <trkpt lat="47.72781" lon="7.42356">
        <ele>242.957489</ele>
        <time>2012-01-29T08:07:49Z</time>
      </trkpt>
      <trkpt lat="47.72781" lon="7.42356">
        <ele>242.658112</ele>
        <time>2012-01-29T08:07:51Z</time>
      </trkpt>
      <trkpt lat="47.72781" lon="7.42356">
        <ele>242.730957</ele>
        <time>2012-01-29T08:07:52Z</time>
      </trkpt>
      <trkpt lat="47.72781" lon="7.42356">
        <ele>243.36441</ele>
        <time>2012-01-29T08:07:53Z</time>
      </trkpt>
      <trkpt lat="47.72781" lon="7.42357">
        <ele>245.160339</ele>
        <time>2012-01-29T08:07:55Z</time>
      </trkpt>
      <trkpt lat="47.72781" lon="7.42357">
        <ele>245.684753</ele>
        <time>2012-01-29T08:07:56Z</time>
      </trkpt>
      <trkpt lat="47.72781" lon="7.42356">
        <ele>248.323273</ele>
        <time>2012-01-29T08:07:58Z</time>
      </trkpt>
      <trkpt lat="47.72781" lon="7.42356">
        <ele>246.651001</ele>
        <time>2012-01-29T08:07:59Z</time>
      </trkpt>
      <trkpt lat="47.72782" lon="7.42356">
        <ele>243.66684</ele>
        <time>2012-01-29T08:08:00Z</time>
      </trkpt>
      <trkpt lat="47.72782" lon="7.42355">
        <ele>244.251312</ele>
        <time>2012-01-29T08:08:02Z</time>
      </trkpt>
      <trkpt lat="47.72782" lon="7.42355">
        <ele>246.386505</ele>
        <time>2012-01-29T08:08:03Z</time>
      </trkpt>
      <trkpt lat="47.72783" lon="7.42355">
        <ele>248.524384</ele>
        <time>2012-01-29T08:08:05Z</time>
      </trkpt>
      <trkpt lat="47.72783" lon="7.42355">
        <ele>248.316864</ele>
        <time>2012-01-29T08:08:06Z</time>
      </trkpt>
      <trkpt lat="47.72783" lon="7.42355">
        <ele>248.265564</ele>
        <time>2012-01-29T08:08:07Z</time>
      </trkpt>
      <trkpt lat="47.72785" lon="7.42354">
        <ele>245.827881</ele>
        <time>2012-01-29T08:08:09Z</time>
      </trkpt>
      <trkpt lat="47.72785" lon="7.42354">
        <ele>247.874176</ele>
        <time>2012-01-29T08:08:10Z</time>
      </trkpt>
      <trkpt lat="47.72785" lon="7.42355">
        <ele>248.395081</ele>
        <time>2012-01-29T08:08:11Z</time>
      </trkpt>
      <trkpt lat="47.72787" lon="7.42355">
        <ele>246.802155</ele>
        <time>2012-01-29T08:08:13Z</time>
      </trkpt>
      <trkpt lat="47.72788" lon="7.42356">
        <ele>246.685272</ele>
        <time>2012-01-29T08:08:14Z</time>
      </trkpt>
      <trkpt lat="47.7279" lon="7.42357">
        <ele>246.64801</ele>
        <time>2012-01-29T08:08:16Z</time>
      </trkpt>
      <trkpt lat="47.72791" lon="7.42358">
        <ele>246.470306</ele>
        <time>2012-01-29T08:08:17Z</time>
      </trkpt>
      <trkpt lat="47.72792" lon="7.42358">
        <ele>246.834656</ele>
        <time>2012-01-29T08:08:18Z</time>
      </trkpt>
      <trkpt lat="47.72794" lon="7.42359">
        <ele>245.618744</ele>
        <time>2012-01-29T08:08:20Z</time>
      </trkpt>
      <trkpt lat="47.72795" lon="7.42359">
        <ele>246.004486</ele>
        <time>2012-01-29T08:08:21Z</time>
      </trkpt>
      <trkpt lat="47.72795" lon="7.42359">
        <ele>247.065765</ele>
        <time>2012-01-29T08:08:22Z</time>
      </trkpt>
      <trkpt lat="47.72795" lon="7.42359">
        <ele>245.309387</ele>
        <time>2012-01-29T08:08:26Z</time>
      </trkpt>
      <trkpt lat="47.72795" lon="7.42359">
        <ele>244.405426</ele>
        <time>2012-01-29T08:08:27Z</time>
      </trkpt>
      <trkpt lat="47.72795" lon="7.42359">
        <ele>242.431763</ele>
        <time>2012-01-29T08:08:29Z</time>
      </trkpt>
      <trkpt lat="47.72795" lon="7.42359">
        <ele>242.426056</ele>
        <time>2012-01-29T08:08:30Z</time>
      </trkpt>
      <trkpt lat="47.72795" lon="7.42359">
        <ele>245.432343</ele>
        <time>2012-01-29T08:08:32Z</time>
      </trkpt>
      <trkpt lat="47.72795" lon="7.42359">
        <ele>246.251129</ele>
        <time>2012-01-29T08:08:33Z</time>
      </trkpt>
      <trkpt lat="47.72795" lon="7.42359">
        <ele>246.103394</ele>
        <time>2012-01-29T08:08:34Z</time>
      </trkpt>
      <trkpt lat="47.72795" lon="7.42359">
        <ele>246.769684</ele>
        <time>2012-01-29T08:08:36Z</time>
      </trkpt>
      <trkpt lat="47.72795" lon="7.42359">
        <ele>247.319824</ele>
        <time>2012-01-29T08:08:37Z</time>
      </trkpt>
      <trkpt lat="47.72795" lon="7.42359">
        <ele>245.708099</ele>
        <time>2012-01-29T08:08:39Z</time>
      </trkpt>
      <trkpt lat="47.72795" lon="7.42359">
        <ele>244.249329</ele>
        <time>2012-01-29T08:08:40Z</time>
      </trkpt>
      <trkpt lat="47.72795" lon="7.42359">
        <ele>244.461487</ele>
        <time>2012-01-29T08:08:41Z</time>
      </trkpt>
      <trkpt lat="47.72796" lon="7.4236">
        <ele>244.930298</ele>
        <time>2012-01-29T08:08:43Z</time>
      </trkpt>
      <trkpt lat="47.72797" lon="7.4236">
        <ele>247.497498</ele>
        <time>2012-01-29T08:08:44Z</time>
      </trkpt>
      <trkpt lat="47.72797" lon="7.4236">
        <ele>241.062714</ele>
        <time>2012-01-29T08:08:46Z</time>
      </trkpt>
      <trkpt lat="47.72797" lon="7.4236">
        <ele>242.966156</ele>
        <time>2012-01-29T08:08:47Z</time>
      </trkpt>
      <trkpt lat="47.72797" lon="7.4236">
        <ele>244.592377</ele>
        <time>2012-01-29T08:08:49Z</time>
      </trkpt>
      <trkpt lat="47.72797" lon="7.4236">
        <ele>243.751709</ele>
        <time>2012-01-29T08:08:50Z</time>
      </trkpt>
      <trkpt lat="47.72797" lon="7.4236">
        <ele>242.554749</ele>
        <time>2012-01-29T08:08:51Z</time>
      </trkpt>
      <trkpt lat="47.72797" lon="7.4236">
        <ele>240.460114</ele>
        <time>2012-01-29T08:08:53Z</time>
      </trkpt>
      <trkpt lat="47.72797" lon="7.4236">
        <ele>241.975128</ele>
        <time>2012-01-29T08:08:54Z</time>
      </trkpt>
      <trkpt lat="47.72797" lon="7.4236">
        <ele>244.293488</ele>
        <time>2012-01-29T08:08:56Z</time>
      </trkpt>
      <trkpt lat="47.72797" lon="7.4236">
        <ele>244.031494</ele>
        <time>2012-01-29T08:08:57Z</time>
      </trkpt>
      <trkpt lat="47.72797" lon="7.4236">
        <ele>245.134277</ele>
        <time>2012-01-29T08:08:59Z</time>
      </trkpt>
      <trkpt lat="47.72797" lon="7.4236">
        <ele>244.639496</ele>
        <time>2012-01-29T08:09:00Z</time>
      </trkpt>
      <trkpt lat="47.72798" lon="7.4236">
        <ele>245.17569</ele>
        <time>2012-01-29T08:09:02Z</time>
      </trkpt>
      <trkpt lat="47.72799" lon="7.42361">
        <ele>247.340454</ele>
        <time>2012-01-29T08:09:03Z</time>
      </trkpt>
      <trkpt lat="47.72801" lon="7.42361">
        <ele>246.756683</ele>
        <time>2012-01-29T08:09:04Z</time>
      </trkpt>
      <trkpt lat="47.72802" lon="7.42362">
        <ele>243.308258</ele>
        <time>2012-01-29T08:09:06Z</time>
      </trkpt>
      <trkpt lat="47.72804" lon="7.42361">
        <ele>243.364258</ele>
        <time>2012-01-29T08:09:07Z</time>
      </trkpt>
      <trkpt lat="47.72806" lon="7.42362">
        <ele>241.760803</ele>
        <time>2012-01-29T08:09:09Z</time>
      </trkpt>
      <trkpt lat="47.72808" lon="7.42363">
        <ele>240.875671</ele>
        <time>2012-01-29T08:09:10Z</time>
      </trkpt>
      <trkpt lat="47.7281" lon="7.42365">
        <ele>240.141571</ele>
        <time>2012-01-29T08:09:12Z</time>
      </trkpt>
      <trkpt lat="47.72811" lon="7.42365">
        <ele>240.916412</ele>
        <time>2012-01-29T08:09:13Z</time>
      </trkpt>
      <trkpt lat="47.72813" lon="7.42366">
        <ele>239.36087</ele>
        <time>2012-01-29T08:09:15Z</time>
      </trkpt>
      <trkpt lat="47.72814" lon="7.42367">
        <ele>239.19635</ele>
        <time>2012-01-29T08:09:16Z</time>
      </trkpt>
      <trkpt lat="47.72816" lon="7.42368">
        <ele>240.020782</ele>
        <time>2012-01-29T08:09:17Z</time>
      </trkpt>
      <trkpt lat="47.72818" lon="7.42369">
        <ele>239.922638</ele>
        <time>2012-01-29T08:09:19Z</time>
      </trkpt>
      <trkpt lat="47.72819" lon="7.42369">
        <ele>239.992096</ele>
        <time>2012-01-29T08:09:20Z</time>
      </trkpt>
      <trkpt lat="47.72819" lon="7.4237">
        <ele>239.339508</ele>
        <time>2012-01-29T08:09:22Z</time>
      </trkpt>
      <trkpt lat="47.7282" lon="7.4237">
        <ele>239.147491</ele>
        <time>2012-01-29T08:09:23Z</time>
      </trkpt>
      <trkpt lat="47.72823" lon="7.4237">
        <ele>238.472168</ele>
        <time>2012-01-29T08:09:25Z</time>
      </trkpt>
      <trkpt lat="47.72824" lon="7.4237">
        <ele>239.657074</ele>
        <time>2012-01-29T08:09:26Z</time>
      </trkpt>
      <trkpt lat="47.72825" lon="7.4237">
        <ele>239.241882</ele>
        <time>2012-01-29T08:09:28Z</time>
      </trkpt>
      <trkpt lat="47.72825" lon="7.42371">
        <ele>238.891235</ele>
        <time>2012-01-29T08:09:29Z</time>
      </trkpt>
      <trkpt lat="47.72826" lon="7.42373">
        <ele>237.669556</ele>
        <time>2012-01-29T08:09:31Z</time>
      </trkpt>
      <trkpt lat="47.72826" lon="7.42374">
        <ele>238.16275</ele>
        <time>2012-01-29T08:09:32Z</time>
      </trkpt>
      <trkpt lat="47.72826" lon="7.42376">
        <ele>234.669952</ele>
        <time>2012-01-29T08:09:34Z</time>
      </trkpt>
      <trkpt lat="47.72826" lon="7.42377">
        <ele>231.850616</ele>
        <time>2012-01-29T08:09:35Z</time>
      </trkpt>
      <trkpt lat="47.72826" lon="7.42377">
        <ele>235.900818</ele>
        <time>2012-01-29T08:09:37Z</time>
      </trkpt>
      <trkpt lat="47.72826" lon="7.42377">
        <ele>238.258392</ele>
        <time>2012-01-29T08:09:38Z</time>
      </trkpt>
      <trkpt lat="47.72826" lon="7.42377">
        <ele>243.499023</ele>
        <time>2012-01-29T08:09:40Z</time>
      </trkpt>
      <trkpt lat="47.72826" lon="7.42377">
        <ele>244.976807</ele>
        <time>2012-01-29T08:09:41Z</time>
      </trkpt>
      <trkpt lat="47.72826" lon="7.42377">
        <ele>245.199738</ele>
        <time>2012-01-29T08:09:42Z</time>
      </trkpt>
      <trkpt lat="47.72826" lon="7.42377">
        <ele>244.651306</ele>
        <time>2012-01-29T08:09:44Z</time>
      </trkpt>
      <trkpt lat="47.72826" lon="7.42377">
        <ele>241.175934</ele>
        <time>2012-01-29T08:09:45Z</time>
      </trkpt>
      <trkpt lat="47.72826" lon="7.42377">
        <ele>240.732086</ele>
        <time>2012-01-29T08:09:47Z</time>
      </trkpt>
      <trkpt lat="47.72826" lon="7.42377">
        <ele>242.996521</ele>
        <time>2012-01-29T08:09:48Z</time>
      </trkpt>
      <trkpt lat="47.72826" lon="7.42377">
        <ele>243.881195</ele>
        <time>2012-01-29T08:09:49Z</time>
      </trkpt>
      <trkpt lat="47.72825" lon="7.42377">
        <ele>246.648956</ele>
        <time>2012-01-29T08:09:53Z</time>
      </trkpt>
      <trkpt lat="47.72825" lon="7.42377">
        <ele>240.71347</ele>
        <time>2012-01-29T08:09:55Z</time>
      </trkpt>
      <trkpt lat="47.72825" lon="7.42377">
        <ele>238.877136</ele>
        <time>2012-01-29T08:09:56Z</time>
      </trkpt>
      <trkpt lat="47.72825" lon="7.42377">
        <ele>237.435272</ele>
        <time>2012-01-29T08:09:58Z</time>
      </trkpt>
      <trkpt lat="47.72825" lon="7.42377">
        <ele>237.452179</ele>
        <time>2012-01-29T08:09:59Z</time>
      </trkpt>
      <trkpt lat="47.72825" lon="7.42377">
        <ele>236.776062</ele>
        <time>2012-01-29T08:10:00Z</time>
      </trkpt>
      <trkpt lat="47.72825" lon="7.42377">
        <ele>238.028503</ele>
        <time>2012-01-29T08:10:02Z</time>
      </trkpt>
      <trkpt lat="47.72825" lon="7.42377">
        <ele>238.651764</ele>
        <time>2012-01-29T08:10:04Z</time>
      </trkpt>
      <trkpt lat="47.72825" lon="7.42377">
        <ele>239.464447</ele>
        <time>2012-01-29T08:10:05Z</time>
      </trkpt>
      <trkpt lat="47.72825" lon="7.42382">
        <ele>239.697571</ele>
        <time>2012-01-29T08:10:07Z</time>
      </trkpt>
      <trkpt lat="47.72826" lon="7.42387">
        <ele>241.11203</ele>
        <time>2012-01-29T08:10:09Z</time>
      </trkpt>
      <trkpt lat="47.72826" lon="7.42398">
        <ele>241.97229</ele>
        <time>2012-01-29T08:10:12Z</time>
      </trkpt>
      <trkpt lat="47.72826" lon="7.42402">
        <ele>242.249481</ele>
        <time>2012-01-29T08:10:13Z</time>
      </trkpt>
      <trkpt lat="47.72826" lon="7.42411">
        <ele>242.836792</ele>
        <time>2012-01-29T08:10:15Z</time>
      </trkpt>
      <trkpt lat="47.72826" lon="7.42416">
        <ele>242.989105</ele>
        <time>2012-01-29T08:10:16Z</time>
      </trkpt>
      <trkpt lat="47.72826" lon="7.42425">
        <ele>242.976318</ele>
        <time>2012-01-29T08:10:18Z</time>
      </trkpt>
      <trkpt lat="47.72826" lon="7.4243">
        <ele>243.114655</ele>
        <time>2012-01-29T08:10:19Z</time>
      </trkpt>
      <trkpt lat="47.72826" lon="7.42441">
        <ele>243.506042</ele>
        <time>2012-01-29T08:10:21Z</time>
      </trkpt>
      <trkpt lat="47.72826" lon="7.42446">
        <ele>243.593994</ele>
        <time>2012-01-29T08:10:22Z</time>
      </trkpt>
      <trkpt lat="47.72825" lon="7.42457">
        <ele>244.103271</ele>
        <time>2012-01-29T08:10:24Z</time>
      </trkpt>
      <trkpt lat="47.72825" lon="7.42462">
        <ele>244.348328</ele>
        <time>2012-01-29T08:10:25Z</time>
      </trkpt>
      <trkpt lat="47.72825" lon="7.42472">
        <ele>245.06369</ele>
        <time>2012-01-29T08:10:27Z</time>
      </trkpt>
      <trkpt lat="47.72825" lon="7.42478">
        <ele>245.369324</ele>
        <time>2012-01-29T08:10:28Z</time>
      </trkpt>
      <trkpt lat="47.72825" lon="7.42488">
        <ele>245.93689</ele>
        <time>2012-01-29T08:10:30Z</time>
      </trkpt>
      <trkpt lat="47.72825" lon="7.42494">
        <ele>246.093781</ele>
        <time>2012-01-29T08:10:31Z</time>
      </trkpt>
      <trkpt lat="47.72825" lon="7.42505">
        <ele>246.834412</ele>
        <time>2012-01-29T08:10:33Z</time>
      </trkpt>
      <trkpt lat="47.72825" lon="7.4251">
        <ele>248.078369</ele>
        <time>2012-01-29T08:10:34Z</time>
      </trkpt>
      <trkpt lat="47.72826" lon="7.42521">
        <ele>248.50708</ele>
        <time>2012-01-29T08:10:36Z</time>
      </trkpt>
      <trkpt lat="47.72826" lon="7.42526">
        <ele>249.260071</ele>
        <time>2012-01-29T08:10:37Z</time>
      </trkpt>
      <trkpt lat="47.72825" lon="7.42536">
        <ele>249.885406</ele>
        <time>2012-01-29T08:10:39Z</time>
      </trkpt>
      <trkpt lat="47.72825" lon="7.42542">
        <ele>249.43692</ele>
        <time>2012-01-29T08:10:40Z</time>
      </trkpt>
      <trkpt lat="47.72826" lon="7.42552">
        <ele>248.947113</ele>
        <time>2012-01-29T08:10:42Z</time>
      </trkpt>
      <trkpt lat="47.72826" lon="7.42557">
        <ele>249.312439</ele>
        <time>2012-01-29T08:10:43Z</time>
      </trkpt>
      <trkpt lat="47.72826" lon="7.42567">
        <ele>249.976196</ele>
        <time>2012-01-29T08:10:45Z</time>
      </trkpt>
      <trkpt lat="47.72825" lon="7.42577">
        <ele>249.870331</ele>
        <time>2012-01-29T08:10:47Z</time>
      </trkpt>
      <trkpt lat="47.72825" lon="7.42587">
        <ele>250.063934</ele>
        <time>2012-01-29T08:10:49Z</time>
      </trkpt>
      <trkpt lat="47.72825" lon="7.42597">
        <ele>250.08905</ele>
        <time>2012-01-29T08:10:51Z</time>
      </trkpt>
      <trkpt lat="47.72825" lon="7.42601">
        <ele>250.152771</ele>
        <time>2012-01-29T08:10:52Z</time>
      </trkpt>
      <trkpt lat="47.72825" lon="7.4261">
        <ele>250.452423</ele>
        <time>2012-01-29T08:10:54Z</time>
      </trkpt>
      <trkpt lat="47.72825" lon="7.42615">
        <ele>250.591034</ele>
        <time>2012-01-29T08:10:55Z</time>
      </trkpt>
      <trkpt lat="47.72826" lon="7.42623">
        <ele>250.464172</ele>
        <time>2012-01-29T08:10:57Z</time>
      </trkpt>
      <trkpt lat="47.72827" lon="7.42626">
        <ele>250.713348</ele>
        <time>2012-01-29T08:10:58Z</time>
      </trkpt>
      <trkpt lat="47.72833" lon="7.42629">
        <ele>251.153381</ele>
        <time>2012-01-29T08:11:00Z</time>
      </trkpt>
      <trkpt lat="47.72836" lon="7.42628">
        <ele>250.434509</ele>
        <time>2012-01-29T08:11:01Z</time>
      </trkpt>
      <trkpt lat="47.72845" lon="7.42625">
        <ele>249.476196</ele>
        <time>2012-01-29T08:11:03Z</time>
      </trkpt>
      <trkpt lat="47.72849" lon="7.42622">
        <ele>249.585663</ele>
        <time>2012-01-29T08:11:04Z</time>
      </trkpt>
      <trkpt lat="47.72858" lon="7.42615">
        <ele>250.323792</ele>
        <time>2012-01-29T08:11:06Z</time>
      </trkpt>
      <trkpt lat="47.72863" lon="7.42612">
        <ele>249.994812</ele>
        <time>2012-01-29T08:11:07Z</time>
      </trkpt>
      <trkpt lat="47.72873" lon="7.42605">
        <ele>249.398254</ele>
        <time>2012-01-29T08:11:09Z</time>
      </trkpt>
      <trkpt lat="47.72878" lon="7.42601">
        <ele>249.187927</ele>
        <time>2012-01-29T08:11:10Z</time>
      </trkpt>
      <trkpt lat="47.72889" lon="7.42592">
        <ele>248.300354</ele>
        <time>2012-01-29T08:11:12Z</time>
      </trkpt>
      <trkpt lat="47.72895" lon="7.42587">
        <ele>247.604828</ele>
        <time>2012-01-29T08:11:13Z</time>
      </trkpt>
      <trkpt lat="47.72909" lon="7.42577">
        <ele>246.887177</ele>
        <time>2012-01-29T08:11:15Z</time>
      </trkpt>
      <trkpt lat="47.72915" lon="7.42572">
        <ele>246.565521</ele>
        <time>2012-01-29T08:11:16Z</time>
      </trkpt>
      <trkpt lat="47.72928" lon="7.42562">
        <ele>246.061432</ele>
        <time>2012-01-29T08:11:18Z</time>
      </trkpt>
      <trkpt lat="47.72941" lon="7.42552">
        <ele>244.766937</ele>
        <time>2012-01-29T08:11:20Z</time>
      </trkpt>
      <trkpt lat="47.72947" lon="7.42548">
        <ele>241.93045</ele>
        <time>2012-01-29T08:11:21Z</time>
      </trkpt>
      <trkpt lat="47.72959" lon="7.42539">
        <ele>242.887665</ele>
        <time>2012-01-29T08:11:23Z</time>
      </trkpt>
      <trkpt lat="47.72965" lon="7.42534">
        <ele>244.895935</ele>
        <time>2012-01-29T08:11:24Z</time>
      </trkpt>
      <trkpt lat="47.72977" lon="7.42527">
        <ele>238.990875</ele>
        <time>2012-01-29T08:11:26Z</time>
      </trkpt>
      <trkpt lat="47.72981" lon="7.42524">
        <ele>240.548065</ele>
        <time>2012-01-29T08:11:27Z</time>
      </trkpt>
      <trkpt lat="47.72991" lon="7.42517">
        <ele>238.111084</ele>
        <time>2012-01-29T08:11:29Z</time>
      </trkpt>
      <trkpt lat="47.73002" lon="7.42509">
        <ele>238.35022</ele>
        <time>2012-01-29T08:11:31Z</time>
      </trkpt>
      <trkpt lat="47.73007" lon="7.42505">
        <ele>236.36261</ele>
        <time>2012-01-29T08:11:32Z</time>
      </trkpt>
      <trkpt lat="47.73018" lon="7.42497">
        <ele>239.546448</ele>
        <time>2012-01-29T08:11:34Z</time>
      </trkpt>
      <trkpt lat="47.73023" lon="7.42492">
        <ele>244.215546</ele>
        <time>2012-01-29T08:11:35Z</time>
      </trkpt>
      <trkpt lat="47.73033" lon="7.42485">
        <ele>243.842773</ele>
        <time>2012-01-29T08:11:37Z</time>
      </trkpt>
      <trkpt lat="47.73038" lon="7.42481">
        <ele>239.012726</ele>
        <time>2012-01-29T08:11:38Z</time>
      </trkpt>
      <trkpt lat="47.73048" lon="7.42474">
        <ele>240.375153</ele>
        <time>2012-01-29T08:11:40Z</time>
      </trkpt>
      <trkpt lat="47.73057" lon="7.42467">
        <ele>242.899109</ele>
        <time>2012-01-29T08:11:42Z</time>
      </trkpt>
      <trkpt lat="47.73063" lon="7.42462">
        <ele>241.172302</ele>
        <time>2012-01-29T08:11:43Z</time>
      </trkpt>
      <trkpt lat="47.73075" lon="7.42453">
        <ele>239.752075</ele>
        <time>2012-01-29T08:11:45Z</time>
      </trkpt>
      <trkpt lat="47.7308" lon="7.4245">
        <ele>240.668701</ele>
        <time>2012-01-29T08:11:46Z</time>
      </trkpt>
      <trkpt lat="47.7309" lon="7.42443">
        <ele>243.668976</ele>
        <time>2012-01-29T08:11:48Z</time>
      </trkpt>
      <trkpt lat="47.731" lon="7.42436">
        <ele>246.513062</ele>
        <time>2012-01-29T08:11:50Z</time>
      </trkpt>
      <trkpt lat="47.73106" lon="7.42432">
        <ele>244.232635</ele>
        <time>2012-01-29T08:11:51Z</time>
      </trkpt>
      <trkpt lat="47.73115" lon="7.42426">
        <ele>247.699249</ele>
        <time>2012-01-29T08:11:53Z</time>
      </trkpt>
      <trkpt lat="47.7312" lon="7.42422">
        <ele>246.327484</ele>
        <time>2012-01-29T08:11:54Z</time>
      </trkpt>
      <trkpt lat="47.73129" lon="7.42417">
        <ele>246.015228</ele>
        <time>2012-01-29T08:11:56Z</time>
      </trkpt>
      <trkpt lat="47.73134" lon="7.42413">
        <ele>246.602448</ele>
        <time>2012-01-29T08:11:57Z</time>
      </trkpt>
      <trkpt lat="47.73143" lon="7.42407">
        <ele>247.441376</ele>
        <time>2012-01-29T08:11:59Z</time>
      </trkpt>
      <trkpt lat="47.73154" lon="7.424">
        <ele>243.861786</ele>
        <time>2012-01-29T08:12:01Z</time>
      </trkpt>
      <trkpt lat="47.73158" lon="7.42397">
        <ele>239.798218</ele>
        <time>2012-01-29T08:12:02Z</time>
      </trkpt>
      <trkpt lat="47.73166" lon="7.42392">
        <ele>240.767365</ele>
        <time>2012-01-29T08:12:04Z</time>
      </trkpt>
      <trkpt lat="47.73176" lon="7.42386">
        <ele>242.429199</ele>
        <time>2012-01-29T08:12:06Z</time>
      </trkpt>
      <trkpt lat="47.73179" lon="7.42383">
        <ele>246.339142</ele>
        <time>2012-01-29T08:12:07Z</time>
      </trkpt>
      <trkpt lat="47.7319" lon="7.42375">
        <ele>242.760193</ele>
        <time>2012-01-29T08:12:09Z</time>
      </trkpt>
      <trkpt lat="47.73194" lon="7.42372">
        <ele>243.798889</ele>
        <time>2012-01-29T08:12:10Z</time>
      </trkpt>
      <trkpt lat="47.73201" lon="7.42368">
        <ele>242.600769</ele>
        <time>2012-01-29T08:12:12Z</time>
      </trkpt>
      <trkpt lat="47.73211" lon="7.42361">
        <ele>244.28772</ele>
        <time>2012-01-29T08:12:14Z</time>
      </trkpt>
      <trkpt lat="47.73215" lon="7.42359">
        <ele>245.368927</ele>
        <time>2012-01-29T08:12:15Z</time>
      </trkpt>
      <trkpt lat="47.73222" lon="7.42354">
        <ele>248.90976</ele>
        <time>2012-01-29T08:12:17Z</time>
      </trkpt>
      <trkpt lat="47.73226" lon="7.42352">
        <ele>251.552887</ele>
        <time>2012-01-29T08:12:18Z</time>
      </trkpt>
      <trkpt lat="47.73233" lon="7.42349">
        <ele>249.782227</ele>
        <time>2012-01-29T08:12:20Z</time>
      </trkpt>
      <trkpt lat="47.73241" lon="7.42344">
        <ele>248.721954</ele>
        <time>2012-01-29T08:12:22Z</time>
      </trkpt>
      <trkpt lat="47.73246" lon="7.42343">
        <ele>248.043976</ele>
        <time>2012-01-29T08:12:23Z</time>
      </trkpt>
      <trkpt lat="47.73253" lon="7.42348">
        <ele>247.202087</ele>
        <time>2012-01-29T08:12:25Z</time>
      </trkpt>
      <trkpt lat="47.73257" lon="7.42353">
        <ele>246.156616</ele>
        <time>2012-01-29T08:12:26Z</time>
      </trkpt>
      <trkpt lat="47.73263" lon="7.42365">
        <ele>245.337891</ele>
        <time>2012-01-29T08:12:28Z</time>
      </trkpt>
      <trkpt lat="47.73267" lon="7.42372">
        <ele>244.686768</ele>
        <time>2012-01-29T08:12:29Z</time>
      </trkpt>
      <trkpt lat="47.73274" lon="7.42384">
        <ele>245.15036</ele>
        <time>2012-01-29T08:12:31Z</time>
      </trkpt>
      <trkpt lat="47.73281" lon="7.42396">
        <ele>245.971893</ele>
        <time>2012-01-29T08:12:33Z</time>
      </trkpt>
      <trkpt lat="47.73284" lon="7.42401">
        <ele>246.456085</ele>
        <time>2012-01-29T08:12:34Z</time>
      </trkpt>
      <trkpt lat="47.73291" lon="7.42412">
        <ele>246.032013</ele>
        <time>2012-01-29T08:12:36Z</time>
      </trkpt>
      <trkpt lat="47.73295" lon="7.42418">
        <ele>245.856689</ele>
        <time>2012-01-29T08:12:37Z</time>
      </trkpt>
      <trkpt lat="47.73303" lon="7.4243">
        <ele>245.031738</ele>
        <time>2012-01-29T08:12:39Z</time>
      </trkpt>
      <trkpt lat="47.73309" lon="7.42441">
        <ele>247.126007</ele>
        <time>2012-01-29T08:12:41Z</time>
      </trkpt>
      <trkpt lat="47.73312" lon="7.42447">
        <ele>245.235687</ele>
        <time>2012-01-29T08:12:42Z</time>
      </trkpt>
      <trkpt lat="47.73318" lon="7.42458">
        <ele>249.047302</ele>
        <time>2012-01-29T08:12:44Z</time>
      </trkpt>
      <trkpt lat="47.73321" lon="7.42463">
        <ele>247.185516</ele>
        <time>2012-01-29T08:12:45Z</time>
      </trkpt>
      <trkpt lat="47.73329" lon="7.42475">
        <ele>247.350708</ele>
        <time>2012-01-29T08:12:47Z</time>
      </trkpt>
      <trkpt lat="47.73337" lon="7.42487">
        <ele>248.306244</ele>
        <time>2012-01-29T08:12:49Z</time>
      </trkpt>
      <trkpt lat="47.73344" lon="7.42498">
        <ele>245.343414</ele>
        <time>2012-01-29T08:12:51Z</time>
      </trkpt>
      <trkpt lat="47.73348" lon="7.42503">
        <ele>245.132385</ele>
        <time>2012-01-29T08:12:52Z</time>
      </trkpt>
      <trkpt lat="47.73355" lon="7.42516">
        <ele>240.444397</ele>
        <time>2012-01-29T08:12:54Z</time>
      </trkpt>
      <trkpt lat="47.73359" lon="7.42521">
        <ele>239.617981</ele>
        <time>2012-01-29T08:12:55Z</time>
      </trkpt>
      <trkpt lat="47.73365" lon="7.42531">
        <ele>242.649597</ele>
        <time>2012-01-29T08:12:57Z</time>
      </trkpt>
      <trkpt lat="47.73371" lon="7.42542">
        <ele>243.470886</ele>
        <time>2012-01-29T08:12:59Z</time>
      </trkpt>
      <trkpt lat="47.73375" lon="7.42548">
        <ele>243.361603</ele>
        <time>2012-01-29T08:13:00Z</time>
      </trkpt>
      <trkpt lat="47.73382" lon="7.42559">
        <ele>240.568878</ele>
        <time>2012-01-29T08:13:02Z</time>
      </trkpt>
      <trkpt lat="47.7339" lon="7.4257">
        <ele>242.972748</ele>
        <time>2012-01-29T08:13:04Z</time>
      </trkpt>
      <trkpt lat="47.73394" lon="7.42577">
        <ele>244.109894</ele>
        <time>2012-01-29T08:13:05Z</time>
      </trkpt>
      <trkpt lat="47.73401" lon="7.42588">
        <ele>239.363342</ele>
        <time>2012-01-29T08:13:07Z</time>
      </trkpt>
      <trkpt lat="47.73405" lon="7.42595">
        <ele>236.529999</ele>
        <time>2012-01-29T08:13:08Z</time>
      </trkpt>
      <trkpt lat="47.73411" lon="7.42607">
        <ele>243.236084</ele>
        <time>2012-01-29T08:13:10Z</time>
      </trkpt>
      <trkpt lat="47.73414" lon="7.42613">
        <ele>244.180359</ele>
        <time>2012-01-29T08:13:11Z</time>
      </trkpt>
      <trkpt lat="47.7342" lon="7.42626">
        <ele>244.971497</ele>
        <time>2012-01-29T08:13:13Z</time>
      </trkpt>
      <trkpt lat="47.73426" lon="7.4264">
        <ele>246.294556</ele>
        <time>2012-01-29T08:13:15Z</time>
      </trkpt>
      <trkpt lat="47.73433" lon="7.42653">
        <ele>240.398743</ele>
        <time>2012-01-29T08:13:17Z</time>
      </trkpt>
      <trkpt lat="47.73435" lon="7.42659">
        <ele>239.796051</ele>
        <time>2012-01-29T08:13:18Z</time>
      </trkpt>
      <trkpt lat="47.73442" lon="7.42673">
        <ele>238.724335</ele>
        <time>2012-01-29T08:13:20Z</time>
      </trkpt>
      <trkpt lat="47.73449" lon="7.4269">
        <ele>239.674255</ele>
        <time>2012-01-29T08:13:22Z</time>
      </trkpt>
      <trkpt lat="47.73451" lon="7.42698">
        <ele>241.384399</ele>
        <time>2012-01-29T08:13:23Z</time>
      </trkpt>
      <trkpt lat="47.73457" lon="7.42713">
        <ele>241.133087</ele>
        <time>2012-01-29T08:13:25Z</time>
      </trkpt>
      <trkpt lat="47.7346" lon="7.42722">
        <ele>242.222504</ele>
        <time>2012-01-29T08:13:26Z</time>
      </trkpt>
      <trkpt lat="47.73466" lon="7.42737">
        <ele>237.850586</ele>
        <time>2012-01-29T08:13:28Z</time>
      </trkpt>
      <trkpt lat="47.73472" lon="7.42752">
        <ele>235.674652</ele>
        <time>2012-01-29T08:13:30Z</time>
      </trkpt>
      <trkpt lat="47.73474" lon="7.42758">
        <ele>237.495026</ele>
        <time>2012-01-29T08:13:31Z</time>
      </trkpt>
      <trkpt lat="47.73479" lon="7.42772">
        <ele>237.117096</ele>
        <time>2012-01-29T08:13:33Z</time>
      </trkpt>
      <trkpt lat="47.73484" lon="7.42784">
        <ele>237.611877</ele>
        <time>2012-01-29T08:13:35Z</time>
      </trkpt>
      <trkpt lat="47.73487" lon="7.42791">
        <ele>237.05188</ele>
        <time>2012-01-29T08:13:36Z</time>
      </trkpt>
      <trkpt lat="47.73492" lon="7.42802">
        <ele>234.967224</ele>
        <time>2012-01-29T08:13:38Z</time>
      </trkpt>
      <trkpt lat="47.73498" lon="7.42814">
        <ele>236.65387</ele>
        <time>2012-01-29T08:13:40Z</time>
      </trkpt>
      <trkpt lat="47.735" lon="7.42819">
        <ele>238.377594</ele>
        <time>2012-01-29T08:13:41Z</time>
      </trkpt>
      <trkpt lat="47.73503" lon="7.42831">
        <ele>240.343384</ele>
        <time>2012-01-29T08:13:43Z</time>
      </trkpt>
      <trkpt lat="47.73506" lon="7.42834">
        <ele>241.461823</ele>
        <time>2012-01-29T08:13:44Z</time>
      </trkpt>
      <trkpt lat="47.73512" lon="7.4283">
        <ele>243.072296</ele>
        <time>2012-01-29T08:13:46Z</time>
      </trkpt>
      <trkpt lat="47.73517" lon="7.42824">
        <ele>242.713776</ele>
        <time>2012-01-29T08:13:48Z</time>
      </trkpt>
      <trkpt lat="47.73521" lon="7.4282">
        <ele>240.937744</ele>
        <time>2012-01-29T08:13:49Z</time>
      </trkpt>
      <trkpt lat="47.73529" lon="7.42813">
        <ele>241.324646</ele>
        <time>2012-01-29T08:13:51Z</time>
      </trkpt>
      <trkpt lat="47.73536" lon="7.42806">
        <ele>241.627167</ele>
        <time>2012-01-29T08:13:53Z</time>
      </trkpt>
      <trkpt lat="47.73539" lon="7.42803">
        <ele>241.762726</ele>
        <time>2012-01-29T08:13:54Z</time>
      </trkpt>
      <trkpt lat="47.73545" lon="7.42795">
        <ele>239.910217</ele>
        <time>2012-01-29T08:13:56Z</time>
      </trkpt>
      <trkpt lat="47.73552" lon="7.42788">
        <ele>238.104431</ele>
        <time>2012-01-29T08:13:58Z</time>
      </trkpt>
      <trkpt lat="47.73559" lon="7.42782">
        <ele>239.945496</ele>
        <time>2012-01-29T08:14:00Z</time>
      </trkpt>
      <trkpt lat="47.73562" lon="7.42778">
        <ele>239.515381</ele>
        <time>2012-01-29T08:14:01Z</time>
      </trkpt>
      <trkpt lat="47.73571" lon="7.42771">
        <ele>240.61441</ele>
        <time>2012-01-29T08:14:03Z</time>
      </trkpt>
      <trkpt lat="47.73578" lon="7.42764">
        <ele>237.457642</ele>
        <time>2012-01-29T08:14:05Z</time>
      </trkpt>
      <trkpt lat="47.73581" lon="7.42762">
        <ele>238.661469</ele>
        <time>2012-01-29T08:14:06Z</time>
      </trkpt>
      <trkpt lat="47.73589" lon="7.42755">
        <ele>239.549896</ele>
        <time>2012-01-29T08:14:08Z</time>
      </trkpt>
      <trkpt lat="47.73594" lon="7.42754">
        <ele>238.13681</ele>
        <time>2012-01-29T08:14:09Z</time>
      </trkpt>
      <trkpt lat="47.73598" lon="7.42754">
        <ele>236.140045</ele>
        <time>2012-01-29T08:14:11Z</time>
      </trkpt>
      <trkpt lat="47.73605" lon="7.42751">
        <ele>235.369293</ele>
        <time>2012-01-29T08:14:13Z</time>
      </trkpt>
      <trkpt lat="47.73607" lon="7.4275">
        <ele>234.461853</ele>
        <time>2012-01-29T08:14:14Z</time>
      </trkpt>
      <trkpt lat="47.73613" lon="7.42751">
        <ele>238.554504</ele>
        <time>2012-01-29T08:14:16Z</time>
      </trkpt>
      <trkpt lat="47.73613" lon="7.42754">
        <ele>243.118744</ele>
        <time>2012-01-29T08:14:18Z</time>
      </trkpt>
      <trkpt lat="47.73613" lon="7.42757">
        <ele>245.670776</ele>
        <time>2012-01-29T08:14:19Z</time>
      </trkpt>
      <trkpt lat="47.73614" lon="7.42762">
        <ele>247.952057</ele>
        <time>2012-01-29T08:14:21Z</time>
      </trkpt>
      <trkpt lat="47.73618" lon="7.42765">
        <ele>247.334137</ele>
        <time>2012-01-29T08:14:23Z</time>
      </trkpt>
      <trkpt lat="47.73621" lon="7.42768">
        <ele>246.638794</ele>
        <time>2012-01-29T08:14:24Z</time>
      </trkpt>
      <trkpt lat="47.73628" lon="7.42766">
        <ele>247.747589</ele>
        <time>2012-01-29T08:14:26Z</time>
      </trkpt>
      <trkpt lat="47.73636" lon="7.42758">
        <ele>244.824554</ele>
        <time>2012-01-29T08:14:28Z</time>
      </trkpt>
      <trkpt lat="47.73639" lon="7.42752">
        <ele>244.268433</ele>
        <time>2012-01-29T08:14:29Z</time>
      </trkpt>
      <trkpt lat="47.73644" lon="7.42738">
        <ele>243.565887</ele>
        <time>2012-01-29T08:14:31Z</time>
      </trkpt>
      <trkpt lat="47.73653" lon="7.42726">
        <ele>241.06134</ele>
        <time>2012-01-29T08:14:33Z</time>
      </trkpt>
      <trkpt lat="47.73658" lon="7.42722">
        <ele>239.799377</ele>
        <time>2012-01-29T08:14:34Z</time>
      </trkpt>
      <trkpt lat="47.73669" lon="7.42714">
        <ele>240.338928</ele>
        <time>2012-01-29T08:14:36Z</time>
      </trkpt>
      <trkpt lat="47.7368" lon="7.42709">
        <ele>242.330597</ele>
        <time>2012-01-29T08:14:38Z</time>
      </trkpt>
      <trkpt lat="47.73686" lon="7.42705">
        <ele>242.0047</ele>
        <time>2012-01-29T08:14:39Z</time>
      </trkpt>
      <trkpt lat="47.73697" lon="7.42698">
        <ele>241.949982</ele>
        <time>2012-01-29T08:14:41Z</time>
      </trkpt>
      <trkpt lat="47.73707" lon="7.42688">
        <ele>239.780182</ele>
        <time>2012-01-29T08:14:43Z</time>
      </trkpt>
      <trkpt lat="47.73713" lon="7.42681">
        <ele>240.472992</ele>
        <time>2012-01-29T08:14:44Z</time>
      </trkpt>
      <trkpt lat="47.73721" lon="7.42669">
        <ele>240.074036</ele>
        <time>2012-01-29T08:14:46Z</time>
      </trkpt>
      <trkpt lat="47.73725" lon="7.42665">
        <ele>241.050018</ele>
        <time>2012-01-29T08:14:47Z</time>
      </trkpt>
      <trkpt lat="47.73733" lon="7.42656">
        <ele>241.434387</ele>
        <time>2012-01-29T08:14:49Z</time>
      </trkpt>
      <trkpt lat="47.73741" lon="7.42648">
        <ele>240.070129</ele>
        <time>2012-01-29T08:14:51Z</time>
      </trkpt>
      <trkpt lat="47.7375" lon="7.42639">
        <ele>238.639038</ele>
        <time>2012-01-29T08:14:53Z</time>
      </trkpt>
      <trkpt lat="47.73754" lon="7.42636">
        <ele>239.129822</ele>
        <time>2012-01-29T08:14:54Z</time>
      </trkpt>
      <trkpt lat="47.73763" lon="7.42631">
        <ele>241.238464</ele>
        <time>2012-01-29T08:14:56Z</time>
      </trkpt>
      <trkpt lat="47.73774" lon="7.42626">
        <ele>241.253845</ele>
        <time>2012-01-29T08:14:58Z</time>
      </trkpt>
      <trkpt lat="47.73779" lon="7.42623">
        <ele>242.062775</ele>
        <time>2012-01-29T08:14:59Z</time>
      </trkpt>
      <trkpt lat="47.73787" lon="7.4262">
        <ele>234.916565</ele>
        <time>2012-01-29T08:15:01Z</time>
      </trkpt>
      <trkpt lat="47.73796" lon="7.42616">
        <ele>237.831635</ele>
        <time>2012-01-29T08:15:03Z</time>
      </trkpt>
      <trkpt lat="47.73801" lon="7.42613">
        <ele>236.879272</ele>
        <time>2012-01-29T08:15:04Z</time>
      </trkpt>
      <trkpt lat="47.73811" lon="7.42608">
        <ele>241.02066</ele>
        <time>2012-01-29T08:15:06Z</time>
      </trkpt>
      <trkpt lat="47.73819" lon="7.42603">
        <ele>239.53714</ele>
        <time>2012-01-29T08:15:08Z</time>
      </trkpt>
      <trkpt lat="47.73823" lon="7.426">
        <ele>236.053009</ele>
        <time>2012-01-29T08:15:09Z</time>
      </trkpt>
      <trkpt lat="47.73831" lon="7.42594">
        <ele>239.632233</ele>
        <time>2012-01-29T08:15:11Z</time>
      </trkpt>
      <trkpt lat="47.73834" lon="7.42592">
        <ele>235.932434</ele>
        <time>2012-01-29T08:15:12Z</time>
      </trkpt>
      <trkpt lat="47.73843" lon="7.42586">
        <ele>238.522156</ele>
        <time>2012-01-29T08:15:14Z</time>
      </trkpt>
      <trkpt lat="47.73853" lon="7.4258">
        <ele>236.711639</ele>
        <time>2012-01-29T08:15:16Z</time>
      </trkpt>
      <trkpt lat="47.73861" lon="7.42576">
        <ele>237.934082</ele>
        <time>2012-01-29T08:15:18Z</time>
      </trkpt>
      <trkpt lat="47.73877" lon="7.42568">
        <ele>236.259277</ele>
        <time>2012-01-29T08:15:21Z</time>
      </trkpt>
      <trkpt lat="47.73887" lon="7.42562">
        <ele>237.317017</ele>
        <time>2012-01-29T08:15:23Z</time>
      </trkpt>
      <trkpt lat="47.73896" lon="7.42556">
        <ele>236.209503</ele>
        <time>2012-01-29T08:15:25Z</time>
      </trkpt>
      <trkpt lat="47.73902" lon="7.42553">
        <ele>236.838959</ele>
        <time>2012-01-29T08:15:26Z</time>
      </trkpt>
      <trkpt lat="47.73913" lon="7.42547">
        <ele>238.556274</ele>
        <time>2012-01-29T08:15:28Z</time>
      </trkpt>
      <trkpt lat="47.73924" lon="7.42543">
        <ele>235.660675</ele>
        <time>2012-01-29T08:15:30Z</time>
      </trkpt>
      <trkpt lat="47.73936" lon="7.42539">
        <ele>236.042633</ele>
        <time>2012-01-29T08:15:32Z</time>
      </trkpt>
      <trkpt lat="47.73941" lon="7.42536">
        <ele>240.051605</ele>
        <time>2012-01-29T08:15:33Z</time>
      </trkpt>
      <trkpt lat="47.73951" lon="7.42529">
        <ele>235.283295</ele>
        <time>2012-01-29T08:15:35Z</time>
      </trkpt>
      <trkpt lat="47.73961" lon="7.42522">
        <ele>235.164062</ele>
        <time>2012-01-29T08:15:37Z</time>
      </trkpt>
      <trkpt lat="47.73966" lon="7.42518">
        <ele>237.472229</ele>
        <time>2012-01-29T08:15:38Z</time>
      </trkpt>
      <trkpt lat="47.73977" lon="7.4251">
        <ele>236.185089</ele>
        <time>2012-01-29T08:15:40Z</time>
      </trkpt>
      <trkpt lat="47.73987" lon="7.42503">
        <ele>236.2229</ele>
        <time>2012-01-29T08:15:42Z</time>
      </trkpt>
      <trkpt lat="47.73992" lon="7.42499">
        <ele>232.834961</ele>
        <time>2012-01-29T08:15:43Z</time>
      </trkpt>
      <trkpt lat="47.74002" lon="7.42494">
        <ele>241.086975</ele>
        <time>2012-01-29T08:15:45Z</time>
      </trkpt>
      <trkpt lat="47.7401" lon="7.42488">
        <ele>238.581543</ele>
        <time>2012-01-29T08:15:47Z</time>
      </trkpt>
      <trkpt lat="47.74018" lon="7.42482">
        <ele>238.308807</ele>
        <time>2012-01-29T08:15:49Z</time>
      </trkpt>
      <trkpt lat="47.74023" lon="7.42479">
        <ele>239.495331</ele>
        <time>2012-01-29T08:15:50Z</time>
      </trkpt>
      <trkpt lat="47.7403" lon="7.42473">
        <ele>240.883911</ele>
        <time>2012-01-29T08:15:52Z</time>
      </trkpt>
      <trkpt lat="47.74039" lon="7.42467">
        <ele>242.119324</ele>
        <time>2012-01-29T08:15:54Z</time>
      </trkpt>
      <trkpt lat="47.74042" lon="7.42465">
        <ele>242.472076</ele>
        <time>2012-01-29T08:15:55Z</time>
      </trkpt>
      <trkpt lat="47.74051" lon="7.4246">
        <ele>243.449249</ele>
        <time>2012-01-29T08:15:57Z</time>
      </trkpt>
      <trkpt lat="47.74058" lon="7.42454">
        <ele>243.808228</ele>
        <time>2012-01-29T08:15:59Z</time>
      </trkpt>
      <trkpt lat="47.74064" lon="7.42449">
        <ele>243.271942</ele>
        <time>2012-01-29T08:16:01Z</time>
      </trkpt>
      <trkpt lat="47.74068" lon="7.42446">
        <ele>240.895233</ele>
        <time>2012-01-29T08:16:02Z</time>
      </trkpt>
      <trkpt lat="47.74078" lon="7.4244">
        <ele>240.745056</ele>
        <time>2012-01-29T08:16:04Z</time>
      </trkpt>
      <trkpt lat="47.74086" lon="7.42435">
        <ele>236.260468</ele>
        <time>2012-01-29T08:16:06Z</time>
      </trkpt>
      <trkpt lat="47.7409" lon="7.42432">
        <ele>239.0112</ele>
        <time>2012-01-29T08:16:07Z</time>
      </trkpt>
      <trkpt lat="47.74097" lon="7.42428">
        <ele>239.319794</ele>
        <time>2012-01-29T08:16:09Z</time>
      </trkpt>
      <trkpt lat="47.74105" lon="7.42423">
        <ele>241.815643</ele>
        <time>2012-01-29T08:16:11Z</time>
      </trkpt>
      <trkpt lat="47.74111" lon="7.42419">
        <ele>241.628723</ele>
        <time>2012-01-29T08:16:12Z</time>
      </trkpt>
      <trkpt lat="47.74118" lon="7.42414">
        <ele>241.382446</ele>
        <time>2012-01-29T08:16:14Z</time>
      </trkpt>
      <trkpt lat="47.74127" lon="7.42409">
        <ele>238.394897</ele>
        <time>2012-01-29T08:16:16Z</time>
      </trkpt>
      <trkpt lat="47.74134" lon="7.42405">
        <ele>235.713593</ele>
        <time>2012-01-29T08:16:18Z</time>
      </trkpt>
      <trkpt lat="47.74142" lon="7.424">
        <ele>237.396027</ele>
        <time>2012-01-29T08:16:20Z</time>
      </trkpt>
      <trkpt lat="47.74148" lon="7.42397">
        <ele>236.882721</ele>
        <time>2012-01-29T08:16:21Z</time>
      </trkpt>
      <trkpt lat="47.74155" lon="7.42391">
        <ele>238.813873</ele>
        <time>2012-01-29T08:16:23Z</time>
      </trkpt>
      <trkpt lat="47.74159" lon="7.42388">
        <ele>243.496002</ele>
        <time>2012-01-29T08:16:24Z</time>
      </trkpt>
      <trkpt lat="47.7417" lon="7.42382">
        <ele>242.459167</ele>
        <time>2012-01-29T08:16:26Z</time>
      </trkpt>
      <trkpt lat="47.74173" lon="7.4238">
        <ele>240.967834</ele>
        <time>2012-01-29T08:16:27Z</time>
      </trkpt>
      <trkpt lat="47.74181" lon="7.42376">
        <ele>240.825806</ele>
        <time>2012-01-29T08:16:29Z</time>
      </trkpt>
      <trkpt lat="47.7419" lon="7.42371">
        <ele>243.952545</ele>
        <time>2012-01-29T08:16:31Z</time>
      </trkpt>
      <trkpt lat="47.74204" lon="7.42363">
        <ele>243.404755</ele>
        <time>2012-01-29T08:16:34Z</time>
      </trkpt>
      <trkpt lat="47.74209" lon="7.4236">
        <ele>241.13324</ele>
        <time>2012-01-29T08:16:35Z</time>
      </trkpt>
      <trkpt lat="47.74228" lon="7.42349">
        <ele>240.591705</ele>
        <time>2012-01-29T08:16:39Z</time>
      </trkpt>
      <trkpt lat="47.74232" lon="7.42347">
        <ele>240.690399</ele>
        <time>2012-01-29T08:16:40Z</time>
      </trkpt>
      <trkpt lat="47.7424" lon="7.42343">
        <ele>242.240784</ele>
        <time>2012-01-29T08:16:42Z</time>
      </trkpt>
      <trkpt lat="47.74249" lon="7.42337">
        <ele>245.361389</ele>
        <time>2012-01-29T08:16:44Z</time>
      </trkpt>
      <trkpt lat="47.74255" lon="7.42333">
        <ele>242.259674</ele>
        <time>2012-01-29T08:16:45Z</time>
      </trkpt>
      <trkpt lat="47.74263" lon="7.42328">
        <ele>237.401093</ele>
        <time>2012-01-29T08:16:47Z</time>
      </trkpt>
      <trkpt lat="47.74273" lon="7.42323">
        <ele>235.505707</ele>
        <time>2012-01-29T08:16:49Z</time>
      </trkpt>
      <trkpt lat="47.74281" lon="7.42317">
        <ele>239.9552</ele>
        <time>2012-01-29T08:16:51Z</time>
      </trkpt>
      <trkpt lat="47.74285" lon="7.42314">
        <ele>243.137726</ele>
        <time>2012-01-29T08:16:52Z</time>
      </trkpt>
      <trkpt lat="47.74293" lon="7.42308">
        <ele>235.671783</ele>
        <time>2012-01-29T08:16:54Z</time>
      </trkpt>
      <trkpt lat="47.74303" lon="7.42302">
        <ele>238.226685</ele>
        <time>2012-01-29T08:16:56Z</time>
      </trkpt>
      <trkpt lat="47.74312" lon="7.42294">
        <ele>234.600739</ele>
        <time>2012-01-29T08:16:58Z</time>
      </trkpt>
      <trkpt lat="47.74316" lon="7.42291">
        <ele>234.97699</ele>
        <time>2012-01-29T08:16:59Z</time>
      </trkpt>
      <trkpt lat="47.74327" lon="7.42285">
        <ele>236.926788</ele>
        <time>2012-01-29T08:17:01Z</time>
      </trkpt>
      <trkpt lat="47.74336" lon="7.42281">
        <ele>236.666046</ele>
        <time>2012-01-29T08:17:03Z</time>
      </trkpt>
      <trkpt lat="47.74341" lon="7.42279">
        <ele>237.873627</ele>
        <time>2012-01-29T08:17:04Z</time>
      </trkpt>
      <trkpt lat="47.74352" lon="7.42275">
        <ele>239.102142</ele>
        <time>2012-01-29T08:17:06Z</time>
      </trkpt>
      <trkpt lat="47.74361" lon="7.42272">
        <ele>240.846588</ele>
        <time>2012-01-29T08:17:08Z</time>
      </trkpt>
      <trkpt lat="47.74368" lon="7.42267">
        <ele>236.332001</ele>
        <time>2012-01-29T08:17:10Z</time>
      </trkpt>
      <trkpt lat="47.74379" lon="7.42261">
        <ele>237.915619</ele>
        <time>2012-01-29T08:17:12Z</time>
      </trkpt>
      <trkpt lat="47.74383" lon="7.42257">
        <ele>235.532379</ele>
        <time>2012-01-29T08:17:13Z</time>
      </trkpt>
      <trkpt lat="47.74392" lon="7.42251">
        <ele>236.452179</ele>
        <time>2012-01-29T08:17:15Z</time>
      </trkpt>
      <trkpt lat="47.74401" lon="7.42244">
        <ele>236.84021</ele>
        <time>2012-01-29T08:17:17Z</time>
      </trkpt>
      <trkpt lat="47.74411" lon="7.42237">
        <ele>240.868134</ele>
        <time>2012-01-29T08:17:19Z</time>
      </trkpt>
      <trkpt lat="47.7442" lon="7.4223">
        <ele>237.03894</ele>
        <time>2012-01-29T08:17:21Z</time>
      </trkpt>
      <trkpt lat="47.74424" lon="7.42227">
        <ele>236.13916</ele>
        <time>2012-01-29T08:17:22Z</time>
      </trkpt>
      <trkpt lat="47.74434" lon="7.4222">
        <ele>239.531311</ele>
        <time>2012-01-29T08:17:24Z</time>
      </trkpt>
      <trkpt lat="47.74442" lon="7.42215">
        <ele>238.707458</ele>
        <time>2012-01-29T08:17:26Z</time>
      </trkpt>
      <trkpt lat="47.74454" lon="7.42208">
        <ele>235.757965</ele>
        <time>2012-01-29T08:17:28Z</time>
      </trkpt>
      <trkpt lat="47.74464" lon="7.42202">
        <ele>237.688293</ele>
        <time>2012-01-29T08:17:30Z</time>
      </trkpt>
      <trkpt lat="47.74468" lon="7.422">
        <ele>236.827484</ele>
        <time>2012-01-29T08:17:31Z</time>
      </trkpt>
      <trkpt lat="47.74477" lon="7.42197">
        <ele>237.568146</ele>
        <time>2012-01-29T08:17:33Z</time>
      </trkpt>
      <trkpt lat="47.74487" lon="7.42201">
        <ele>238.957855</ele>
        <time>2012-01-29T08:17:35Z</time>
      </trkpt>
      <trkpt lat="47.74496" lon="7.42207">
        <ele>235.662018</ele>
        <time>2012-01-29T08:17:37Z</time>
      </trkpt>
      <trkpt lat="47.745" lon="7.42211">
        <ele>235.662018</ele>
        <time>2012-01-29T08:17:38Z</time>
      </trkpt>
      <trkpt lat="47.74506" lon="7.42225">
        <ele>234.028564</ele>
        <time>2012-01-29T08:17:40Z</time>
      </trkpt>
      <trkpt lat="47.7451" lon="7.42239">
        <ele>236.402344</ele>
        <time>2012-01-29T08:17:42Z</time>
      </trkpt>
      <trkpt lat="47.74514" lon="7.42252">
        <ele>236.59668</ele>
        <time>2012-01-29T08:17:44Z</time>
      </trkpt>
      <trkpt lat="47.74517" lon="7.42264">
        <ele>237.00415</ele>
        <time>2012-01-29T08:17:46Z</time>
      </trkpt>
      <trkpt lat="47.7452" lon="7.42275">
        <ele>237.642365</ele>
        <time>2012-01-29T08:17:48Z</time>
      </trkpt>
      <trkpt lat="47.74522" lon="7.42279">
        <ele>238.410492</ele>
        <time>2012-01-29T08:17:49Z</time>
      </trkpt>
      <trkpt lat="47.74529" lon="7.42286">
        <ele>238.484009</ele>
        <time>2012-01-29T08:17:51Z</time>
      </trkpt>
      <trkpt lat="47.74537" lon="7.4229">
        <ele>238.153198</ele>
        <time>2012-01-29T08:17:53Z</time>
      </trkpt>
      <trkpt lat="47.74544" lon="7.42293">
        <ele>237.617096</ele>
        <time>2012-01-29T08:17:55Z</time>
      </trkpt>
      <trkpt lat="47.74546" lon="7.42296">
        <ele>238.113556</ele>
        <time>2012-01-29T08:17:56Z</time>
      </trkpt>
      <trkpt lat="47.74548" lon="7.42305">
        <ele>238.450134</ele>
        <time>2012-01-29T08:17:58Z</time>
      </trkpt>
      <trkpt lat="47.74551" lon="7.42314">
        <ele>239.601685</ele>
        <time>2012-01-29T08:18:00Z</time>
      </trkpt>
      <trkpt lat="47.74556" lon="7.42327">
        <ele>239.347565</ele>
        <time>2012-01-29T08:18:02Z</time>
      </trkpt>
      <trkpt lat="47.74559" lon="7.42334">
        <ele>238.783325</ele>
        <time>2012-01-29T08:18:03Z</time>
      </trkpt>
      <trkpt lat="47.74564" lon="7.42347">
        <ele>240.432404</ele>
        <time>2012-01-29T08:18:05Z</time>
      </trkpt>
      <trkpt lat="47.74568" lon="7.4236">
        <ele>240.499054</ele>
        <time>2012-01-29T08:18:07Z</time>
      </trkpt>
      <trkpt lat="47.74572" lon="7.42374">
        <ele>240.520813</ele>
        <time>2012-01-29T08:18:09Z</time>
      </trkpt>
      <trkpt lat="47.74576" lon="7.42388">
        <ele>240.798828</ele>
        <time>2012-01-29T08:18:11Z</time>
      </trkpt>
      <trkpt lat="47.74581" lon="7.42403">
        <ele>238.694427</ele>
        <time>2012-01-29T08:18:13Z</time>
      </trkpt>
      <trkpt lat="47.74586" lon="7.42418">
        <ele>239.44519</ele>
        <time>2012-01-29T08:18:15Z</time>
      </trkpt>
      <trkpt lat="47.74588" lon="7.42425">
        <ele>235.403717</ele>
        <time>2012-01-29T08:18:16Z</time>
      </trkpt>
      <trkpt lat="47.74594" lon="7.4244">
        <ele>240.873505</ele>
        <time>2012-01-29T08:18:18Z</time>
      </trkpt>
      <trkpt lat="47.74599" lon="7.42456">
        <ele>238.009796</ele>
        <time>2012-01-29T08:18:20Z</time>
      </trkpt>
      <trkpt lat="47.74603" lon="7.42471">
        <ele>235.228485</ele>
        <time>2012-01-29T08:18:22Z</time>
      </trkpt>
      <trkpt lat="47.74607" lon="7.42487">
        <ele>239.681915</ele>
        <time>2012-01-29T08:18:24Z</time>
      </trkpt>
      <trkpt lat="47.74608" lon="7.42495">
        <ele>240.121643</ele>
        <time>2012-01-29T08:18:25Z</time>
      </trkpt>
      <trkpt lat="47.74611" lon="7.4251">
        <ele>238.440216</ele>
        <time>2012-01-29T08:18:27Z</time>
      </trkpt>
      <trkpt lat="47.74616" lon="7.42525">
        <ele>238.095001</ele>
        <time>2012-01-29T08:18:29Z</time>
      </trkpt>
      <trkpt lat="47.7462" lon="7.4254">
        <ele>238.715759</ele>
        <time>2012-01-29T08:18:31Z</time>
      </trkpt>
      <trkpt lat="47.74624" lon="7.42555">
        <ele>239.796539</ele>
        <time>2012-01-29T08:18:33Z</time>
      </trkpt>
      <trkpt lat="47.74626" lon="7.42563">
        <ele>239.153351</ele>
        <time>2012-01-29T08:18:34Z</time>
      </trkpt>
      <trkpt lat="47.7463" lon="7.42576">
        <ele>237.493622</ele>
        <time>2012-01-29T08:18:36Z</time>
      </trkpt>
      <trkpt lat="47.74631" lon="7.42584">
        <ele>236.893707</ele>
        <time>2012-01-29T08:18:38Z</time>
      </trkpt>
      <trkpt lat="47.74633" lon="7.42588">
        <ele>237.243439</ele>
        <time>2012-01-29T08:18:40Z</time>
      </trkpt>
      <trkpt lat="47.74635" lon="7.42585">
        <ele>238.186279</ele>
        <time>2012-01-29T08:18:42Z</time>
      </trkpt>
      <trkpt lat="47.74633" lon="7.4258">
        <ele>238.333282</ele>
        <time>2012-01-29T08:18:44Z</time>
      </trkpt>
      <trkpt lat="47.74633" lon="7.42578">
        <ele>238.44397</ele>
        <time>2012-01-29T08:18:45Z</time>
      </trkpt>
      <trkpt lat="47.74632" lon="7.42574">
        <ele>238.066071</ele>
        <time>2012-01-29T08:18:47Z</time>
      </trkpt>
      <trkpt lat="47.74631" lon="7.42569">
        <ele>238.103912</ele>
        <time>2012-01-29T08:18:49Z</time>
      </trkpt>
      <trkpt lat="47.7463" lon="7.42567">
        <ele>237.695709</ele>
        <time>2012-01-29T08:18:51Z</time>
      </trkpt>
      <trkpt lat="47.74628" lon="7.42568">
        <ele>238.827026</ele>
        <time>2012-01-29T08:18:53Z</time>
      </trkpt>
      <trkpt lat="47.74628" lon="7.42573">
        <ele>238.360626</ele>
        <time>2012-01-29T08:18:55Z</time>
      </trkpt>
      <trkpt lat="47.74628" lon="7.42576">
        <ele>238.987701</ele>
        <time>2012-01-29T08:18:56Z</time>
      </trkpt>
      <trkpt lat="47.74629" lon="7.42581">
        <ele>237.979126</ele>
        <time>2012-01-29T08:18:58Z</time>
      </trkpt>
      <trkpt lat="47.74631" lon="7.42585">
        <ele>237.905579</ele>
        <time>2012-01-29T08:19:00Z</time>
      </trkpt>
      <trkpt lat="47.74632" lon="7.42589">
        <ele>237.605927</ele>
        <time>2012-01-29T08:19:02Z</time>
      </trkpt>
      <trkpt lat="47.74634" lon="7.42592">
        <ele>237.487122</ele>
        <time>2012-01-29T08:19:04Z</time>
      </trkpt>
      <trkpt lat="47.74634" lon="7.42595">
        <ele>239.012817</ele>
        <time>2012-01-29T08:19:05Z</time>
      </trkpt>
      <trkpt lat="47.74635" lon="7.42599">
        <ele>240.4617</ele>
        <time>2012-01-29T08:19:07Z</time>
      </trkpt>
      <trkpt lat="47.74636" lon="7.426">
        <ele>241.283478</ele>
        <time>2012-01-29T08:19:09Z</time>
      </trkpt>
      <trkpt lat="47.74637" lon="7.42598">
        <ele>241.417175</ele>
        <time>2012-01-29T08:19:11Z</time>
      </trkpt>
      <trkpt lat="47.74636" lon="7.42594">
        <ele>240.551086</ele>
        <time>2012-01-29T08:19:13Z</time>
      </trkpt>
      <trkpt lat="47.74635" lon="7.42592">
        <ele>240.478088</ele>
        <time>2012-01-29T08:19:15Z</time>
      </trkpt>
      <trkpt lat="47.74635" lon="7.42593">
        <ele>240.178314</ele>
        <time>2012-01-29T08:19:17Z</time>
      </trkpt>
      <trkpt lat="47.74635" lon="7.42593">
        <ele>240.180878</ele>
        <time>2012-01-29T08:19:18Z</time>
      </trkpt>
      <trkpt lat="47.74636" lon="7.42594">
        <ele>237.740875</ele>
        <time>2012-01-29T08:19:20Z</time>
      </trkpt>
      <trkpt lat="47.74636" lon="7.42594">
        <ele>237.129761</ele>
        <time>2012-01-29T08:19:22Z</time>
      </trkpt>
      <trkpt lat="47.74636" lon="7.42594">
        <ele>238.61142</ele>
        <time>2012-01-29T08:19:24Z</time>
      </trkpt>
      <trkpt lat="47.74636" lon="7.42594">
        <ele>241.768524</ele>
        <time>2012-01-29T08:19:26Z</time>
      </trkpt>
      <trkpt lat="47.74636" lon="7.42594">
        <ele>240.765533</ele>
        <time>2012-01-29T08:19:28Z</time>
      </trkpt>
      <trkpt lat="47.74636" lon="7.42594">
        <ele>241.615112</ele>
        <time>2012-01-29T08:19:30Z</time>
      </trkpt>
      <trkpt lat="47.74636" lon="7.42594">
        <ele>241.666199</ele>
        <time>2012-01-29T08:19:31Z</time>
      </trkpt>
      <trkpt lat="47.74636" lon="7.42594">
        <ele>239.953705</ele>
        <time>2012-01-29T08:19:33Z</time>
      </trkpt>
      <trkpt lat="47.74636" lon="7.42594">
        <ele>241.337799</ele>
        <time>2012-01-29T08:19:35Z</time>
      </trkpt>
      <trkpt lat="47.74636" lon="7.42594">
        <ele>241.683472</ele>
        <time>2012-01-29T08:19:37Z</time>
      </trkpt>
      <trkpt lat="47.74636" lon="7.42595">
        <ele>237.941467</ele>
        <time>2012-01-29T08:19:39Z</time>
      </trkpt>
      <trkpt lat="47.74636" lon="7.42596">
        <ele>237.849426</ele>
        <time>2012-01-29T08:19:40Z</time>
      </trkpt>
      <trkpt lat="47.74637" lon="7.426">
        <ele>238.360931</ele>
        <time>2012-01-29T08:19:42Z</time>
      </trkpt>
      <trkpt lat="47.74639" lon="7.42605">
        <ele>237.958893</ele>
        <time>2012-01-29T08:19:44Z</time>
      </trkpt>
      <trkpt lat="47.7464" lon="7.42611">
        <ele>239.030487</ele>
        <time>2012-01-29T08:19:46Z</time>
      </trkpt>
      <trkpt lat="47.74642" lon="7.42618">
        <ele>237.184875</ele>
        <time>2012-01-29T08:19:48Z</time>
      </trkpt>
      <trkpt lat="47.74644" lon="7.42624">
        <ele>239.080963</ele>
        <time>2012-01-29T08:19:50Z</time>
      </trkpt>
      <trkpt lat="47.74645" lon="7.4263">
        <ele>239.208466</ele>
        <time>2012-01-29T08:19:52Z</time>
      </trkpt>
      <trkpt lat="47.74647" lon="7.42637">
        <ele>239.305725</ele>
        <time>2012-01-29T08:19:54Z</time>
      </trkpt>
      <trkpt lat="47.74649" lon="7.42643">
        <ele>239.565948</ele>
        <time>2012-01-29T08:19:56Z</time>
      </trkpt>
      <trkpt lat="47.7465" lon="7.42646">
        <ele>239.483948</ele>
        <time>2012-01-29T08:19:57Z</time>
      </trkpt>
      <trkpt lat="47.74652" lon="7.42653">
        <ele>239.031677</ele>
        <time>2012-01-29T08:19:59Z</time>
      </trkpt>
      <trkpt lat="47.74654" lon="7.42659">
        <ele>239.871735</ele>
        <time>2012-01-29T08:20:01Z</time>
      </trkpt>
      <trkpt lat="47.74656" lon="7.42664">
        <ele>240.964386</ele>
        <time>2012-01-29T08:20:03Z</time>
      </trkpt>
      <trkpt lat="47.74657" lon="7.4267">
        <ele>241.71344</ele>
        <time>2012-01-29T08:20:05Z</time>
      </trkpt>
      <trkpt lat="47.74659" lon="7.42676">
        <ele>242.047302</ele>
        <time>2012-01-29T08:20:07Z</time>
      </trkpt>
      <trkpt lat="47.7466" lon="7.42679">
        <ele>243.053711</ele>
        <time>2012-01-29T08:20:08Z</time>
      </trkpt>
      <trkpt lat="47.74662" lon="7.42686">
        <ele>242.908051</ele>
        <time>2012-01-29T08:20:10Z</time>
      </trkpt>
      <trkpt lat="47.74664" lon="7.42692">
        <ele>243.565338</ele>
        <time>2012-01-29T08:20:12Z</time>
      </trkpt>
      <trkpt lat="47.74665" lon="7.42698">
        <ele>243.109406</ele>
        <time>2012-01-29T08:20:14Z</time>
      </trkpt>
      <trkpt lat="47.74667" lon="7.42706">
        <ele>243.528809</ele>
        <time>2012-01-29T08:20:16Z</time>
      </trkpt>
      <trkpt lat="47.74669" lon="7.42714">
        <ele>243.618622</ele>
        <time>2012-01-29T08:20:18Z</time>
      </trkpt>
      <trkpt lat="47.74672" lon="7.42722">
        <ele>244.72879</ele>
        <time>2012-01-29T08:20:20Z</time>
      </trkpt>
      <trkpt lat="47.74673" lon="7.42726">
        <ele>245.065216</ele>
        <time>2012-01-29T08:20:21Z</time>
      </trkpt>
      <trkpt lat="47.74677" lon="7.42734">
        <ele>244.904968</ele>
        <time>2012-01-29T08:20:23Z</time>
      </trkpt>
      <trkpt lat="47.74681" lon="7.42745">
        <ele>242.839111</ele>
        <time>2012-01-29T08:20:25Z</time>
      </trkpt>
      <trkpt lat="47.74685" lon="7.4276">
        <ele>240.971619</ele>
        <time>2012-01-29T08:20:27Z</time>
      </trkpt>
      <trkpt lat="47.74689" lon="7.42775">
        <ele>241.649994</ele>
        <time>2012-01-29T08:20:29Z</time>
      </trkpt>
      <trkpt lat="47.74693" lon="7.4279">
        <ele>242.117432</ele>
        <time>2012-01-29T08:20:31Z</time>
      </trkpt>
      <trkpt lat="47.74697" lon="7.42805">
        <ele>242.479645</ele>
        <time>2012-01-29T08:20:33Z</time>
      </trkpt>
      <trkpt lat="47.74699" lon="7.42813">
        <ele>242.207703</ele>
        <time>2012-01-29T08:20:34Z</time>
      </trkpt>
      <trkpt lat="47.74703" lon="7.42828">
        <ele>242.13559</ele>
        <time>2012-01-29T08:20:36Z</time>
      </trkpt>
      <trkpt lat="47.74708" lon="7.42844">
        <ele>242.842712</ele>
        <time>2012-01-29T08:20:38Z</time>
      </trkpt>
      <trkpt lat="47.74712" lon="7.4286">
        <ele>242.885345</ele>
        <time>2012-01-29T08:20:40Z</time>
      </trkpt>
      <trkpt lat="47.74717" lon="7.42876">
        <ele>243.234375</ele>
        <time>2012-01-29T08:20:42Z</time>
      </trkpt>
      <trkpt lat="47.74722" lon="7.4289">
        <ele>243.706757</ele>
        <time>2012-01-29T08:20:44Z</time>
      </trkpt>
      <trkpt lat="47.74727" lon="7.42907">
        <ele>243.07843</ele>
        <time>2012-01-29T08:20:46Z</time>
      </trkpt>
      <trkpt lat="47.74732" lon="7.42924">
        <ele>243.282745</ele>
        <time>2012-01-29T08:20:48Z</time>
      </trkpt>
      <trkpt lat="47.74734" lon="7.42933">
        <ele>242.429291</ele>
        <time>2012-01-29T08:20:49Z</time>
      </trkpt>
      <trkpt lat="47.7474" lon="7.4295">
        <ele>242.068054</ele>
        <time>2012-01-29T08:20:51Z</time>
      </trkpt>
      <trkpt lat="47.74744" lon="7.42966">
        <ele>243.199615</ele>
        <time>2012-01-29T08:20:53Z</time>
      </trkpt>
      <trkpt lat="47.74749" lon="7.42982">
        <ele>245.194031</ele>
        <time>2012-01-29T08:20:55Z</time>
      </trkpt>
      <trkpt lat="47.74753" lon="7.42997">
        <ele>246.690033</ele>
        <time>2012-01-29T08:20:57Z</time>
      </trkpt>
      <trkpt lat="47.74757" lon="7.43015">
        <ele>245.955322</ele>
        <time>2012-01-29T08:20:59Z</time>
      </trkpt>
      <trkpt lat="47.74762" lon="7.43032">
        <ele>245.285431</ele>
        <time>2012-01-29T08:21:01Z</time>
      </trkpt>
      <trkpt lat="47.74766" lon="7.43049">
        <ele>244.927002</ele>
        <time>2012-01-29T08:21:03Z</time>
      </trkpt>
      <trkpt lat="47.74768" lon="7.43058">
        <ele>246.140045</ele>
        <time>2012-01-29T08:21:04Z</time>
      </trkpt>
      <trkpt lat="47.74772" lon="7.43074">
        <ele>245.598602</ele>
        <time>2012-01-29T08:21:06Z</time>
      </trkpt>
      <trkpt lat="47.74777" lon="7.43091">
        <ele>246.556641</ele>
        <time>2012-01-29T08:21:08Z</time>
      </trkpt>
      <trkpt lat="47.74782" lon="7.4311">
        <ele>246.917877</ele>
        <time>2012-01-29T08:21:10Z</time>
      </trkpt>
      <trkpt lat="47.74788" lon="7.43127">
        <ele>247.123047</ele>
        <time>2012-01-29T08:21:12Z</time>
      </trkpt>
      <trkpt lat="47.74793" lon="7.43145">
        <ele>247.288116</ele>
        <time>2012-01-29T08:21:14Z</time>
      </trkpt>
      <trkpt lat="47.74798" lon="7.43163">
        <ele>246.591583</ele>
        <time>2012-01-29T08:21:16Z</time>
      </trkpt>
      <trkpt lat="47.74803" lon="7.43179">
        <ele>247.498077</ele>
        <time>2012-01-29T08:21:18Z</time>
      </trkpt>
      <trkpt lat="47.74808" lon="7.43197">
        <ele>247.027039</ele>
        <time>2012-01-29T08:21:20Z</time>
      </trkpt>
      <trkpt lat="47.74811" lon="7.43205">
        <ele>247.881317</ele>
        <time>2012-01-29T08:21:21Z</time>
      </trkpt>
      <trkpt lat="47.74816" lon="7.43225">
        <ele>247.257324</ele>
        <time>2012-01-29T08:21:23Z</time>
      </trkpt>
      <trkpt lat="47.74821" lon="7.43244">
        <ele>249.000885</ele>
        <time>2012-01-29T08:21:25Z</time>
      </trkpt>
      <trkpt lat="47.74827" lon="7.43258">
        <ele>248.675201</ele>
        <time>2012-01-29T08:21:27Z</time>
      </trkpt>
      <trkpt lat="47.74833" lon="7.43276">
        <ele>250.462982</ele>
        <time>2012-01-29T08:21:29Z</time>
      </trkpt>
      <trkpt lat="47.74837" lon="7.43294">
        <ele>250.321075</ele>
        <time>2012-01-29T08:21:31Z</time>
      </trkpt>
      <trkpt lat="47.74843" lon="7.43314">
        <ele>252.345917</ele>
        <time>2012-01-29T08:21:33Z</time>
      </trkpt>
      <trkpt lat="47.74848" lon="7.43332">
        <ele>250.554047</ele>
        <time>2012-01-29T08:21:35Z</time>
      </trkpt>
      <trkpt lat="47.74852" lon="7.43349">
        <ele>248.724609</ele>
        <time>2012-01-29T08:21:37Z</time>
      </trkpt>
      <trkpt lat="47.74858" lon="7.43368">
        <ele>250.149445</ele>
        <time>2012-01-29T08:21:39Z</time>
      </trkpt>
      <trkpt lat="47.74863" lon="7.43385">
        <ele>248.593689</ele>
        <time>2012-01-29T08:21:41Z</time>
      </trkpt>
      <trkpt lat="47.74869" lon="7.43402">
        <ele>246.178925</ele>
        <time>2012-01-29T08:21:43Z</time>
      </trkpt>
      <trkpt lat="47.74873" lon="7.43422">
        <ele>246.118378</ele>
        <time>2012-01-29T08:21:45Z</time>
      </trkpt>
      <trkpt lat="47.74872" lon="7.43431">
        <ele>245.294067</ele>
        <time>2012-01-29T08:21:46Z</time>
      </trkpt>
      <trkpt lat="47.74866" lon="7.43446">
        <ele>242.882141</ele>
        <time>2012-01-29T08:21:48Z</time>
      </trkpt>
      <trkpt lat="47.74858" lon="7.43452">
        <ele>243.059814</ele>
        <time>2012-01-29T08:21:50Z</time>
      </trkpt>
      <trkpt lat="47.74853" lon="7.43458">
        <ele>241.864136</ele>
        <time>2012-01-29T08:21:52Z</time>
      </trkpt>
      <trkpt lat="47.74846" lon="7.43465">
        <ele>239.909607</ele>
        <time>2012-01-29T08:21:54Z</time>
      </trkpt>
      <trkpt lat="47.74839" lon="7.43473">
        <ele>239.204346</ele>
        <time>2012-01-29T08:21:56Z</time>
      </trkpt>
      <trkpt lat="47.74836" lon="7.43484">
        <ele>241.701843</ele>
        <time>2012-01-29T08:21:58Z</time>
      </trkpt>
      <trkpt lat="47.74836" lon="7.43496">
        <ele>242.860138</ele>
        <time>2012-01-29T08:22:00Z</time>
      </trkpt>
      <trkpt lat="47.74833" lon="7.43508">
        <ele>244.740814</ele>
        <time>2012-01-29T08:22:02Z</time>
      </trkpt>
      <trkpt lat="47.74827" lon="7.43517">
        <ele>244.639374</ele>
        <time>2012-01-29T08:22:04Z</time>
      </trkpt>
      <trkpt lat="47.74819" lon="7.43528">
        <ele>242.454559</ele>
        <time>2012-01-29T08:22:06Z</time>
      </trkpt>
      <trkpt lat="47.74809" lon="7.43533">
        <ele>240.884644</ele>
        <time>2012-01-29T08:22:08Z</time>
      </trkpt>
      <trkpt lat="47.74798" lon="7.43538">
        <ele>241.129761</ele>
        <time>2012-01-29T08:22:10Z</time>
      </trkpt>
      <trkpt lat="47.74786" lon="7.43538">
        <ele>239.950989</ele>
        <time>2012-01-29T08:22:12Z</time>
      </trkpt>
      <trkpt lat="47.74775" lon="7.43537">
        <ele>239.199036</ele>
        <time>2012-01-29T08:22:14Z</time>
      </trkpt>
      <trkpt lat="47.74763" lon="7.43538">
        <ele>239.708801</ele>
        <time>2012-01-29T08:22:16Z</time>
      </trkpt>
      <trkpt lat="47.7475" lon="7.43541">
        <ele>240.202911</ele>
        <time>2012-01-29T08:22:18Z</time>
      </trkpt>
      <trkpt lat="47.74738" lon="7.43546">
        <ele>240.69693</ele>
        <time>2012-01-29T08:22:20Z</time>
      </trkpt>
      <trkpt lat="47.74725" lon="7.43552">
        <ele>242.259583</ele>
        <time>2012-01-29T08:22:22Z</time>
      </trkpt>
      <trkpt lat="47.74713" lon="7.43561">
        <ele>237.64032</ele>
        <time>2012-01-29T08:22:24Z</time>
      </trkpt>
      <trkpt lat="47.74701" lon="7.43569">
        <ele>235.506348</ele>
        <time>2012-01-29T08:22:26Z</time>
      </trkpt>
      <trkpt lat="47.7469" lon="7.43577">
        <ele>235.826447</ele>
        <time>2012-01-29T08:22:28Z</time>
      </trkpt>
      <trkpt lat="47.74679" lon="7.43586">
        <ele>238.145538</ele>
        <time>2012-01-29T08:22:30Z</time>
      </trkpt>
      <trkpt lat="47.7467" lon="7.43593">
        <ele>240.6651</ele>
        <time>2012-01-29T08:22:32Z</time>
      </trkpt>
      <trkpt lat="47.7466" lon="7.43599">
        <ele>241.89386</ele>
        <time>2012-01-29T08:22:34Z</time>
      </trkpt>
      <trkpt lat="47.74648" lon="7.43607">
        <ele>235.036133</ele>
        <time>2012-01-29T08:22:36Z</time>
      </trkpt>
      <trkpt lat="47.74634" lon="7.43617">
        <ele>237.381165</ele>
        <time>2012-01-29T08:22:38Z</time>
      </trkpt>
      <trkpt lat="47.74623" lon="7.43624">
        <ele>236.269226</ele>
        <time>2012-01-29T08:22:40Z</time>
      </trkpt>
      <trkpt lat="47.74612" lon="7.43631">
        <ele>236.842957</ele>
        <time>2012-01-29T08:22:42Z</time>
      </trkpt>
      <trkpt lat="47.74601" lon="7.43638">
        <ele>234.447357</ele>
        <time>2012-01-29T08:22:44Z</time>
      </trkpt>
      <trkpt lat="47.74588" lon="7.43645">
        <ele>235.099518</ele>
        <time>2012-01-29T08:22:46Z</time>
      </trkpt>
      <trkpt lat="47.74576" lon="7.43652">
        <ele>236.634033</ele>
        <time>2012-01-29T08:22:48Z</time>
      </trkpt>
      <trkpt lat="47.74564" lon="7.43659">
        <ele>239.143524</ele>
        <time>2012-01-29T08:22:50Z</time>
      </trkpt>
      <trkpt lat="47.74553" lon="7.43665">
        <ele>235.014252</ele>
        <time>2012-01-29T08:22:52Z</time>
      </trkpt>
      <trkpt lat="47.74542" lon="7.43671">
        <ele>234.178558</ele>
        <time>2012-01-29T08:22:54Z</time>
      </trkpt>
      <trkpt lat="47.74533" lon="7.43676">
        <ele>237.823669</ele>
        <time>2012-01-29T08:22:56Z</time>
      </trkpt>
      <trkpt lat="47.74522" lon="7.43681">
        <ele>240.797241</ele>
        <time>2012-01-29T08:22:58Z</time>
      </trkpt>
      <trkpt lat="47.74511" lon="7.43685">
        <ele>240.206482</ele>
        <time>2012-01-29T08:23:00Z</time>
      </trkpt>
      <trkpt lat="47.74502" lon="7.43688">
        <ele>236.606171</ele>
        <time>2012-01-29T08:23:02Z</time>
      </trkpt>
      <trkpt lat="47.74497" lon="7.4369">
        <ele>238.44519</ele>
        <time>2012-01-29T08:23:03Z</time>
      </trkpt>
      <trkpt lat="47.74484" lon="7.43697">
        <ele>239.274811</ele>
        <time>2012-01-29T08:23:05Z</time>
      </trkpt>
      <trkpt lat="47.74473" lon="7.43704">
        <ele>239.231018</ele>
        <time>2012-01-29T08:23:07Z</time>
      </trkpt>
      <trkpt lat="47.74463" lon="7.4371">
        <ele>242.600311</ele>
        <time>2012-01-29T08:23:09Z</time>
      </trkpt>
      <trkpt lat="47.74453" lon="7.43717">
        <ele>240.714386</ele>
        <time>2012-01-29T08:23:11Z</time>
      </trkpt>
      <trkpt lat="47.74443" lon="7.43724">
        <ele>240.540863</ele>
        <time>2012-01-29T08:23:13Z</time>
      </trkpt>
      <trkpt lat="47.74432" lon="7.43732">
        <ele>240.821136</ele>
        <time>2012-01-29T08:23:15Z</time>
      </trkpt>
      <trkpt lat="47.74421" lon="7.43739">
        <ele>240.67569</ele>
        <time>2012-01-29T08:23:17Z</time>
      </trkpt>
      <trkpt lat="47.74408" lon="7.43747">
        <ele>239.367004</ele>
        <time>2012-01-29T08:23:19Z</time>
      </trkpt>
      <trkpt lat="47.74396" lon="7.43754">
        <ele>238.782684</ele>
        <time>2012-01-29T08:23:21Z</time>
      </trkpt>
      <trkpt lat="47.74383" lon="7.43762">
        <ele>239.67337</ele>
        <time>2012-01-29T08:23:23Z</time>
      </trkpt>
      <trkpt lat="47.74371" lon="7.43768">
        <ele>238.024872</ele>
        <time>2012-01-29T08:23:25Z</time>
      </trkpt>
      <trkpt lat="47.74359" lon="7.43776">
        <ele>238.231476</ele>
        <time>2012-01-29T08:23:27Z</time>
      </trkpt>
      <trkpt lat="47.74351" lon="7.43782">
        <ele>241.55545</ele>
        <time>2012-01-29T08:23:29Z</time>
      </trkpt>
      <trkpt lat="47.74345" lon="7.43788">
        <ele>245.533661</ele>
        <time>2012-01-29T08:23:31Z</time>
      </trkpt>
      <trkpt lat="47.74338" lon="7.43793">
        <ele>237.999908</ele>
        <time>2012-01-29T08:23:33Z</time>
      </trkpt>
      <trkpt lat="47.74326" lon="7.43804">
        <ele>239.249023</ele>
        <time>2012-01-29T08:23:36Z</time>
      </trkpt>
      <trkpt lat="47.74311" lon="7.43816">
        <ele>237.15683</ele>
        <time>2012-01-29T08:23:39Z</time>
      </trkpt>
      <trkpt lat="47.74301" lon="7.43824">
        <ele>235.862396</ele>
        <time>2012-01-29T08:23:41Z</time>
      </trkpt>
      <trkpt lat="47.74289" lon="7.43833">
        <ele>236.967346</ele>
        <time>2012-01-29T08:23:43Z</time>
      </trkpt>
      <trkpt lat="47.7428" lon="7.43838">
        <ele>241.529022</ele>
        <time>2012-01-29T08:23:45Z</time>
      </trkpt>
      <trkpt lat="47.74273" lon="7.43843">
        <ele>242.042755</ele>
        <time>2012-01-29T08:23:47Z</time>
      </trkpt>
      <trkpt lat="47.74267" lon="7.43845">
        <ele>238.24115</ele>
        <time>2012-01-29T08:23:49Z</time>
      </trkpt>
      <trkpt lat="47.74259" lon="7.43851">
        <ele>240.480133</ele>
        <time>2012-01-29T08:23:51Z</time>
      </trkpt>
      <trkpt lat="47.74251" lon="7.43857">
        <ele>241.216278</ele>
        <time>2012-01-29T08:23:53Z</time>
      </trkpt>
      <trkpt lat="47.74242" lon="7.43863">
        <ele>234.268707</ele>
        <time>2012-01-29T08:23:55Z</time>
      </trkpt>
      <trkpt lat="47.74233" lon="7.4387">
        <ele>238.413818</ele>
        <time>2012-01-29T08:23:57Z</time>
      </trkpt>
      <trkpt lat="47.74223" lon="7.43879">
        <ele>238.867035</ele>
        <time>2012-01-29T08:23:59Z</time>
      </trkpt>
      <trkpt lat="47.74214" lon="7.43884">
        <ele>234.203552</ele>
        <time>2012-01-29T08:24:01Z</time>
      </trkpt>
      <trkpt lat="47.74204" lon="7.43892">
        <ele>238.926941</ele>
        <time>2012-01-29T08:24:03Z</time>
      </trkpt>
      <trkpt lat="47.74195" lon="7.43898">
        <ele>235.677704</ele>
        <time>2012-01-29T08:24:05Z</time>
      </trkpt>
      <trkpt lat="47.74187" lon="7.43904">
        <ele>238.246399</ele>
        <time>2012-01-29T08:24:07Z</time>
      </trkpt>
      <trkpt lat="47.74178" lon="7.43911">
        <ele>237.319244</ele>
        <time>2012-01-29T08:24:09Z</time>
      </trkpt>
      <trkpt lat="47.74169" lon="7.4392">
        <ele>238.190796</ele>
        <time>2012-01-29T08:24:11Z</time>
      </trkpt>
      <trkpt lat="47.74161" lon="7.43928">
        <ele>239.553802</ele>
        <time>2012-01-29T08:24:13Z</time>
      </trkpt>
      <trkpt lat="47.74154" lon="7.43934">
        <ele>239.969635</ele>
        <time>2012-01-29T08:24:15Z</time>
      </trkpt>
      <trkpt lat="47.74147" lon="7.43939">
        <ele>238.952454</ele>
        <time>2012-01-29T08:24:17Z</time>
      </trkpt>
      <trkpt lat="47.74138" lon="7.43945">
        <ele>241.277618</ele>
        <time>2012-01-29T08:24:19Z</time>
      </trkpt>
      <trkpt lat="47.74128" lon="7.4395">
        <ele>241.233582</ele>
        <time>2012-01-29T08:24:21Z</time>
      </trkpt>
      <trkpt lat="47.74119" lon="7.43952">
        <ele>234.593781</ele>
        <time>2012-01-29T08:24:23Z</time>
      </trkpt>
      <trkpt lat="47.7411" lon="7.43956">
        <ele>233.427979</ele>
        <time>2012-01-29T08:24:25Z</time>
      </trkpt>
      <trkpt lat="47.74103" lon="7.4396">
        <ele>236.337646</ele>
        <time>2012-01-29T08:24:27Z</time>
      </trkpt>
      <trkpt lat="47.74098" lon="7.43965">
        <ele>239.401062</ele>
        <time>2012-01-29T08:24:29Z</time>
      </trkpt>
      <trkpt lat="47.7409" lon="7.4397">
        <ele>240.473877</ele>
        <time>2012-01-29T08:24:31Z</time>
      </trkpt>
      <trkpt lat="47.7408" lon="7.43977">
        <ele>244.725281</ele>
        <time>2012-01-29T08:24:34Z</time>
      </trkpt>
      <trkpt lat="47.7407" lon="7.43983">
        <ele>241.458557</ele>
        <time>2012-01-29T08:24:36Z</time>
      </trkpt>
      <trkpt lat="47.74061" lon="7.43988">
        <ele>241.23349</ele>
        <time>2012-01-29T08:24:38Z</time>
      </trkpt>
      <trkpt lat="47.74053" lon="7.43991">
        <ele>242.075287</ele>
        <time>2012-01-29T08:24:40Z</time>
      </trkpt>
      <trkpt lat="47.74045" lon="7.43996">
        <ele>238.756989</ele>
        <time>2012-01-29T08:24:42Z</time>
      </trkpt>
      <trkpt lat="47.74036" lon="7.44001">
        <ele>241.831268</ele>
        <time>2012-01-29T08:24:44Z</time>
      </trkpt>
      <trkpt lat="47.74027" lon="7.44005">
        <ele>244.172607</ele>
        <time>2012-01-29T08:24:46Z</time>
      </trkpt>
      <trkpt lat="47.74017" lon="7.44011">
        <ele>241.658661</ele>
        <time>2012-01-29T08:24:48Z</time>
      </trkpt>
      <trkpt lat="47.74009" lon="7.44016">
        <ele>238.623047</ele>
        <time>2012-01-29T08:24:50Z</time>
      </trkpt>
      <trkpt lat="47.74002" lon="7.4402">
        <ele>242.052124</ele>
        <time>2012-01-29T08:24:52Z</time>
      </trkpt>
      <trkpt lat="47.73993" lon="7.44025">
        <ele>245.394867</ele>
        <time>2012-01-29T08:24:54Z</time>
      </trkpt>
      <trkpt lat="47.73984" lon="7.4403">
        <ele>243.13916</ele>
        <time>2012-01-29T08:24:56Z</time>
      </trkpt>
      <trkpt lat="47.73975" lon="7.44035">
        <ele>242.155731</ele>
        <time>2012-01-29T08:24:58Z</time>
      </trkpt>
      <trkpt lat="47.73966" lon="7.4404">
        <ele>239.633179</ele>
        <time>2012-01-29T08:25:00Z</time>
      </trkpt>
      <trkpt lat="47.73957" lon="7.44044">
        <ele>243.773285</ele>
        <time>2012-01-29T08:25:02Z</time>
      </trkpt>
      <trkpt lat="47.73947" lon="7.44049">
        <ele>238.441437</ele>
        <time>2012-01-29T08:25:04Z</time>
      </trkpt>
      <trkpt lat="47.73937" lon="7.44053">
        <ele>245.991608</ele>
        <time>2012-01-29T08:25:06Z</time>
      </trkpt>
      <trkpt lat="47.73929" lon="7.44056">
        <ele>242.62323</ele>
        <time>2012-01-29T08:25:08Z</time>
      </trkpt>
      <trkpt lat="47.73921" lon="7.44061">
        <ele>241.813721</ele>
        <time>2012-01-29T08:25:10Z</time>
      </trkpt>
      <trkpt lat="47.73919" lon="7.44078">
        <ele>241.4841</ele>
        <time>2012-01-29T08:25:14Z</time>
      </trkpt>
      <trkpt lat="47.73924" lon="7.44092">
        <ele>244.758392</ele>
        <time>2012-01-29T08:25:16Z</time>
      </trkpt>
      <trkpt lat="47.73929" lon="7.4411">
        <ele>242.269226</ele>
        <time>2012-01-29T08:25:19Z</time>
      </trkpt>
      <trkpt lat="47.73935" lon="7.44129">
        <ele>241.233398</ele>
        <time>2012-01-29T08:25:22Z</time>
      </trkpt>
      <trkpt lat="47.73941" lon="7.44142">
        <ele>242.708008</ele>
        <time>2012-01-29T08:25:24Z</time>
      </trkpt>
      <trkpt lat="47.73946" lon="7.44154">
        <ele>241.961121</ele>
        <time>2012-01-29T08:25:26Z</time>
      </trkpt>
      <trkpt lat="47.73951" lon="7.44164">
        <ele>237.213715</ele>
        <time>2012-01-29T08:25:28Z</time>
      </trkpt>
      <trkpt lat="47.73958" lon="7.44174">
        <ele>238.311401</ele>
        <time>2012-01-29T08:25:30Z</time>
      </trkpt>
      <trkpt lat="47.73965" lon="7.44181">
        <ele>236.990692</ele>
        <time>2012-01-29T08:25:32Z</time>
      </trkpt>
      <trkpt lat="47.73977" lon="7.44194">
        <ele>236.148163</ele>
        <time>2012-01-29T08:25:35Z</time>
      </trkpt>
      <trkpt lat="47.73986" lon="7.44206">
        <ele>238.204468</ele>
        <time>2012-01-29T08:25:37Z</time>
      </trkpt>
      <trkpt lat="47.73994" lon="7.44216">
        <ele>234.359283</ele>
        <time>2012-01-29T08:25:39Z</time>
      </trkpt>
      <trkpt lat="47.74001" lon="7.44224">
        <ele>237.204407</ele>
        <time>2012-01-29T08:25:41Z</time>
      </trkpt>
      <trkpt lat="47.74007" lon="7.44232">
        <ele>235.580811</ele>
        <time>2012-01-29T08:25:43Z</time>
      </trkpt>
      <trkpt lat="47.74019" lon="7.44247">
        <ele>239.023834</ele>
        <time>2012-01-29T08:25:46Z</time>
      </trkpt>
      <trkpt lat="47.74024" lon="7.44254">
        <ele>233.975769</ele>
        <time>2012-01-29T08:25:48Z</time>
      </trkpt>
      <trkpt lat="47.7403" lon="7.44265">
        <ele>235.703857</ele>
        <time>2012-01-29T08:25:51Z</time>
      </trkpt>
      <trkpt lat="47.74033" lon="7.44275">
        <ele>235.902191</ele>
        <time>2012-01-29T08:25:53Z</time>
      </trkpt>
      <trkpt lat="47.74035" lon="7.44285">
        <ele>238.616547</ele>
        <time>2012-01-29T08:25:55Z</time>
      </trkpt>
      <trkpt lat="47.74036" lon="7.44291">
        <ele>238.436462</ele>
        <time>2012-01-29T08:25:57Z</time>
      </trkpt>
      <trkpt lat="47.74038" lon="7.44311">
        <ele>242.796814</ele>
        <time>2012-01-29T08:26:01Z</time>
      </trkpt>
      <trkpt lat="47.7404" lon="7.4432">
        <ele>245.239929</ele>
        <time>2012-01-29T08:26:03Z</time>
      </trkpt>
      <trkpt lat="47.74041" lon="7.44333">
        <ele>242.714508</ele>
        <time>2012-01-29T08:26:05Z</time>
      </trkpt>
      <trkpt lat="47.7404" lon="7.44343">
        <ele>244.14679</ele>
        <time>2012-01-29T08:26:07Z</time>
      </trkpt>
      <trkpt lat="47.74037" lon="7.44352">
        <ele>239.793762</ele>
        <time>2012-01-29T08:26:09Z</time>
      </trkpt>
      <trkpt lat="47.74036" lon="7.44363">
        <ele>240.615845</ele>
        <time>2012-01-29T08:26:11Z</time>
      </trkpt>
      <trkpt lat="47.74036" lon="7.44372">
        <ele>242.75827</ele>
        <time>2012-01-29T08:26:13Z</time>
      </trkpt>
      <trkpt lat="47.74039" lon="7.44376">
        <ele>244.246857</ele>
        <time>2012-01-29T08:26:15Z</time>
      </trkpt>
      <trkpt lat="47.74044" lon="7.44384">
        <ele>243.034271</ele>
        <time>2012-01-29T08:26:17Z</time>
      </trkpt>
      <trkpt lat="47.74048" lon="7.44393">
        <ele>241.324463</ele>
        <time>2012-01-29T08:26:19Z</time>
      </trkpt>
      <trkpt lat="47.7405" lon="7.44405">
        <ele>245.246307</ele>
        <time>2012-01-29T08:26:22Z</time>
      </trkpt>
      <trkpt lat="47.74052" lon="7.44413">
        <ele>245.28418</ele>
        <time>2012-01-29T08:26:24Z</time>
      </trkpt>
      <trkpt lat="47.74054" lon="7.44421">
        <ele>245.212524</ele>
        <time>2012-01-29T08:26:26Z</time>
      </trkpt>
      <trkpt lat="47.74056" lon="7.44429">
        <ele>247.147705</ele>
        <time>2012-01-29T08:26:28Z</time>
      </trkpt>
      <trkpt lat="47.74057" lon="7.44436">
        <ele>247.359833</ele>
        <time>2012-01-29T08:26:30Z</time>
      </trkpt>
      <trkpt lat="47.74056" lon="7.44441">
        <ele>246.768738</ele>
        <time>2012-01-29T08:26:32Z</time>
      </trkpt>
      <trkpt lat="47.7405" lon="7.44447">
        <ele>244.442444</ele>
        <time>2012-01-29T08:26:34Z</time>
      </trkpt>
      <trkpt lat="47.7404" lon="7.44454">
        <ele>244.254242</ele>
        <time>2012-01-29T08:26:36Z</time>
      </trkpt>
      <trkpt lat="47.74032" lon="7.44461">
        <ele>243.934113</ele>
        <time>2012-01-29T08:26:38Z</time>
      </trkpt>
      <trkpt lat="47.74022" lon="7.44469">
        <ele>242.228516</ele>
        <time>2012-01-29T08:26:40Z</time>
      </trkpt>
      <trkpt lat="47.74013" lon="7.44475">
        <ele>240.649597</ele>
        <time>2012-01-29T08:26:42Z</time>
      </trkpt>
      <trkpt lat="47.74006" lon="7.44482">
        <ele>240.482056</ele>
        <time>2012-01-29T08:26:44Z</time>
      </trkpt>
      <trkpt lat="47.74006" lon="7.44498">
        <ele>244.922119</ele>
        <time>2012-01-29T08:26:47Z</time>
      </trkpt>
      <trkpt lat="47.74009" lon="7.44504">
        <ele>244.611267</ele>
        <time>2012-01-29T08:26:49Z</time>
      </trkpt>
      <trkpt lat="47.74013" lon="7.4451">
        <ele>245.831543</ele>
        <time>2012-01-29T08:26:51Z</time>
      </trkpt>
      <trkpt lat="47.74016" lon="7.44516">
        <ele>249.188995</ele>
        <time>2012-01-29T08:26:53Z</time>
      </trkpt>
      <trkpt lat="47.74023" lon="7.4453">
        <ele>250.365082</ele>
        <time>2012-01-29T08:26:56Z</time>
      </trkpt>
      <trkpt lat="47.74031" lon="7.44547">
        <ele>248.400696</ele>
        <time>2012-01-29T08:26:59Z</time>
      </trkpt>
      <trkpt lat="47.74034" lon="7.44552">
        <ele>249.038635</ele>
        <time>2012-01-29T08:27:00Z</time>
      </trkpt>
      <trkpt lat="47.74044" lon="7.44571">
        <ele>250.941132</ele>
        <time>2012-01-29T08:27:04Z</time>
      </trkpt>
      <trkpt lat="47.74049" lon="7.44582">
        <ele>251.928223</ele>
        <time>2012-01-29T08:27:06Z</time>
      </trkpt>
      <trkpt lat="47.74056" lon="7.44593">
        <ele>251.084015</ele>
        <time>2012-01-29T08:27:08Z</time>
      </trkpt>
      <trkpt lat="47.74062" lon="7.44604">
        <ele>249.741302</ele>
        <time>2012-01-29T08:27:10Z</time>
      </trkpt>
      <trkpt lat="47.74072" lon="7.44624">
        <ele>251.806213</ele>
        <time>2012-01-29T08:27:13Z</time>
      </trkpt>
      <trkpt lat="47.74076" lon="7.44632">
        <ele>250.826324</ele>
        <time>2012-01-29T08:27:14Z</time>
      </trkpt>
      <trkpt lat="47.74088" lon="7.44652">
        <ele>245.955597</ele>
        <time>2012-01-29T08:27:17Z</time>
      </trkpt>
      <trkpt lat="47.74095" lon="7.44663">
        <ele>244.36676</ele>
        <time>2012-01-29T08:27:19Z</time>
      </trkpt>
      <trkpt lat="47.741" lon="7.44674">
        <ele>245.392517</ele>
        <time>2012-01-29T08:27:21Z</time>
      </trkpt>
      <trkpt lat="47.74106" lon="7.44687">
        <ele>249.979065</ele>
        <time>2012-01-29T08:27:23Z</time>
      </trkpt>
      <trkpt lat="47.74113" lon="7.447">
        <ele>248.377808</ele>
        <time>2012-01-29T08:27:25Z</time>
      </trkpt>
      <trkpt lat="47.74121" lon="7.44713">
        <ele>245.717346</ele>
        <time>2012-01-29T08:27:27Z</time>
      </trkpt>
      <trkpt lat="47.7413" lon="7.44728">
        <ele>246.395233</ele>
        <time>2012-01-29T08:27:29Z</time>
      </trkpt>
      <trkpt lat="47.74136" lon="7.44739">
        <ele>247.223846</ele>
        <time>2012-01-29T08:27:31Z</time>
      </trkpt>
      <trkpt lat="47.74146" lon="7.44757">
        <ele>245.752106</ele>
        <time>2012-01-29T08:27:34Z</time>
      </trkpt>
      <trkpt lat="47.74155" lon="7.44771">
        <ele>244.25885</ele>
        <time>2012-01-29T08:27:36Z</time>
      </trkpt>
      <trkpt lat="47.74161" lon="7.44782">
        <ele>244.533417</ele>
        <time>2012-01-29T08:27:38Z</time>
      </trkpt>
      <trkpt lat="47.74167" lon="7.44795">
        <ele>246.719696</ele>
        <time>2012-01-29T08:27:40Z</time>
      </trkpt>
      <trkpt lat="47.74175" lon="7.44803">
        <ele>246.464661</ele>
        <time>2012-01-29T08:27:42Z</time>
      </trkpt>
      <trkpt lat="47.74184" lon="7.44802">
        <ele>244.22525</ele>
        <time>2012-01-29T08:27:44Z</time>
      </trkpt>
      <trkpt lat="47.7419" lon="7.448">
        <ele>243.806305</ele>
        <time>2012-01-29T08:27:46Z</time>
      </trkpt>
      <trkpt lat="47.74193" lon="7.44798">
        <ele>246.047852</ele>
        <time>2012-01-29T08:27:48Z</time>
      </trkpt>
      <trkpt lat="47.74193" lon="7.44798">
        <ele>246.047852</ele>
        <time>2012-01-29T08:27:50Z</time>
      </trkpt>
      <trkpt lat="47.74193" lon="7.44798">
        <ele>246.047852</ele>
        <time>2012-01-29T08:27:53Z</time>
      </trkpt>
      <trkpt lat="47.74193" lon="7.44798">
        <ele>246.047852</ele>
        <time>2012-01-29T08:27:57Z</time>
      </trkpt>
      <trkpt lat="47.74193" lon="7.44798">
        <ele>246.047852</ele>
        <time>2012-01-29T08:27:59Z</time>
      </trkpt>
      <trkpt lat="47.74193" lon="7.44798">
        <ele>246.047852</ele>
        <time>2012-01-29T08:28:02Z</time>
      </trkpt>
      <trkpt lat="47.74193" lon="7.44798">
        <ele>246.047852</ele>
        <time>2012-01-29T08:28:04Z</time>
      </trkpt>
      <trkpt lat="47.74193" lon="7.44798">
        <ele>246.047852</ele>
        <time>2012-01-29T08:28:08Z</time>
      </trkpt>
      <trkpt lat="47.74193" lon="7.44798">
        <ele>246.047852</ele>
        <time>2012-01-29T08:28:10Z</time>
      </trkpt>
      <trkpt lat="47.74197" lon="7.44793">
        <ele>232.053986</ele>
        <time>2012-01-29T08:28:12Z</time>
      </trkpt>
      <trkpt lat="47.74197" lon="7.44793">
        <ele>233.675049</ele>
        <time>2012-01-29T08:28:13Z</time>
      </trkpt>
      <trkpt lat="47.74197" lon="7.44793">
        <ele>231.298401</ele>
        <time>2012-01-29T08:28:15Z</time>
      </trkpt>
      <trkpt lat="47.74193" lon="7.44797">
        <ele>236.709991</ele>
        <time>2012-01-29T08:28:19Z</time>
      </trkpt>
      <trkpt lat="47.74188" lon="7.448">
        <ele>235.744812</ele>
        <time>2012-01-29T08:28:21Z</time>
      </trkpt>
      <trkpt lat="47.74185" lon="7.44803">
        <ele>233.92453</ele>
        <time>2012-01-29T08:28:23Z</time>
      </trkpt>
      <trkpt lat="47.74185" lon="7.44803">
        <ele>233.92453</ele>
        <time>2012-01-29T08:28:25Z</time>
      </trkpt>
      <trkpt lat="47.74183" lon="7.44814">
        <ele>241.447266</ele>
        <time>2012-01-29T08:28:27Z</time>
      </trkpt>
      <trkpt lat="47.74183" lon="7.4482">
        <ele>241.341766</ele>
        <time>2012-01-29T08:28:29Z</time>
      </trkpt>
      <trkpt lat="47.74185" lon="7.44827">
        <ele>242.477112</ele>
        <time>2012-01-29T08:28:31Z</time>
      </trkpt>
      <trkpt lat="47.74188" lon="7.44834">
        <ele>245.241119</ele>
        <time>2012-01-29T08:28:33Z</time>
      </trkpt>
      <trkpt lat="47.74195" lon="7.44846">
        <ele>246.409302</ele>
        <time>2012-01-29T08:28:36Z</time>
      </trkpt>
      <trkpt lat="47.74199" lon="7.44854">
        <ele>245.339386</ele>
        <time>2012-01-29T08:28:38Z</time>
      </trkpt>
      <trkpt lat="47.74207" lon="7.44869">
        <ele>246.522614</ele>
        <time>2012-01-29T08:28:41Z</time>
      </trkpt>
      <trkpt lat="47.74214" lon="7.44883">
        <ele>245.989044</ele>
        <time>2012-01-29T08:28:44Z</time>
      </trkpt>
      <trkpt lat="47.74216" lon="7.44888">
        <ele>244.732758</ele>
        <time>2012-01-29T08:28:45Z</time>
      </trkpt>
      <trkpt lat="47.74225" lon="7.44904">
        <ele>245.401093</ele>
        <time>2012-01-29T08:28:48Z</time>
      </trkpt>
      <trkpt lat="47.7423" lon="7.44913">
        <ele>246.078217</ele>
        <time>2012-01-29T08:28:50Z</time>
      </trkpt>
      <trkpt lat="47.74235" lon="7.44922">
        <ele>245.346985</ele>
        <time>2012-01-29T08:28:52Z</time>
      </trkpt>
      <trkpt lat="47.74241" lon="7.44932">
        <ele>244.443604</ele>
        <time>2012-01-29T08:28:54Z</time>
      </trkpt>
      <trkpt lat="47.74248" lon="7.44944">
        <ele>244.859741</ele>
        <time>2012-01-29T08:28:56Z</time>
      </trkpt>
      <trkpt lat="47.74255" lon="7.44957">
        <ele>244.246246</ele>
        <time>2012-01-29T08:28:58Z</time>
      </trkpt>
      <trkpt lat="47.74262" lon="7.44969">
        <ele>244.941864</ele>
        <time>2012-01-29T08:29:00Z</time>
      </trkpt>
      <trkpt lat="47.74272" lon="7.44987">
        <ele>243.92984</ele>
        <time>2012-01-29T08:29:03Z</time>
      </trkpt>
      <trkpt lat="47.74279" lon="7.44999">
        <ele>244.896851</ele>
        <time>2012-01-29T08:29:05Z</time>
      </trkpt>
      <trkpt lat="47.74285" lon="7.45011">
        <ele>246.420288</ele>
        <time>2012-01-29T08:29:07Z</time>
      </trkpt>
      <trkpt lat="47.74293" lon="7.45026">
        <ele>244.355652</ele>
        <time>2012-01-29T08:29:09Z</time>
      </trkpt>
      <trkpt lat="47.74301" lon="7.45041">
        <ele>243.122314</ele>
        <time>2012-01-29T08:29:11Z</time>
      </trkpt>
      <trkpt lat="47.74309" lon="7.45057">
        <ele>245.012695</ele>
        <time>2012-01-29T08:29:13Z</time>
      </trkpt>
      <trkpt lat="47.74317" lon="7.45073">
        <ele>246.664673</ele>
        <time>2012-01-29T08:29:15Z</time>
      </trkpt>
      <trkpt lat="47.7433" lon="7.45094">
        <ele>244.918152</ele>
        <time>2012-01-29T08:29:18Z</time>
      </trkpt>
      <trkpt lat="47.74338" lon="7.45109">
        <ele>246.467773</ele>
        <time>2012-01-29T08:29:20Z</time>
      </trkpt>
      <trkpt lat="47.74346" lon="7.45124">
        <ele>247.199799</ele>
        <time>2012-01-29T08:29:22Z</time>
      </trkpt>
      <trkpt lat="47.74354" lon="7.45138">
        <ele>248.058838</ele>
        <time>2012-01-29T08:29:24Z</time>
      </trkpt>
      <trkpt lat="47.74362" lon="7.45153">
        <ele>245.515991</ele>
        <time>2012-01-29T08:29:26Z</time>
      </trkpt>
      <trkpt lat="47.7437" lon="7.45166">
        <ele>246.469177</ele>
        <time>2012-01-29T08:29:28Z</time>
      </trkpt>
      <trkpt lat="47.74376" lon="7.45179">
        <ele>247.310089</ele>
        <time>2012-01-29T08:29:30Z</time>
      </trkpt>
      <trkpt lat="47.74387" lon="7.452">
        <ele>248.305878</ele>
        <time>2012-01-29T08:29:33Z</time>
      </trkpt>
      <trkpt lat="47.74395" lon="7.45213">
        <ele>250.686646</ele>
        <time>2012-01-29T08:29:35Z</time>
      </trkpt>
      <trkpt lat="47.74402" lon="7.45225">
        <ele>248.640533</ele>
        <time>2012-01-29T08:29:37Z</time>
      </trkpt>
      <trkpt lat="47.7441" lon="7.45239">
        <ele>246.372681</ele>
        <time>2012-01-29T08:29:39Z</time>
      </trkpt>
      <trkpt lat="47.74417" lon="7.45253">
        <ele>249.404419</ele>
        <time>2012-01-29T08:29:41Z</time>
      </trkpt>
      <trkpt lat="47.74423" lon="7.45264">
        <ele>250.378815</ele>
        <time>2012-01-29T08:29:43Z</time>
      </trkpt>
      <trkpt lat="47.74435" lon="7.45285">
        <ele>251.874115</ele>
        <time>2012-01-29T08:29:46Z</time>
      </trkpt>
      <trkpt lat="47.7444" lon="7.45296">
        <ele>251.140808</ele>
        <time>2012-01-29T08:29:48Z</time>
      </trkpt>
      <trkpt lat="47.74449" lon="7.45313">
        <ele>251.252808</ele>
        <time>2012-01-29T08:29:50Z</time>
      </trkpt>
      <trkpt lat="47.74459" lon="7.45328">
        <ele>249.964996</ele>
        <time>2012-01-29T08:29:52Z</time>
      </trkpt>
      <trkpt lat="47.74477" lon="7.45357">
        <ele>247.093323</ele>
        <time>2012-01-29T08:29:56Z</time>
      </trkpt>
      <trkpt lat="47.74484" lon="7.45371">
        <ele>247.567078</ele>
        <time>2012-01-29T08:29:58Z</time>
      </trkpt>
      <trkpt lat="47.74492" lon="7.45384">
        <ele>245.094269</ele>
        <time>2012-01-29T08:30:00Z</time>
      </trkpt>
      <trkpt lat="47.74498" lon="7.45395">
        <ele>244.157043</ele>
        <time>2012-01-29T08:30:02Z</time>
      </trkpt>
      <trkpt lat="47.74504" lon="7.45408">
        <ele>243.946625</ele>
        <time>2012-01-29T08:30:04Z</time>
      </trkpt>
      <trkpt lat="47.74512" lon="7.45423">
        <ele>243.459442</ele>
        <time>2012-01-29T08:30:06Z</time>
      </trkpt>
      <trkpt lat="47.74524" lon="7.45444">
        <ele>242.889587</ele>
        <time>2012-01-29T08:30:09Z</time>
      </trkpt>
      <trkpt lat="47.74529" lon="7.45454">
        <ele>244.484253</ele>
        <time>2012-01-29T08:30:11Z</time>
      </trkpt>
      <trkpt lat="47.74536" lon="7.45462">
        <ele>247.4422</ele>
        <time>2012-01-29T08:30:13Z</time>
      </trkpt>
      <trkpt lat="47.74547" lon="7.45463">
        <ele>246.122894</ele>
        <time>2012-01-29T08:30:15Z</time>
      </trkpt>
      <trkpt lat="47.74558" lon="7.4546">
        <ele>242.956116</ele>
        <time>2012-01-29T08:30:17Z</time>
      </trkpt>
      <trkpt lat="47.74573" lon="7.45452">
        <ele>245.370544</ele>
        <time>2012-01-29T08:30:20Z</time>
      </trkpt>
      <trkpt lat="47.74584" lon="7.45446">
        <ele>245.763092</ele>
        <time>2012-01-29T08:30:22Z</time>
      </trkpt>
      <trkpt lat="47.74596" lon="7.45438">
        <ele>243.602905</ele>
        <time>2012-01-29T08:30:24Z</time>
      </trkpt>
      <trkpt lat="47.74615" lon="7.45426">
        <ele>245.186859</ele>
        <time>2012-01-29T08:30:27Z</time>
      </trkpt>
      <trkpt lat="47.74637" lon="7.45409">
        <ele>243.632996</ele>
        <time>2012-01-29T08:30:30Z</time>
      </trkpt>
      <trkpt lat="47.74652" lon="7.454">
        <ele>244.500488</ele>
        <time>2012-01-29T08:30:32Z</time>
      </trkpt>
      <trkpt lat="47.74666" lon="7.45391">
        <ele>243.674377</ele>
        <time>2012-01-29T08:30:34Z</time>
      </trkpt>
      <trkpt lat="47.74678" lon="7.45384">
        <ele>243.304535</ele>
        <time>2012-01-29T08:30:36Z</time>
      </trkpt>
      <trkpt lat="47.74698" lon="7.45369">
        <ele>241.190277</ele>
        <time>2012-01-29T08:30:39Z</time>
      </trkpt>
      <trkpt lat="47.7471" lon="7.45361">
        <ele>241.701965</ele>
        <time>2012-01-29T08:30:41Z</time>
      </trkpt>
      <trkpt lat="47.74722" lon="7.45354">
        <ele>242.861603</ele>
        <time>2012-01-29T08:30:43Z</time>
      </trkpt>
      <trkpt lat="47.74735" lon="7.45347">
        <ele>244.491974</ele>
        <time>2012-01-29T08:30:45Z</time>
      </trkpt>
      <trkpt lat="47.74747" lon="7.4534">
        <ele>244.599731</ele>
        <time>2012-01-29T08:30:47Z</time>
      </trkpt>
      <trkpt lat="47.74759" lon="7.45333">
        <ele>243.174652</ele>
        <time>2012-01-29T08:30:49Z</time>
      </trkpt>
      <trkpt lat="47.74771" lon="7.45326">
        <ele>241.657349</ele>
        <time>2012-01-29T08:30:51Z</time>
      </trkpt>
      <trkpt lat="47.74789" lon="7.45314">
        <ele>239.327332</ele>
        <time>2012-01-29T08:30:54Z</time>
      </trkpt>
      <trkpt lat="47.74801" lon="7.45306">
        <ele>239.675446</ele>
        <time>2012-01-29T08:30:56Z</time>
      </trkpt>
      <trkpt lat="47.74814" lon="7.45297">
        <ele>238.649017</ele>
        <time>2012-01-29T08:30:58Z</time>
      </trkpt>
      <trkpt lat="47.74828" lon="7.45289">
        <ele>237.466187</ele>
        <time>2012-01-29T08:31:00Z</time>
      </trkpt>
      <trkpt lat="47.7484" lon="7.45282">
        <ele>240.363708</ele>
        <time>2012-01-29T08:31:02Z</time>
      </trkpt>
      <trkpt lat="47.74857" lon="7.45272">
        <ele>242.445618</ele>
        <time>2012-01-29T08:31:05Z</time>
      </trkpt>
      <trkpt lat="47.74869" lon="7.45263">
        <ele>243.519165</ele>
        <time>2012-01-29T08:31:07Z</time>
      </trkpt>
      <trkpt lat="47.74881" lon="7.45257">
        <ele>243.959839</ele>
        <time>2012-01-29T08:31:09Z</time>
      </trkpt>
      <trkpt lat="47.74893" lon="7.4525">
        <ele>242.921356</ele>
        <time>2012-01-29T08:31:11Z</time>
      </trkpt>
      <trkpt lat="47.74905" lon="7.45243">
        <ele>245.282166</ele>
        <time>2012-01-29T08:31:13Z</time>
      </trkpt>
      <trkpt lat="47.74918" lon="7.45234">
        <ele>246.571625</ele>
        <time>2012-01-29T08:31:15Z</time>
      </trkpt>
      <trkpt lat="47.74938" lon="7.45221">
        <ele>248.004425</ele>
        <time>2012-01-29T08:31:18Z</time>
      </trkpt>
      <trkpt lat="47.7495" lon="7.45213">
        <ele>246.519318</ele>
        <time>2012-01-29T08:31:20Z</time>
      </trkpt>
      <trkpt lat="47.74963" lon="7.45205">
        <ele>247.49649</ele>
        <time>2012-01-29T08:31:22Z</time>
      </trkpt>
      <trkpt lat="47.74977" lon="7.45196">
        <ele>247.53302</ele>
        <time>2012-01-29T08:31:24Z</time>
      </trkpt>
      <trkpt lat="47.74996" lon="7.45184">
        <ele>247.327423</ele>
        <time>2012-01-29T08:31:27Z</time>
      </trkpt>
      <trkpt lat="47.75008" lon="7.45176">
        <ele>247.784912</ele>
        <time>2012-01-29T08:31:29Z</time>
      </trkpt>
      <trkpt lat="47.75022" lon="7.45167">
        <ele>247.82312</ele>
        <time>2012-01-29T08:31:31Z</time>
      </trkpt>
      <trkpt lat="47.75035" lon="7.45159">
        <ele>248.715454</ele>
        <time>2012-01-29T08:31:33Z</time>
      </trkpt>
      <trkpt lat="47.75049" lon="7.45151">
        <ele>247.614502</ele>
        <time>2012-01-29T08:31:35Z</time>
      </trkpt>
      <trkpt lat="47.75067" lon="7.45138">
        <ele>248.650726</ele>
        <time>2012-01-29T08:31:38Z</time>
      </trkpt>
      <trkpt lat="47.7508" lon="7.4513">
        <ele>250.230713</ele>
        <time>2012-01-29T08:31:40Z</time>
      </trkpt>
      <trkpt lat="47.75093" lon="7.4512">
        <ele>248.747681</ele>
        <time>2012-01-29T08:31:42Z</time>
      </trkpt>
      <trkpt lat="47.75113" lon="7.45108">
        <ele>245.100189</ele>
        <time>2012-01-29T08:31:45Z</time>
      </trkpt>
      <trkpt lat="47.75125" lon="7.45101">
        <ele>245.139679</ele>
        <time>2012-01-29T08:31:47Z</time>
      </trkpt>
      <trkpt lat="47.75137" lon="7.45094">
        <ele>245.86908</ele>
        <time>2012-01-29T08:31:49Z</time>
      </trkpt>
      <trkpt lat="47.75148" lon="7.45088">
        <ele>247.291992</ele>
        <time>2012-01-29T08:31:51Z</time>
      </trkpt>
      <trkpt lat="47.7516" lon="7.45081">
        <ele>248.958191</ele>
        <time>2012-01-29T08:31:53Z</time>
      </trkpt>
      <trkpt lat="47.75179" lon="7.45067">
        <ele>245.322235</ele>
        <time>2012-01-29T08:31:56Z</time>
      </trkpt>
      <trkpt lat="47.75191" lon="7.45058">
        <ele>245.07135</ele>
        <time>2012-01-29T08:31:58Z</time>
      </trkpt>
      <trkpt lat="47.75203" lon="7.4505">
        <ele>246.106964</ele>
        <time>2012-01-29T08:32:00Z</time>
      </trkpt>
      <trkpt lat="47.75215" lon="7.45042">
        <ele>244.380646</ele>
        <time>2012-01-29T08:32:02Z</time>
      </trkpt>
      <trkpt lat="47.75233" lon="7.45032">
        <ele>244.127869</ele>
        <time>2012-01-29T08:32:05Z</time>
      </trkpt>
      <trkpt lat="47.75246" lon="7.45024">
        <ele>243.357361</ele>
        <time>2012-01-29T08:32:07Z</time>
      </trkpt>
      <trkpt lat="47.75258" lon="7.45015">
        <ele>241.27832</ele>
        <time>2012-01-29T08:32:09Z</time>
      </trkpt>
      <trkpt lat="47.7527" lon="7.45007">
        <ele>243.229614</ele>
        <time>2012-01-29T08:32:11Z</time>
      </trkpt>
      <trkpt lat="47.75289" lon="7.44996">
        <ele>243.42392</ele>
        <time>2012-01-29T08:32:14Z</time>
      </trkpt>
      <trkpt lat="47.75301" lon="7.44988">
        <ele>244.776001</ele>
        <time>2012-01-29T08:32:16Z</time>
      </trkpt>
      <trkpt lat="47.75314" lon="7.44979">
        <ele>243.687653</ele>
        <time>2012-01-29T08:32:18Z</time>
      </trkpt>
      <trkpt lat="47.75327" lon="7.44971">
        <ele>244.437012</ele>
        <time>2012-01-29T08:32:20Z</time>
      </trkpt>
      <trkpt lat="47.75345" lon="7.4496">
        <ele>243.253082</ele>
        <time>2012-01-29T08:32:23Z</time>
      </trkpt>
      <trkpt lat="47.75357" lon="7.44952">
        <ele>243.857178</ele>
        <time>2012-01-29T08:32:25Z</time>
      </trkpt>
      <trkpt lat="47.7537" lon="7.44943">
        <ele>244.754547</ele>
        <time>2012-01-29T08:32:27Z</time>
      </trkpt>
      <trkpt lat="47.75382" lon="7.44935">
        <ele>244.321594</ele>
        <time>2012-01-29T08:32:29Z</time>
      </trkpt>
      <trkpt lat="47.75401" lon="7.44923">
        <ele>242.986237</ele>
        <time>2012-01-29T08:32:32Z</time>
      </trkpt>
      <trkpt lat="47.75415" lon="7.44915">
        <ele>243.609009</ele>
        <time>2012-01-29T08:32:34Z</time>
      </trkpt>
      <trkpt lat="47.75427" lon="7.44907">
        <ele>244.457245</ele>
        <time>2012-01-29T08:32:36Z</time>
      </trkpt>
      <trkpt lat="47.7544" lon="7.449">
        <ele>245.091217</ele>
        <time>2012-01-29T08:32:38Z</time>
      </trkpt>
      <trkpt lat="47.75451" lon="7.44892">
        <ele>245.259338</ele>
        <time>2012-01-29T08:32:40Z</time>
      </trkpt>
      <trkpt lat="47.75471" lon="7.44879">
        <ele>241.801697</ele>
        <time>2012-01-29T08:32:43Z</time>
      </trkpt>
      <trkpt lat="47.75483" lon="7.44871">
        <ele>241.720917</ele>
        <time>2012-01-29T08:32:45Z</time>
      </trkpt>
      <trkpt lat="47.75495" lon="7.44863">
        <ele>242.155945</ele>
        <time>2012-01-29T08:32:47Z</time>
      </trkpt>
      <trkpt lat="47.75509" lon="7.44855">
        <ele>243.44458</ele>
        <time>2012-01-29T08:32:49Z</time>
      </trkpt>
      <trkpt lat="47.75524" lon="7.44846">
        <ele>244.376007</ele>
        <time>2012-01-29T08:32:51Z</time>
      </trkpt>
      <trkpt lat="47.75538" lon="7.44837">
        <ele>243.609467</ele>
        <time>2012-01-29T08:32:53Z</time>
      </trkpt>
      <trkpt lat="47.75552" lon="7.44828">
        <ele>243.016174</ele>
        <time>2012-01-29T08:32:55Z</time>
      </trkpt>
      <trkpt lat="47.75572" lon="7.44814">
        <ele>243.710907</ele>
        <time>2012-01-29T08:32:58Z</time>
      </trkpt>
      <trkpt lat="47.75591" lon="7.44801">
        <ele>239.530151</ele>
        <time>2012-01-29T08:33:01Z</time>
      </trkpt>
      <trkpt lat="47.75604" lon="7.44793">
        <ele>239.448639</ele>
        <time>2012-01-29T08:33:03Z</time>
      </trkpt>
      <trkpt lat="47.75615" lon="7.44787">
        <ele>240.162537</ele>
        <time>2012-01-29T08:33:05Z</time>
      </trkpt>
      <trkpt lat="47.75626" lon="7.4478">
        <ele>244.094025</ele>
        <time>2012-01-29T08:33:07Z</time>
      </trkpt>
      <trkpt lat="47.75644" lon="7.4477">
        <ele>248.021271</ele>
        <time>2012-01-29T08:33:10Z</time>
      </trkpt>
      <trkpt lat="47.75656" lon="7.44761">
        <ele>248.027802</ele>
        <time>2012-01-29T08:33:12Z</time>
      </trkpt>
      <trkpt lat="47.75668" lon="7.44753">
        <ele>245.699249</ele>
        <time>2012-01-29T08:33:14Z</time>
      </trkpt>
      <trkpt lat="47.7568" lon="7.44746">
        <ele>245.812897</ele>
        <time>2012-01-29T08:33:16Z</time>
      </trkpt>
      <trkpt lat="47.75698" lon="7.44736">
        <ele>246.054413</ele>
        <time>2012-01-29T08:33:19Z</time>
      </trkpt>
      <trkpt lat="47.75711" lon="7.44728">
        <ele>242.663025</ele>
        <time>2012-01-29T08:33:21Z</time>
      </trkpt>
      <trkpt lat="47.75724" lon="7.4472">
        <ele>241.562561</ele>
        <time>2012-01-29T08:33:23Z</time>
      </trkpt>
      <trkpt lat="47.75737" lon="7.44711">
        <ele>242.171906</ele>
        <time>2012-01-29T08:33:25Z</time>
      </trkpt>
      <trkpt lat="47.75749" lon="7.44704">
        <ele>245.075897</ele>
        <time>2012-01-29T08:33:27Z</time>
      </trkpt>
      <trkpt lat="47.75768" lon="7.44692">
        <ele>247.245544</ele>
        <time>2012-01-29T08:33:30Z</time>
      </trkpt>
      <trkpt lat="47.7578" lon="7.44684">
        <ele>247.36145</ele>
        <time>2012-01-29T08:33:32Z</time>
      </trkpt>
      <trkpt lat="47.75792" lon="7.44676">
        <ele>245.281982</ele>
        <time>2012-01-29T08:33:34Z</time>
      </trkpt>
      <trkpt lat="47.75812" lon="7.44664">
        <ele>244.357178</ele>
        <time>2012-01-29T08:33:37Z</time>
      </trkpt>
      <trkpt lat="47.75826" lon="7.44656">
        <ele>242.292053</ele>
        <time>2012-01-29T08:33:39Z</time>
      </trkpt>
      <trkpt lat="47.7584" lon="7.44647">
        <ele>242.310242</ele>
        <time>2012-01-29T08:33:41Z</time>
      </trkpt>
      <trkpt lat="47.75853" lon="7.44638">
        <ele>240.757294</ele>
        <time>2012-01-29T08:33:43Z</time>
      </trkpt>
      <trkpt lat="47.75874" lon="7.44624">
        <ele>237.706268</ele>
        <time>2012-01-29T08:33:46Z</time>
      </trkpt>
      <trkpt lat="47.75886" lon="7.44616">
        <ele>237.431641</ele>
        <time>2012-01-29T08:33:48Z</time>
      </trkpt>
      <trkpt lat="47.75898" lon="7.44608">
        <ele>237.063141</ele>
        <time>2012-01-29T08:33:50Z</time>
      </trkpt>
      <trkpt lat="47.75911" lon="7.446">
        <ele>237.970673</ele>
        <time>2012-01-29T08:33:52Z</time>
      </trkpt>
      <trkpt lat="47.75923" lon="7.44592">
        <ele>236.89325</ele>
        <time>2012-01-29T08:33:54Z</time>
      </trkpt>
      <trkpt lat="47.75942" lon="7.44581">
        <ele>239.025269</ele>
        <time>2012-01-29T08:33:57Z</time>
      </trkpt>
      <trkpt lat="47.75961" lon="7.44569">
        <ele>241.041229</ele>
        <time>2012-01-29T08:34:00Z</time>
      </trkpt>
      <trkpt lat="47.75974" lon="7.44561">
        <ele>237.707947</ele>
        <time>2012-01-29T08:34:02Z</time>
      </trkpt>
      <trkpt lat="47.75987" lon="7.44552">
        <ele>239.044464</ele>
        <time>2012-01-29T08:34:04Z</time>
      </trkpt>
      <trkpt lat="47.76006" lon="7.44541">
        <ele>239.669373</ele>
        <time>2012-01-29T08:34:07Z</time>
      </trkpt>
      <trkpt lat="47.76122" lon="7.44463">
        <ele>242.321991</ele>
        <time>2012-01-29T08:34:26Z</time>
      </trkpt>
      <trkpt lat="47.76146" lon="7.44448">
        <ele>240.854218</ele>
        <time>2012-01-29T08:34:30Z</time>
      </trkpt>
      <trkpt lat="47.76158" lon="7.4444">
        <ele>239.499573</ele>
        <time>2012-01-29T08:34:32Z</time>
      </trkpt>
      <trkpt lat="47.76169" lon="7.44433">
        <ele>236.355042</ele>
        <time>2012-01-29T08:34:34Z</time>
      </trkpt>
      <trkpt lat="47.76179" lon="7.44427">
        <ele>236.705475</ele>
        <time>2012-01-29T08:34:36Z</time>
      </trkpt>
      <trkpt lat="47.76193" lon="7.44419">
        <ele>234.309631</ele>
        <time>2012-01-29T08:34:39Z</time>
      </trkpt>
      <trkpt lat="47.762" lon="7.44415">
        <ele>234.680145</ele>
        <time>2012-01-29T08:34:41Z</time>
      </trkpt>
      <trkpt lat="47.76206" lon="7.44409">
        <ele>235.618408</ele>
        <time>2012-01-29T08:34:43Z</time>
      </trkpt>
      <trkpt lat="47.76209" lon="7.44399">
        <ele>237.353699</ele>
        <time>2012-01-29T08:34:45Z</time>
      </trkpt>
      <trkpt lat="47.76207" lon="7.44383">
        <ele>237.289124</ele>
        <time>2012-01-29T08:34:48Z</time>
      </trkpt>
      <trkpt lat="47.76204" lon="7.4437">
        <ele>236.889648</ele>
        <time>2012-01-29T08:34:50Z</time>
      </trkpt>
      <trkpt lat="47.76198" lon="7.44351">
        <ele>237.010895</ele>
        <time>2012-01-29T08:34:53Z</time>
      </trkpt>
      <trkpt lat="47.76194" lon="7.44339">
        <ele>238.773438</ele>
        <time>2012-01-29T08:34:55Z</time>
      </trkpt>
      <trkpt lat="47.7619" lon="7.44328">
        <ele>242.547455</ele>
        <time>2012-01-29T08:34:57Z</time>
      </trkpt>
      <trkpt lat="47.76184" lon="7.4431">
        <ele>244.525879</ele>
        <time>2012-01-29T08:35:00Z</time>
      </trkpt>
      <trkpt lat="47.76179" lon="7.44296">
        <ele>246.084503</ele>
        <time>2012-01-29T08:35:02Z</time>
      </trkpt>
      <trkpt lat="47.76175" lon="7.44281">
        <ele>245.834686</ele>
        <time>2012-01-29T08:35:04Z</time>
      </trkpt>
      <trkpt lat="47.76169" lon="7.44258">
        <ele>244.829193</ele>
        <time>2012-01-29T08:35:07Z</time>
      </trkpt>
      <trkpt lat="47.76166" lon="7.44244">
        <ele>244.91098</ele>
        <time>2012-01-29T08:35:09Z</time>
      </trkpt>
      <trkpt lat="47.76161" lon="7.44229">
        <ele>245.422638</ele>
        <time>2012-01-29T08:35:11Z</time>
      </trkpt>
      <trkpt lat="47.76157" lon="7.44212">
        <ele>244.046234</ele>
        <time>2012-01-29T08:35:13Z</time>
      </trkpt>
      <trkpt lat="47.76154" lon="7.44197">
        <ele>247.348297</ele>
        <time>2012-01-29T08:35:15Z</time>
      </trkpt>
      <trkpt lat="47.76149" lon="7.44181">
        <ele>247.048004</ele>
        <time>2012-01-29T08:35:17Z</time>
      </trkpt>
      <trkpt lat="47.76145" lon="7.44162">
        <ele>245.322754</ele>
        <time>2012-01-29T08:35:19Z</time>
      </trkpt>
      <trkpt lat="47.76142" lon="7.44145">
        <ele>246.425262</ele>
        <time>2012-01-29T08:35:21Z</time>
      </trkpt>
      <trkpt lat="47.76138" lon="7.44129">
        <ele>245.09729</ele>
        <time>2012-01-29T08:35:23Z</time>
      </trkpt>
      <trkpt lat="47.76134" lon="7.44112">
        <ele>247.59259</ele>
        <time>2012-01-29T08:35:25Z</time>
      </trkpt>
      <trkpt lat="47.76126" lon="7.44069">
        <ele>240.895172</ele>
        <time>2012-01-29T08:35:30Z</time>
      </trkpt>
      <trkpt lat="47.76121" lon="7.44043">
        <ele>240.345673</ele>
        <time>2012-01-29T08:35:33Z</time>
      </trkpt>
      <trkpt lat="47.76118" lon="7.44026">
        <ele>241.113861</ele>
        <time>2012-01-29T08:35:35Z</time>
      </trkpt>
      <trkpt lat="47.76114" lon="7.44009">
        <ele>244.867767</ele>
        <time>2012-01-29T08:35:37Z</time>
      </trkpt>
      <trkpt lat="47.76107" lon="7.4398">
        <ele>243.899078</ele>
        <time>2012-01-29T08:35:40Z</time>
      </trkpt>
      <trkpt lat="47.76103" lon="7.43962">
        <ele>239.817078</ele>
        <time>2012-01-29T08:35:42Z</time>
      </trkpt>
      <trkpt lat="47.76098" lon="7.43943">
        <ele>239.556732</ele>
        <time>2012-01-29T08:35:44Z</time>
      </trkpt>
      <trkpt lat="47.76091" lon="7.43928">
        <ele>241.837524</ele>
        <time>2012-01-29T08:35:46Z</time>
      </trkpt>
      <trkpt lat="47.76084" lon="7.43915">
        <ele>238.77533</ele>
        <time>2012-01-29T08:35:48Z</time>
      </trkpt>
      <trkpt lat="47.76083" lon="7.43884">
        <ele>240.005249</ele>
        <time>2012-01-29T08:35:52Z</time>
      </trkpt>
      <trkpt lat="47.76086" lon="7.4386">
        <ele>239.739349</ele>
        <time>2012-01-29T08:35:56Z</time>
      </trkpt>
      <trkpt lat="47.76085" lon="7.4385">
        <ele>237.17514</ele>
        <time>2012-01-29T08:35:58Z</time>
      </trkpt>
      <trkpt lat="47.76082" lon="7.4384">
        <ele>239.683502</ele>
        <time>2012-01-29T08:36:00Z</time>
      </trkpt>
      <trkpt lat="47.76077" lon="7.4383">
        <ele>240.141937</ele>
        <time>2012-01-29T08:36:02Z</time>
      </trkpt>
      <trkpt lat="47.7607" lon="7.43812">
        <ele>242.599121</ele>
        <time>2012-01-29T08:36:05Z</time>
      </trkpt>
      <trkpt lat="47.76066" lon="7.43799">
        <ele>242.111176</ele>
        <time>2012-01-29T08:36:07Z</time>
      </trkpt>
      <trkpt lat="47.76059" lon="7.4378">
        <ele>241.687927</ele>
        <time>2012-01-29T08:36:10Z</time>
      </trkpt>
      <trkpt lat="47.76052" lon="7.43764">
        <ele>242.220428</ele>
        <time>2012-01-29T08:36:13Z</time>
      </trkpt>
      <trkpt lat="47.76042" lon="7.43741">
        <ele>241.823669</ele>
        <time>2012-01-29T08:36:16Z</time>
      </trkpt>
      <trkpt lat="47.76038" lon="7.43729">
        <ele>245.3573</ele>
        <time>2012-01-29T08:36:18Z</time>
      </trkpt>
      <trkpt lat="47.76033" lon="7.43716">
        <ele>240.490112</ele>
        <time>2012-01-29T08:36:20Z</time>
      </trkpt>
      <trkpt lat="47.76028" lon="7.43703">
        <ele>237.248871</ele>
        <time>2012-01-29T08:36:22Z</time>
      </trkpt>
      <trkpt lat="47.76023" lon="7.4369">
        <ele>241.730408</ele>
        <time>2012-01-29T08:36:24Z</time>
      </trkpt>
      <trkpt lat="47.76019" lon="7.43677">
        <ele>241.109406</ele>
        <time>2012-01-29T08:36:26Z</time>
      </trkpt>
      <trkpt lat="47.76014" lon="7.43664">
        <ele>230.920441</ele>
        <time>2012-01-29T08:36:29Z</time>
      </trkpt>
      <trkpt lat="47.76012" lon="7.43656">
        <ele>235.406464</ele>
        <time>2012-01-29T08:36:32Z</time>
      </trkpt>
      <trkpt lat="47.76011" lon="7.43641">
        <ele>234.500977</ele>
        <time>2012-01-29T08:36:37Z</time>
      </trkpt>
      <trkpt lat="47.76011" lon="7.43636">
        <ele>239.185516</ele>
        <time>2012-01-29T08:36:39Z</time>
      </trkpt>
      <trkpt lat="47.76015" lon="7.43625">
        <ele>239.784515</ele>
        <time>2012-01-29T08:36:42Z</time>
      </trkpt>
      <trkpt lat="47.76017" lon="7.43617">
        <ele>237.960052</ele>
        <time>2012-01-29T08:36:44Z</time>
      </trkpt>
      <trkpt lat="47.76018" lon="7.43606">
        <ele>236.716644</ele>
        <time>2012-01-29T08:36:46Z</time>
      </trkpt>
      <trkpt lat="47.76021" lon="7.43587">
        <ele>236.638489</ele>
        <time>2012-01-29T08:36:49Z</time>
      </trkpt>
      <trkpt lat="47.76022" lon="7.43575">
        <ele>236.982605</ele>
        <time>2012-01-29T08:36:51Z</time>
      </trkpt>
      <trkpt lat="47.76023" lon="7.43563">
        <ele>230.3992</ele>
        <time>2012-01-29T08:36:53Z</time>
      </trkpt>
      <trkpt lat="47.76025" lon="7.4353">
        <ele>237.247711</ele>
        <time>2012-01-29T08:36:58Z</time>
      </trkpt>
      <trkpt lat="47.76028" lon="7.435">
        <ele>241.535248</ele>
        <time>2012-01-29T08:37:02Z</time>
      </trkpt>
      <trkpt lat="47.76029" lon="7.43477">
        <ele>242.027008</ele>
        <time>2012-01-29T08:37:05Z</time>
      </trkpt>
      <trkpt lat="47.76031" lon="7.43455">
        <ele>243.544983</ele>
        <time>2012-01-29T08:37:08Z</time>
      </trkpt>
      <trkpt lat="47.76033" lon="7.43437">
        <ele>246.871857</ele>
        <time>2012-01-29T08:37:11Z</time>
      </trkpt>
      <trkpt lat="47.76034" lon="7.43412">
        <ele>249.497467</ele>
        <time>2012-01-29T08:37:15Z</time>
      </trkpt>
      <trkpt lat="47.76035" lon="7.43395">
        <ele>249.147186</ele>
        <time>2012-01-29T08:37:17Z</time>
      </trkpt>
      <trkpt lat="47.76038" lon="7.43374">
        <ele>248.91568</ele>
        <time>2012-01-29T08:37:20Z</time>
      </trkpt>
      <trkpt lat="47.76039" lon="7.43363">
        <ele>251.692474</ele>
        <time>2012-01-29T08:37:22Z</time>
      </trkpt>
      <trkpt lat="47.7604" lon="7.4334">
        <ele>247.228973</ele>
        <time>2012-01-29T08:37:25Z</time>
      </trkpt>
      <trkpt lat="47.76042" lon="7.43321">
        <ele>245.2966</ele>
        <time>2012-01-29T08:37:27Z</time>
      </trkpt>
      <trkpt lat="47.76044" lon="7.43304">
        <ele>245.895599</ele>
        <time>2012-01-29T08:37:29Z</time>
      </trkpt>
      <trkpt lat="47.76048" lon="7.43278">
        <ele>244.109619</ele>
        <time>2012-01-29T08:37:32Z</time>
      </trkpt>
      <trkpt lat="47.76051" lon="7.43264">
        <ele>246.407776</ele>
        <time>2012-01-29T08:37:34Z</time>
      </trkpt>
      <trkpt lat="47.76054" lon="7.43238">
        <ele>242.359467</ele>
        <time>2012-01-29T08:37:37Z</time>
      </trkpt>
      <trkpt lat="47.76056" lon="7.43224">
        <ele>241.866699</ele>
        <time>2012-01-29T08:37:39Z</time>
      </trkpt>
      <trkpt lat="47.76058" lon="7.43208">
        <ele>241.511902</ele>
        <time>2012-01-29T08:37:41Z</time>
      </trkpt>
      <trkpt lat="47.76059" lon="7.43183">
        <ele>243.089722</ele>
        <time>2012-01-29T08:37:44Z</time>
      </trkpt>
      <trkpt lat="47.76062" lon="7.43152">
        <ele>246.908142</ele>
        <time>2012-01-29T08:37:48Z</time>
      </trkpt>
      <trkpt lat="47.76064" lon="7.43137">
        <ele>246.961395</ele>
        <time>2012-01-29T08:37:50Z</time>
      </trkpt>
      <trkpt lat="47.76066" lon="7.43114">
        <ele>242.5802</ele>
        <time>2012-01-29T08:37:53Z</time>
      </trkpt>
      <trkpt lat="47.76067" lon="7.431">
        <ele>241.744293</ele>
        <time>2012-01-29T08:37:55Z</time>
      </trkpt>
      <trkpt lat="47.76071" lon="7.43078">
        <ele>237.70285</ele>
        <time>2012-01-29T08:37:58Z</time>
      </trkpt>
      <trkpt lat="47.76074" lon="7.43062">
        <ele>235.902832</ele>
        <time>2012-01-29T08:38:00Z</time>
      </trkpt>
      <trkpt lat="47.76075" lon="7.43053">
        <ele>233.198792</ele>
        <time>2012-01-29T08:38:02Z</time>
      </trkpt>
      <trkpt lat="47.76077" lon="7.43034">
        <ele>242.107574</ele>
        <time>2012-01-29T08:38:05Z</time>
      </trkpt>
      <trkpt lat="47.76079" lon="7.43018">
        <ele>244.058807</ele>
        <time>2012-01-29T08:38:07Z</time>
      </trkpt>
      <trkpt lat="47.76081" lon="7.42996">
        <ele>247.469513</ele>
        <time>2012-01-29T08:38:10Z</time>
      </trkpt>
      <trkpt lat="47.76083" lon="7.42979">
        <ele>247.263123</ele>
        <time>2012-01-29T08:38:12Z</time>
      </trkpt>
      <trkpt lat="47.76085" lon="7.42963">
        <ele>245.732147</ele>
        <time>2012-01-29T08:38:14Z</time>
      </trkpt>
      <trkpt lat="47.76087" lon="7.42943">
        <ele>247.62027</ele>
        <time>2012-01-29T08:38:17Z</time>
      </trkpt>
      <trkpt lat="47.76088" lon="7.4293">
        <ele>248.099945</ele>
        <time>2012-01-29T08:38:19Z</time>
      </trkpt>
      <trkpt lat="47.76089" lon="7.4291">
        <ele>247.952026</ele>
        <time>2012-01-29T08:38:22Z</time>
      </trkpt>
      <trkpt lat="47.7609" lon="7.42893">
        <ele>247.450684</ele>
        <time>2012-01-29T08:38:24Z</time>
      </trkpt>
      <trkpt lat="47.76091" lon="7.42874">
        <ele>250.341492</ele>
        <time>2012-01-29T08:38:26Z</time>
      </trkpt>
      <trkpt lat="47.76093" lon="7.42844">
        <ele>251.914886</ele>
        <time>2012-01-29T08:38:29Z</time>
      </trkpt>
      <trkpt lat="47.76096" lon="7.42821">
        <ele>247.738129</ele>
        <time>2012-01-29T08:38:31Z</time>
      </trkpt>
      <trkpt lat="47.76101" lon="7.42785">
        <ele>243.765594</ele>
        <time>2012-01-29T08:38:34Z</time>
      </trkpt>
      <trkpt lat="47.76106" lon="7.42757">
        <ele>247.824158</ele>
        <time>2012-01-29T08:38:37Z</time>
      </trkpt>
      <trkpt lat="47.76108" lon="7.4273">
        <ele>248.118896</ele>
        <time>2012-01-29T08:38:40Z</time>
      </trkpt>
      <trkpt lat="47.7611" lon="7.42709">
        <ele>248.169342</ele>
        <time>2012-01-29T08:38:42Z</time>
      </trkpt>
      <trkpt lat="47.76113" lon="7.42679">
        <ele>249.647308</ele>
        <time>2012-01-29T08:38:45Z</time>
      </trkpt>
      <trkpt lat="47.76116" lon="7.42659">
        <ele>253.43396</ele>
        <time>2012-01-29T08:38:47Z</time>
      </trkpt>
      <trkpt lat="47.76119" lon="7.42628">
        <ele>248.766998</ele>
        <time>2012-01-29T08:38:50Z</time>
      </trkpt>
      <trkpt lat="47.76121" lon="7.42604">
        <ele>248.84726</ele>
        <time>2012-01-29T08:38:52Z</time>
      </trkpt>
      <trkpt lat="47.76123" lon="7.42584">
        <ele>250.967957</ele>
        <time>2012-01-29T08:38:54Z</time>
      </trkpt>
      <trkpt lat="47.76126" lon="7.42555">
        <ele>249.840088</ele>
        <time>2012-01-29T08:38:57Z</time>
      </trkpt>
      <trkpt lat="47.76127" lon="7.42535">
        <ele>248.820282</ele>
        <time>2012-01-29T08:38:59Z</time>
      </trkpt>
      <trkpt lat="47.76131" lon="7.42504">
        <ele>248.168762</ele>
        <time>2012-01-29T08:39:02Z</time>
      </trkpt>
      <trkpt lat="47.76134" lon="7.42483">
        <ele>249.967651</ele>
        <time>2012-01-29T08:39:04Z</time>
      </trkpt>
      <trkpt lat="47.76137" lon="7.42461">
        <ele>249.818268</ele>
        <time>2012-01-29T08:39:06Z</time>
      </trkpt>
      <trkpt lat="47.76142" lon="7.42428">
        <ele>245.292999</ele>
        <time>2012-01-29T08:39:09Z</time>
      </trkpt>
      <trkpt lat="47.76145" lon="7.42407">
        <ele>244.321167</ele>
        <time>2012-01-29T08:39:11Z</time>
      </trkpt>
      <trkpt lat="47.76149" lon="7.42379">
        <ele>241.604706</ele>
        <time>2012-01-29T08:39:14Z</time>
      </trkpt>
      <trkpt lat="47.76153" lon="7.42345">
        <ele>243.341919</ele>
        <time>2012-01-29T08:39:18Z</time>
      </trkpt>
      <trkpt lat="47.76155" lon="7.42328">
        <ele>242.832001</ele>
        <time>2012-01-29T08:39:20Z</time>
      </trkpt>
      <trkpt lat="47.7616" lon="7.42277">
        <ele>239.212616</ele>
        <time>2012-01-29T08:39:25Z</time>
      </trkpt>
      <trkpt lat="47.76164" lon="7.42246">
        <ele>240.090576</ele>
        <time>2012-01-29T08:39:28Z</time>
      </trkpt>
      <trkpt lat="47.76168" lon="7.42217">
        <ele>239.736694</ele>
        <time>2012-01-29T08:39:31Z</time>
      </trkpt>
      <trkpt lat="47.76171" lon="7.42198">
        <ele>237.077881</ele>
        <time>2012-01-29T08:39:33Z</time>
      </trkpt>
      <trkpt lat="47.76175" lon="7.42171">
        <ele>239.113342</ele>
        <time>2012-01-29T08:39:36Z</time>
      </trkpt>
      <trkpt lat="47.76178" lon="7.42146">
        <ele>237.73822</ele>
        <time>2012-01-29T08:39:39Z</time>
      </trkpt>
      <trkpt lat="47.7618" lon="7.42123">
        <ele>236.596252</ele>
        <time>2012-01-29T08:39:42Z</time>
      </trkpt>
      <trkpt lat="47.76183" lon="7.42099">
        <ele>238.278717</ele>
        <time>2012-01-29T08:39:45Z</time>
      </trkpt>
      <trkpt lat="47.76184" lon="7.42084">
        <ele>239.055847</ele>
        <time>2012-01-29T08:39:47Z</time>
      </trkpt>
      <trkpt lat="47.76186" lon="7.42061">
        <ele>233.681549</ele>
        <time>2012-01-29T08:39:50Z</time>
      </trkpt>
      <trkpt lat="47.76189" lon="7.42034">
        <ele>237.856079</ele>
        <time>2012-01-29T08:39:54Z</time>
      </trkpt>
      <trkpt lat="47.76191" lon="7.42017">
        <ele>237.322266</ele>
        <time>2012-01-29T08:39:56Z</time>
      </trkpt>
      <trkpt lat="47.76195" lon="7.41995">
        <ele>231.662384</ele>
        <time>2012-01-29T08:39:59Z</time>
      </trkpt>
      <trkpt lat="47.76197" lon="7.41981">
        <ele>231.227081</ele>
        <time>2012-01-29T08:40:01Z</time>
      </trkpt>
      <trkpt lat="47.76199" lon="7.41954">
        <ele>238.468292</ele>
        <time>2012-01-29T08:40:05Z</time>
      </trkpt>
      <trkpt lat="47.76201" lon="7.41934">
        <ele>242.239655</ele>
        <time>2012-01-29T08:40:08Z</time>
      </trkpt>
      <trkpt lat="47.76202" lon="7.41924">
        <ele>239.225616</ele>
        <time>2012-01-29T08:40:10Z</time>
      </trkpt>
      <trkpt lat="47.76202" lon="7.41907">
        <ele>242.779266</ele>
        <time>2012-01-29T08:40:13Z</time>
      </trkpt>
      <trkpt lat="47.76202" lon="7.41897">
        <ele>239.814575</ele>
        <time>2012-01-29T08:40:15Z</time>
      </trkpt>
      <trkpt lat="47.76203" lon="7.41888">
        <ele>238.922089</ele>
        <time>2012-01-29T08:40:17Z</time>
      </trkpt>
      <trkpt lat="47.76206" lon="7.41871">
        <ele>241.721588</ele>
        <time>2012-01-29T08:40:20Z</time>
      </trkpt>
      <trkpt lat="47.76209" lon="7.41845">
        <ele>239.275421</ele>
        <time>2012-01-29T08:40:24Z</time>
      </trkpt>
      <trkpt lat="47.7621" lon="7.41835">
        <ele>240.261353</ele>
        <time>2012-01-29T08:40:26Z</time>
      </trkpt>
      <trkpt lat="47.76211" lon="7.41822">
        <ele>243.890778</ele>
        <time>2012-01-29T08:40:29Z</time>
      </trkpt>
      <trkpt lat="47.76212" lon="7.41813">
        <ele>244.31955</ele>
        <time>2012-01-29T08:40:31Z</time>
      </trkpt>
      <trkpt lat="47.76221" lon="7.41806">
        <ele>238.979065</ele>
        <time>2012-01-29T08:40:34Z</time>
      </trkpt>
      <trkpt lat="47.76227" lon="7.41804">
        <ele>236.778198</ele>
        <time>2012-01-29T08:40:36Z</time>
      </trkpt>
      <trkpt lat="47.76235" lon="7.418">
        <ele>236.119202</ele>
        <time>2012-01-29T08:40:38Z</time>
      </trkpt>
      <trkpt lat="47.76249" lon="7.41794">
        <ele>236.458313</ele>
        <time>2012-01-29T08:40:41Z</time>
      </trkpt>
      <trkpt lat="47.76262" lon="7.41788">
        <ele>235.927155</ele>
        <time>2012-01-29T08:40:44Z</time>
      </trkpt>
      <trkpt lat="47.76271" lon="7.41784">
        <ele>236.908539</ele>
        <time>2012-01-29T08:40:46Z</time>
      </trkpt>
      <trkpt lat="47.76283" lon="7.41779">
        <ele>241.826813</ele>
        <time>2012-01-29T08:40:49Z</time>
      </trkpt>
      <trkpt lat="47.76293" lon="7.41774">
        <ele>245.766724</ele>
        <time>2012-01-29T08:40:51Z</time>
      </trkpt>
      <trkpt lat="47.76308" lon="7.41768">
        <ele>243.389923</ele>
        <time>2012-01-29T08:40:54Z</time>
      </trkpt>
      <trkpt lat="47.76315" lon="7.41764">
        <ele>240.993103</ele>
        <time>2012-01-29T08:40:56Z</time>
      </trkpt>
      <trkpt lat="47.76333" lon="7.41754">
        <ele>241.113403</ele>
        <time>2012-01-29T08:41:00Z</time>
      </trkpt>
      <trkpt lat="47.76351" lon="7.41745">
        <ele>237.836365</ele>
        <time>2012-01-29T08:41:04Z</time>
      </trkpt>
      <trkpt lat="47.76366" lon="7.41738">
        <ele>233.308044</ele>
        <time>2012-01-29T08:41:07Z</time>
      </trkpt>
      <trkpt lat="47.7638" lon="7.41732">
        <ele>232.839386</ele>
        <time>2012-01-29T08:41:10Z</time>
      </trkpt>
      <trkpt lat="47.76391" lon="7.41726">
        <ele>231.518066</ele>
        <time>2012-01-29T08:41:13Z</time>
      </trkpt>
      <trkpt lat="47.76404" lon="7.41721">
        <ele>229.874329</ele>
        <time>2012-01-29T08:41:16Z</time>
      </trkpt>
      <trkpt lat="47.76413" lon="7.41717">
        <ele>233.133484</ele>
        <time>2012-01-29T08:41:18Z</time>
      </trkpt>
      <trkpt lat="47.76428" lon="7.41709">
        <ele>234.823639</ele>
        <time>2012-01-29T08:41:21Z</time>
      </trkpt>
      <trkpt lat="47.7644" lon="7.417">
        <ele>231.323853</ele>
        <time>2012-01-29T08:41:24Z</time>
      </trkpt>
      <trkpt lat="47.76448" lon="7.41696">
        <ele>236.244995</ele>
        <time>2012-01-29T08:41:26Z</time>
      </trkpt>
      <trkpt lat="47.76462" lon="7.4169">
        <ele>239.938049</ele>
        <time>2012-01-29T08:41:29Z</time>
      </trkpt>
      <trkpt lat="47.76477" lon="7.41683">
        <ele>241.852448</ele>
        <time>2012-01-29T08:41:32Z</time>
      </trkpt>
      <trkpt lat="47.76495" lon="7.41672">
        <ele>234.682922</ele>
        <time>2012-01-29T08:41:37Z</time>
      </trkpt>
      <trkpt lat="47.7651" lon="7.41662">
        <ele>236.335938</ele>
        <time>2012-01-29T08:41:41Z</time>
      </trkpt>
      <trkpt lat="47.76522" lon="7.41656">
        <ele>235.51413</ele>
        <time>2012-01-29T08:41:44Z</time>
      </trkpt>
      <trkpt lat="47.76528" lon="7.41651">
        <ele>233.603821</ele>
        <time>2012-01-29T08:41:46Z</time>
      </trkpt>
      <trkpt lat="47.76535" lon="7.41644">
        <ele>238.805542</ele>
        <time>2012-01-29T08:41:48Z</time>
      </trkpt>
      <trkpt lat="47.76543" lon="7.41637">
        <ele>238.447021</ele>
        <time>2012-01-29T08:41:51Z</time>
      </trkpt>
      <trkpt lat="47.76547" lon="7.41634">
        <ele>239.887177</ele>
        <time>2012-01-29T08:41:53Z</time>
      </trkpt>
      <trkpt lat="47.76556" lon="7.41633">
        <ele>239.501312</ele>
        <time>2012-01-29T08:41:56Z</time>
      </trkpt>
      <trkpt lat="47.76562" lon="7.41628">
        <ele>238.829163</ele>
        <time>2012-01-29T08:42:00Z</time>
      </trkpt>
      <trkpt lat="47.76566" lon="7.41623">
        <ele>238.80188</ele>
        <time>2012-01-29T08:42:02Z</time>
      </trkpt>
      <trkpt lat="47.76576" lon="7.41617">
        <ele>235.898438</ele>
        <time>2012-01-29T08:42:05Z</time>
      </trkpt>
      <trkpt lat="47.76582" lon="7.41615">
        <ele>236.241608</ele>
        <time>2012-01-29T08:42:07Z</time>
      </trkpt>
      <trkpt lat="47.76587" lon="7.41605">
        <ele>240.84433</ele>
        <time>2012-01-29T08:42:10Z</time>
      </trkpt>
      <trkpt lat="47.7659" lon="7.41596">
        <ele>242.712524</ele>
        <time>2012-01-29T08:42:12Z</time>
      </trkpt>
      <trkpt lat="47.76593" lon="7.41584">
        <ele>240.072906</ele>
        <time>2012-01-29T08:42:15Z</time>
      </trkpt>
      <trkpt lat="47.76593" lon="7.41578">
        <ele>238.121216</ele>
        <time>2012-01-29T08:42:17Z</time>
      </trkpt>
      <trkpt lat="47.76591" lon="7.4157">
        <ele>235.105438</ele>
        <time>2012-01-29T08:42:20Z</time>
      </trkpt>
      <trkpt lat="47.76591" lon="7.4157">
        <ele>235.105438</ele>
        <time>2012-01-29T08:42:22Z</time>
      </trkpt>
      <trkpt lat="47.7659" lon="7.41561">
        <ele>234.572601</ele>
        <time>2012-01-29T08:42:25Z</time>
      </trkpt>
      <trkpt lat="47.7659" lon="7.41561">
        <ele>234.572601</ele>
        <time>2012-01-29T08:42:27Z</time>
      </trkpt>
      <trkpt lat="47.7659" lon="7.41561">
        <ele>234.572601</ele>
        <time>2012-01-29T08:42:30Z</time>
      </trkpt>
      <trkpt lat="47.7659" lon="7.41561">
        <ele>234.572601</ele>
        <time>2012-01-29T08:42:32Z</time>
      </trkpt>
      <trkpt lat="47.7659" lon="7.41561">
        <ele>234.572601</ele>
        <time>2012-01-29T08:42:35Z</time>
      </trkpt>
      <trkpt lat="47.7659" lon="7.41561">
        <ele>234.572601</ele>
        <time>2012-01-29T08:42:37Z</time>
      </trkpt>
      <trkpt lat="47.7659" lon="7.41561">
        <ele>234.572601</ele>
        <time>2012-01-29T08:42:40Z</time>
      </trkpt>
      <trkpt lat="47.7659" lon="7.41561">
        <ele>234.572601</ele>
        <time>2012-01-29T08:42:42Z</time>
      </trkpt>
      <trkpt lat="47.7659" lon="7.41561">
        <ele>234.572601</ele>
        <time>2012-01-29T08:42:45Z</time>
      </trkpt>
      <trkpt lat="47.7659" lon="7.41561">
        <ele>234.572601</ele>
        <time>2012-01-29T08:42:47Z</time>
      </trkpt>
      <trkpt lat="47.7659" lon="7.41561">
        <ele>234.572601</ele>
        <time>2012-01-29T08:42:50Z</time>
      </trkpt>
      <trkpt lat="47.76582" lon="7.41555">
        <ele>208.467896</ele>
        <time>2012-01-29T08:42:52Z</time>
      </trkpt>
      <trkpt lat="47.76582" lon="7.41555">
        <ele>208.467896</ele>
        <time>2012-01-29T08:42:55Z</time>
      </trkpt>
      <trkpt lat="47.76582" lon="7.41555">
        <ele>208.467896</ele>
        <time>2012-01-29T08:42:57Z</time>
      </trkpt>
      <trkpt lat="47.76582" lon="7.41555">
        <ele>208.467896</ele>
        <time>2012-01-29T08:42:59Z</time>
      </trkpt>
      <trkpt lat="47.76582" lon="7.41555">
        <ele>208.467896</ele>
        <time>2012-01-29T08:43:02Z</time>
      </trkpt>
      <trkpt lat="47.76582" lon="7.41555">
        <ele>208.467896</ele>
        <time>2012-01-29T08:43:04Z</time>
      </trkpt>
      <trkpt lat="47.76582" lon="7.41555">
        <ele>208.467896</ele>
        <time>2012-01-29T08:43:07Z</time>
      </trkpt>
      <trkpt lat="47.76582" lon="7.41555">
        <ele>208.467896</ele>
        <time>2012-01-29T08:43:09Z</time>
      </trkpt>
      <trkpt lat="47.76582" lon="7.41555">
        <ele>208.467896</ele>
        <time>2012-01-29T08:43:12Z</time>
      </trkpt>
      <trkpt lat="47.76582" lon="7.41555">
        <ele>208.467896</ele>
        <time>2012-01-29T08:43:14Z</time>
      </trkpt>
      <trkpt lat="47.76582" lon="7.41555">
        <ele>208.467896</ele>
        <time>2012-01-29T08:43:16Z</time>
      </trkpt>
      <trkpt lat="47.76582" lon="7.41555">
        <ele>208.467896</ele>
        <time>2012-01-29T08:43:19Z</time>
      </trkpt>
      <trkpt lat="47.76582" lon="7.41555">
        <ele>208.467896</ele>
        <time>2012-01-29T08:43:21Z</time>
      </trkpt>
      <trkpt lat="47.76582" lon="7.41555">
        <ele>208.467896</ele>
        <time>2012-01-29T08:43:24Z</time>
      </trkpt>
      <trkpt lat="47.76582" lon="7.41555">
        <ele>208.467896</ele>
        <time>2012-01-29T08:43:26Z</time>
      </trkpt>
      <trkpt lat="47.76582" lon="7.41555">
        <ele>208.467896</ele>
        <time>2012-01-29T08:43:30Z</time>
      </trkpt>
      <trkpt lat="47.76582" lon="7.41555">
        <ele>208.467896</ele>
        <time>2012-01-29T08:43:32Z</time>
      </trkpt>
      <trkpt lat="47.76582" lon="7.41555">
        <ele>208.467896</ele>
        <time>2012-01-29T08:43:35Z</time>
      </trkpt>
      <trkpt lat="47.76582" lon="7.41555">
        <ele>208.467896</ele>
        <time>2012-01-29T08:43:38Z</time>
      </trkpt>
      <trkpt lat="47.76582" lon="7.41555">
        <ele>208.467896</ele>
        <time>2012-01-29T08:43:40Z</time>
      </trkpt>
      <trkpt lat="47.76582" lon="7.41555">
        <ele>208.467896</ele>
        <time>2012-01-29T08:43:42Z</time>
      </trkpt>
      <trkpt lat="47.76582" lon="7.41555">
        <ele>208.467896</ele>
        <time>2012-01-29T08:43:45Z</time>
      </trkpt>
      <trkpt lat="47.76582" lon="7.41555">
        <ele>208.467896</ele>
        <time>2012-01-29T08:43:49Z</time>
      </trkpt>
      <trkpt lat="47.76582" lon="7.41555">
        <ele>208.467896</ele>
        <time>2012-01-29T08:43:53Z</time>
      </trkpt>
      <trkpt lat="47.76582" lon="7.41555">
        <ele>208.467896</ele>
        <time>2012-01-29T08:43:57Z</time>
      </trkpt>
      <trkpt lat="47.76582" lon="7.41555">
        <ele>208.467896</ele>
        <time>2012-01-29T08:43:59Z</time>
      </trkpt>
      <trkpt lat="47.76582" lon="7.41555">
        <ele>208.467896</ele>
        <time>2012-01-29T08:44:02Z</time>
      </trkpt>
      <trkpt lat="47.76582" lon="7.41555">
        <ele>208.467896</ele>
        <time>2012-01-29T08:44:04Z</time>
      </trkpt>
      <trkpt lat="47.76582" lon="7.41555">
        <ele>208.467896</ele>
        <time>2012-01-29T08:44:07Z</time>
      </trkpt>
      <trkpt lat="47.76582" lon="7.41555">
        <ele>208.467896</ele>
        <time>2012-01-29T08:44:09Z</time>
      </trkpt>
      <trkpt lat="47.76582" lon="7.41555">
        <ele>208.467896</ele>
        <time>2012-01-29T08:44:12Z</time>
      </trkpt>
      <trkpt lat="47.76582" lon="7.41555">
        <ele>208.467896</ele>
        <time>2012-01-29T08:44:14Z</time>
      </trkpt>
      <trkpt lat="47.76582" lon="7.41555">
        <ele>208.467896</ele>
        <time>2012-01-29T08:44:17Z</time>
      </trkpt>
      <trkpt lat="47.76582" lon="7.41555">
        <ele>208.467896</ele>
        <time>2012-01-29T08:44:19Z</time>
      </trkpt>
      <trkpt lat="47.76582" lon="7.41555">
        <ele>208.467896</ele>
        <time>2012-01-29T08:44:22Z</time>
      </trkpt>
      <trkpt lat="47.76582" lon="7.41555">
        <ele>208.467896</ele>
        <time>2012-01-29T08:44:24Z</time>
      </trkpt>
      <trkpt lat="47.76582" lon="7.41555">
        <ele>208.467896</ele>
        <time>2012-01-29T08:44:27Z</time>
      </trkpt>
      <trkpt lat="47.76584" lon="7.41543">
        <ele>234.499329</ele>
        <time>2012-01-29T08:44:30Z</time>
      </trkpt>
      <trkpt lat="47.76584" lon="7.41536">
        <ele>235.960846</ele>
        <time>2012-01-29T08:44:32Z</time>
      </trkpt>
      <trkpt lat="47.76583" lon="7.41528">
        <ele>241.25296</ele>
        <time>2012-01-29T08:44:35Z</time>
      </trkpt>
      <trkpt lat="47.76583" lon="7.41524">
        <ele>239.018372</ele>
        <time>2012-01-29T08:44:37Z</time>
      </trkpt>
      <trkpt lat="47.76576" lon="7.41525">
        <ele>239.509247</ele>
        <time>2012-01-29T08:44:40Z</time>
      </trkpt>
      <trkpt lat="47.76569" lon="7.41527">
        <ele>240.925995</ele>
        <time>2012-01-29T08:44:42Z</time>
      </trkpt>
      <trkpt lat="47.7656" lon="7.41531">
        <ele>243.213104</ele>
        <time>2012-01-29T08:44:45Z</time>
      </trkpt>
      <trkpt lat="47.76548" lon="7.41536">
        <ele>243.302185</ele>
        <time>2012-01-29T08:44:48Z</time>
      </trkpt>
      <trkpt lat="47.76539" lon="7.41541">
        <ele>244.801422</ele>
        <time>2012-01-29T08:44:50Z</time>
      </trkpt>
      <trkpt lat="47.76527" lon="7.41551">
        <ele>245.638031</ele>
        <time>2012-01-29T08:44:53Z</time>
      </trkpt>
      <trkpt lat="47.76505" lon="7.41565">
        <ele>243.454132</ele>
        <time>2012-01-29T08:44:57Z</time>
      </trkpt>
      <trkpt lat="47.76495" lon="7.41572">
        <ele>243.746002</ele>
        <time>2012-01-29T08:44:59Z</time>
      </trkpt>
      <trkpt lat="47.76479" lon="7.41582">
        <ele>243.802338</ele>
        <time>2012-01-29T08:45:02Z</time>
      </trkpt>
      <trkpt lat="47.76469" lon="7.41588">
        <ele>242.167053</ele>
        <time>2012-01-29T08:45:04Z</time>
      </trkpt>
      <trkpt lat="47.76456" lon="7.41597">
        <ele>242.641632</ele>
        <time>2012-01-29T08:45:07Z</time>
      </trkpt>
      <trkpt lat="47.7644" lon="7.41604">
        <ele>243.159637</ele>
        <time>2012-01-29T08:45:10Z</time>
      </trkpt>
      <trkpt lat="47.76422" lon="7.41603">
        <ele>240.813354</ele>
        <time>2012-01-29T08:45:12Z</time>
      </trkpt>
      <trkpt lat="47.764" lon="7.41596">
        <ele>238.231812</ele>
        <time>2012-01-29T08:45:15Z</time>
      </trkpt>
      <trkpt lat="47.76389" lon="7.41593">
        <ele>238.483673</ele>
        <time>2012-01-29T08:45:17Z</time>
      </trkpt>
      <trkpt lat="47.76375" lon="7.4159">
        <ele>236.330017</ele>
        <time>2012-01-29T08:45:20Z</time>
      </trkpt>
      <trkpt lat="47.76361" lon="7.41587">
        <ele>234.531464</ele>
        <time>2012-01-29T08:45:23Z</time>
      </trkpt>
      <trkpt lat="47.76352" lon="7.41585">
        <ele>232.698944</ele>
        <time>2012-01-29T08:45:25Z</time>
      </trkpt>
      <trkpt lat="47.7634" lon="7.41581">
        <ele>233.344604</ele>
        <time>2012-01-29T08:45:28Z</time>
      </trkpt>
      <trkpt lat="47.76333" lon="7.41579">
        <ele>234.818573</ele>
        <time>2012-01-29T08:45:30Z</time>
      </trkpt>
      <trkpt lat="47.7632" lon="7.41576">
        <ele>236.336182</ele>
        <time>2012-01-29T08:45:33Z</time>
      </trkpt>
      <trkpt lat="47.76307" lon="7.41574">
        <ele>235.735168</ele>
        <time>2012-01-29T08:45:36Z</time>
      </trkpt>
      <trkpt lat="47.76299" lon="7.41571">
        <ele>234.625031</ele>
        <time>2012-01-29T08:45:38Z</time>
      </trkpt>
      <trkpt lat="47.76284" lon="7.41567">
        <ele>236.901123</ele>
        <time>2012-01-29T08:45:41Z</time>
      </trkpt>
      <trkpt lat="47.76274" lon="7.41565">
        <ele>236.688843</ele>
        <time>2012-01-29T08:45:43Z</time>
      </trkpt>
      <trkpt lat="47.76259" lon="7.41561">
        <ele>237.206177</ele>
        <time>2012-01-29T08:45:46Z</time>
      </trkpt>
      <trkpt lat="47.76249" lon="7.41561">
        <ele>237.55719</ele>
        <time>2012-01-29T08:45:48Z</time>
      </trkpt>
      <trkpt lat="47.76241" lon="7.41574">
        <ele>237.580841</ele>
        <time>2012-01-29T08:45:51Z</time>
      </trkpt>
      <trkpt lat="47.76238" lon="7.4159">
        <ele>241.516602</ele>
        <time>2012-01-29T08:45:54Z</time>
      </trkpt>
      <trkpt lat="47.76225" lon="7.41594">
        <ele>237.568451</ele>
        <time>2012-01-29T08:45:57Z</time>
      </trkpt>
      <trkpt lat="47.76216" lon="7.41592">
        <ele>238.278229</ele>
        <time>2012-01-29T08:45:59Z</time>
      </trkpt>
      <trkpt lat="47.76202" lon="7.41588">
        <ele>236.676758</ele>
        <time>2012-01-29T08:46:02Z</time>
      </trkpt>
      <trkpt lat="47.76192" lon="7.41586">
        <ele>238.379456</ele>
        <time>2012-01-29T08:46:04Z</time>
      </trkpt>
      <trkpt lat="47.76177" lon="7.41583">
        <ele>240.767731</ele>
        <time>2012-01-29T08:46:07Z</time>
      </trkpt>
      <trkpt lat="47.76166" lon="7.4158">
        <ele>239.967102</ele>
        <time>2012-01-29T08:46:09Z</time>
      </trkpt>
      <trkpt lat="47.7615" lon="7.41575">
        <ele>238.189758</ele>
        <time>2012-01-29T08:46:12Z</time>
      </trkpt>
      <trkpt lat="47.76135" lon="7.4157">
        <ele>238.763763</ele>
        <time>2012-01-29T08:46:15Z</time>
      </trkpt>
      <trkpt lat="47.76124" lon="7.41567">
        <ele>235.487732</ele>
        <time>2012-01-29T08:46:17Z</time>
      </trkpt>
      <trkpt lat="47.7611" lon="7.41565">
        <ele>235.787445</ele>
        <time>2012-01-29T08:46:20Z</time>
      </trkpt>
      <trkpt lat="47.761" lon="7.41563">
        <ele>237.380859</ele>
        <time>2012-01-29T08:46:22Z</time>
      </trkpt>
      <trkpt lat="47.76091" lon="7.41562">
        <ele>233.802979</ele>
        <time>2012-01-29T08:46:24Z</time>
      </trkpt>
      <trkpt lat="47.76074" lon="7.41558">
        <ele>235.635468</ele>
        <time>2012-01-29T08:46:28Z</time>
      </trkpt>
      <trkpt lat="47.76069" lon="7.41555">
        <ele>233.880859</ele>
        <time>2012-01-29T08:46:30Z</time>
      </trkpt>
      <trkpt lat="47.76069" lon="7.41547">
        <ele>230.859772</ele>
        <time>2012-01-29T08:46:33Z</time>
      </trkpt>
      <trkpt lat="47.76069" lon="7.41539">
        <ele>234.721436</ele>
        <time>2012-01-29T08:46:35Z</time>
      </trkpt>
      <trkpt lat="47.7607" lon="7.41527">
        <ele>229.621094</ele>
        <time>2012-01-29T08:46:38Z</time>
      </trkpt>
      <trkpt lat="47.76069" lon="7.41506">
        <ele>237.243805</ele>
        <time>2012-01-29T08:46:41Z</time>
      </trkpt>
      <trkpt lat="47.76071" lon="7.41491">
        <ele>239.880463</ele>
        <time>2012-01-29T08:46:43Z</time>
      </trkpt>
      <trkpt lat="47.76074" lon="7.41462">
        <ele>241.707001</ele>
        <time>2012-01-29T08:46:47Z</time>
      </trkpt>
      <trkpt lat="47.76079" lon="7.41438">
        <ele>238.385376</ele>
        <time>2012-01-29T08:46:50Z</time>
      </trkpt>
      <trkpt lat="47.7608" lon="7.41422">
        <ele>240.123627</ele>
        <time>2012-01-29T08:46:53Z</time>
      </trkpt>
      <trkpt lat="47.76082" lon="7.41414">
        <ele>240.220856</ele>
        <time>2012-01-29T08:46:55Z</time>
      </trkpt>
      <trkpt lat="47.76083" lon="7.41403">
        <ele>243.22113</ele>
        <time>2012-01-29T08:46:58Z</time>
      </trkpt>
      <trkpt lat="47.76083" lon="7.41391">
        <ele>242.769226</ele>
        <time>2012-01-29T08:47:00Z</time>
      </trkpt>
      <trkpt lat="47.76083" lon="7.41376">
        <ele>244.213013</ele>
        <time>2012-01-29T08:47:03Z</time>
      </trkpt>
      <trkpt lat="47.76086" lon="7.41349">
        <ele>245.605957</ele>
        <time>2012-01-29T08:47:06Z</time>
      </trkpt>
      <trkpt lat="47.76088" lon="7.41329">
        <ele>242.197632</ele>
        <time>2012-01-29T08:47:08Z</time>
      </trkpt>
      <trkpt lat="47.76091" lon="7.41298">
        <ele>243.509735</ele>
        <time>2012-01-29T08:47:11Z</time>
      </trkpt>
      <trkpt lat="47.76093" lon="7.41275">
        <ele>244.950317</ele>
        <time>2012-01-29T08:47:13Z</time>
      </trkpt>
      <trkpt lat="47.76096" lon="7.41247">
        <ele>247.985992</ele>
        <time>2012-01-29T08:47:16Z</time>
      </trkpt>
      <trkpt lat="47.76102" lon="7.41226">
        <ele>245.46106</ele>
        <time>2012-01-29T08:47:19Z</time>
      </trkpt>
      <trkpt lat="47.76111" lon="7.41221">
        <ele>240.448761</ele>
        <time>2012-01-29T08:47:21Z</time>
      </trkpt>
      <trkpt lat="47.76127" lon="7.41221">
        <ele>240.207123</ele>
        <time>2012-01-29T08:47:24Z</time>
      </trkpt>
      <trkpt lat="47.76136" lon="7.4122">
        <ele>241.328766</ele>
        <time>2012-01-29T08:47:26Z</time>
      </trkpt>
      <trkpt lat="47.76152" lon="7.41223">
        <ele>243.798584</ele>
        <time>2012-01-29T08:47:29Z</time>
      </trkpt>
      <trkpt lat="47.76169" lon="7.41227">
        <ele>243.891907</ele>
        <time>2012-01-29T08:47:32Z</time>
      </trkpt>
      <trkpt lat="47.76181" lon="7.4123">
        <ele>243.250427</ele>
        <time>2012-01-29T08:47:34Z</time>
      </trkpt>
      <trkpt lat="47.76196" lon="7.41232">
        <ele>245.667572</ele>
        <time>2012-01-29T08:47:37Z</time>
      </trkpt>
      <trkpt lat="47.76211" lon="7.41237">
        <ele>245.011078</ele>
        <time>2012-01-29T08:47:40Z</time>
      </trkpt>
      <trkpt lat="47.76222" lon="7.4124">
        <ele>247.519592</ele>
        <time>2012-01-29T08:47:42Z</time>
      </trkpt>
      <trkpt lat="47.76237" lon="7.41246">
        <ele>243.590973</ele>
        <time>2012-01-29T08:47:45Z</time>
      </trkpt>
      <trkpt lat="47.7625" lon="7.41249">
        <ele>243.415985</ele>
        <time>2012-01-29T08:47:48Z</time>
      </trkpt>
      <trkpt lat="47.76257" lon="7.41248">
        <ele>242.039551</ele>
        <time>2012-01-29T08:47:50Z</time>
      </trkpt>
      <trkpt lat="47.76262" lon="7.41242">
        <ele>239.848145</ele>
        <time>2012-01-29T08:47:53Z</time>
      </trkpt>
      <trkpt lat="47.76264" lon="7.41231">
        <ele>243.044373</ele>
        <time>2012-01-29T08:47:56Z</time>
      </trkpt>
      <trkpt lat="47.76266" lon="7.41224">
        <ele>242.096802</ele>
        <time>2012-01-29T08:47:58Z</time>
      </trkpt>
      <trkpt lat="47.76268" lon="7.41211">
        <ele>239.118866</ele>
        <time>2012-01-29T08:48:01Z</time>
      </trkpt>
      <trkpt lat="47.76268" lon="7.41207">
        <ele>240.107147</ele>
        <time>2012-01-29T08:48:03Z</time>
      </trkpt>
      <trkpt lat="47.76268" lon="7.41196">
        <ele>238.445007</ele>
        <time>2012-01-29T08:48:06Z</time>
      </trkpt>
      <trkpt lat="47.76265" lon="7.4119">
        <ele>240.764191</ele>
        <time>2012-01-29T08:48:09Z</time>
      </trkpt>
      <trkpt lat="47.76264" lon="7.41189">
        <ele>240.49408</ele>
        <time>2012-01-29T08:48:11Z</time>
      </trkpt>
      <trkpt lat="47.76262" lon="7.41192">
        <ele>239.087921</ele>
        <time>2012-01-29T08:48:14Z</time>
      </trkpt>
      <trkpt lat="47.76261" lon="7.41198">
        <ele>238.824768</ele>
        <time>2012-01-29T08:48:17Z</time>
      </trkpt>
      <trkpt lat="47.76259" lon="7.41205">
        <ele>239.720367</ele>
        <time>2012-01-29T08:48:19Z</time>
      </trkpt>
      <trkpt lat="47.76257" lon="7.41215">
        <ele>240.75824</ele>
        <time>2012-01-29T08:48:22Z</time>
      </trkpt>
      <trkpt lat="47.76256" lon="7.41229">
        <ele>241.901917</ele>
        <time>2012-01-29T08:48:25Z</time>
      </trkpt>
      <trkpt lat="47.76255" lon="7.4124">
        <ele>238.110291</ele>
        <time>2012-01-29T08:48:27Z</time>
      </trkpt>
      <trkpt lat="47.76255" lon="7.41249">
        <ele>235.224579</ele>
        <time>2012-01-29T08:48:30Z</time>
      </trkpt>
      <trkpt lat="47.76258" lon="7.41252">
        <ele>240.331726</ele>
        <time>2012-01-29T08:48:33Z</time>
      </trkpt>
      <trkpt lat="47.76261" lon="7.41249">
        <ele>240.732971</ele>
        <time>2012-01-29T08:48:36Z</time>
      </trkpt>
      <trkpt lat="47.76263" lon="7.41242">
        <ele>235.051697</ele>
        <time>2012-01-29T08:48:39Z</time>
      </trkpt>
      <trkpt lat="47.76264" lon="7.41238">
        <ele>236.248779</ele>
        <time>2012-01-29T08:48:42Z</time>
      </trkpt>
      <trkpt lat="47.76265" lon="7.4123">
        <ele>235.794708</ele>
        <time>2012-01-29T08:48:45Z</time>
      </trkpt>
      <trkpt lat="47.76267" lon="7.4122">
        <ele>234.900818</ele>
        <time>2012-01-29T08:48:47Z</time>
      </trkpt>
      <trkpt lat="47.76268" lon="7.41208">
        <ele>232.590942</ele>
        <time>2012-01-29T08:48:50Z</time>
      </trkpt>
      <trkpt lat="47.76274" lon="7.41198">
        <ele>235.077393</ele>
        <time>2012-01-29T08:48:53Z</time>
      </trkpt>
      <trkpt lat="47.76277" lon="7.41198">
        <ele>237.037781</ele>
        <time>2012-01-29T08:48:55Z</time>
      </trkpt>
      <trkpt lat="47.76278" lon="7.41198">
        <ele>237.08551</ele>
        <time>2012-01-29T08:48:58Z</time>
      </trkpt>
      <trkpt lat="47.76278" lon="7.41198">
        <ele>232.464355</ele>
        <time>2012-01-29T08:49:01Z</time>
      </trkpt>
      <trkpt lat="47.76278" lon="7.41198">
        <ele>227.364655</ele>
        <time>2012-01-29T08:49:04Z</time>
      </trkpt>
      <trkpt lat="47.76278" lon="7.41198">
        <ele>227.648163</ele>
        <time>2012-01-29T08:49:07Z</time>
      </trkpt>
      <trkpt lat="47.76279" lon="7.41198">
        <ele>224.603241</ele>
        <time>2012-01-29T08:49:11Z</time>
      </trkpt>
      <trkpt lat="47.76274" lon="7.41198">
        <ele>240.467255</ele>
        <time>2012-01-29T08:49:15Z</time>
      </trkpt>
      <trkpt lat="47.76274" lon="7.41198">
        <ele>242.853546</ele>
        <time>2012-01-29T08:49:18Z</time>
      </trkpt>
      <trkpt lat="47.76274" lon="7.41198">
        <ele>242.675507</ele>
        <time>2012-01-29T08:49:20Z</time>
      </trkpt>
      <trkpt lat="47.76274" lon="7.41198">
        <ele>240.340485</ele>
        <time>2012-01-29T08:49:23Z</time>
      </trkpt>
      <trkpt lat="47.76274" lon="7.41198">
        <ele>240.223907</ele>
        <time>2012-01-29T08:49:26Z</time>
      </trkpt>
      <trkpt lat="47.76274" lon="7.41198">
        <ele>245.062347</ele>
        <time>2012-01-29T08:49:28Z</time>
      </trkpt>
      <trkpt lat="47.76274" lon="7.41198">
        <ele>245.423798</ele>
        <time>2012-01-29T08:49:31Z</time>
      </trkpt>
      <trkpt lat="47.76274" lon="7.41198">
        <ele>243.920746</ele>
        <time>2012-01-29T08:49:34Z</time>
      </trkpt>
      <trkpt lat="47.76274" lon="7.41198">
        <ele>241.860596</ele>
        <time>2012-01-29T08:49:38Z</time>
      </trkpt>
      <trkpt lat="47.76274" lon="7.41198">
        <ele>240.144836</ele>
        <time>2012-01-29T08:49:40Z</time>
      </trkpt>
      <trkpt lat="47.76274" lon="7.41198">
        <ele>234.070526</ele>
        <time>2012-01-29T08:49:43Z</time>
      </trkpt>
      <trkpt lat="47.76274" lon="7.41198">
        <ele>226.417297</ele>
        <time>2012-01-29T08:49:47Z</time>
      </trkpt>
      <trkpt lat="47.76274" lon="7.41198">
        <ele>231.861633</ele>
        <time>2012-01-29T08:49:50Z</time>
      </trkpt>
      <trkpt lat="47.76274" lon="7.41198">
        <ele>235.439484</ele>
        <time>2012-01-29T08:49:54Z</time>
      </trkpt>
      <trkpt lat="47.76274" lon="7.41198">
        <ele>236.09729</ele>
        <time>2012-01-29T08:49:57Z</time>
      </trkpt>
      <trkpt lat="47.76274" lon="7.41198">
        <ele>232.142639</ele>
        <time>2012-01-29T08:49:59Z</time>
      </trkpt>
      <trkpt lat="47.76274" lon="7.41198">
        <ele>227.886169</ele>
        <time>2012-01-29T08:50:02Z</time>
      </trkpt>
      <trkpt lat="47.76274" lon="7.41198">
        <ele>223.98056</ele>
        <time>2012-01-29T08:50:06Z</time>
      </trkpt>
      <trkpt lat="47.76274" lon="7.41198">
        <ele>225.959564</ele>
        <time>2012-01-29T08:50:09Z</time>
      </trkpt>
      <trkpt lat="47.76274" lon="7.41198">
        <ele>228.988708</ele>
        <time>2012-01-29T08:50:11Z</time>
      </trkpt>
      <trkpt lat="47.76274" lon="7.41198">
        <ele>232.783966</ele>
        <time>2012-01-29T08:50:15Z</time>
      </trkpt>
      <trkpt lat="47.76274" lon="7.41198">
        <ele>235.401611</ele>
        <time>2012-01-29T08:50:18Z</time>
      </trkpt>
      <trkpt lat="47.76274" lon="7.41198">
        <ele>235.319275</ele>
        <time>2012-01-29T08:50:20Z</time>
      </trkpt>
      <trkpt lat="47.76274" lon="7.41198">
        <ele>233.680511</ele>
        <time>2012-01-29T08:50:23Z</time>
      </trkpt>
      <trkpt lat="47.76274" lon="7.41198">
        <ele>232.627289</ele>
        <time>2012-01-29T08:50:25Z</time>
      </trkpt>
      <trkpt lat="47.76274" lon="7.41198">
        <ele>234.55954</ele>
        <time>2012-01-29T08:50:28Z</time>
      </trkpt>
      <trkpt lat="47.76274" lon="7.41198">
        <ele>232.56308</ele>
        <time>2012-01-29T08:50:31Z</time>
      </trkpt>
      <trkpt lat="47.76274" lon="7.41198">
        <ele>232.20517</ele>
        <time>2012-01-29T08:50:33Z</time>
      </trkpt>
      <trkpt lat="47.76274" lon="7.41198">
        <ele>231.62442</ele>
        <time>2012-01-29T08:50:36Z</time>
      </trkpt>
      <trkpt lat="47.76274" lon="7.41198">
        <ele>231.799713</ele>
        <time>2012-01-29T08:50:38Z</time>
      </trkpt>
      <trkpt lat="47.76274" lon="7.41198">
        <ele>234.089935</ele>
        <time>2012-01-29T08:50:41Z</time>
      </trkpt>
      <trkpt lat="47.76274" lon="7.41198">
        <ele>234.942657</ele>
        <time>2012-01-29T08:50:44Z</time>
      </trkpt>
      <trkpt lat="47.76274" lon="7.41198">
        <ele>238.298096</ele>
        <time>2012-01-29T08:50:46Z</time>
      </trkpt>
      <trkpt lat="47.76274" lon="7.41198">
        <ele>241.466522</ele>
        <time>2012-01-29T08:50:51Z</time>
      </trkpt>
      <trkpt lat="47.76274" lon="7.41198">
        <ele>241.149048</ele>
        <time>2012-01-29T08:50:53Z</time>
      </trkpt>
      <trkpt lat="47.76274" lon="7.41198">
        <ele>250.731903</ele>
        <time>2012-01-29T08:50:56Z</time>
      </trkpt>
      <trkpt lat="47.76276" lon="7.41196">
        <ele>248.166473</ele>
        <time>2012-01-29T08:50:59Z</time>
      </trkpt>
      <trkpt lat="47.76278" lon="7.41194">
        <ele>245.310364</ele>
        <time>2012-01-29T08:51:01Z</time>
      </trkpt>
      <trkpt lat="47.76281" lon="7.41178">
        <ele>242.283386</ele>
        <time>2012-01-29T08:51:04Z</time>
      </trkpt>
      <trkpt lat="47.76284" lon="7.41159">
        <ele>240.015839</ele>
        <time>2012-01-29T08:51:07Z</time>
      </trkpt>
      <trkpt lat="47.76288" lon="7.41136">
        <ele>239.772583</ele>
        <time>2012-01-29T08:51:10Z</time>
      </trkpt>
      <trkpt lat="47.76289" lon="7.41123">
        <ele>240.173706</ele>
        <time>2012-01-29T08:51:12Z</time>
      </trkpt>
      <trkpt lat="47.76291" lon="7.411">
        <ele>239.468475</ele>
        <time>2012-01-29T08:51:15Z</time>
      </trkpt>
      <trkpt lat="47.76295" lon="7.41076">
        <ele>238.838837</ele>
        <time>2012-01-29T08:51:18Z</time>
      </trkpt>
      <trkpt lat="47.76296" lon="7.4106">
        <ele>237.842377</ele>
        <time>2012-01-29T08:51:20Z</time>
      </trkpt>
      <trkpt lat="47.76299" lon="7.41037">
        <ele>237.296051</ele>
        <time>2012-01-29T08:51:23Z</time>
      </trkpt>
      <trkpt lat="47.76301" lon="7.41015">
        <ele>236.453766</ele>
        <time>2012-01-29T08:51:26Z</time>
      </trkpt>
      <trkpt lat="47.76303" lon="7.40992">
        <ele>236.862518</ele>
        <time>2012-01-29T08:51:29Z</time>
      </trkpt>
      <trkpt lat="47.76304" lon="7.40978">
        <ele>237.435059</ele>
        <time>2012-01-29T08:51:31Z</time>
      </trkpt>
      <trkpt lat="47.76306" lon="7.40956">
        <ele>237.936951</ele>
        <time>2012-01-29T08:51:34Z</time>
      </trkpt>
      <trkpt lat="47.76309" lon="7.40932">
        <ele>240.440918</ele>
        <time>2012-01-29T08:51:37Z</time>
      </trkpt>
      <trkpt lat="47.76311" lon="7.40916">
        <ele>239.459625</ele>
        <time>2012-01-29T08:51:39Z</time>
      </trkpt>
      <trkpt lat="47.76316" lon="7.40873">
        <ele>235.904785</ele>
        <time>2012-01-29T08:51:44Z</time>
      </trkpt>
      <trkpt lat="47.76318" lon="7.40856">
        <ele>235.84317</ele>
        <time>2012-01-29T08:51:46Z</time>
      </trkpt>
      <trkpt lat="47.7632" lon="7.4083">
        <ele>238.488312</ele>
        <time>2012-01-29T08:51:49Z</time>
      </trkpt>
      <trkpt lat="47.76323" lon="7.40804">
        <ele>237.278137</ele>
        <time>2012-01-29T08:51:52Z</time>
      </trkpt>
      <trkpt lat="47.76326" lon="7.4078">
        <ele>235.387024</ele>
        <time>2012-01-29T08:51:55Z</time>
      </trkpt>
      <trkpt lat="47.76328" lon="7.40763">
        <ele>234.103546</ele>
        <time>2012-01-29T08:51:57Z</time>
      </trkpt>
      <trkpt lat="47.76331" lon="7.40741">
        <ele>234.095551</ele>
        <time>2012-01-29T08:52:00Z</time>
      </trkpt>
      <trkpt lat="47.76334" lon="7.40711">
        <ele>234.005402</ele>
        <time>2012-01-29T08:52:04Z</time>
      </trkpt>
      <trkpt lat="47.76338" lon="7.40679">
        <ele>234.798584</ele>
        <time>2012-01-29T08:52:08Z</time>
      </trkpt>
      <trkpt lat="47.7634" lon="7.40654">
        <ele>235.826752</ele>
        <time>2012-01-29T08:52:11Z</time>
      </trkpt>
      <trkpt lat="47.76342" lon="7.40632">
        <ele>235.226562</ele>
        <time>2012-01-29T08:52:14Z</time>
      </trkpt>
      <trkpt lat="47.76344" lon="7.40609">
        <ele>238.432861</ele>
        <time>2012-01-29T08:52:17Z</time>
      </trkpt>
      <trkpt lat="47.76347" lon="7.40585">
        <ele>236.096802</ele>
        <time>2012-01-29T08:52:20Z</time>
      </trkpt>
      <trkpt lat="47.76349" lon="7.40571">
        <ele>236.08078</ele>
        <time>2012-01-29T08:52:22Z</time>
      </trkpt>
      <trkpt lat="47.76352" lon="7.40548">
        <ele>234.634827</ele>
        <time>2012-01-29T08:52:25Z</time>
      </trkpt>
      <trkpt lat="47.76354" lon="7.40527">
        <ele>237.311401</ele>
        <time>2012-01-29T08:52:28Z</time>
      </trkpt>
      <trkpt lat="47.76356" lon="7.40505">
        <ele>238.772064</ele>
        <time>2012-01-29T08:52:31Z</time>
      </trkpt>
      <trkpt lat="47.76357" lon="7.40483">
        <ele>241.215118</ele>
        <time>2012-01-29T08:52:34Z</time>
      </trkpt>
      <trkpt lat="47.76359" lon="7.40452">
        <ele>244.051117</ele>
        <time>2012-01-29T08:52:38Z</time>
      </trkpt>
      <trkpt lat="47.76361" lon="7.40437">
        <ele>244.691254</ele>
        <time>2012-01-29T08:52:40Z</time>
      </trkpt>
      <trkpt lat="47.76363" lon="7.40414">
        <ele>244.171326</ele>
        <time>2012-01-29T08:52:43Z</time>
      </trkpt>
      <trkpt lat="47.76367" lon="7.40381">
        <ele>246.801361</ele>
        <time>2012-01-29T08:52:47Z</time>
      </trkpt>
      <trkpt lat="47.7637" lon="7.40357">
        <ele>249.662903</ele>
        <time>2012-01-29T08:52:50Z</time>
      </trkpt>
      <trkpt lat="47.76371" lon="7.4034">
        <ele>251.609009</ele>
        <time>2012-01-29T08:52:52Z</time>
      </trkpt>
      <trkpt lat="47.76374" lon="7.40316">
        <ele>248.008667</ele>
        <time>2012-01-29T08:52:55Z</time>
      </trkpt>
      <trkpt lat="47.76378" lon="7.40284">
        <ele>246.352173</ele>
        <time>2012-01-29T08:52:59Z</time>
      </trkpt>
      <trkpt lat="47.76381" lon="7.40251">
        <ele>242.908081</ele>
        <time>2012-01-29T08:53:03Z</time>
      </trkpt>
      <trkpt lat="47.76382" lon="7.40233">
        <ele>242.962189</ele>
        <time>2012-01-29T08:53:06Z</time>
      </trkpt>
      <trkpt lat="47.76386" lon="7.40203">
        <ele>245.042114</ele>
        <time>2012-01-29T08:53:10Z</time>
      </trkpt>
      <trkpt lat="47.76387" lon="7.40174">
        <ele>248.150574</ele>
        <time>2012-01-29T08:53:14Z</time>
      </trkpt>
      <trkpt lat="47.7639" lon="7.40143">
        <ele>247.112335</ele>
        <time>2012-01-29T08:53:18Z</time>
      </trkpt>
      <trkpt lat="47.76394" lon="7.4012">
        <ele>247.130188</ele>
        <time>2012-01-29T08:53:21Z</time>
      </trkpt>
      <trkpt lat="47.76397" lon="7.40087">
        <ele>254.853668</ele>
        <time>2012-01-29T08:53:25Z</time>
      </trkpt>
      <trkpt lat="47.76398" lon="7.40073">
        <ele>254.51944</ele>
        <time>2012-01-29T08:53:27Z</time>
      </trkpt>
      <trkpt lat="47.76401" lon="7.40044">
        <ele>248.230408</ele>
        <time>2012-01-29T08:53:30Z</time>
      </trkpt>
      <trkpt lat="47.76407" lon="7.40006">
        <ele>244.376617</ele>
        <time>2012-01-29T08:53:34Z</time>
      </trkpt>
      <trkpt lat="47.7641" lon="7.39989">
        <ele>243.829224</ele>
        <time>2012-01-29T08:53:36Z</time>
      </trkpt>
      <trkpt lat="47.76413" lon="7.39961">
        <ele>243.408173</ele>
        <time>2012-01-29T08:53:40Z</time>
      </trkpt>
      <trkpt lat="47.76416" lon="7.3993">
        <ele>245.813202</ele>
        <time>2012-01-29T08:53:44Z</time>
      </trkpt>
      <trkpt lat="47.76418" lon="7.39906">
        <ele>239.712982</ele>
        <time>2012-01-29T08:53:47Z</time>
      </trkpt>
      <trkpt lat="47.76419" lon="7.39892">
        <ele>243.786255</ele>
        <time>2012-01-29T08:53:49Z</time>
      </trkpt>
      <trkpt lat="47.76423" lon="7.39868">
        <ele>238.700531</ele>
        <time>2012-01-29T08:53:52Z</time>
      </trkpt>
      <trkpt lat="47.76425" lon="7.39852">
        <ele>242.968842</ele>
        <time>2012-01-29T08:53:54Z</time>
      </trkpt>
      <trkpt lat="47.76428" lon="7.39822">
        <ele>239.082092</ele>
        <time>2012-01-29T08:53:58Z</time>
      </trkpt>
      <trkpt lat="47.76429" lon="7.39803">
        <ele>244.497742</ele>
        <time>2012-01-29T08:54:00Z</time>
      </trkpt>
      <trkpt lat="47.76432" lon="7.39777">
        <ele>244.559387</ele>
        <time>2012-01-29T08:54:03Z</time>
      </trkpt>
      <trkpt lat="47.76433" lon="7.39762">
        <ele>247.491241</ele>
        <time>2012-01-29T08:54:05Z</time>
      </trkpt>
      <trkpt lat="47.76435" lon="7.39737">
        <ele>243.92923</ele>
        <time>2012-01-29T08:54:08Z</time>
      </trkpt>
      <trkpt lat="47.76437" lon="7.39721">
        <ele>247.455597</ele>
        <time>2012-01-29T08:54:10Z</time>
      </trkpt>
      <trkpt lat="47.7644" lon="7.39687">
        <ele>246.777618</ele>
        <time>2012-01-29T08:54:14Z</time>
      </trkpt>
      <trkpt lat="47.76444" lon="7.39656">
        <ele>247.310852</ele>
        <time>2012-01-29T08:54:17Z</time>
      </trkpt>
      <trkpt lat="47.76448" lon="7.3963">
        <ele>246.543152</ele>
        <time>2012-01-29T08:54:20Z</time>
      </trkpt>
      <trkpt lat="47.76464" lon="7.39594">
        <ele>249.653351</ele>
        <time>2012-01-29T08:54:24Z</time>
      </trkpt>
      <trkpt lat="47.76483" lon="7.39572">
        <ele>238.882629</ele>
        <time>2012-01-29T08:54:28Z</time>
      </trkpt>
      <trkpt lat="47.76496" lon="7.3956">
        <ele>236.873901</ele>
        <time>2012-01-29T08:54:31Z</time>
      </trkpt>
      <trkpt lat="47.765" lon="7.39548">
        <ele>232.313416</ele>
        <time>2012-01-29T08:54:34Z</time>
      </trkpt>
      <trkpt lat="47.76495" lon="7.39533">
        <ele>235.651001</ele>
        <time>2012-01-29T08:54:37Z</time>
      </trkpt>
      <trkpt lat="47.7649" lon="7.39519">
        <ele>236.034454</ele>
        <time>2012-01-29T08:54:39Z</time>
      </trkpt>
      <trkpt lat="47.76485" lon="7.39505">
        <ele>236.484619</ele>
        <time>2012-01-29T08:54:42Z</time>
      </trkpt>
      <trkpt lat="47.76481" lon="7.39493">
        <ele>237.428406</ele>
        <time>2012-01-29T08:54:45Z</time>
      </trkpt>
      <trkpt lat="47.76478" lon="7.39483">
        <ele>237.342651</ele>
        <time>2012-01-29T08:54:48Z</time>
      </trkpt>
      <trkpt lat="47.76474" lon="7.39474">
        <ele>236.210754</ele>
        <time>2012-01-29T08:54:51Z</time>
      </trkpt>
      <trkpt lat="47.76471" lon="7.3947">
        <ele>237.198425</ele>
        <time>2012-01-29T08:54:53Z</time>
      </trkpt>
      <trkpt lat="47.76464" lon="7.39459">
        <ele>238.983734</ele>
        <time>2012-01-29T08:54:56Z</time>
      </trkpt>
      <trkpt lat="47.76457" lon="7.39447">
        <ele>237.201294</ele>
        <time>2012-01-29T08:54:59Z</time>
      </trkpt>
      <trkpt lat="47.76451" lon="7.39432">
        <ele>235.342651</ele>
        <time>2012-01-29T08:55:02Z</time>
      </trkpt>
      <trkpt lat="47.76446" lon="7.39422">
        <ele>234.620361</ele>
        <time>2012-01-29T08:55:04Z</time>
      </trkpt>
      <trkpt lat="47.76439" lon="7.39407">
        <ele>232.269379</ele>
        <time>2012-01-29T08:55:07Z</time>
      </trkpt>
      <trkpt lat="47.76432" lon="7.3939">
        <ele>235.500244</ele>
        <time>2012-01-29T08:55:10Z</time>
      </trkpt>
      <trkpt lat="47.76428" lon="7.39378">
        <ele>235.415222</ele>
        <time>2012-01-29T08:55:12Z</time>
      </trkpt>
      <trkpt lat="47.7642" lon="7.39358">
        <ele>233.182617</ele>
        <time>2012-01-29T08:55:15Z</time>
      </trkpt>
      <trkpt lat="47.76412" lon="7.3934">
        <ele>236.010559</ele>
        <time>2012-01-29T08:55:18Z</time>
      </trkpt>
      <trkpt lat="47.76404" lon="7.39326">
        <ele>236.36322</ele>
        <time>2012-01-29T08:55:21Z</time>
      </trkpt>
      <trkpt lat="47.76396" lon="7.39321">
        <ele>234.093536</ele>
        <time>2012-01-29T08:55:24Z</time>
      </trkpt>
      <trkpt lat="47.76385" lon="7.39319">
        <ele>236.804413</ele>
        <time>2012-01-29T08:55:27Z</time>
      </trkpt>
      <trkpt lat="47.76376" lon="7.39318">
        <ele>236.693237</ele>
        <time>2012-01-29T08:55:30Z</time>
      </trkpt>
      <trkpt lat="47.76367" lon="7.39315">
        <ele>236.286316</ele>
        <time>2012-01-29T08:55:33Z</time>
      </trkpt>
      <trkpt lat="47.76357" lon="7.39313">
        <ele>237.060913</ele>
        <time>2012-01-29T08:55:36Z</time>
      </trkpt>
      <trkpt lat="47.7635" lon="7.39311">
        <ele>237.651123</ele>
        <time>2012-01-29T08:55:38Z</time>
      </trkpt>
      <trkpt lat="47.7634" lon="7.39304">
        <ele>237.303253</ele>
        <time>2012-01-29T08:55:41Z</time>
      </trkpt>
      <trkpt lat="47.76334" lon="7.3929">
        <ele>235.619507</ele>
        <time>2012-01-29T08:55:44Z</time>
      </trkpt>
      <trkpt lat="47.7633" lon="7.39273">
        <ele>232.578888</ele>
        <time>2012-01-29T08:55:47Z</time>
      </trkpt>
      <trkpt lat="47.76325" lon="7.39255">
        <ele>229.821564</ele>
        <time>2012-01-29T08:55:50Z</time>
      </trkpt>
      <trkpt lat="47.76322" lon="7.3924">
        <ele>231.905914</ele>
        <time>2012-01-29T08:55:52Z</time>
      </trkpt>
      <trkpt lat="47.76318" lon="7.39218">
        <ele>234.85022</ele>
        <time>2012-01-29T08:55:55Z</time>
      </trkpt>
      <trkpt lat="47.76314" lon="7.39203">
        <ele>233.316895</ele>
        <time>2012-01-29T08:55:57Z</time>
      </trkpt>
      <trkpt lat="47.76309" lon="7.39181">
        <ele>232.901978</ele>
        <time>2012-01-29T08:56:00Z</time>
      </trkpt>
      <trkpt lat="47.76306" lon="7.39166">
        <ele>232.639618</ele>
        <time>2012-01-29T08:56:02Z</time>
      </trkpt>
      <trkpt lat="47.76301" lon="7.39144">
        <ele>233.727631</ele>
        <time>2012-01-29T08:56:05Z</time>
      </trkpt>
      <trkpt lat="47.76296" lon="7.39115">
        <ele>236.211823</ele>
        <time>2012-01-29T08:56:09Z</time>
      </trkpt>
      <trkpt lat="47.76294" lon="7.39093">
        <ele>236.02301</ele>
        <time>2012-01-29T08:56:12Z</time>
      </trkpt>
      <trkpt lat="47.76294" lon="7.39072">
        <ele>236.075348</ele>
        <time>2012-01-29T08:56:15Z</time>
      </trkpt>
      <trkpt lat="47.76294" lon="7.39051">
        <ele>236.601105</ele>
        <time>2012-01-29T08:56:18Z</time>
      </trkpt>
      <trkpt lat="47.76295" lon="7.39037">
        <ele>236.966217</ele>
        <time>2012-01-29T08:56:20Z</time>
      </trkpt>
      <trkpt lat="47.76297" lon="7.39016">
        <ele>236.891785</ele>
        <time>2012-01-29T08:56:23Z</time>
      </trkpt>
      <trkpt lat="47.76301" lon="7.38997">
        <ele>236.651672</ele>
        <time>2012-01-29T08:56:26Z</time>
      </trkpt>
      <trkpt lat="47.76305" lon="7.38977">
        <ele>236.077759</ele>
        <time>2012-01-29T08:56:29Z</time>
      </trkpt>
      <trkpt lat="47.76308" lon="7.38955">
        <ele>236.122314</ele>
        <time>2012-01-29T08:56:32Z</time>
      </trkpt>
      <trkpt lat="47.76312" lon="7.38931">
        <ele>235.636505</ele>
        <time>2012-01-29T08:56:35Z</time>
      </trkpt>
      <trkpt lat="47.76316" lon="7.38907">
        <ele>234.663879</ele>
        <time>2012-01-29T08:56:38Z</time>
      </trkpt>
      <trkpt lat="47.76317" lon="7.38891">
        <ele>235.417023</ele>
        <time>2012-01-29T08:56:40Z</time>
      </trkpt>
      <trkpt lat="47.76318" lon="7.38874">
        <ele>236.415039</ele>
        <time>2012-01-29T08:56:42Z</time>
      </trkpt>
      <trkpt lat="47.76315" lon="7.38831">
        <ele>233.952332</ele>
        <time>2012-01-29T08:56:47Z</time>
      </trkpt>
      <trkpt lat="47.7631" lon="7.38807">
        <ele>235.075195</ele>
        <time>2012-01-29T08:56:50Z</time>
      </trkpt>
      <trkpt lat="47.763" lon="7.38767">
        <ele>233.380005</ele>
        <time>2012-01-29T08:56:55Z</time>
      </trkpt>
      <trkpt lat="47.76293" lon="7.38744">
        <ele>234.107117</ele>
        <time>2012-01-29T08:56:58Z</time>
      </trkpt>
      <trkpt lat="47.76288" lon="7.38729">
        <ele>233.115753</ele>
        <time>2012-01-29T08:57:00Z</time>
      </trkpt>
      <trkpt lat="47.76281" lon="7.38707">
        <ele>234.617065</ele>
        <time>2012-01-29T08:57:03Z</time>
      </trkpt>
      <trkpt lat="47.76273" lon="7.38688">
        <ele>234.204071</ele>
        <time>2012-01-29T08:57:06Z</time>
      </trkpt>
      <trkpt lat="47.76268" lon="7.38675">
        <ele>236.176422</ele>
        <time>2012-01-29T08:57:08Z</time>
      </trkpt>
      <trkpt lat="47.76261" lon="7.38654">
        <ele>235.228607</ele>
        <time>2012-01-29T08:57:11Z</time>
      </trkpt>
      <trkpt lat="47.76256" lon="7.38639">
        <ele>236.437073</ele>
        <time>2012-01-29T08:57:13Z</time>
      </trkpt>
      <trkpt lat="47.76248" lon="7.38618">
        <ele>234.809601</ele>
        <time>2012-01-29T08:57:16Z</time>
      </trkpt>
      <trkpt lat="47.76244" lon="7.38604">
        <ele>235.000824</ele>
        <time>2012-01-29T08:57:18Z</time>
      </trkpt>
      <trkpt lat="47.76239" lon="7.38582">
        <ele>235.49646</ele>
        <time>2012-01-29T08:57:21Z</time>
      </trkpt>
      <trkpt lat="47.76217" lon="7.38544">
        <ele>239.263062</ele>
        <time>2012-01-29T08:57:28Z</time>
      </trkpt>
      <trkpt lat="47.76204" lon="7.3854">
        <ele>235.777985</ele>
        <time>2012-01-29T08:57:31Z</time>
      </trkpt>
      <trkpt lat="47.76184" lon="7.38534">
        <ele>233.812561</ele>
        <time>2012-01-29T08:57:35Z</time>
      </trkpt>
      <trkpt lat="47.76169" lon="7.3853">
        <ele>234.508972</ele>
        <time>2012-01-29T08:57:38Z</time>
      </trkpt>
      <trkpt lat="47.76153" lon="7.38526">
        <ele>236.411255</ele>
        <time>2012-01-29T08:57:41Z</time>
      </trkpt>
      <trkpt lat="47.76137" lon="7.38521">
        <ele>238.52063</ele>
        <time>2012-01-29T08:57:44Z</time>
      </trkpt>
      <trkpt lat="47.76121" lon="7.38517">
        <ele>237.129944</ele>
        <time>2012-01-29T08:57:47Z</time>
      </trkpt>
      <trkpt lat="47.76101" lon="7.38512">
        <ele>236.494171</ele>
        <time>2012-01-29T08:57:51Z</time>
      </trkpt>
      <trkpt lat="47.76085" lon="7.38509">
        <ele>236.980652</ele>
        <time>2012-01-29T08:57:54Z</time>
      </trkpt>
      <trkpt lat="47.76069" lon="7.38505">
        <ele>236.231659</ele>
        <time>2012-01-29T08:57:57Z</time>
      </trkpt>
      <trkpt lat="47.76053" lon="7.38504">
        <ele>236.651825</ele>
        <time>2012-01-29T08:58:00Z</time>
      </trkpt>
      <trkpt lat="47.76036" lon="7.38504">
        <ele>236.629883</ele>
        <time>2012-01-29T08:58:03Z</time>
      </trkpt>
      <trkpt lat="47.76026" lon="7.38505">
        <ele>237.121185</ele>
        <time>2012-01-29T08:58:05Z</time>
      </trkpt>
      <trkpt lat="47.7601" lon="7.38505">
        <ele>237.471375</ele>
        <time>2012-01-29T08:58:08Z</time>
      </trkpt>
      <trkpt lat="47.75994" lon="7.38507">
        <ele>237.554993</ele>
        <time>2012-01-29T08:58:11Z</time>
      </trkpt>
      <trkpt lat="47.75978" lon="7.38508">
        <ele>237.390991</ele>
        <time>2012-01-29T08:58:14Z</time>
      </trkpt>
      <trkpt lat="47.75964" lon="7.3851">
        <ele>237.036072</ele>
        <time>2012-01-29T08:58:17Z</time>
      </trkpt>
      <trkpt lat="47.75947" lon="7.38509">
        <ele>237.220764</ele>
        <time>2012-01-29T08:58:20Z</time>
      </trkpt>
      <trkpt lat="47.75922" lon="7.38511">
        <ele>236.810638</ele>
        <time>2012-01-29T08:58:24Z</time>
      </trkpt>
      <trkpt lat="47.75903" lon="7.38512">
        <ele>236.263916</ele>
        <time>2012-01-29T08:58:27Z</time>
      </trkpt>
      <trkpt lat="47.75885" lon="7.38516">
        <ele>235.89624</ele>
        <time>2012-01-29T08:58:30Z</time>
      </trkpt>
      <trkpt lat="47.75867" lon="7.38523">
        <ele>235.774689</ele>
        <time>2012-01-29T08:58:33Z</time>
      </trkpt>
      <trkpt lat="47.75855" lon="7.38529">
        <ele>233.957397</ele>
        <time>2012-01-29T08:58:35Z</time>
      </trkpt>
      <trkpt lat="47.75838" lon="7.38536">
        <ele>233.405121</ele>
        <time>2012-01-29T08:58:38Z</time>
      </trkpt>
      <trkpt lat="47.75827" lon="7.38541">
        <ele>232.659607</ele>
        <time>2012-01-29T08:58:40Z</time>
      </trkpt>
      <trkpt lat="47.7581" lon="7.3855">
        <ele>242.467102</ele>
        <time>2012-01-29T08:58:43Z</time>
      </trkpt>
      <trkpt lat="47.7579" lon="7.38558">
        <ele>238.579132</ele>
        <time>2012-01-29T08:58:46Z</time>
      </trkpt>
      <trkpt lat="47.75778" lon="7.38563">
        <ele>239.89621</ele>
        <time>2012-01-29T08:58:48Z</time>
      </trkpt>
      <trkpt lat="47.7576" lon="7.38569">
        <ele>240.494812</ele>
        <time>2012-01-29T08:58:51Z</time>
      </trkpt>
      <trkpt lat="47.75633" lon="7.38615">
        <ele>234.260681</ele>
        <time>2012-01-29T08:59:13Z</time>
      </trkpt>
      <trkpt lat="47.75613" lon="7.38633">
        <ele>238.641357</ele>
        <time>2012-01-29T08:59:18Z</time>
      </trkpt>
      <trkpt lat="47.75599" lon="7.38645">
        <ele>243.156952</ele>
        <time>2012-01-29T08:59:21Z</time>
      </trkpt>
      <trkpt lat="47.75589" lon="7.38654">
        <ele>244.742157</ele>
        <time>2012-01-29T08:59:25Z</time>
      </trkpt>
      <trkpt lat="47.7558" lon="7.38664">
        <ele>241.805786</ele>
        <time>2012-01-29T08:59:29Z</time>
      </trkpt>
      <trkpt lat="47.7558" lon="7.38664">
        <ele>241.805786</ele>
        <time>2012-01-29T08:59:32Z</time>
      </trkpt>
      <trkpt lat="47.7558" lon="7.38664">
        <ele>241.805786</ele>
        <time>2012-01-29T08:59:35Z</time>
      </trkpt>
      <trkpt lat="47.7558" lon="7.38664">
        <ele>241.805786</ele>
        <time>2012-01-29T08:59:39Z</time>
      </trkpt>
      <trkpt lat="47.7558" lon="7.38664">
        <ele>241.805786</ele>
        <time>2012-01-29T08:59:43Z</time>
      </trkpt>
      <trkpt lat="47.7558" lon="7.38664">
        <ele>241.805786</ele>
        <time>2012-01-29T08:59:47Z</time>
      </trkpt>
      <trkpt lat="47.7558" lon="7.38664">
        <ele>241.805786</ele>
        <time>2012-01-29T08:59:50Z</time>
      </trkpt>
      <trkpt lat="47.7558" lon="7.38664">
        <ele>241.805786</ele>
        <time>2012-01-29T08:59:54Z</time>
      </trkpt>
      <trkpt lat="47.7558" lon="7.38664">
        <ele>241.805786</ele>
        <time>2012-01-29T08:59:57Z</time>
      </trkpt>
      <trkpt lat="47.7558" lon="7.38664">
        <ele>241.805786</ele>
        <time>2012-01-29T09:00:00Z</time>
      </trkpt>
      <trkpt lat="47.7558" lon="7.38664">
        <ele>241.805786</ele>
        <time>2012-01-29T09:00:03Z</time>
      </trkpt>
      <trkpt lat="47.75581" lon="7.38665">
        <ele>245.518036</ele>
        <time>2012-01-29T09:00:06Z</time>
      </trkpt>
      <trkpt lat="47.75575" lon="7.38668">
        <ele>240.435852</ele>
        <time>2012-01-29T09:00:09Z</time>
      </trkpt>
      <trkpt lat="47.75563" lon="7.38667">
        <ele>241.76947</ele>
        <time>2012-01-29T09:00:12Z</time>
      </trkpt>
      <trkpt lat="47.75555" lon="7.38675">
        <ele>237.713226</ele>
        <time>2012-01-29T09:00:15Z</time>
      </trkpt>
      <trkpt lat="47.75548" lon="7.3869">
        <ele>240.036163</ele>
        <time>2012-01-29T09:00:18Z</time>
      </trkpt>
      <trkpt lat="47.75544" lon="7.3871">
        <ele>236.903473</ele>
        <time>2012-01-29T09:00:21Z</time>
      </trkpt>
      <trkpt lat="47.7554" lon="7.38732">
        <ele>235.736237</ele>
        <time>2012-01-29T09:00:24Z</time>
      </trkpt>
      <trkpt lat="47.75537" lon="7.38748">
        <ele>234.587524</ele>
        <time>2012-01-29T09:00:26Z</time>
      </trkpt>
      <trkpt lat="47.75533" lon="7.3877">
        <ele>235.150818</ele>
        <time>2012-01-29T09:00:29Z</time>
      </trkpt>
      <trkpt lat="47.75528" lon="7.38793">
        <ele>234.667419</ele>
        <time>2012-01-29T09:00:32Z</time>
      </trkpt>
      <trkpt lat="47.75522" lon="7.38822">
        <ele>235.47226</ele>
        <time>2012-01-29T09:00:36Z</time>
      </trkpt>
      <trkpt lat="47.75516" lon="7.3884">
        <ele>235.250153</ele>
        <time>2012-01-29T09:00:39Z</time>
      </trkpt>
      <trkpt lat="47.75503" lon="7.38849">
        <ele>235.253662</ele>
        <time>2012-01-29T09:00:42Z</time>
      </trkpt>
      <trkpt lat="47.75485" lon="7.38843">
        <ele>232.132507</ele>
        <time>2012-01-29T09:00:45Z</time>
      </trkpt>
      <trkpt lat="47.75466" lon="7.38834">
        <ele>229.825317</ele>
        <time>2012-01-29T09:00:48Z</time>
      </trkpt>
      <trkpt lat="47.75451" lon="7.38821">
        <ele>231.119385</ele>
        <time>2012-01-29T09:00:51Z</time>
      </trkpt>
      <trkpt lat="47.75437" lon="7.38809">
        <ele>233.204315</ele>
        <time>2012-01-29T09:00:54Z</time>
      </trkpt>
      <trkpt lat="47.75424" lon="7.38803">
        <ele>235.886658</ele>
        <time>2012-01-29T09:00:57Z</time>
      </trkpt>
      <trkpt lat="47.75418" lon="7.38795">
        <ele>234.813904</ele>
        <time>2012-01-29T09:00:59Z</time>
      </trkpt>
      <trkpt lat="47.75421" lon="7.38768">
        <ele>236.832916</ele>
        <time>2012-01-29T09:01:03Z</time>
      </trkpt>
      <trkpt lat="47.75431" lon="7.3875">
        <ele>237.156555</ele>
        <time>2012-01-29T09:01:06Z</time>
      </trkpt>
      <trkpt lat="47.75452" lon="7.38722">
        <ele>235.977112</ele>
        <time>2012-01-29T09:01:11Z</time>
      </trkpt>
      <trkpt lat="47.75464" lon="7.38702">
        <ele>236.272614</ele>
        <time>2012-01-29T09:01:14Z</time>
      </trkpt>
      <trkpt lat="47.75473" lon="7.38681">
        <ele>238.64856</ele>
        <time>2012-01-29T09:01:17Z</time>
      </trkpt>
      <trkpt lat="47.7548" lon="7.38649">
        <ele>237.854889</ele>
        <time>2012-01-29T09:01:21Z</time>
      </trkpt>
      <trkpt lat="47.75482" lon="7.38625">
        <ele>237.601471</ele>
        <time>2012-01-29T09:01:24Z</time>
      </trkpt>
      <trkpt lat="47.75483" lon="7.38601">
        <ele>237.82019</ele>
        <time>2012-01-29T09:01:27Z</time>
      </trkpt>
      <trkpt lat="47.75485" lon="7.38586">
        <ele>237.991577</ele>
        <time>2012-01-29T09:01:29Z</time>
      </trkpt>
      <trkpt lat="47.75487" lon="7.38572">
        <ele>238.812653</ele>
        <time>2012-01-29T09:01:32Z</time>
      </trkpt>
      <trkpt lat="47.7549" lon="7.38559">
        <ele>239.682678</ele>
        <time>2012-01-29T09:01:36Z</time>
      </trkpt>
      <trkpt lat="47.75487" lon="7.38543">
        <ele>231.757996</ele>
        <time>2012-01-29T09:01:39Z</time>
      </trkpt>
      <trkpt lat="47.75479" lon="7.38542">
        <ele>234.232666</ele>
        <time>2012-01-29T09:01:42Z</time>
      </trkpt>
      <trkpt lat="47.75466" lon="7.38546">
        <ele>234.173431</ele>
        <time>2012-01-29T09:01:45Z</time>
      </trkpt>
      <trkpt lat="47.75457" lon="7.38553">
        <ele>233.992767</ele>
        <time>2012-01-29T09:01:48Z</time>
      </trkpt>
      <trkpt lat="47.7544" lon="7.38571">
        <ele>236.179504</ele>
        <time>2012-01-29T09:01:53Z</time>
      </trkpt>
      <trkpt lat="47.75425" lon="7.38591">
        <ele>240.682953</ele>
        <time>2012-01-29T09:01:57Z</time>
      </trkpt>
      <trkpt lat="47.75414" lon="7.38606">
        <ele>237.761963</ele>
        <time>2012-01-29T09:02:00Z</time>
      </trkpt>
      <trkpt lat="47.75402" lon="7.38621">
        <ele>240.122955</ele>
        <time>2012-01-29T09:02:03Z</time>
      </trkpt>
      <trkpt lat="47.7539" lon="7.38632">
        <ele>238.31723</ele>
        <time>2012-01-29T09:02:06Z</time>
      </trkpt>
      <trkpt lat="47.75377" lon="7.38641">
        <ele>237.80545</ele>
        <time>2012-01-29T09:02:09Z</time>
      </trkpt>
      <trkpt lat="47.75365" lon="7.38649">
        <ele>240.287628</ele>
        <time>2012-01-29T09:02:12Z</time>
      </trkpt>
      <trkpt lat="47.7535" lon="7.38656">
        <ele>236.715973</ele>
        <time>2012-01-29T09:02:15Z</time>
      </trkpt>
      <trkpt lat="47.75337" lon="7.3866">
        <ele>242.363708</ele>
        <time>2012-01-29T09:02:18Z</time>
      </trkpt>
      <trkpt lat="47.75322" lon="7.38665">
        <ele>235.214874</ele>
        <time>2012-01-29T09:02:21Z</time>
      </trkpt>
      <trkpt lat="47.75311" lon="7.38668">
        <ele>238.386414</ele>
        <time>2012-01-29T09:02:23Z</time>
      </trkpt>
      <trkpt lat="47.75292" lon="7.38681">
        <ele>242.040039</ele>
        <time>2012-01-29T09:02:27Z</time>
      </trkpt>
      <trkpt lat="47.75278" lon="7.38696">
        <ele>235.410309</ele>
        <time>2012-01-29T09:02:30Z</time>
      </trkpt>
      <trkpt lat="47.75264" lon="7.38709">
        <ele>236.701782</ele>
        <time>2012-01-29T09:02:33Z</time>
      </trkpt>
      <trkpt lat="47.7525" lon="7.38716">
        <ele>235.726227</ele>
        <time>2012-01-29T09:02:36Z</time>
      </trkpt>
      <trkpt lat="47.75233" lon="7.38717">
        <ele>234.516449</ele>
        <time>2012-01-29T09:02:39Z</time>
      </trkpt>
      <trkpt lat="47.75219" lon="7.38715">
        <ele>243.568298</ele>
        <time>2012-01-29T09:02:42Z</time>
      </trkpt>
      <trkpt lat="47.75213" lon="7.38714">
        <ele>242.559814</ele>
        <time>2012-01-29T09:02:44Z</time>
      </trkpt>
      <trkpt lat="47.75201" lon="7.38711">
        <ele>239.852264</ele>
        <time>2012-01-29T09:02:47Z</time>
      </trkpt>
      <trkpt lat="47.75187" lon="7.3871">
        <ele>238.379486</ele>
        <time>2012-01-29T09:02:52Z</time>
      </trkpt>
      <trkpt lat="47.75181" lon="7.38704">
        <ele>242.320526</ele>
        <time>2012-01-29T09:02:55Z</time>
      </trkpt>
      <trkpt lat="47.75177" lon="7.38699">
        <ele>248.035767</ele>
        <time>2012-01-29T09:02:58Z</time>
      </trkpt>
      <trkpt lat="47.75171" lon="7.38694">
        <ele>246.674774</ele>
        <time>2012-01-29T09:03:01Z</time>
      </trkpt>
      <trkpt lat="47.75166" lon="7.38688">
        <ele>256.626434</ele>
        <time>2012-01-29T09:03:04Z</time>
      </trkpt>
      <trkpt lat="47.75159" lon="7.38681">
        <ele>259.192688</ele>
        <time>2012-01-29T09:03:07Z</time>
      </trkpt>
      <trkpt lat="47.75153" lon="7.38672">
        <ele>252.905426</ele>
        <time>2012-01-29T09:03:10Z</time>
      </trkpt>
      <trkpt lat="47.75148" lon="7.38665">
        <ele>256.276917</ele>
        <time>2012-01-29T09:03:13Z</time>
      </trkpt>
      <trkpt lat="47.75143" lon="7.38656">
        <ele>251.510529</ele>
        <time>2012-01-29T09:03:16Z</time>
      </trkpt>
      <trkpt lat="47.75137" lon="7.38647">
        <ele>258.394196</ele>
        <time>2012-01-29T09:03:19Z</time>
      </trkpt>
      <trkpt lat="47.75131" lon="7.38635">
        <ele>259.256989</ele>
        <time>2012-01-29T09:03:22Z</time>
      </trkpt>
      <trkpt lat="47.75128" lon="7.38619">
        <ele>257.561279</ele>
        <time>2012-01-29T09:03:25Z</time>
      </trkpt>
      <trkpt lat="47.75127" lon="7.38603">
        <ele>254.009338</ele>
        <time>2012-01-29T09:03:28Z</time>
      </trkpt>
      <trkpt lat="47.75128" lon="7.38588">
        <ele>253.274597</ele>
        <time>2012-01-29T09:03:31Z</time>
      </trkpt>
      <trkpt lat="47.75126" lon="7.38575">
        <ele>260.44632</ele>
        <time>2012-01-29T09:03:34Z</time>
      </trkpt>
      <trkpt lat="47.75124" lon="7.38557">
        <ele>258.084259</ele>
        <time>2012-01-29T09:03:37Z</time>
      </trkpt>
      <trkpt lat="47.75121" lon="7.38543">
        <ele>256.750732</ele>
        <time>2012-01-29T09:03:40Z</time>
      </trkpt>
      <trkpt lat="47.75119" lon="7.38528">
        <ele>256.757477</ele>
        <time>2012-01-29T09:03:43Z</time>
      </trkpt>
      <trkpt lat="47.75116" lon="7.38511">
        <ele>256.36676</ele>
        <time>2012-01-29T09:03:46Z</time>
      </trkpt>
      <trkpt lat="47.75113" lon="7.38494">
        <ele>257.706909</ele>
        <time>2012-01-29T09:03:49Z</time>
      </trkpt>
      <trkpt lat="47.7511" lon="7.38479">
        <ele>257.254333</ele>
        <time>2012-01-29T09:03:52Z</time>
      </trkpt>
      <trkpt lat="47.75106" lon="7.38463">
        <ele>260.845856</ele>
        <time>2012-01-29T09:03:55Z</time>
      </trkpt>
      <trkpt lat="47.75103" lon="7.38446">
        <ele>264.079315</ele>
        <time>2012-01-29T09:03:58Z</time>
      </trkpt>
      <trkpt lat="47.75099" lon="7.38431">
        <ele>264.080811</ele>
        <time>2012-01-29T09:04:01Z</time>
      </trkpt>
      <trkpt lat="47.75092" lon="7.38418">
        <ele>266.298615</ele>
        <time>2012-01-29T09:04:04Z</time>
      </trkpt>
      <trkpt lat="47.75089" lon="7.38408">
        <ele>268.367523</ele>
        <time>2012-01-29T09:04:07Z</time>
      </trkpt>
      <trkpt lat="47.75088" lon="7.38404">
        <ele>268.264374</ele>
        <time>2012-01-29T09:04:10Z</time>
      </trkpt>
      <trkpt lat="47.75089" lon="7.38397">
        <ele>272.077759</ele>
        <time>2012-01-29T09:04:13Z</time>
      </trkpt>
      <trkpt lat="47.75091" lon="7.3839">
        <ele>268.793549</ele>
        <time>2012-01-29T09:04:17Z</time>
      </trkpt>
      <trkpt lat="47.75097" lon="7.38392">
        <ele>269.064636</ele>
        <time>2012-01-29T09:04:21Z</time>
      </trkpt>
      <trkpt lat="47.75096" lon="7.38388">
        <ele>268.349518</ele>
        <time>2012-01-29T09:04:25Z</time>
      </trkpt>
      <trkpt lat="47.75093" lon="7.38391">
        <ele>268.024811</ele>
        <time>2012-01-29T09:04:28Z</time>
      </trkpt>
      <trkpt lat="47.75091" lon="7.38395">
        <ele>266.09494</ele>
        <time>2012-01-29T09:04:31Z</time>
      </trkpt>
      <trkpt lat="47.7509" lon="7.38398">
        <ele>266.059753</ele>
        <time>2012-01-29T09:04:34Z</time>
      </trkpt>
      <trkpt lat="47.75085" lon="7.38402">
        <ele>267.778839</ele>
        <time>2012-01-29T09:04:38Z</time>
      </trkpt>
      <trkpt lat="47.75079" lon="7.38406">
        <ele>268.45993</ele>
        <time>2012-01-29T09:04:41Z</time>
      </trkpt>
      <trkpt lat="47.75072" lon="7.38407">
        <ele>265.3815</ele>
        <time>2012-01-29T09:04:44Z</time>
      </trkpt>
      <trkpt lat="47.75064" lon="7.38411">
        <ele>268.348358</ele>
        <time>2012-01-29T09:04:47Z</time>
      </trkpt>
      <trkpt lat="47.75053" lon="7.38417">
        <ele>272.988068</ele>
        <time>2012-01-29T09:04:51Z</time>
      </trkpt>
      <trkpt lat="47.75045" lon="7.38422">
        <ele>267.125793</ele>
        <time>2012-01-29T09:04:54Z</time>
      </trkpt>
      <trkpt lat="47.75036" lon="7.38429">
        <ele>270.554382</ele>
        <time>2012-01-29T09:04:58Z</time>
      </trkpt>
      <trkpt lat="47.75025" lon="7.38438">
        <ele>269.726746</ele>
        <time>2012-01-29T09:05:03Z</time>
      </trkpt>
      <trkpt lat="47.75019" lon="7.38442">
        <ele>268.240997</ele>
        <time>2012-01-29T09:05:06Z</time>
      </trkpt>
      <trkpt lat="47.75014" lon="7.38446">
        <ele>271.019623</ele>
        <time>2012-01-29T09:05:08Z</time>
      </trkpt>
      <trkpt lat="47.75007" lon="7.38451">
        <ele>270.0047</ele>
        <time>2012-01-29T09:05:11Z</time>
      </trkpt>
      <trkpt lat="47.74996" lon="7.38456">
        <ele>263.977417</ele>
        <time>2012-01-29T09:05:15Z</time>
      </trkpt>
      <trkpt lat="47.74988" lon="7.38459">
        <ele>265.005829</ele>
        <time>2012-01-29T09:05:18Z</time>
      </trkpt>
      <trkpt lat="47.74979" lon="7.38464">
        <ele>270.990814</ele>
        <time>2012-01-29T09:05:22Z</time>
      </trkpt>
      <trkpt lat="47.74966" lon="7.38471">
        <ele>273.680389</ele>
        <time>2012-01-29T09:05:26Z</time>
      </trkpt>
      <trkpt lat="47.74957" lon="7.3848">
        <ele>269.235535</ele>
        <time>2012-01-29T09:05:29Z</time>
      </trkpt>
      <trkpt lat="47.7495" lon="7.38489">
        <ele>272.729431</ele>
        <time>2012-01-29T09:05:32Z</time>
      </trkpt>
      <trkpt lat="47.74938" lon="7.38501">
        <ele>267.744873</ele>
        <time>2012-01-29T09:05:36Z</time>
      </trkpt>
      <trkpt lat="47.74928" lon="7.3851">
        <ele>269.943268</ele>
        <time>2012-01-29T09:05:40Z</time>
      </trkpt>
      <trkpt lat="47.7492" lon="7.38518">
        <ele>270.100433</ele>
        <time>2012-01-29T09:05:43Z</time>
      </trkpt>
      <trkpt lat="47.74914" lon="7.38525">
        <ele>273.179932</ele>
        <time>2012-01-29T09:05:46Z</time>
      </trkpt>
      <trkpt lat="47.74908" lon="7.3853">
        <ele>272.869995</ele>
        <time>2012-01-29T09:05:50Z</time>
      </trkpt>
      <trkpt lat="47.74902" lon="7.38535">
        <ele>275.741638</ele>
        <time>2012-01-29T09:05:53Z</time>
      </trkpt>
      <trkpt lat="47.74893" lon="7.38543">
        <ele>274.628204</ele>
        <time>2012-01-29T09:05:58Z</time>
      </trkpt>
      <trkpt lat="47.74884" lon="7.3855">
        <ele>275.039062</ele>
        <time>2012-01-29T09:06:02Z</time>
      </trkpt>
      <trkpt lat="47.74876" lon="7.38551">
        <ele>274.325684</ele>
        <time>2012-01-29T09:06:06Z</time>
      </trkpt>
      <trkpt lat="47.7487" lon="7.3855">
        <ele>274.172607</ele>
        <time>2012-01-29T09:06:09Z</time>
      </trkpt>
      <trkpt lat="47.74865" lon="7.38549">
        <ele>274.686829</ele>
        <time>2012-01-29T09:06:12Z</time>
      </trkpt>
      <trkpt lat="47.74859" lon="7.38544">
        <ele>272.729248</ele>
        <time>2012-01-29T09:06:15Z</time>
      </trkpt>
      <trkpt lat="47.74855" lon="7.38532">
        <ele>270.524689</ele>
        <time>2012-01-29T09:06:18Z</time>
      </trkpt>
      <trkpt lat="47.74851" lon="7.38518">
        <ele>272.526733</ele>
        <time>2012-01-29T09:06:21Z</time>
      </trkpt>
      <trkpt lat="47.74848" lon="7.38504">
        <ele>271.943604</ele>
        <time>2012-01-29T09:06:24Z</time>
      </trkpt>
      <trkpt lat="47.74845" lon="7.38489">
        <ele>274.667084</ele>
        <time>2012-01-29T09:06:27Z</time>
      </trkpt>
      <trkpt lat="47.74842" lon="7.38477">
        <ele>275.472198</ele>
        <time>2012-01-29T09:06:30Z</time>
      </trkpt>
      <trkpt lat="47.7484" lon="7.3847">
        <ele>275.802002</ele>
        <time>2012-01-29T09:06:33Z</time>
      </trkpt>
      <trkpt lat="47.74838" lon="7.3846">
        <ele>275.59198</ele>
        <time>2012-01-29T09:06:36Z</time>
      </trkpt>
      <trkpt lat="47.74835" lon="7.38446">
        <ele>276.38327</ele>
        <time>2012-01-29T09:06:39Z</time>
      </trkpt>
      <trkpt lat="47.74833" lon="7.38433">
        <ele>272.916931</ele>
        <time>2012-01-29T09:06:43Z</time>
      </trkpt>
      <trkpt lat="47.74831" lon="7.38424">
        <ele>277.674896</ele>
        <time>2012-01-29T09:06:46Z</time>
      </trkpt>
      <trkpt lat="47.74829" lon="7.38415">
        <ele>277.452515</ele>
        <time>2012-01-29T09:06:49Z</time>
      </trkpt>
      <trkpt lat="47.74825" lon="7.38401">
        <ele>277.270996</ele>
        <time>2012-01-29T09:06:52Z</time>
      </trkpt>
      <trkpt lat="47.74822" lon="7.3839">
        <ele>278.267975</ele>
        <time>2012-01-29T09:06:55Z</time>
      </trkpt>
      <trkpt lat="47.74819" lon="7.38379">
        <ele>277.792145</ele>
        <time>2012-01-29T09:06:58Z</time>
      </trkpt>
      <trkpt lat="47.74813" lon="7.38357">
        <ele>278.454926</ele>
        <time>2012-01-29T09:07:03Z</time>
      </trkpt>
      <trkpt lat="47.7481" lon="7.38344">
        <ele>278.575775</ele>
        <time>2012-01-29T09:07:06Z</time>
      </trkpt>
      <trkpt lat="47.74808" lon="7.38333">
        <ele>279.595306</ele>
        <time>2012-01-29T09:07:09Z</time>
      </trkpt>
      <trkpt lat="47.74806" lon="7.38327">
        <ele>278.579041</ele>
        <time>2012-01-29T09:07:13Z</time>
      </trkpt>
      <trkpt lat="47.74801" lon="7.38322">
        <ele>279.099915</ele>
        <time>2012-01-29T09:07:17Z</time>
      </trkpt>
      <trkpt lat="47.74796" lon="7.38321">
        <ele>280.933197</ele>
        <time>2012-01-29T09:07:21Z</time>
      </trkpt>
      <trkpt lat="47.74792" lon="7.38324">
        <ele>277.84964</ele>
        <time>2012-01-29T09:07:24Z</time>
      </trkpt>
      <trkpt lat="47.74784" lon="7.38327">
        <ele>276.783478</ele>
        <time>2012-01-29T09:07:28Z</time>
      </trkpt>
      <trkpt lat="47.74776" lon="7.3833">
        <ele>280.279388</ele>
        <time>2012-01-29T09:07:31Z</time>
      </trkpt>
      <trkpt lat="47.7477" lon="7.38327">
        <ele>277.571777</ele>
        <time>2012-01-29T09:07:34Z</time>
      </trkpt>
      <trkpt lat="47.74768" lon="7.38315">
        <ele>277.405457</ele>
        <time>2012-01-29T09:07:37Z</time>
      </trkpt>
      <trkpt lat="47.74767" lon="7.383">
        <ele>278.598419</ele>
        <time>2012-01-29T09:07:40Z</time>
      </trkpt>
      <trkpt lat="47.74766" lon="7.38288">
        <ele>283.384766</ele>
        <time>2012-01-29T09:07:43Z</time>
      </trkpt>
      <trkpt lat="47.74766" lon="7.38274">
        <ele>282.090942</ele>
        <time>2012-01-29T09:07:46Z</time>
      </trkpt>
      <trkpt lat="47.74768" lon="7.38255">
        <ele>285.705597</ele>
        <time>2012-01-29T09:07:49Z</time>
      </trkpt>
      <trkpt lat="47.74769" lon="7.38238">
        <ele>285.170074</ele>
        <time>2012-01-29T09:07:52Z</time>
      </trkpt>
      <trkpt lat="47.7477" lon="7.3822">
        <ele>286.821503</ele>
        <time>2012-01-29T09:07:55Z</time>
      </trkpt>
      <trkpt lat="47.7477" lon="7.38202">
        <ele>287.582458</ele>
        <time>2012-01-29T09:07:58Z</time>
      </trkpt>
      <trkpt lat="47.7477" lon="7.38186">
        <ele>284.420746</ele>
        <time>2012-01-29T09:08:01Z</time>
      </trkpt>
      <trkpt lat="47.74772" lon="7.38169">
        <ele>285.215271</ele>
        <time>2012-01-29T09:08:04Z</time>
      </trkpt>
      <trkpt lat="47.74773" lon="7.38151">
        <ele>284.683289</ele>
        <time>2012-01-29T09:08:07Z</time>
      </trkpt>
      <trkpt lat="47.74773" lon="7.38136">
        <ele>280.882446</ele>
        <time>2012-01-29T09:08:10Z</time>
      </trkpt>
      <trkpt lat="47.74772" lon="7.38123">
        <ele>280.62854</ele>
        <time>2012-01-29T09:08:13Z</time>
      </trkpt>
      <trkpt lat="47.74769" lon="7.38108">
        <ele>282.264526</ele>
        <time>2012-01-29T09:08:17Z</time>
      </trkpt>
      <trkpt lat="47.74763" lon="7.38076">
        <ele>282.120972</ele>
        <time>2012-01-29T09:08:22Z</time>
      </trkpt>
      <trkpt lat="47.74762" lon="7.38043">
        <ele>283.589478</ele>
        <time>2012-01-29T09:08:27Z</time>
      </trkpt>
      <trkpt lat="47.74761" lon="7.38023">
        <ele>280.590485</ele>
        <time>2012-01-29T09:08:30Z</time>
      </trkpt>
      <trkpt lat="47.74761" lon="7.37994">
        <ele>279.325409</ele>
        <time>2012-01-29T09:08:34Z</time>
      </trkpt>
      <trkpt lat="47.7476" lon="7.37973">
        <ele>281.361023</ele>
        <time>2012-01-29T09:08:37Z</time>
      </trkpt>
      <trkpt lat="47.74758" lon="7.37944">
        <ele>279.935913</ele>
        <time>2012-01-29T09:08:41Z</time>
      </trkpt>
      <trkpt lat="47.74756" lon="7.37912">
        <ele>281.022247</ele>
        <time>2012-01-29T09:08:45Z</time>
      </trkpt>
      <trkpt lat="47.74754" lon="7.37896">
        <ele>279.70163</ele>
        <time>2012-01-29T09:08:47Z</time>
      </trkpt>
      <trkpt lat="47.74752" lon="7.37864">
        <ele>278.966156</ele>
        <time>2012-01-29T09:08:51Z</time>
      </trkpt>
      <trkpt lat="47.74751" lon="7.37834">
        <ele>276.242767</ele>
        <time>2012-01-29T09:08:55Z</time>
      </trkpt>
      <trkpt lat="47.74747" lon="7.3781">
        <ele>275.098969</ele>
        <time>2012-01-29T09:09:00Z</time>
      </trkpt>
      <trkpt lat="47.74743" lon="7.37812">
        <ele>275.947449</ele>
        <time>2012-01-29T09:09:03Z</time>
      </trkpt>
      <trkpt lat="47.74736" lon="7.37819">
        <ele>278.64209</ele>
        <time>2012-01-29T09:09:06Z</time>
      </trkpt>
      <trkpt lat="47.74729" lon="7.37826">
        <ele>278.134216</ele>
        <time>2012-01-29T09:09:09Z</time>
      </trkpt>
      <trkpt lat="47.74722" lon="7.37832">
        <ele>279.902496</ele>
        <time>2012-01-29T09:09:12Z</time>
      </trkpt>
      <trkpt lat="47.74713" lon="7.37838">
        <ele>279.64743</ele>
        <time>2012-01-29T09:09:15Z</time>
      </trkpt>
      <trkpt lat="47.74704" lon="7.37844">
        <ele>279.521698</ele>
        <time>2012-01-29T09:09:18Z</time>
      </trkpt>
      <trkpt lat="47.74694" lon="7.3785">
        <ele>282.816498</ele>
        <time>2012-01-29T09:09:22Z</time>
      </trkpt>
      <trkpt lat="47.74688" lon="7.37853">
        <ele>284.240662</ele>
        <time>2012-01-29T09:09:25Z</time>
      </trkpt>
      <trkpt lat="47.74681" lon="7.37851">
        <ele>285.926697</ele>
        <time>2012-01-29T09:09:28Z</time>
      </trkpt>
      <trkpt lat="47.7467" lon="7.37845">
        <ele>285.291687</ele>
        <time>2012-01-29T09:09:31Z</time>
      </trkpt>
      <trkpt lat="47.74663" lon="7.37838">
        <ele>286.854187</ele>
        <time>2012-01-29T09:09:34Z</time>
      </trkpt>
      <trkpt lat="47.74655" lon="7.37829">
        <ele>285.251923</ele>
        <time>2012-01-29T09:09:37Z</time>
      </trkpt>
      <trkpt lat="47.74649" lon="7.37821">
        <ele>284.634308</ele>
        <time>2012-01-29T09:09:40Z</time>
      </trkpt>
      <trkpt lat="47.74642" lon="7.37812">
        <ele>285.08255</ele>
        <time>2012-01-29T09:09:43Z</time>
      </trkpt>
      <trkpt lat="47.74633" lon="7.37798">
        <ele>285.626556</ele>
        <time>2012-01-29T09:09:46Z</time>
      </trkpt>
      <trkpt lat="47.74624" lon="7.37782">
        <ele>285.875214</ele>
        <time>2012-01-29T09:09:49Z</time>
      </trkpt>
      <trkpt lat="47.74611" lon="7.37763">
        <ele>283.539307</ele>
        <time>2012-01-29T09:09:53Z</time>
      </trkpt>
      <trkpt lat="47.74601" lon="7.37752">
        <ele>284.081085</ele>
        <time>2012-01-29T09:09:56Z</time>
      </trkpt>
      <trkpt lat="47.74589" lon="7.37746">
        <ele>284.448212</ele>
        <time>2012-01-29T09:09:59Z</time>
      </trkpt>
      <trkpt lat="47.74576" lon="7.37748">
        <ele>285.477051</ele>
        <time>2012-01-29T09:10:02Z</time>
      </trkpt>
      <trkpt lat="47.74559" lon="7.3776">
        <ele>283.334442</ele>
        <time>2012-01-29T09:10:05Z</time>
      </trkpt>
      <trkpt lat="47.74544" lon="7.37767">
        <ele>284.13147</ele>
        <time>2012-01-29T09:10:08Z</time>
      </trkpt>
      <trkpt lat="47.74529" lon="7.37763">
        <ele>285.251556</ele>
        <time>2012-01-29T09:10:11Z</time>
      </trkpt>
      <trkpt lat="47.74516" lon="7.37758">
        <ele>287.805115</ele>
        <time>2012-01-29T09:10:14Z</time>
      </trkpt>
      <trkpt lat="47.745" lon="7.37756">
        <ele>288.548523</ele>
        <time>2012-01-29T09:10:18Z</time>
      </trkpt>
      <trkpt lat="47.74485" lon="7.37756">
        <ele>292.910461</ele>
        <time>2012-01-29T09:10:21Z</time>
      </trkpt>
      <trkpt lat="47.74473" lon="7.37758">
        <ele>290.583221</ele>
        <time>2012-01-29T09:10:24Z</time>
      </trkpt>
      <trkpt lat="47.74457" lon="7.37759">
        <ele>286.347809</ele>
        <time>2012-01-29T09:10:27Z</time>
      </trkpt>
      <trkpt lat="47.74446" lon="7.37747">
        <ele>285.339355</ele>
        <time>2012-01-29T09:10:30Z</time>
      </trkpt>
      <trkpt lat="47.74438" lon="7.3773">
        <ele>287.590485</ele>
        <time>2012-01-29T09:10:33Z</time>
      </trkpt>
      <trkpt lat="47.7443" lon="7.37714">
        <ele>284.541565</ele>
        <time>2012-01-29T09:10:36Z</time>
      </trkpt>
      <trkpt lat="47.7442" lon="7.3769">
        <ele>287.093842</ele>
        <time>2012-01-29T09:10:40Z</time>
      </trkpt>
      <trkpt lat="47.74413" lon="7.37672">
        <ele>284.529816</ele>
        <time>2012-01-29T09:10:43Z</time>
      </trkpt>
      <trkpt lat="47.74406" lon="7.37646">
        <ele>288.922394</ele>
        <time>2012-01-29T09:10:47Z</time>
      </trkpt>
      <trkpt lat="47.74396" lon="7.3762">
        <ele>285.19986</ele>
        <time>2012-01-29T09:10:51Z</time>
      </trkpt>
      <trkpt lat="47.7439" lon="7.37601">
        <ele>288.726196</ele>
        <time>2012-01-29T09:10:54Z</time>
      </trkpt>
      <trkpt lat="47.74383" lon="7.37581">
        <ele>287.348785</ele>
        <time>2012-01-29T09:10:57Z</time>
      </trkpt>
      <trkpt lat="47.74376" lon="7.37563">
        <ele>286.465149</ele>
        <time>2012-01-29T09:11:00Z</time>
      </trkpt>
      <trkpt lat="47.74371" lon="7.37545">
        <ele>290.061951</ele>
        <time>2012-01-29T09:11:03Z</time>
      </trkpt>
      <trkpt lat="47.74366" lon="7.37531">
        <ele>286.825409</ele>
        <time>2012-01-29T09:11:07Z</time>
      </trkpt>
      <trkpt lat="47.74361" lon="7.37519">
        <ele>286.570282</ele>
        <time>2012-01-29T09:11:11Z</time>
      </trkpt>
      <trkpt lat="47.74358" lon="7.37522">
        <ele>288.461029</ele>
        <time>2012-01-29T09:11:14Z</time>
      </trkpt>
      <trkpt lat="47.74353" lon="7.37526">
        <ele>285.393494</ele>
        <time>2012-01-29T09:11:17Z</time>
      </trkpt>
      <trkpt lat="47.74348" lon="7.3753">
        <ele>286.058594</ele>
        <time>2012-01-29T09:11:21Z</time>
      </trkpt>
      <trkpt lat="47.74341" lon="7.37532">
        <ele>283.696259</ele>
        <time>2012-01-29T09:11:24Z</time>
      </trkpt>
      <trkpt lat="47.7433" lon="7.37537">
        <ele>282.80191</ele>
        <time>2012-01-29T09:11:27Z</time>
      </trkpt>
      <trkpt lat="47.74314" lon="7.37538">
        <ele>284.716034</ele>
        <time>2012-01-29T09:11:31Z</time>
      </trkpt>
      <trkpt lat="47.74304" lon="7.3754">
        <ele>283.21167</ele>
        <time>2012-01-29T09:11:35Z</time>
      </trkpt>
      <trkpt lat="47.74302" lon="7.3754">
        <ele>283.594238</ele>
        <time>2012-01-29T09:11:38Z</time>
      </trkpt>
      <trkpt lat="47.74302" lon="7.3754">
        <ele>285.503387</ele>
        <time>2012-01-29T09:11:41Z</time>
      </trkpt>
      <trkpt lat="47.74302" lon="7.3754">
        <ele>285.390228</ele>
        <time>2012-01-29T09:11:44Z</time>
      </trkpt>
      <trkpt lat="47.74302" lon="7.3754">
        <ele>276.39093</ele>
        <time>2012-01-29T09:11:49Z</time>
      </trkpt>
      <trkpt lat="47.74302" lon="7.3754">
        <ele>282.672913</ele>
        <time>2012-01-29T09:11:52Z</time>
      </trkpt>
      <trkpt lat="47.74302" lon="7.3754">
        <ele>281.35791</ele>
        <time>2012-01-29T09:11:55Z</time>
      </trkpt>
      <trkpt lat="47.74302" lon="7.3754">
        <ele>282.393951</ele>
        <time>2012-01-29T09:11:58Z</time>
      </trkpt>
      <trkpt lat="47.74302" lon="7.3754">
        <ele>278.962097</ele>
        <time>2012-01-29T09:12:00Z</time>
      </trkpt>
      <trkpt lat="47.74302" lon="7.3754">
        <ele>279.166016</ele>
        <time>2012-01-29T09:12:04Z</time>
      </trkpt>
      <trkpt lat="47.74302" lon="7.37539">
        <ele>280.796295</ele>
        <time>2012-01-29T09:12:07Z</time>
      </trkpt>
      <trkpt lat="47.74302" lon="7.37539">
        <ele>282.564972</ele>
        <time>2012-01-29T09:12:11Z</time>
      </trkpt>
      <trkpt lat="47.74302" lon="7.37539">
        <ele>285.757507</ele>
        <time>2012-01-29T09:12:14Z</time>
      </trkpt>
      <trkpt lat="47.74302" lon="7.37539">
        <ele>287.898254</ele>
        <time>2012-01-29T09:12:17Z</time>
      </trkpt>
      <trkpt lat="47.74302" lon="7.37539">
        <ele>289.593323</ele>
        <time>2012-01-29T09:12:20Z</time>
      </trkpt>
      <trkpt lat="47.74302" lon="7.37539">
        <ele>286.768799</ele>
        <time>2012-01-29T09:12:23Z</time>
      </trkpt>
      <trkpt lat="47.74296" lon="7.37543">
        <ele>283.026215</ele>
        <time>2012-01-29T09:12:26Z</time>
      </trkpt>
      <trkpt lat="47.7429" lon="7.37546">
        <ele>281.291016</ele>
        <time>2012-01-29T09:12:29Z</time>
      </trkpt>
      <trkpt lat="47.74277" lon="7.37551">
        <ele>275.968689</ele>
        <time>2012-01-29T09:12:33Z</time>
      </trkpt>
      <trkpt lat="47.74262" lon="7.37563">
        <ele>277.650635</ele>
        <time>2012-01-29T09:12:36Z</time>
      </trkpt>
      <trkpt lat="47.7425" lon="7.37578">
        <ele>279.203491</ele>
        <time>2012-01-29T09:12:39Z</time>
      </trkpt>
      <trkpt lat="47.74239" lon="7.3759">
        <ele>277.819702</ele>
        <time>2012-01-29T09:12:42Z</time>
      </trkpt>
      <trkpt lat="47.7423" lon="7.37598">
        <ele>276.074188</ele>
        <time>2012-01-29T09:12:45Z</time>
      </trkpt>
      <trkpt lat="47.7422" lon="7.37609">
        <ele>274.952423</ele>
        <time>2012-01-29T09:12:48Z</time>
      </trkpt>
      <trkpt lat="47.74209" lon="7.37621">
        <ele>271.680481</ele>
        <time>2012-01-29T09:12:51Z</time>
      </trkpt>
      <trkpt lat="47.74194" lon="7.37642">
        <ele>275.61554</ele>
        <time>2012-01-29T09:12:55Z</time>
      </trkpt>
      <trkpt lat="47.74182" lon="7.3766">
        <ele>276.970703</ele>
        <time>2012-01-29T09:12:59Z</time>
      </trkpt>
      <trkpt lat="47.74171" lon="7.37647">
        <ele>278.331116</ele>
        <time>2012-01-29T09:13:03Z</time>
      </trkpt>
      <trkpt lat="47.74168" lon="7.37624">
        <ele>277.715179</ele>
        <time>2012-01-29T09:13:06Z</time>
      </trkpt>
      <trkpt lat="47.74165" lon="7.37599">
        <ele>274.87735</ele>
        <time>2012-01-29T09:13:09Z</time>
      </trkpt>
      <trkpt lat="47.74161" lon="7.37573">
        <ele>274.55954</ele>
        <time>2012-01-29T09:13:12Z</time>
      </trkpt>
      <trkpt lat="47.74155" lon="7.37546">
        <ele>273.201782</ele>
        <time>2012-01-29T09:13:15Z</time>
      </trkpt>
      <trkpt lat="47.74143" lon="7.37499">
        <ele>271.757538</ele>
        <time>2012-01-29T09:13:20Z</time>
      </trkpt>
      <trkpt lat="47.74135" lon="7.37472">
        <ele>270.881805</ele>
        <time>2012-01-29T09:13:23Z</time>
      </trkpt>
      <trkpt lat="47.74126" lon="7.37445">
        <ele>266.408752</ele>
        <time>2012-01-29T09:13:26Z</time>
      </trkpt>
      <trkpt lat="47.74113" lon="7.37405">
        <ele>262.730377</ele>
        <time>2012-01-29T09:13:30Z</time>
      </trkpt>
      <trkpt lat="47.74104" lon="7.37376">
        <ele>262.312469</ele>
        <time>2012-01-29T09:13:33Z</time>
      </trkpt>
      <trkpt lat="47.74101" lon="7.37345">
        <ele>266.380066</ele>
        <time>2012-01-29T09:13:36Z</time>
      </trkpt>
      <trkpt lat="47.74099" lon="7.373">
        <ele>263.095123</ele>
        <time>2012-01-29T09:13:40Z</time>
      </trkpt>
      <trkpt lat="47.74094" lon="7.3727">
        <ele>265.293732</ele>
        <time>2012-01-29T09:13:43Z</time>
      </trkpt>
      <trkpt lat="47.74087" lon="7.37238">
        <ele>264.141144</ele>
        <time>2012-01-29T09:13:46Z</time>
      </trkpt>
      <trkpt lat="47.74077" lon="7.37204">
        <ele>264.416687</ele>
        <time>2012-01-29T09:13:49Z</time>
      </trkpt>
      <trkpt lat="47.74064" lon="7.37155">
        <ele>259.356689</ele>
        <time>2012-01-29T09:13:53Z</time>
      </trkpt>
      <trkpt lat="47.74063" lon="7.37118">
        <ele>258.704071</ele>
        <time>2012-01-29T09:13:56Z</time>
      </trkpt>
      <trkpt lat="47.74062" lon="7.37086">
        <ele>250.384613</ele>
        <time>2012-01-29T09:13:59Z</time>
      </trkpt>
      <trkpt lat="47.74073" lon="7.37023">
        <ele>251.672607</ele>
        <time>2012-01-29T09:14:05Z</time>
      </trkpt>
      <trkpt lat="47.74082" lon="7.36995">
        <ele>252.564728</ele>
        <time>2012-01-29T09:14:08Z</time>
      </trkpt>
      <trkpt lat="47.741" lon="7.36951">
        <ele>252.361938</ele>
        <time>2012-01-29T09:14:13Z</time>
      </trkpt>
      <trkpt lat="47.74112" lon="7.36927">
        <ele>253.59549</ele>
        <time>2012-01-29T09:14:16Z</time>
      </trkpt>
      <trkpt lat="47.74124" lon="7.36905">
        <ele>254.136932</ele>
        <time>2012-01-29T09:14:19Z</time>
      </trkpt>
      <trkpt lat="47.74139" lon="7.36875">
        <ele>257.762238</ele>
        <time>2012-01-29T09:14:23Z</time>
      </trkpt>
      <trkpt lat="47.74152" lon="7.36852">
        <ele>255.312195</ele>
        <time>2012-01-29T09:14:26Z</time>
      </trkpt>
      <trkpt lat="47.74163" lon="7.3683">
        <ele>253.688293</ele>
        <time>2012-01-29T09:14:29Z</time>
      </trkpt>
      <trkpt lat="47.74166" lon="7.36808">
        <ele>254.686218</ele>
        <time>2012-01-29T09:14:32Z</time>
      </trkpt>
      <trkpt lat="47.74152" lon="7.36787">
        <ele>256.282898</ele>
        <time>2012-01-29T09:14:36Z</time>
      </trkpt>
      <trkpt lat="47.74139" lon="7.36783">
        <ele>255.654419</ele>
        <time>2012-01-29T09:14:39Z</time>
      </trkpt>
      <trkpt lat="47.74127" lon="7.36789">
        <ele>255.365417</ele>
        <time>2012-01-29T09:14:42Z</time>
      </trkpt>
      <trkpt lat="47.74118" lon="7.36795">
        <ele>254.033325</ele>
        <time>2012-01-29T09:14:45Z</time>
      </trkpt>
      <trkpt lat="47.74109" lon="7.368">
        <ele>254.586945</ele>
        <time>2012-01-29T09:14:49Z</time>
      </trkpt>
      <trkpt lat="47.74104" lon="7.36805">
        <ele>254.838806</ele>
        <time>2012-01-29T09:14:52Z</time>
      </trkpt>
      <trkpt lat="47.741" lon="7.36807">
        <ele>255.431519</ele>
        <time>2012-01-29T09:14:55Z</time>
      </trkpt>
      <trkpt lat="47.74097" lon="7.36809">
        <ele>255.158722</ele>
        <time>2012-01-29T09:14:58Z</time>
      </trkpt>
      <trkpt lat="47.74093" lon="7.3681">
        <ele>255.446594</ele>
        <time>2012-01-29T09:15:01Z</time>
      </trkpt>
      <trkpt lat="47.74089" lon="7.36814">
        <ele>256.414368</ele>
        <time>2012-01-29T09:15:05Z</time>
      </trkpt>
      <trkpt lat="47.74087" lon="7.36816">
        <ele>257.487946</ele>
        <time>2012-01-29T09:15:08Z</time>
      </trkpt>
      <trkpt lat="47.74083" lon="7.36819">
        <ele>256.229767</ele>
        <time>2012-01-29T09:15:11Z</time>
      </trkpt>
      <trkpt lat="47.74078" lon="7.3682">
        <ele>256.482422</ele>
        <time>2012-01-29T09:15:14Z</time>
      </trkpt>
      <trkpt lat="47.74078" lon="7.36822">
        <ele>257.068542</ele>
        <time>2012-01-29T09:15:17Z</time>
      </trkpt>
      <trkpt lat="47.74083" lon="7.3682">
        <ele>255.775085</ele>
        <time>2012-01-29T09:15:21Z</time>
      </trkpt>
      <trkpt lat="47.74087" lon="7.36817">
        <ele>257.186707</ele>
        <time>2012-01-29T09:15:24Z</time>
      </trkpt>
      <trkpt lat="47.7409" lon="7.36815">
        <ele>258.137543</ele>
        <time>2012-01-29T09:15:27Z</time>
      </trkpt>
      <trkpt lat="47.74091" lon="7.36815">
        <ele>253.962219</ele>
        <time>2012-01-29T09:15:31Z</time>
      </trkpt>
      <trkpt lat="47.74094" lon="7.36815">
        <ele>255.262238</ele>
        <time>2012-01-29T09:15:34Z</time>
      </trkpt>
      <trkpt lat="47.74094" lon="7.36813">
        <ele>256.471832</ele>
        <time>2012-01-29T09:15:37Z</time>
      </trkpt>
      <trkpt lat="47.74091" lon="7.36815">
        <ele>256.229004</ele>
        <time>2012-01-29T09:15:40Z</time>
      </trkpt>
      <trkpt lat="47.74088" lon="7.36817">
        <ele>256.415161</ele>
        <time>2012-01-29T09:15:44Z</time>
      </trkpt>
      <trkpt lat="47.74088" lon="7.36817">
        <ele>257.626526</ele>
        <time>2012-01-29T09:15:47Z</time>
      </trkpt>
      <trkpt lat="47.74083" lon="7.36816">
        <ele>260.656738</ele>
        <time>2012-01-29T09:15:50Z</time>
      </trkpt>
      <trkpt lat="47.74079" lon="7.36819">
        <ele>258.786377</ele>
        <time>2012-01-29T09:15:53Z</time>
      </trkpt>
      <trkpt lat="47.74074" lon="7.36823">
        <ele>259.194366</ele>
        <time>2012-01-29T09:15:57Z</time>
      </trkpt>
      <trkpt lat="47.74071" lon="7.36827">
        <ele>260.822601</ele>
        <time>2012-01-29T09:16:00Z</time>
      </trkpt>
      <trkpt lat="47.74066" lon="7.3683">
        <ele>255.679047</ele>
        <time>2012-01-29T09:16:03Z</time>
      </trkpt>
      <trkpt lat="47.7406" lon="7.36834">
        <ele>256.787201</ele>
        <time>2012-01-29T09:16:06Z</time>
      </trkpt>
      <trkpt lat="47.7405" lon="7.36841">
        <ele>255.870331</ele>
        <time>2012-01-29T09:16:10Z</time>
      </trkpt>
      <trkpt lat="47.74041" lon="7.36848">
        <ele>256.191528</ele>
        <time>2012-01-29T09:16:13Z</time>
      </trkpt>
      <trkpt lat="47.74032" lon="7.36855">
        <ele>255.41272</ele>
        <time>2012-01-29T09:16:16Z</time>
      </trkpt>
      <trkpt lat="47.74021" lon="7.36861">
        <ele>255.908661</ele>
        <time>2012-01-29T09:16:19Z</time>
      </trkpt>
      <trkpt lat="47.74008" lon="7.36849">
        <ele>255.578003</ele>
        <time>2012-01-29T09:16:23Z</time>
      </trkpt>
      <trkpt lat="47.74" lon="7.36833">
        <ele>254.045715</ele>
        <time>2012-01-29T09:16:26Z</time>
      </trkpt>
      <trkpt lat="47.73986" lon="7.36809">
        <ele>254.823517</ele>
        <time>2012-01-29T09:16:30Z</time>
      </trkpt>
      <trkpt lat="47.73977" lon="7.36792">
        <ele>254.291443</ele>
        <time>2012-01-29T09:16:33Z</time>
      </trkpt>
      <trkpt lat="47.73969" lon="7.36774">
        <ele>253.675385</ele>
        <time>2012-01-29T09:16:36Z</time>
      </trkpt>
      <trkpt lat="47.73958" lon="7.3675">
        <ele>254.036713</ele>
        <time>2012-01-29T09:16:40Z</time>
      </trkpt>
      <trkpt lat="47.7395" lon="7.36735">
        <ele>252.261963</ele>
        <time>2012-01-29T09:16:43Z</time>
      </trkpt>
      <trkpt lat="47.73942" lon="7.36717">
        <ele>255.86087</ele>
        <time>2012-01-29T09:16:46Z</time>
      </trkpt>
      <trkpt lat="47.73932" lon="7.36698">
        <ele>254.448242</ele>
        <time>2012-01-29T09:16:49Z</time>
      </trkpt>
      <trkpt lat="47.73919" lon="7.36673">
        <ele>253.156647</ele>
        <time>2012-01-29T09:16:53Z</time>
      </trkpt>
      <trkpt lat="47.73911" lon="7.36656">
        <ele>259.494995</ele>
        <time>2012-01-29T09:16:56Z</time>
      </trkpt>
      <trkpt lat="47.73902" lon="7.36638">
        <ele>256.851288</ele>
        <time>2012-01-29T09:16:59Z</time>
      </trkpt>
      <trkpt lat="47.7389" lon="7.36609">
        <ele>247.752228</ele>
        <time>2012-01-29T09:17:03Z</time>
      </trkpt>
      <trkpt lat="47.73882" lon="7.36588">
        <ele>256.526245</ele>
        <time>2012-01-29T09:17:06Z</time>
      </trkpt>
      <trkpt lat="47.73874" lon="7.36568">
        <ele>258.729889</ele>
        <time>2012-01-29T09:17:09Z</time>
      </trkpt>
      <trkpt lat="47.73861" lon="7.36543">
        <ele>259.671021</ele>
        <time>2012-01-29T09:17:13Z</time>
      </trkpt>
      <trkpt lat="47.73851" lon="7.36522">
        <ele>259.941833</ele>
        <time>2012-01-29T09:17:16Z</time>
      </trkpt>
      <trkpt lat="47.73842" lon="7.36506">
        <ele>255.94339</ele>
        <time>2012-01-29T09:17:19Z</time>
      </trkpt>
      <trkpt lat="47.73834" lon="7.36487">
        <ele>257.61792</ele>
        <time>2012-01-29T09:17:22Z</time>
      </trkpt>
      <trkpt lat="47.7383" lon="7.36464">
        <ele>257.067566</ele>
        <time>2012-01-29T09:17:26Z</time>
      </trkpt>
      <trkpt lat="47.73838" lon="7.36445">
        <ele>255.914337</ele>
        <time>2012-01-29T09:17:29Z</time>
      </trkpt>
      <trkpt lat="47.73848" lon="7.3643">
        <ele>255.991425</ele>
        <time>2012-01-29T09:17:32Z</time>
      </trkpt>
      <trkpt lat="47.73855" lon="7.36418">
        <ele>252.968811</ele>
        <time>2012-01-29T09:17:35Z</time>
      </trkpt>
      <trkpt lat="47.73855" lon="7.36408">
        <ele>257.526062</ele>
        <time>2012-01-29T09:17:39Z</time>
      </trkpt>
      <trkpt lat="47.73848" lon="7.36396">
        <ele>257.985443</ele>
        <time>2012-01-29T09:17:42Z</time>
      </trkpt>
      <trkpt lat="47.73835" lon="7.36376">
        <ele>256.706757</ele>
        <time>2012-01-29T09:17:46Z</time>
      </trkpt>
      <trkpt lat="47.73824" lon="7.36363">
        <ele>258.093201</ele>
        <time>2012-01-29T09:17:49Z</time>
      </trkpt>
      <trkpt lat="47.73811" lon="7.36347">
        <ele>260.686951</ele>
        <time>2012-01-29T09:17:52Z</time>
      </trkpt>
      <trkpt lat="47.73801" lon="7.36336">
        <ele>259.348877</ele>
        <time>2012-01-29T09:17:55Z</time>
      </trkpt>
      <trkpt lat="47.7379" lon="7.36323">
        <ele>253.972839</ele>
        <time>2012-01-29T09:17:59Z</time>
      </trkpt>
      <trkpt lat="47.73786" lon="7.36315">
        <ele>255.326508</ele>
        <time>2012-01-29T09:18:02Z</time>
      </trkpt>
      <trkpt lat="47.73786" lon="7.36315">
        <ele>255.326508</ele>
        <time>2012-01-29T09:18:06Z</time>
      </trkpt>
      <trkpt lat="47.73786" lon="7.36315">
        <ele>255.326508</ele>
        <time>2012-01-29T09:18:09Z</time>
      </trkpt>
      <trkpt lat="47.73786" lon="7.36316">
        <ele>259.86441</ele>
        <time>2012-01-29T09:18:12Z</time>
      </trkpt>
      <trkpt lat="47.73784" lon="7.36311">
        <ele>259.58786</ele>
        <time>2012-01-29T09:18:16Z</time>
      </trkpt>
      <trkpt lat="47.73786" lon="7.36299">
        <ele>259.189423</ele>
        <time>2012-01-29T09:18:19Z</time>
      </trkpt>
      <trkpt lat="47.7379" lon="7.36285">
        <ele>257.386383</ele>
        <time>2012-01-29T09:18:22Z</time>
      </trkpt>
      <trkpt lat="47.73794" lon="7.36269">
        <ele>259.394897</ele>
        <time>2012-01-29T09:18:26Z</time>
      </trkpt>
      <trkpt lat="47.73797" lon="7.36256">
        <ele>259.45462</ele>
        <time>2012-01-29T09:18:29Z</time>
      </trkpt>
      <trkpt lat="47.73801" lon="7.36245">
        <ele>262.838074</ele>
        <time>2012-01-29T09:18:32Z</time>
      </trkpt>
      <trkpt lat="47.73806" lon="7.36229">
        <ele>261.131409</ele>
        <time>2012-01-29T09:18:36Z</time>
      </trkpt>
      <trkpt lat="47.73809" lon="7.36217">
        <ele>263.473572</ele>
        <time>2012-01-29T09:18:39Z</time>
      </trkpt>
      <trkpt lat="47.73811" lon="7.36209">
        <ele>264.243652</ele>
        <time>2012-01-29T09:18:42Z</time>
      </trkpt>
      <trkpt lat="47.73816" lon="7.36198">
        <ele>266.943085</ele>
        <time>2012-01-29T09:18:45Z</time>
      </trkpt>
      <trkpt lat="47.73821" lon="7.36183">
        <ele>270.678436</ele>
        <time>2012-01-29T09:18:49Z</time>
      </trkpt>
      <trkpt lat="47.73825" lon="7.36173">
        <ele>268.381683</ele>
        <time>2012-01-29T09:18:52Z</time>
      </trkpt>
      <trkpt lat="47.73829" lon="7.36162">
        <ele>269.290466</ele>
        <time>2012-01-29T09:18:55Z</time>
      </trkpt>
      <trkpt lat="47.73837" lon="7.36142">
        <ele>268.710632</ele>
        <time>2012-01-29T09:19:00Z</time>
      </trkpt>
      <trkpt lat="47.73843" lon="7.3613">
        <ele>268.219482</ele>
        <time>2012-01-29T09:19:03Z</time>
      </trkpt>
      <trkpt lat="47.7385" lon="7.36119">
        <ele>265.568939</ele>
        <time>2012-01-29T09:19:06Z</time>
      </trkpt>
      <trkpt lat="47.73857" lon="7.36104">
        <ele>266.875702</ele>
        <time>2012-01-29T09:19:10Z</time>
      </trkpt>
      <trkpt lat="47.73861" lon="7.36093">
        <ele>268.079529</ele>
        <time>2012-01-29T09:19:13Z</time>
      </trkpt>
      <trkpt lat="47.73857" lon="7.36081">
        <ele>269.3255</ele>
        <time>2012-01-29T09:19:16Z</time>
      </trkpt>
      <trkpt lat="47.73849" lon="7.36062">
        <ele>272.309357</ele>
        <time>2012-01-29T09:19:20Z</time>
      </trkpt>
      <trkpt lat="47.73843" lon="7.36051">
        <ele>271.798676</ele>
        <time>2012-01-29T09:19:23Z</time>
      </trkpt>
      <trkpt lat="47.73838" lon="7.36043">
        <ele>268.25061</ele>
        <time>2012-01-29T09:19:26Z</time>
      </trkpt>
      <trkpt lat="47.73833" lon="7.36033">
        <ele>269.079742</ele>
        <time>2012-01-29T09:19:29Z</time>
      </trkpt>
      <trkpt lat="47.73824" lon="7.36021">
        <ele>273.477966</ele>
        <time>2012-01-29T09:19:33Z</time>
      </trkpt>
      <trkpt lat="47.73818" lon="7.36013">
        <ele>269.546906</ele>
        <time>2012-01-29T09:19:36Z</time>
      </trkpt>
      <trkpt lat="47.73811" lon="7.36002">
        <ele>271.847687</ele>
        <time>2012-01-29T09:19:39Z</time>
      </trkpt>
      <trkpt lat="47.73801" lon="7.35984">
        <ele>276.925537</ele>
        <time>2012-01-29T09:19:43Z</time>
      </trkpt>
      <trkpt lat="47.73794" lon="7.3597">
        <ele>274.489838</ele>
        <time>2012-01-29T09:19:46Z</time>
      </trkpt>
      <trkpt lat="47.73786" lon="7.35954">
        <ele>272.444977</ele>
        <time>2012-01-29T09:19:49Z</time>
      </trkpt>
      <trkpt lat="47.73778" lon="7.35938">
        <ele>273.672607</ele>
        <time>2012-01-29T09:19:52Z</time>
      </trkpt>
      <trkpt lat="47.73769" lon="7.35915">
        <ele>273.847321</ele>
        <time>2012-01-29T09:19:56Z</time>
      </trkpt>
      <trkpt lat="47.73761" lon="7.35898">
        <ele>278.70813</ele>
        <time>2012-01-29T09:19:59Z</time>
      </trkpt>
      <trkpt lat="47.73754" lon="7.35882">
        <ele>271.595978</ele>
        <time>2012-01-29T09:20:02Z</time>
      </trkpt>
      <trkpt lat="47.73751" lon="7.35876">
        <ele>268.34436</ele>
        <time>2012-01-29T09:20:05Z</time>
      </trkpt>
      <trkpt lat="47.73741" lon="7.35866">
        <ele>267.101227</ele>
        <time>2012-01-29T09:20:09Z</time>
      </trkpt>
      <trkpt lat="47.73732" lon="7.35855">
        <ele>271.506134</ele>
        <time>2012-01-29T09:20:12Z</time>
      </trkpt>
      <trkpt lat="47.73722" lon="7.35842">
        <ele>273.490173</ele>
        <time>2012-01-29T09:20:15Z</time>
      </trkpt>
      <trkpt lat="47.73713" lon="7.35829">
        <ele>277.506592</ele>
        <time>2012-01-29T09:20:18Z</time>
      </trkpt>
      <trkpt lat="47.73701" lon="7.35817">
        <ele>284.86496</ele>
        <time>2012-01-29T09:20:22Z</time>
      </trkpt>
      <trkpt lat="47.73689" lon="7.35812">
        <ele>285.843994</ele>
        <time>2012-01-29T09:20:25Z</time>
      </trkpt>
      <trkpt lat="47.73681" lon="7.35811">
        <ele>286.366211</ele>
        <time>2012-01-29T09:20:28Z</time>
      </trkpt>
      <trkpt lat="47.73665" lon="7.3581">
        <ele>284.210388</ele>
        <time>2012-01-29T09:20:32Z</time>
      </trkpt>
      <trkpt lat="47.73655" lon="7.35807">
        <ele>285.685669</ele>
        <time>2012-01-29T09:20:35Z</time>
      </trkpt>
      <trkpt lat="47.73647" lon="7.35803">
        <ele>286.768707</ele>
        <time>2012-01-29T09:20:38Z</time>
      </trkpt>
      <trkpt lat="47.73637" lon="7.358">
        <ele>284.169281</ele>
        <time>2012-01-29T09:20:42Z</time>
      </trkpt>
      <trkpt lat="47.7363" lon="7.35796">
        <ele>289.475555</ele>
        <time>2012-01-29T09:20:45Z</time>
      </trkpt>
      <trkpt lat="47.73624" lon="7.3579">
        <ele>292.206329</ele>
        <time>2012-01-29T09:20:48Z</time>
      </trkpt>
      <trkpt lat="47.7362" lon="7.3578">
        <ele>286.009674</ele>
        <time>2012-01-29T09:20:52Z</time>
      </trkpt>
      <trkpt lat="47.73612" lon="7.35763">
        <ele>282.400116</ele>
        <time>2012-01-29T09:20:55Z</time>
      </trkpt>
      <trkpt lat="47.73606" lon="7.35753">
        <ele>281.518707</ele>
        <time>2012-01-29T09:20:58Z</time>
      </trkpt>
      <trkpt lat="47.73593" lon="7.35734">
        <ele>281.602966</ele>
        <time>2012-01-29T09:21:02Z</time>
      </trkpt>
      <trkpt lat="47.73586" lon="7.35717">
        <ele>273.700195</ele>
        <time>2012-01-29T09:21:05Z</time>
      </trkpt>
      <trkpt lat="47.73583" lon="7.35698">
        <ele>278.853577</ele>
        <time>2012-01-29T09:21:08Z</time>
      </trkpt>
      <trkpt lat="47.73582" lon="7.35672">
        <ele>289.187866</ele>
        <time>2012-01-29T09:21:12Z</time>
      </trkpt>
      <trkpt lat="47.73579" lon="7.35654">
        <ele>285.350067</ele>
        <time>2012-01-29T09:21:15Z</time>
      </trkpt>
      <trkpt lat="47.73576" lon="7.35637">
        <ele>288.871826</ele>
        <time>2012-01-29T09:21:18Z</time>
      </trkpt>
      <trkpt lat="47.73571" lon="7.35611">
        <ele>291.562286</ele>
        <time>2012-01-29T09:21:22Z</time>
      </trkpt>
      <trkpt lat="47.73564" lon="7.35595">
        <ele>294.949493</ele>
        <time>2012-01-29T09:21:25Z</time>
      </trkpt>
      <trkpt lat="47.7356" lon="7.35578">
        <ele>295.916168</ele>
        <time>2012-01-29T09:21:28Z</time>
      </trkpt>
      <trkpt lat="47.73557" lon="7.35563">
        <ele>289.612946</ele>
        <time>2012-01-29T09:21:31Z</time>
      </trkpt>
      <trkpt lat="47.73553" lon="7.35549">
        <ele>287.240112</ele>
        <time>2012-01-29T09:21:35Z</time>
      </trkpt>
      <trkpt lat="47.73552" lon="7.35538">
        <ele>287.618469</ele>
        <time>2012-01-29T09:21:38Z</time>
      </trkpt>
      <trkpt lat="47.73549" lon="7.35523">
        <ele>286.440369</ele>
        <time>2012-01-29T09:21:41Z</time>
      </trkpt>
      <trkpt lat="47.73545" lon="7.35508">
        <ele>288.107819</ele>
        <time>2012-01-29T09:21:45Z</time>
      </trkpt>
      <trkpt lat="47.73544" lon="7.355">
        <ele>290.435791</ele>
        <time>2012-01-29T09:21:48Z</time>
      </trkpt>
      <trkpt lat="47.7354" lon="7.35495">
        <ele>295.253204</ele>
        <time>2012-01-29T09:21:51Z</time>
      </trkpt>
      <trkpt lat="47.73533" lon="7.35484">
        <ele>298.460083</ele>
        <time>2012-01-29T09:21:55Z</time>
      </trkpt>
      <trkpt lat="47.73528" lon="7.35473">
        <ele>294.740295</ele>
        <time>2012-01-29T09:21:58Z</time>
      </trkpt>
      <trkpt lat="47.73524" lon="7.35459">
        <ele>292.894348</ele>
        <time>2012-01-29T09:22:01Z</time>
      </trkpt>
      <trkpt lat="47.73522" lon="7.3545">
        <ele>296.835632</ele>
        <time>2012-01-29T09:22:05Z</time>
      </trkpt>
      <trkpt lat="47.73517" lon="7.35444">
        <ele>296.16153</ele>
        <time>2012-01-29T09:22:08Z</time>
      </trkpt>
      <trkpt lat="47.73509" lon="7.35434">
        <ele>300.223602</ele>
        <time>2012-01-29T09:22:11Z</time>
      </trkpt>
      <trkpt lat="47.73499" lon="7.35416">
        <ele>312.639099</ele>
        <time>2012-01-29T09:22:15Z</time>
      </trkpt>
      <trkpt lat="47.73491" lon="7.35402">
        <ele>305.017761</ele>
        <time>2012-01-29T09:22:18Z</time>
      </trkpt>
      <trkpt lat="47.73479" lon="7.35386">
        <ele>303.288605</ele>
        <time>2012-01-29T09:22:22Z</time>
      </trkpt>
      <trkpt lat="47.73469" lon="7.35376">
        <ele>310.380219</ele>
        <time>2012-01-29T09:22:25Z</time>
      </trkpt>
      <trkpt lat="47.7346" lon="7.35363">
        <ele>304.629913</ele>
        <time>2012-01-29T09:22:28Z</time>
      </trkpt>
      <trkpt lat="47.7345" lon="7.35342">
        <ele>301.187683</ele>
        <time>2012-01-29T09:22:32Z</time>
      </trkpt>
      <trkpt lat="47.73439" lon="7.35328">
        <ele>302.19046</ele>
        <time>2012-01-29T09:22:35Z</time>
      </trkpt>
      <trkpt lat="47.73427" lon="7.35316">
        <ele>302.365356</ele>
        <time>2012-01-29T09:22:39Z</time>
      </trkpt>
      <trkpt lat="47.73418" lon="7.35307">
        <ele>304.651306</ele>
        <time>2012-01-29T09:22:42Z</time>
      </trkpt>
      <trkpt lat="47.73409" lon="7.35303">
        <ele>302.593719</ele>
        <time>2012-01-29T09:22:45Z</time>
      </trkpt>
      <trkpt lat="47.73394" lon="7.35292">
        <ele>311.668091</ele>
        <time>2012-01-29T09:22:49Z</time>
      </trkpt>
      <trkpt lat="47.73384" lon="7.35282">
        <ele>311.403503</ele>
        <time>2012-01-29T09:22:52Z</time>
      </trkpt>
      <trkpt lat="47.73375" lon="7.35273">
        <ele>313.085114</ele>
        <time>2012-01-29T09:22:55Z</time>
      </trkpt>
      <trkpt lat="47.73363" lon="7.3526">
        <ele>314.316193</ele>
        <time>2012-01-29T09:22:59Z</time>
      </trkpt>
      <trkpt lat="47.73351" lon="7.35249">
        <ele>313.211548</ele>
        <time>2012-01-29T09:23:02Z</time>
      </trkpt>
      <trkpt lat="47.7334" lon="7.35235">
        <ele>315.61087</ele>
        <time>2012-01-29T09:23:06Z</time>
      </trkpt>
      <trkpt lat="47.73328" lon="7.35221">
        <ele>311.913239</ele>
        <time>2012-01-29T09:23:09Z</time>
      </trkpt>
      <trkpt lat="47.73309" lon="7.35206">
        <ele>315.070068</ele>
        <time>2012-01-29T09:23:13Z</time>
      </trkpt>
      <trkpt lat="47.73299" lon="7.35198">
        <ele>322.681488</ele>
        <time>2012-01-29T09:23:16Z</time>
      </trkpt>
      <trkpt lat="47.73289" lon="7.35188">
        <ele>322.750458</ele>
        <time>2012-01-29T09:23:19Z</time>
      </trkpt>
      <trkpt lat="47.73276" lon="7.35173">
        <ele>320.534546</ele>
        <time>2012-01-29T09:23:23Z</time>
      </trkpt>
      <trkpt lat="47.73269" lon="7.35159">
        <ele>313.723053</ele>
        <time>2012-01-29T09:23:26Z</time>
      </trkpt>
      <trkpt lat="47.73257" lon="7.35135">
        <ele>307.607819</ele>
        <time>2012-01-29T09:23:30Z</time>
      </trkpt>
      <trkpt lat="47.73245" lon="7.35118">
        <ele>307.669373</ele>
        <time>2012-01-29T09:23:33Z</time>
      </trkpt>
      <trkpt lat="47.73238" lon="7.35105">
        <ele>308.15567</ele>
        <time>2012-01-29T09:23:36Z</time>
      </trkpt>
      <trkpt lat="47.7323" lon="7.35084">
        <ele>313.852753</ele>
        <time>2012-01-29T09:23:40Z</time>
      </trkpt>
      <trkpt lat="47.73222" lon="7.3507">
        <ele>315.853455</ele>
        <time>2012-01-29T09:23:43Z</time>
      </trkpt>
      <trkpt lat="47.73208" lon="7.35048">
        <ele>310.807953</ele>
        <time>2012-01-29T09:23:47Z</time>
      </trkpt>
      <trkpt lat="47.73196" lon="7.35033">
        <ele>304.44696</ele>
        <time>2012-01-29T09:23:50Z</time>
      </trkpt>
      <trkpt lat="47.73178" lon="7.35016">
        <ele>304.644043</ele>
        <time>2012-01-29T09:23:54Z</time>
      </trkpt>
      <trkpt lat="47.73169" lon="7.35">
        <ele>305.818268</ele>
        <time>2012-01-29T09:23:57Z</time>
      </trkpt>
      <trkpt lat="47.73159" lon="7.34985">
        <ele>302.100983</ele>
        <time>2012-01-29T09:24:00Z</time>
      </trkpt>
      <trkpt lat="47.7315" lon="7.34964">
        <ele>308.113739</ele>
        <time>2012-01-29T09:24:04Z</time>
      </trkpt>
      <trkpt lat="47.73144" lon="7.34953">
        <ele>312.449921</ele>
        <time>2012-01-29T09:24:07Z</time>
      </trkpt>
      <trkpt lat="47.73135" lon="7.34937">
        <ele>317.811371</ele>
        <time>2012-01-29T09:24:11Z</time>
      </trkpt>
      <trkpt lat="47.73131" lon="7.34921">
        <ele>309.123749</ele>
        <time>2012-01-29T09:24:14Z</time>
      </trkpt>
      <trkpt lat="47.73129" lon="7.34903">
        <ele>308.625</ele>
        <time>2012-01-29T09:24:17Z</time>
      </trkpt>
      <trkpt lat="47.73128" lon="7.34888">
        <ele>310.889069</ele>
        <time>2012-01-29T09:24:21Z</time>
      </trkpt>
      <trkpt lat="47.73128" lon="7.34888">
        <ele>306.293213</ele>
        <time>2012-01-29T09:24:24Z</time>
      </trkpt>
      <trkpt lat="47.73128" lon="7.34888">
        <ele>310.777863</ele>
        <time>2012-01-29T09:24:28Z</time>
      </trkpt>
      <trkpt lat="47.73128" lon="7.34884">
        <ele>312.289703</ele>
        <time>2012-01-29T09:24:31Z</time>
      </trkpt>
      <trkpt lat="47.73128" lon="7.34884">
        <ele>319.433746</ele>
        <time>2012-01-29T09:24:35Z</time>
      </trkpt>
      <trkpt lat="47.73128" lon="7.34884">
        <ele>329.866028</ele>
        <time>2012-01-29T09:24:38Z</time>
      </trkpt>
      <trkpt lat="47.73128" lon="7.34884">
        <ele>325.068848</ele>
        <time>2012-01-29T09:24:41Z</time>
      </trkpt>
      <trkpt lat="47.73128" lon="7.34884">
        <ele>315.888611</ele>
        <time>2012-01-29T09:24:45Z</time>
      </trkpt>
      <trkpt lat="47.73131" lon="7.34878">
        <ele>309.698151</ele>
        <time>2012-01-29T09:24:48Z</time>
      </trkpt>
      <trkpt lat="47.73131" lon="7.34878">
        <ele>309.053192</ele>
        <time>2012-01-29T09:24:52Z</time>
      </trkpt>
      <trkpt lat="47.73131" lon="7.34878">
        <ele>308.611908</ele>
        <time>2012-01-29T09:24:55Z</time>
      </trkpt>
      <trkpt lat="47.73131" lon="7.34878">
        <ele>315.206879</ele>
        <time>2012-01-29T09:24:58Z</time>
      </trkpt>
      <trkpt lat="47.73131" lon="7.34878">
        <ele>327.901672</ele>
        <time>2012-01-29T09:25:02Z</time>
      </trkpt>
      <trkpt lat="47.73131" lon="7.34878">
        <ele>323.832184</ele>
        <time>2012-01-29T09:25:05Z</time>
      </trkpt>
      <trkpt lat="47.73131" lon="7.34878">
        <ele>323.887848</ele>
        <time>2012-01-29T09:25:08Z</time>
      </trkpt>
      <trkpt lat="47.73131" lon="7.34878">
        <ele>326.045074</ele>
        <time>2012-01-29T09:25:12Z</time>
      </trkpt>
      <trkpt lat="47.73131" lon="7.34878">
        <ele>326.515198</ele>
        <time>2012-01-29T09:25:15Z</time>
      </trkpt>
      <trkpt lat="47.73131" lon="7.34878">
        <ele>327.212311</ele>
        <time>2012-01-29T09:25:18Z</time>
      </trkpt>
      <trkpt lat="47.73131" lon="7.34878">
        <ele>320.536163</ele>
        <time>2012-01-29T09:25:22Z</time>
      </trkpt>
      <trkpt lat="47.73131" lon="7.34878">
        <ele>319.023071</ele>
        <time>2012-01-29T09:25:25Z</time>
      </trkpt>
      <trkpt lat="47.7314" lon="7.34874">
        <ele>325.008453</ele>
        <time>2012-01-29T09:25:29Z</time>
      </trkpt>
      <trkpt lat="47.7314" lon="7.34874">
        <ele>320.085022</ele>
        <time>2012-01-29T09:25:32Z</time>
      </trkpt>
      <trkpt lat="47.7314" lon="7.34874">
        <ele>306.213348</ele>
        <time>2012-01-29T09:25:35Z</time>
      </trkpt>
      <trkpt lat="47.7314" lon="7.34874">
        <ele>315.302612</ele>
        <time>2012-01-29T09:25:39Z</time>
      </trkpt>
      <trkpt lat="47.7314" lon="7.34874">
        <ele>329.258667</ele>
        <time>2012-01-29T09:25:42Z</time>
      </trkpt>
      <trkpt lat="47.7314" lon="7.34874">
        <ele>338.261658</ele>
        <time>2012-01-29T09:25:46Z</time>
      </trkpt>
      <trkpt lat="47.7314" lon="7.34874">
        <ele>341.899506</ele>
        <time>2012-01-29T09:25:49Z</time>
      </trkpt>
      <trkpt lat="47.7314" lon="7.34874">
        <ele>334.842804</ele>
        <time>2012-01-29T09:25:53Z</time>
      </trkpt>
      <trkpt lat="47.7314" lon="7.34874">
        <ele>312.599976</ele>
        <time>2012-01-29T09:25:56Z</time>
      </trkpt>
      <trkpt lat="47.7314" lon="7.34874">
        <ele>321.187012</ele>
        <time>2012-01-29T09:25:59Z</time>
      </trkpt>
      <trkpt lat="47.7314" lon="7.34874">
        <ele>323.224304</ele>
        <time>2012-01-29T09:26:03Z</time>
      </trkpt>
      <trkpt lat="47.7314" lon="7.34874">
        <ele>305.41217</ele>
        <time>2012-01-29T09:26:06Z</time>
      </trkpt>
      <trkpt lat="47.7314" lon="7.34874">
        <ele>311.083557</ele>
        <time>2012-01-29T09:26:09Z</time>
      </trkpt>
      <trkpt lat="47.7314" lon="7.34874">
        <ele>309.458527</ele>
        <time>2012-01-29T09:26:13Z</time>
      </trkpt>
      <trkpt lat="47.7314" lon="7.34874">
        <ele>308.727417</ele>
        <time>2012-01-29T09:26:16Z</time>
      </trkpt>
      <trkpt lat="47.7314" lon="7.34874">
        <ele>314.572479</ele>
        <time>2012-01-29T09:26:19Z</time>
      </trkpt>
      <trkpt lat="47.7314" lon="7.34874">
        <ele>318.868652</ele>
        <time>2012-01-29T09:26:23Z</time>
      </trkpt>
      <trkpt lat="47.7314" lon="7.34874">
        <ele>326.815796</ele>
        <time>2012-01-29T09:26:26Z</time>
      </trkpt>
      <trkpt lat="47.73145" lon="7.3485">
        <ele>331.362732</ele>
        <time>2012-01-29T09:26:30Z</time>
      </trkpt>
      <trkpt lat="47.73145" lon="7.3485">
        <ele>318.077881</ele>
        <time>2012-01-29T09:26:33Z</time>
      </trkpt>
      <trkpt lat="47.73145" lon="7.3485">
        <ele>322.180969</ele>
        <time>2012-01-29T09:26:37Z</time>
      </trkpt>
      <trkpt lat="47.73145" lon="7.3485">
        <ele>329.378021</ele>
        <time>2012-01-29T09:26:40Z</time>
      </trkpt>
      <trkpt lat="47.73145" lon="7.3485">
        <ele>333.651306</ele>
        <time>2012-01-29T09:26:43Z</time>
      </trkpt>
      <trkpt lat="47.73145" lon="7.3485">
        <ele>337.660217</ele>
        <time>2012-01-29T09:26:47Z</time>
      </trkpt>
      <trkpt lat="47.73145" lon="7.3485">
        <ele>326.953186</ele>
        <time>2012-01-29T09:26:50Z</time>
      </trkpt>
      <trkpt lat="47.73145" lon="7.3485">
        <ele>333.46228</ele>
        <time>2012-01-29T09:26:54Z</time>
      </trkpt>
      <trkpt lat="47.73145" lon="7.3485">
        <ele>331.365387</ele>
        <time>2012-01-29T09:26:57Z</time>
      </trkpt>
      <trkpt lat="47.73145" lon="7.3485">
        <ele>323.565247</ele>
        <time>2012-01-29T09:27:00Z</time>
      </trkpt>
      <trkpt lat="47.73145" lon="7.3485">
        <ele>334.076782</ele>
        <time>2012-01-29T09:27:04Z</time>
      </trkpt>
      <trkpt lat="47.73145" lon="7.3485">
        <ele>348.142548</ele>
        <time>2012-01-29T09:27:07Z</time>
      </trkpt>
      <trkpt lat="47.73145" lon="7.3485">
        <ele>350.23053</ele>
        <time>2012-01-29T09:27:10Z</time>
      </trkpt>
      <trkpt lat="47.73145" lon="7.3485">
        <ele>355.72998</ele>
        <time>2012-01-29T09:27:14Z</time>
      </trkpt>
      <trkpt lat="47.73145" lon="7.3485">
        <ele>346.266357</ele>
        <time>2012-01-29T09:27:17Z</time>
      </trkpt>
      <trkpt lat="47.73145" lon="7.3485">
        <ele>335.379181</ele>
        <time>2012-01-29T09:27:20Z</time>
      </trkpt>
      <trkpt lat="47.73145" lon="7.3485">
        <ele>309.765717</ele>
        <time>2012-01-29T09:27:24Z</time>
      </trkpt>
      <trkpt lat="47.73145" lon="7.3485">
        <ele>310.470917</ele>
        <time>2012-01-29T09:27:27Z</time>
      </trkpt>
      <trkpt lat="47.73145" lon="7.3485">
        <ele>316.142151</ele>
        <time>2012-01-29T09:27:30Z</time>
      </trkpt>
      <trkpt lat="47.73145" lon="7.3485">
        <ele>334.175781</ele>
        <time>2012-01-29T09:27:34Z</time>
      </trkpt>
      <trkpt lat="47.73145" lon="7.3485">
        <ele>336.599915</ele>
        <time>2012-01-29T09:27:37Z</time>
      </trkpt>
      <trkpt lat="47.73145" lon="7.3485">
        <ele>331.843079</ele>
        <time>2012-01-29T09:27:40Z</time>
      </trkpt>
      <trkpt lat="47.73145" lon="7.3485">
        <ele>327.185181</ele>
        <time>2012-01-29T09:27:44Z</time>
      </trkpt>
      <trkpt lat="47.73145" lon="7.3485">
        <ele>325.943787</ele>
        <time>2012-01-29T09:27:47Z</time>
      </trkpt>
      <trkpt lat="47.73145" lon="7.3485">
        <ele>325.943634</ele>
        <time>2012-01-29T09:27:50Z</time>
      </trkpt>
      <trkpt lat="47.73145" lon="7.3485">
        <ele>324.148438</ele>
        <time>2012-01-29T09:27:54Z</time>
      </trkpt>
      <trkpt lat="47.73145" lon="7.3485">
        <ele>323.051575</ele>
        <time>2012-01-29T09:27:57Z</time>
      </trkpt>
      <trkpt lat="47.73145" lon="7.3485">
        <ele>316.371094</ele>
        <time>2012-01-29T09:28:01Z</time>
      </trkpt>
      <trkpt lat="47.73145" lon="7.3485">
        <ele>326.388702</ele>
        <time>2012-01-29T09:28:04Z</time>
      </trkpt>
      <trkpt lat="47.73145" lon="7.3485">
        <ele>325.827728</ele>
        <time>2012-01-29T09:28:07Z</time>
      </trkpt>
      <trkpt lat="47.73145" lon="7.3485">
        <ele>334.277069</ele>
        <time>2012-01-29T09:28:11Z</time>
      </trkpt>
      <trkpt lat="47.73145" lon="7.3485">
        <ele>340.979736</ele>
        <time>2012-01-29T09:28:14Z</time>
      </trkpt>
      <trkpt lat="47.73145" lon="7.3485">
        <ele>341.379028</ele>
        <time>2012-01-29T09:28:17Z</time>
      </trkpt>
      <trkpt lat="47.73145" lon="7.3485">
        <ele>342.378418</ele>
        <time>2012-01-29T09:28:21Z</time>
      </trkpt>
      <trkpt lat="47.73145" lon="7.3485">
        <ele>337.626068</ele>
        <time>2012-01-29T09:28:24Z</time>
      </trkpt>
      <trkpt lat="47.73145" lon="7.3485">
        <ele>342.763794</ele>
        <time>2012-01-29T09:28:27Z</time>
      </trkpt>
      <trkpt lat="47.73145" lon="7.3485">
        <ele>341.133514</ele>
        <time>2012-01-29T09:28:31Z</time>
      </trkpt>
      <trkpt lat="47.73145" lon="7.3485">
        <ele>329.692291</ele>
        <time>2012-01-29T09:28:34Z</time>
      </trkpt>
      <trkpt lat="47.73145" lon="7.3485">
        <ele>324.638916</ele>
        <time>2012-01-29T09:28:38Z</time>
      </trkpt>
      <trkpt lat="47.73145" lon="7.3485">
        <ele>311.074524</ele>
        <time>2012-01-29T09:28:41Z</time>
      </trkpt>
      <trkpt lat="47.73145" lon="7.3485">
        <ele>302.630554</ele>
        <time>2012-01-29T09:28:44Z</time>
      </trkpt>
      <trkpt lat="47.73145" lon="7.3485">
        <ele>309.86969</ele>
        <time>2012-01-29T09:28:48Z</time>
      </trkpt>
      <trkpt lat="47.73145" lon="7.3485">
        <ele>317.788391</ele>
        <time>2012-01-29T09:28:51Z</time>
      </trkpt>
      <trkpt lat="47.73145" lon="7.3485">
        <ele>315.856506</ele>
        <time>2012-01-29T09:28:54Z</time>
      </trkpt>
      <trkpt lat="47.73145" lon="7.3485">
        <ele>298.73587</ele>
        <time>2012-01-29T09:28:58Z</time>
      </trkpt>
      <trkpt lat="47.73145" lon="7.3485">
        <ele>312.485596</ele>
        <time>2012-01-29T09:29:01Z</time>
      </trkpt>
      <trkpt lat="47.73145" lon="7.3485">
        <ele>311.574615</ele>
        <time>2012-01-29T09:29:05Z</time>
      </trkpt>
      <trkpt lat="47.73145" lon="7.3485">
        <ele>303.507294</ele>
        <time>2012-01-29T09:29:08Z</time>
      </trkpt>
      <trkpt lat="47.73145" lon="7.3485">
        <ele>295.197662</ele>
        <time>2012-01-29T09:29:12Z</time>
      </trkpt>
      <trkpt lat="47.73145" lon="7.3485">
        <ele>313.41095</ele>
        <time>2012-01-29T09:29:15Z</time>
      </trkpt>
      <trkpt lat="47.73145" lon="7.3485">
        <ele>323.956879</ele>
        <time>2012-01-29T09:29:18Z</time>
      </trkpt>
      <trkpt lat="47.73143" lon="7.34869">
        <ele>336.256042</ele>
        <time>2012-01-29T09:29:22Z</time>
      </trkpt>
      <trkpt lat="47.73143" lon="7.34858">
        <ele>345.493591</ele>
        <time>2012-01-29T09:29:25Z</time>
      </trkpt>
      <trkpt lat="47.73143" lon="7.34848">
        <ele>344.144867</ele>
        <time>2012-01-29T09:29:29Z</time>
      </trkpt>
      <trkpt lat="47.73138" lon="7.34838">
        <ele>339.614929</ele>
        <time>2012-01-29T09:29:32Z</time>
      </trkpt>
      <trkpt lat="47.73138" lon="7.34827">
        <ele>337.451965</ele>
        <time>2012-01-29T09:29:36Z</time>
      </trkpt>
      <trkpt lat="47.73138" lon="7.34823">
        <ele>328.672211</ele>
        <time>2012-01-29T09:29:39Z</time>
      </trkpt>
      <trkpt lat="47.73135" lon="7.34814">
        <ele>318.144257</ele>
        <time>2012-01-29T09:29:43Z</time>
      </trkpt>
      <trkpt lat="47.73131" lon="7.34811">
        <ele>324.450317</ele>
        <time>2012-01-29T09:29:46Z</time>
      </trkpt>
      <trkpt lat="47.7313" lon="7.34805">
        <ele>330.544403</ele>
        <time>2012-01-29T09:29:50Z</time>
      </trkpt>
      <trkpt lat="47.73126" lon="7.34808">
        <ele>332.477509</ele>
        <time>2012-01-29T09:29:53Z</time>
      </trkpt>
      <trkpt lat="47.73117" lon="7.34817">
        <ele>331.673981</ele>
        <time>2012-01-29T09:29:57Z</time>
      </trkpt>
      <trkpt lat="47.73111" lon="7.34826">
        <ele>328.325378</ele>
        <time>2012-01-29T09:30:00Z</time>
      </trkpt>
      <trkpt lat="47.73104" lon="7.34836">
        <ele>331.261841</ele>
        <time>2012-01-29T09:30:04Z</time>
      </trkpt>
      <trkpt lat="47.73101" lon="7.34842">
        <ele>333.259857</ele>
        <time>2012-01-29T09:30:07Z</time>
      </trkpt>
      <trkpt lat="47.73095" lon="7.34853">
        <ele>336.628021</ele>
        <time>2012-01-29T09:30:11Z</time>
      </trkpt>
      <trkpt lat="47.73091" lon="7.34857">
        <ele>337.171082</ele>
        <time>2012-01-29T09:30:14Z</time>
      </trkpt>
      <trkpt lat="47.73086" lon="7.3486">
        <ele>340.057739</ele>
        <time>2012-01-29T09:30:18Z</time>
      </trkpt>
      <trkpt lat="47.73082" lon="7.34861">
        <ele>339.520477</ele>
        <time>2012-01-29T09:30:21Z</time>
      </trkpt>
      <trkpt lat="47.73075" lon="7.34866">
        <ele>336.425964</ele>
        <time>2012-01-29T09:30:25Z</time>
      </trkpt>
      <trkpt lat="47.73073" lon="7.34875">
        <ele>334.897766</ele>
        <time>2012-01-29T09:30:28Z</time>
      </trkpt>
      <trkpt lat="47.7307" lon="7.34891">
        <ele>336.697083</ele>
        <time>2012-01-29T09:30:32Z</time>
      </trkpt>
      <trkpt lat="47.73067" lon="7.34897">
        <ele>338.81778</ele>
        <time>2012-01-29T09:30:35Z</time>
      </trkpt>
      <trkpt lat="47.7306" lon="7.3491">
        <ele>339.293274</ele>
        <time>2012-01-29T09:30:39Z</time>
      </trkpt>
      <trkpt lat="47.73056" lon="7.34919">
        <ele>344.699127</ele>
        <time>2012-01-29T09:30:42Z</time>
      </trkpt>
      <trkpt lat="47.73051" lon="7.34934">
        <ele>344.306671</ele>
        <time>2012-01-29T09:30:46Z</time>
      </trkpt>
      <trkpt lat="47.73048" lon="7.34942">
        <ele>346.522369</ele>
        <time>2012-01-29T09:30:49Z</time>
      </trkpt>
      <trkpt lat="47.73045" lon="7.34949">
        <ele>337.630096</ele>
        <time>2012-01-29T09:30:54Z</time>
      </trkpt>
      <trkpt lat="47.73035" lon="7.34945">
        <ele>335.696136</ele>
        <time>2012-01-29T09:30:58Z</time>
      </trkpt>
      <trkpt lat="47.73025" lon="7.34945">
        <ele>338.782776</ele>
        <time>2012-01-29T09:31:01Z</time>
      </trkpt>
      <trkpt lat="47.73019" lon="7.34946">
        <ele>338.055481</ele>
        <time>2012-01-29T09:31:05Z</time>
      </trkpt>
      <trkpt lat="47.73014" lon="7.34943">
        <ele>332.605988</ele>
        <time>2012-01-29T09:31:08Z</time>
      </trkpt>
      <trkpt lat="47.73011" lon="7.34937">
        <ele>333.774261</ele>
        <time>2012-01-29T09:31:12Z</time>
      </trkpt>
      <trkpt lat="47.73008" lon="7.34938">
        <ele>340.723755</ele>
        <time>2012-01-29T09:31:15Z</time>
      </trkpt>
      <trkpt lat="47.73" lon="7.34944">
        <ele>339.442657</ele>
        <time>2012-01-29T09:31:19Z</time>
      </trkpt>
      <trkpt lat="47.72993" lon="7.34951">
        <ele>337.296295</ele>
        <time>2012-01-29T09:31:22Z</time>
      </trkpt>
      <trkpt lat="47.72976" lon="7.3496">
        <ele>337.72522</ele>
        <time>2012-01-29T09:31:26Z</time>
      </trkpt>
      <trkpt lat="47.72963" lon="7.34969">
        <ele>330.643005</ele>
        <time>2012-01-29T09:31:29Z</time>
      </trkpt>
      <trkpt lat="47.72953" lon="7.3498">
        <ele>329.30896</ele>
        <time>2012-01-29T09:31:33Z</time>
      </trkpt>
      <trkpt lat="47.72951" lon="7.34988">
        <ele>327.509186</ele>
        <time>2012-01-29T09:31:36Z</time>
      </trkpt>
      <trkpt lat="47.7296" lon="7.35002">
        <ele>326.312775</ele>
        <time>2012-01-29T09:31:40Z</time>
      </trkpt>
      <trkpt lat="47.72967" lon="7.35012">
        <ele>328.145386</ele>
        <time>2012-01-29T09:31:43Z</time>
      </trkpt>
      <trkpt lat="47.72978" lon="7.35032">
        <ele>331.889465</ele>
        <time>2012-01-29T09:31:47Z</time>
      </trkpt>
      <trkpt lat="47.72986" lon="7.35045">
        <ele>331.265198</ele>
        <time>2012-01-29T09:31:50Z</time>
      </trkpt>
      <trkpt lat="47.73" lon="7.35066">
        <ele>327.276611</ele>
        <time>2012-01-29T09:31:54Z</time>
      </trkpt>
      <trkpt lat="47.73012" lon="7.3508">
        <ele>328.128784</ele>
        <time>2012-01-29T09:31:57Z</time>
      </trkpt>
      <trkpt lat="47.73017" lon="7.35089">
        <ele>325.550201</ele>
        <time>2012-01-29T09:32:00Z</time>
      </trkpt>
      <trkpt lat="47.73019" lon="7.35094">
        <ele>320.565247</ele>
        <time>2012-01-29T09:32:05Z</time>
      </trkpt>
      <trkpt lat="47.73019" lon="7.35094">
        <ele>327.149139</ele>
        <time>2012-01-29T09:32:08Z</time>
      </trkpt>
      <trkpt lat="47.7302" lon="7.351">
        <ele>324.012604</ele>
        <time>2012-01-29T09:32:12Z</time>
      </trkpt>
      <trkpt lat="47.73022" lon="7.35108">
        <ele>322.719604</ele>
        <time>2012-01-29T09:32:16Z</time>
      </trkpt>
      <trkpt lat="47.73022" lon="7.35121">
        <ele>323.685974</ele>
        <time>2012-01-29T09:32:19Z</time>
      </trkpt>
      <trkpt lat="47.73028" lon="7.35153">
        <ele>330.991241</ele>
        <time>2012-01-29T09:32:24Z</time>
      </trkpt>
      <trkpt lat="47.7304" lon="7.35191">
        <ele>331.893219</ele>
        <time>2012-01-29T09:32:28Z</time>
      </trkpt>
      <trkpt lat="47.73044" lon="7.3521">
        <ele>328.555786</ele>
        <time>2012-01-29T09:32:31Z</time>
      </trkpt>
      <trkpt lat="47.73047" lon="7.3523">
        <ele>331.812469</ele>
        <time>2012-01-29T09:32:35Z</time>
      </trkpt>
      <trkpt lat="47.7305" lon="7.35249">
        <ele>323.366119</ele>
        <time>2012-01-29T09:32:38Z</time>
      </trkpt>
      <trkpt lat="47.73053" lon="7.35283">
        <ele>316.936859</ele>
        <time>2012-01-29T09:32:42Z</time>
      </trkpt>
      <trkpt lat="47.73054" lon="7.35314">
        <ele>320.538452</ele>
        <time>2012-01-29T09:32:45Z</time>
      </trkpt>
      <trkpt lat="47.73059" lon="7.35346">
        <ele>319.555145</ele>
        <time>2012-01-29T09:32:49Z</time>
      </trkpt>
      <trkpt lat="47.73056" lon="7.35372">
        <ele>314.019867</ele>
        <time>2012-01-29T09:32:53Z</time>
      </trkpt>
      <trkpt lat="47.73045" lon="7.35395">
        <ele>303.80368</ele>
        <time>2012-01-29T09:32:57Z</time>
      </trkpt>
      <trkpt lat="47.73034" lon="7.35417">
        <ele>299.107605</ele>
        <time>2012-01-29T09:33:01Z</time>
      </trkpt>
      <trkpt lat="47.73024" lon="7.35439">
        <ele>293.378632</ele>
        <time>2012-01-29T09:33:05Z</time>
      </trkpt>
      <trkpt lat="47.73014" lon="7.35459">
        <ele>289.37674</ele>
        <time>2012-01-29T09:33:08Z</time>
      </trkpt>
      <trkpt lat="47.73005" lon="7.35476">
        <ele>291.727234</ele>
        <time>2012-01-29T09:33:12Z</time>
      </trkpt>
      <trkpt lat="47.73002" lon="7.35493">
        <ele>293.696594</ele>
        <time>2012-01-29T09:33:16Z</time>
      </trkpt>
      <trkpt lat="47.73" lon="7.35504">
        <ele>291.840149</ele>
        <time>2012-01-29T09:33:19Z</time>
      </trkpt>
      <trkpt lat="47.72997" lon="7.3552">
        <ele>286.549835</ele>
        <time>2012-01-29T09:33:23Z</time>
      </trkpt>
      <trkpt lat="47.72996" lon="7.35531">
        <ele>292.896667</ele>
        <time>2012-01-29T09:33:26Z</time>
      </trkpt>
      <trkpt lat="47.72998" lon="7.3554">
        <ele>292.67157</ele>
        <time>2012-01-29T09:33:34Z</time>
      </trkpt>
      <trkpt lat="47.72998" lon="7.35549">
        <ele>282.409973</ele>
        <time>2012-01-29T09:33:40Z</time>
      </trkpt>
      <trkpt lat="47.73002" lon="7.35563">
        <ele>292.198273</ele>
        <time>2012-01-29T09:33:46Z</time>
      </trkpt>
      <trkpt lat="47.73012" lon="7.35582">
        <ele>287.027435</ele>
        <time>2012-01-29T09:33:52Z</time>
      </trkpt>
      <trkpt lat="47.73024" lon="7.35605">
        <ele>285.981903</ele>
        <time>2012-01-29T09:33:57Z</time>
      </trkpt>
      <trkpt lat="47.73034" lon="7.35635">
        <ele>287.755493</ele>
        <time>2012-01-29T09:34:01Z</time>
      </trkpt>
      <trkpt lat="47.73046" lon="7.35671">
        <ele>288.124512</ele>
        <time>2012-01-29T09:34:09Z</time>
      </trkpt>
      <trkpt lat="47.73057" lon="7.35702">
        <ele>284.620239</ele>
        <time>2012-01-29T09:34:15Z</time>
      </trkpt>
      <trkpt lat="47.73066" lon="7.35734">
        <ele>289.357056</ele>
        <time>2012-01-29T09:34:20Z</time>
      </trkpt>
      <trkpt lat="47.7307" lon="7.35763">
        <ele>291.878265</ele>
        <time>2012-01-29T09:34:24Z</time>
      </trkpt>
      <trkpt lat="47.73072" lon="7.35793">
        <ele>294.368469</ele>
        <time>2012-01-29T09:34:28Z</time>
      </trkpt>
      <trkpt lat="47.73069" lon="7.35815">
        <ele>290.599762</ele>
        <time>2012-01-29T09:34:31Z</time>
      </trkpt>
      <trkpt lat="47.7306" lon="7.35841">
        <ele>282.206787</ele>
        <time>2012-01-29T09:34:35Z</time>
      </trkpt>
      <trkpt lat="47.73052" lon="7.35858">
        <ele>280.932159</ele>
        <time>2012-01-29T09:34:39Z</time>
      </trkpt>
      <trkpt lat="47.73047" lon="7.35875">
        <ele>281.21524</ele>
        <time>2012-01-29T09:34:42Z</time>
      </trkpt>
      <trkpt lat="47.73036" lon="7.35898">
        <ele>278.6138</ele>
        <time>2012-01-29T09:34:46Z</time>
      </trkpt>
      <trkpt lat="47.73029" lon="7.35911">
        <ele>279.707245</ele>
        <time>2012-01-29T09:34:49Z</time>
      </trkpt>
      <trkpt lat="47.73024" lon="7.35918">
        <ele>282.0224</ele>
        <time>2012-01-29T09:34:54Z</time>
      </trkpt>
      <trkpt lat="47.73022" lon="7.35919">
        <ele>282.858185</ele>
        <time>2012-01-29T09:34:58Z</time>
      </trkpt>
      <trkpt lat="47.73022" lon="7.35919">
        <ele>280.219452</ele>
        <time>2012-01-29T09:35:02Z</time>
      </trkpt>
      <trkpt lat="47.73022" lon="7.35919">
        <ele>276.087677</ele>
        <time>2012-01-29T09:35:05Z</time>
      </trkpt>
      <trkpt lat="47.73022" lon="7.35918">
        <ele>280.412598</ele>
        <time>2012-01-29T09:35:09Z</time>
      </trkpt>
      <trkpt lat="47.73022" lon="7.35918">
        <ele>270.422729</ele>
        <time>2012-01-29T09:35:12Z</time>
      </trkpt>
      <trkpt lat="47.7302" lon="7.35916">
        <ele>266.723206</ele>
        <time>2012-01-29T09:35:16Z</time>
      </trkpt>
      <trkpt lat="47.7302" lon="7.35916">
        <ele>264.636627</ele>
        <time>2012-01-29T09:35:20Z</time>
      </trkpt>
      <trkpt lat="47.7302" lon="7.35916">
        <ele>266.17038</ele>
        <time>2012-01-29T09:35:23Z</time>
      </trkpt>
      <trkpt lat="47.7302" lon="7.35916">
        <ele>285.828857</ele>
        <time>2012-01-29T09:35:28Z</time>
      </trkpt>
      <trkpt lat="47.73018" lon="7.35915">
        <ele>286.595367</ele>
        <time>2012-01-29T09:35:32Z</time>
      </trkpt>
      <trkpt lat="47.73018" lon="7.35915">
        <ele>286.128845</ele>
        <time>2012-01-29T09:35:37Z</time>
      </trkpt>
      <trkpt lat="47.73018" lon="7.35915">
        <ele>281.427734</ele>
        <time>2012-01-29T09:35:44Z</time>
      </trkpt>
      <trkpt lat="47.73016" lon="7.35916">
        <ele>275.680664</ele>
        <time>2012-01-29T09:35:49Z</time>
      </trkpt>
      <trkpt lat="47.73016" lon="7.35916">
        <ele>277.987793</ele>
        <time>2012-01-29T09:35:56Z</time>
      </trkpt>
      <trkpt lat="47.73017" lon="7.35915">
        <ele>273.431549</ele>
        <time>2012-01-29T09:36:00Z</time>
      </trkpt>
      <trkpt lat="47.73017" lon="7.35917">
        <ele>281.713898</ele>
        <time>2012-01-29T09:36:04Z</time>
      </trkpt>
      <trkpt lat="47.73017" lon="7.35917">
        <ele>289.970764</ele>
        <time>2012-01-29T09:36:08Z</time>
      </trkpt>
      <trkpt lat="47.73017" lon="7.35917">
        <ele>291.369537</ele>
        <time>2012-01-29T09:36:11Z</time>
      </trkpt>
      <trkpt lat="47.73017" lon="7.35917">
        <ele>299.840851</ele>
        <time>2012-01-29T09:36:16Z</time>
      </trkpt>
      <trkpt lat="47.73016" lon="7.35921">
        <ele>292.816254</ele>
        <time>2012-01-29T09:36:20Z</time>
      </trkpt>
      <trkpt lat="47.73016" lon="7.35929">
        <ele>279.221863</ele>
        <time>2012-01-29T09:36:24Z</time>
      </trkpt>
      <trkpt lat="47.73017" lon="7.35933">
        <ele>279.768066</ele>
        <time>2012-01-29T09:36:27Z</time>
      </trkpt>
      <trkpt lat="47.73018" lon="7.35942">
        <ele>279.971008</ele>
        <time>2012-01-29T09:36:31Z</time>
      </trkpt>
      <trkpt lat="47.73017" lon="7.35953">
        <ele>280.28244</ele>
        <time>2012-01-29T09:36:34Z</time>
      </trkpt>
      <trkpt lat="47.73018" lon="7.35963">
        <ele>280.334717</ele>
        <time>2012-01-29T09:36:38Z</time>
      </trkpt>
      <trkpt lat="47.7302" lon="7.35968">
        <ele>276.334198</ele>
        <time>2012-01-29T09:36:42Z</time>
      </trkpt>
      <trkpt lat="47.73023" lon="7.35973">
        <ele>277.57901</ele>
        <time>2012-01-29T09:36:45Z</time>
      </trkpt>
      <trkpt lat="47.73031" lon="7.35979">
        <ele>283.916351</ele>
        <time>2012-01-29T09:36:49Z</time>
      </trkpt>
      <trkpt lat="47.73037" lon="7.3598">
        <ele>286.638062</ele>
        <time>2012-01-29T09:36:52Z</time>
      </trkpt>
      <trkpt lat="47.73047" lon="7.35984">
        <ele>287.976807</ele>
        <time>2012-01-29T09:36:56Z</time>
      </trkpt>
      <trkpt lat="47.73059" lon="7.35989">
        <ele>285.199493</ele>
        <time>2012-01-29T09:37:00Z</time>
      </trkpt>
      <trkpt lat="47.73072" lon="7.35996">
        <ele>285.665283</ele>
        <time>2012-01-29T09:37:03Z</time>
      </trkpt>
      <trkpt lat="47.73086" lon="7.36005">
        <ele>280.69986</ele>
        <time>2012-01-29T09:37:07Z</time>
      </trkpt>
      <trkpt lat="47.73099" lon="7.36013">
        <ele>282.312073</ele>
        <time>2012-01-29T09:37:10Z</time>
      </trkpt>
      <trkpt lat="47.73115" lon="7.3602">
        <ele>279.896393</ele>
        <time>2012-01-29T09:37:14Z</time>
      </trkpt>
      <trkpt lat="47.73127" lon="7.36028">
        <ele>270.987885</ele>
        <time>2012-01-29T09:37:18Z</time>
      </trkpt>
      <trkpt lat="47.73139" lon="7.36033">
        <ele>277.141815</ele>
        <time>2012-01-29T09:37:21Z</time>
      </trkpt>
      <trkpt lat="47.73156" lon="7.36041">
        <ele>279.69754</ele>
        <time>2012-01-29T09:37:25Z</time>
      </trkpt>
      <trkpt lat="47.73177" lon="7.36048">
        <ele>281.543213</ele>
        <time>2012-01-29T09:37:29Z</time>
      </trkpt>
      <trkpt lat="47.7319" lon="7.36051">
        <ele>282.698975</ele>
        <time>2012-01-29T09:37:32Z</time>
      </trkpt>
      <trkpt lat="47.7321" lon="7.36056">
        <ele>279.788971</ele>
        <time>2012-01-29T09:37:36Z</time>
      </trkpt>
      <trkpt lat="47.73227" lon="7.3606">
        <ele>278.721252</ele>
        <time>2012-01-29T09:37:40Z</time>
      </trkpt>
      <trkpt lat="47.73241" lon="7.36058">
        <ele>277.594635</ele>
        <time>2012-01-29T09:37:43Z</time>
      </trkpt>
      <trkpt lat="47.73259" lon="7.36062">
        <ele>272.747375</ele>
        <time>2012-01-29T09:37:47Z</time>
      </trkpt>
      <trkpt lat="47.73267" lon="7.36069">
        <ele>272.502777</ele>
        <time>2012-01-29T09:37:50Z</time>
      </trkpt>
      <trkpt lat="47.73283" lon="7.36072">
        <ele>277.091187</ele>
        <time>2012-01-29T09:37:54Z</time>
      </trkpt>
      <trkpt lat="47.73296" lon="7.36075">
        <ele>276.91571</ele>
        <time>2012-01-29T09:37:58Z</time>
      </trkpt>
      <trkpt lat="47.733" lon="7.36078">
        <ele>276.893524</ele>
        <time>2012-01-29T09:38:01Z</time>
      </trkpt>
      <trkpt lat="47.7331" lon="7.36088">
        <ele>277.054443</ele>
        <time>2012-01-29T09:38:06Z</time>
      </trkpt>
      <trkpt lat="47.73318" lon="7.36095">
        <ele>282.804626</ele>
        <time>2012-01-29T09:38:10Z</time>
      </trkpt>
      <trkpt lat="47.73321" lon="7.36099">
        <ele>286.324707</ele>
        <time>2012-01-29T09:38:14Z</time>
      </trkpt>
      <trkpt lat="47.73325" lon="7.36107">
        <ele>286.828705</ele>
        <time>2012-01-29T09:38:18Z</time>
      </trkpt>
      <trkpt lat="47.73328" lon="7.36109">
        <ele>286.982117</ele>
        <time>2012-01-29T09:38:21Z</time>
      </trkpt>
      <trkpt lat="47.73338" lon="7.36114">
        <ele>284.199097</ele>
        <time>2012-01-29T09:38:25Z</time>
      </trkpt>
      <trkpt lat="47.7335" lon="7.3612">
        <ele>280.371857</ele>
        <time>2012-01-29T09:38:28Z</time>
      </trkpt>
      <trkpt lat="47.7336" lon="7.36136">
        <ele>279.503998</ele>
        <time>2012-01-29T09:38:32Z</time>
      </trkpt>
      <trkpt lat="47.73368" lon="7.36143">
        <ele>282.104004</ele>
        <time>2012-01-29T09:38:36Z</time>
      </trkpt>
      <trkpt lat="47.73379" lon="7.36153">
        <ele>285.671906</ele>
        <time>2012-01-29T09:38:42Z</time>
      </trkpt>
      <trkpt lat="47.73386" lon="7.36161">
        <ele>286.889801</ele>
        <time>2012-01-29T09:38:46Z</time>
      </trkpt>
      <trkpt lat="47.7339" lon="7.36166">
        <ele>283.777008</ele>
        <time>2012-01-29T09:38:50Z</time>
      </trkpt>
      <trkpt lat="47.7339" lon="7.36166">
        <ele>277.208344</ele>
        <time>2012-01-29T09:38:55Z</time>
      </trkpt>
      <trkpt lat="47.7339" lon="7.36166">
        <ele>275.508392</ele>
        <time>2012-01-29T09:38:59Z</time>
      </trkpt>
      <trkpt lat="47.7339" lon="7.36166">
        <ele>273.912659</ele>
        <time>2012-01-29T09:39:02Z</time>
      </trkpt>
      <trkpt lat="47.7339" lon="7.36166">
        <ele>276.72644</ele>
        <time>2012-01-29T09:39:06Z</time>
      </trkpt>
      <trkpt lat="47.73392" lon="7.36168">
        <ele>274.739929</ele>
        <time>2012-01-29T09:39:10Z</time>
      </trkpt>
      <trkpt lat="47.73397" lon="7.36175">
        <ele>281.279297</ele>
        <time>2012-01-29T09:39:13Z</time>
      </trkpt>
      <trkpt lat="47.73403" lon="7.36182">
        <ele>279.334412</ele>
        <time>2012-01-29T09:39:17Z</time>
      </trkpt>
      <trkpt lat="47.73408" lon="7.3619">
        <ele>274.72821</ele>
        <time>2012-01-29T09:39:21Z</time>
      </trkpt>
      <trkpt lat="47.73408" lon="7.36205">
        <ele>273.462646</ele>
        <time>2012-01-29T09:39:26Z</time>
      </trkpt>
      <trkpt lat="47.73408" lon="7.36219">
        <ele>269.246674</ele>
        <time>2012-01-29T09:39:30Z</time>
      </trkpt>
      <trkpt lat="47.73406" lon="7.36225">
        <ele>268.648895</ele>
        <time>2012-01-29T09:39:33Z</time>
      </trkpt>
      <trkpt lat="47.73403" lon="7.36233">
        <ele>274.030457</ele>
        <time>2012-01-29T09:39:37Z</time>
      </trkpt>
      <trkpt lat="47.73396" lon="7.3624">
        <ele>275.792114</ele>
        <time>2012-01-29T09:39:41Z</time>
      </trkpt>
      <trkpt lat="47.73388" lon="7.3625">
        <ele>281.400299</ele>
        <time>2012-01-29T09:39:45Z</time>
      </trkpt>
      <trkpt lat="47.73382" lon="7.36259">
        <ele>281.868286</ele>
        <time>2012-01-29T09:39:50Z</time>
      </trkpt>
      <trkpt lat="47.73377" lon="7.3627">
        <ele>289.201355</ele>
        <time>2012-01-29T09:39:54Z</time>
      </trkpt>
      <trkpt lat="47.73372" lon="7.36277">
        <ele>283.222137</ele>
        <time>2012-01-29T09:39:57Z</time>
      </trkpt>
      <trkpt lat="47.73364" lon="7.36287">
        <ele>287.598816</ele>
        <time>2012-01-29T09:40:02Z</time>
      </trkpt>
      <trkpt lat="47.73359" lon="7.36298">
        <ele>285.883606</ele>
        <time>2012-01-29T09:40:06Z</time>
      </trkpt>
      <trkpt lat="47.73356" lon="7.3631">
        <ele>283.026947</ele>
        <time>2012-01-29T09:40:10Z</time>
      </trkpt>
      <trkpt lat="47.73356" lon="7.36319">
        <ele>289.0383</ele>
        <time>2012-01-29T09:40:13Z</time>
      </trkpt>
      <trkpt lat="47.73358" lon="7.36335">
        <ele>285.842682</ele>
        <time>2012-01-29T09:40:17Z</time>
      </trkpt>
      <trkpt lat="47.73359" lon="7.36349">
        <ele>286.744507</ele>
        <time>2012-01-29T09:40:21Z</time>
      </trkpt>
      <trkpt lat="47.73358" lon="7.3636">
        <ele>297.04599</ele>
        <time>2012-01-29T09:40:25Z</time>
      </trkpt>
      <trkpt lat="47.73355" lon="7.36368">
        <ele>295.258484</ele>
        <time>2012-01-29T09:40:28Z</time>
      </trkpt>
      <trkpt lat="47.73353" lon="7.36375">
        <ele>296.895782</ele>
        <time>2012-01-29T09:40:32Z</time>
      </trkpt>
      <trkpt lat="47.73352" lon="7.3639">
        <ele>300.046417</ele>
        <time>2012-01-29T09:40:36Z</time>
      </trkpt>
      <trkpt lat="47.73352" lon="7.36402">
        <ele>293.416016</ele>
        <time>2012-01-29T09:40:39Z</time>
      </trkpt>
      <trkpt lat="47.73353" lon="7.36417">
        <ele>291.23468</ele>
        <time>2012-01-29T09:40:43Z</time>
      </trkpt>
      <trkpt lat="47.73353" lon="7.36426">
        <ele>294.710114</ele>
        <time>2012-01-29T09:40:47Z</time>
      </trkpt>
      <trkpt lat="47.7335" lon="7.36437">
        <ele>295.062073</ele>
        <time>2012-01-29T09:40:50Z</time>
      </trkpt>
      <trkpt lat="47.73348" lon="7.36451">
        <ele>295.176178</ele>
        <time>2012-01-29T09:40:54Z</time>
      </trkpt>
      <trkpt lat="47.73346" lon="7.36462">
        <ele>291.890381</ele>
        <time>2012-01-29T09:40:58Z</time>
      </trkpt>
      <trkpt lat="47.73343" lon="7.36476">
        <ele>290.442444</ele>
        <time>2012-01-29T09:41:02Z</time>
      </trkpt>
      <trkpt lat="47.73341" lon="7.36483">
        <ele>296.333527</ele>
        <time>2012-01-29T09:41:07Z</time>
      </trkpt>
      <trkpt lat="47.73337" lon="7.36491">
        <ele>296.366821</ele>
        <time>2012-01-29T09:41:10Z</time>
      </trkpt>
      <trkpt lat="47.73331" lon="7.36502">
        <ele>300.534637</ele>
        <time>2012-01-29T09:41:14Z</time>
      </trkpt>
      <trkpt lat="47.73327" lon="7.36512">
        <ele>297.175323</ele>
        <time>2012-01-29T09:41:18Z</time>
      </trkpt>
      <trkpt lat="47.73326" lon="7.3652">
        <ele>295.523468</ele>
        <time>2012-01-29T09:41:21Z</time>
      </trkpt>
      <trkpt lat="47.73324" lon="7.36534">
        <ele>289.356262</ele>
        <time>2012-01-29T09:41:25Z</time>
      </trkpt>
      <trkpt lat="47.73322" lon="7.36544">
        <ele>294.727844</ele>
        <time>2012-01-29T09:41:29Z</time>
      </trkpt>
      <trkpt lat="47.73321" lon="7.36552">
        <ele>296.837006</ele>
        <time>2012-01-29T09:41:32Z</time>
      </trkpt>
      <trkpt lat="47.73318" lon="7.36562">
        <ele>292.26355</ele>
        <time>2012-01-29T09:41:36Z</time>
      </trkpt>
      <trkpt lat="47.73315" lon="7.36567">
        <ele>298.843048</ele>
        <time>2012-01-29T09:41:40Z</time>
      </trkpt>
      <trkpt lat="47.73314" lon="7.36572">
        <ele>300.65686</ele>
        <time>2012-01-29T09:41:43Z</time>
      </trkpt>
      <trkpt lat="47.73312" lon="7.36581">
        <ele>300.912537</ele>
        <time>2012-01-29T09:41:47Z</time>
      </trkpt>
      <trkpt lat="47.73307" lon="7.36592">
        <ele>294.238983</ele>
        <time>2012-01-29T09:41:51Z</time>
      </trkpt>
      <trkpt lat="47.73306" lon="7.36598">
        <ele>296.429077</ele>
        <time>2012-01-29T09:41:54Z</time>
      </trkpt>
      <trkpt lat="47.73301" lon="7.36605">
        <ele>300.68692</ele>
        <time>2012-01-29T09:41:58Z</time>
      </trkpt>
      <trkpt lat="47.73298" lon="7.36616">
        <ele>302.786011</ele>
        <time>2012-01-29T09:42:02Z</time>
      </trkpt>
      <trkpt lat="47.73296" lon="7.36627">
        <ele>302.651459</ele>
        <time>2012-01-29T09:42:06Z</time>
      </trkpt>
      <trkpt lat="47.73295" lon="7.36632">
        <ele>298.882782</ele>
        <time>2012-01-29T09:42:09Z</time>
      </trkpt>
      <trkpt lat="47.73295" lon="7.36639">
        <ele>303.93222</ele>
        <time>2012-01-29T09:42:13Z</time>
      </trkpt>
      <trkpt lat="47.73294" lon="7.36645">
        <ele>300.940491</ele>
        <time>2012-01-29T09:42:17Z</time>
      </trkpt>
      <trkpt lat="47.73293" lon="7.36649">
        <ele>297.953217</ele>
        <time>2012-01-29T09:42:20Z</time>
      </trkpt>
      <trkpt lat="47.73293" lon="7.36649">
        <ele>301.124176</ele>
        <time>2012-01-29T09:42:24Z</time>
      </trkpt>
      <trkpt lat="47.73293" lon="7.36649">
        <ele>289.207123</ele>
        <time>2012-01-29T09:42:28Z</time>
      </trkpt>
      <trkpt lat="47.73293" lon="7.36649">
        <ele>292.829193</ele>
        <time>2012-01-29T09:42:31Z</time>
      </trkpt>
      <trkpt lat="47.73293" lon="7.36649">
        <ele>299.920593</ele>
        <time>2012-01-29T09:42:35Z</time>
      </trkpt>
      <trkpt lat="47.73293" lon="7.36649">
        <ele>297.917053</ele>
        <time>2012-01-29T09:42:39Z</time>
      </trkpt>
      <trkpt lat="47.73293" lon="7.36649">
        <ele>303.464722</ele>
        <time>2012-01-29T09:42:43Z</time>
      </trkpt>
      <trkpt lat="47.73292" lon="7.36652">
        <ele>305.82309</ele>
        <time>2012-01-29T09:42:46Z</time>
      </trkpt>
      <trkpt lat="47.73284" lon="7.36666">
        <ele>309.822144</ele>
        <time>2012-01-29T09:42:50Z</time>
      </trkpt>
      <trkpt lat="47.73282" lon="7.3667">
        <ele>299.603271</ele>
        <time>2012-01-29T09:42:54Z</time>
      </trkpt>
      <trkpt lat="47.73278" lon="7.36675">
        <ele>305.505432</ele>
        <time>2012-01-29T09:42:58Z</time>
      </trkpt>
      <trkpt lat="47.73274" lon="7.3668">
        <ele>306.440216</ele>
        <time>2012-01-29T09:43:01Z</time>
      </trkpt>
      <trkpt lat="47.73271" lon="7.3669">
        <ele>307.25647</ele>
        <time>2012-01-29T09:43:05Z</time>
      </trkpt>
      <trkpt lat="47.73269" lon="7.36699">
        <ele>310.689697</ele>
        <time>2012-01-29T09:43:09Z</time>
      </trkpt>
      <trkpt lat="47.73265" lon="7.36702">
        <ele>312.334473</ele>
        <time>2012-01-29T09:43:12Z</time>
      </trkpt>
      <trkpt lat="47.73259" lon="7.36707">
        <ele>312.095825</ele>
        <time>2012-01-29T09:43:16Z</time>
      </trkpt>
      <trkpt lat="47.73253" lon="7.36717">
        <ele>313.547424</ele>
        <time>2012-01-29T09:43:20Z</time>
      </trkpt>
      <trkpt lat="47.73248" lon="7.3673">
        <ele>315.417114</ele>
        <time>2012-01-29T09:43:24Z</time>
      </trkpt>
      <trkpt lat="47.73246" lon="7.36737">
        <ele>318.186127</ele>
        <time>2012-01-29T09:43:27Z</time>
      </trkpt>
      <trkpt lat="47.73244" lon="7.36751">
        <ele>321.305817</ele>
        <time>2012-01-29T09:43:31Z</time>
      </trkpt>
      <trkpt lat="47.7324" lon="7.36768">
        <ele>317.262024</ele>
        <time>2012-01-29T09:43:35Z</time>
      </trkpt>
      <trkpt lat="47.73236" lon="7.36777">
        <ele>321.341736</ele>
        <time>2012-01-29T09:43:39Z</time>
      </trkpt>
      <trkpt lat="47.73233" lon="7.36784">
        <ele>322.663879</ele>
        <time>2012-01-29T09:43:42Z</time>
      </trkpt>
      <trkpt lat="47.73231" lon="7.36799">
        <ele>320.922577</ele>
        <time>2012-01-29T09:43:46Z</time>
      </trkpt>
      <trkpt lat="47.73225" lon="7.36811">
        <ele>321.138428</ele>
        <time>2012-01-29T09:43:50Z</time>
      </trkpt>
      <trkpt lat="47.73222" lon="7.36822">
        <ele>320.700073</ele>
        <time>2012-01-29T09:43:53Z</time>
      </trkpt>
      <trkpt lat="47.73217" lon="7.36849">
        <ele>321.731873</ele>
        <time>2012-01-29T09:43:57Z</time>
      </trkpt>
      <trkpt lat="47.73213" lon="7.36865">
        <ele>323.651703</ele>
        <time>2012-01-29T09:44:01Z</time>
      </trkpt>
      <trkpt lat="47.73208" lon="7.36878">
        <ele>323.37262</ele>
        <time>2012-01-29T09:44:05Z</time>
      </trkpt>
      <trkpt lat="47.73202" lon="7.36887">
        <ele>323.730316</ele>
        <time>2012-01-29T09:44:08Z</time>
      </trkpt>
      <trkpt lat="47.73196" lon="7.36902">
        <ele>325.84082</ele>
        <time>2012-01-29T09:44:12Z</time>
      </trkpt>
      <trkpt lat="47.73193" lon="7.3692">
        <ele>324.676941</ele>
        <time>2012-01-29T09:44:16Z</time>
      </trkpt>
      <trkpt lat="47.73193" lon="7.36942">
        <ele>323.666901</ele>
        <time>2012-01-29T09:44:20Z</time>
      </trkpt>
      <trkpt lat="47.73192" lon="7.36953">
        <ele>320.629639</ele>
        <time>2012-01-29T09:44:23Z</time>
      </trkpt>
      <trkpt lat="47.73193" lon="7.36975">
        <ele>315.937561</ele>
        <time>2012-01-29T09:44:27Z</time>
      </trkpt>
      <trkpt lat="47.73194" lon="7.36996">
        <ele>313.705414</ele>
        <time>2012-01-29T09:44:31Z</time>
      </trkpt>
      <trkpt lat="47.73195" lon="7.37009">
        <ele>313.758118</ele>
        <time>2012-01-29T09:44:34Z</time>
      </trkpt>
      <trkpt lat="47.73195" lon="7.37023">
        <ele>313.045319</ele>
        <time>2012-01-29T09:44:38Z</time>
      </trkpt>
      <trkpt lat="47.73194" lon="7.37029">
        <ele>315.209747</ele>
        <time>2012-01-29T09:44:42Z</time>
      </trkpt>
      <trkpt lat="47.73194" lon="7.37048">
        <ele>311.98938</ele>
        <time>2012-01-29T09:44:46Z</time>
      </trkpt>
      <trkpt lat="47.73193" lon="7.37064">
        <ele>316.522736</ele>
        <time>2012-01-29T09:44:49Z</time>
      </trkpt>
      <trkpt lat="47.73192" lon="7.37085">
        <ele>311.7771</ele>
        <time>2012-01-29T09:44:53Z</time>
      </trkpt>
      <trkpt lat="47.73192" lon="7.37095">
        <ele>316.344452</ele>
        <time>2012-01-29T09:44:57Z</time>
      </trkpt>
      <trkpt lat="47.73192" lon="7.37105">
        <ele>312.962891</ele>
        <time>2012-01-29T09:45:01Z</time>
      </trkpt>
      <trkpt lat="47.73193" lon="7.37116">
        <ele>312.273773</ele>
        <time>2012-01-29T09:45:04Z</time>
      </trkpt>
      <trkpt lat="47.73195" lon="7.37127">
        <ele>313.736176</ele>
        <time>2012-01-29T09:45:08Z</time>
      </trkpt>
      <trkpt lat="47.73198" lon="7.37143">
        <ele>315.958618</ele>
        <time>2012-01-29T09:45:12Z</time>
      </trkpt>
      <trkpt lat="47.73197" lon="7.37151">
        <ele>321.200531</ele>
        <time>2012-01-29T09:45:16Z</time>
      </trkpt>
      <trkpt lat="47.73192" lon="7.37163">
        <ele>320.146118</ele>
        <time>2012-01-29T09:45:19Z</time>
      </trkpt>
      <trkpt lat="47.73185" lon="7.37186">
        <ele>321.070923</ele>
        <time>2012-01-29T09:45:23Z</time>
      </trkpt>
      <trkpt lat="47.7318" lon="7.37211">
        <ele>318.806091</ele>
        <time>2012-01-29T09:45:27Z</time>
      </trkpt>
      <trkpt lat="47.73177" lon="7.37222">
        <ele>312.609344</ele>
        <time>2012-01-29T09:45:31Z</time>
      </trkpt>
      <trkpt lat="47.73177" lon="7.37224">
        <ele>305.371246</ele>
        <time>2012-01-29T09:45:35Z</time>
      </trkpt>
      <trkpt lat="47.73177" lon="7.37224">
        <ele>303.947388</ele>
        <time>2012-01-29T09:45:38Z</time>
      </trkpt>
      <trkpt lat="47.73177" lon="7.37224">
        <ele>298.17569</ele>
        <time>2012-01-29T09:45:42Z</time>
      </trkpt>
      <trkpt lat="47.73177" lon="7.37224">
        <ele>311.006226</ele>
        <time>2012-01-29T09:45:46Z</time>
      </trkpt>
      <trkpt lat="47.73176" lon="7.37224">
        <ele>316.671906</ele>
        <time>2012-01-29T09:45:50Z</time>
      </trkpt>
      <trkpt lat="47.73176" lon="7.37224">
        <ele>314.672272</ele>
        <time>2012-01-29T09:45:53Z</time>
      </trkpt>
      <trkpt lat="47.73176" lon="7.37224">
        <ele>298.501648</ele>
        <time>2012-01-29T09:45:57Z</time>
      </trkpt>
      <trkpt lat="47.73175" lon="7.37223">
        <ele>299.52597</ele>
        <time>2012-01-29T09:46:01Z</time>
      </trkpt>
      <trkpt lat="47.73175" lon="7.37223">
        <ele>299.460663</ele>
        <time>2012-01-29T09:46:05Z</time>
      </trkpt>
      <trkpt lat="47.73175" lon="7.37223">
        <ele>302.638824</ele>
        <time>2012-01-29T09:46:09Z</time>
      </trkpt>
      <trkpt lat="47.73175" lon="7.37223">
        <ele>313.236664</ele>
        <time>2012-01-29T09:46:13Z</time>
      </trkpt>
      <trkpt lat="47.73175" lon="7.37223">
        <ele>312.273132</ele>
        <time>2012-01-29T09:46:16Z</time>
      </trkpt>
      <trkpt lat="47.73175" lon="7.37223">
        <ele>305.487</ele>
        <time>2012-01-29T09:46:20Z</time>
      </trkpt>
      <trkpt lat="47.73175" lon="7.37223">
        <ele>302.362122</ele>
        <time>2012-01-29T09:46:24Z</time>
      </trkpt>
      <trkpt lat="47.73175" lon="7.37223">
        <ele>294.513245</ele>
        <time>2012-01-29T09:46:28Z</time>
      </trkpt>
      <trkpt lat="47.73175" lon="7.37223">
        <ele>305.513214</ele>
        <time>2012-01-29T09:46:31Z</time>
      </trkpt>
      <trkpt lat="47.73175" lon="7.37223">
        <ele>303.498566</ele>
        <time>2012-01-29T09:46:35Z</time>
      </trkpt>
      <trkpt lat="47.73175" lon="7.37223">
        <ele>308.474365</ele>
        <time>2012-01-29T09:46:39Z</time>
      </trkpt>
      <trkpt lat="47.73172" lon="7.37222">
        <ele>314.769592</ele>
        <time>2012-01-29T09:46:43Z</time>
      </trkpt>
      <trkpt lat="47.73172" lon="7.37222">
        <ele>324.626831</ele>
        <time>2012-01-29T09:46:47Z</time>
      </trkpt>
      <trkpt lat="47.73172" lon="7.37222">
        <ele>313.187469</ele>
        <time>2012-01-29T09:46:51Z</time>
      </trkpt>
      <trkpt lat="47.73172" lon="7.37222">
        <ele>303.732819</ele>
        <time>2012-01-29T09:46:54Z</time>
      </trkpt>
      <trkpt lat="47.73172" lon="7.37222">
        <ele>308.844513</ele>
        <time>2012-01-29T09:46:58Z</time>
      </trkpt>
      <trkpt lat="47.73172" lon="7.37222">
        <ele>306.473297</ele>
        <time>2012-01-29T09:47:02Z</time>
      </trkpt>
      <trkpt lat="47.73172" lon="7.37222">
        <ele>316.287506</ele>
        <time>2012-01-29T09:47:06Z</time>
      </trkpt>
      <trkpt lat="47.73172" lon="7.37222">
        <ele>315.545959</ele>
        <time>2012-01-29T09:47:09Z</time>
      </trkpt>
      <trkpt lat="47.73172" lon="7.37222">
        <ele>310.12262</ele>
        <time>2012-01-29T09:47:13Z</time>
      </trkpt>
      <trkpt lat="47.73172" lon="7.37222">
        <ele>305.81601</ele>
        <time>2012-01-29T09:47:17Z</time>
      </trkpt>
      <trkpt lat="47.73172" lon="7.37222">
        <ele>312.503693</ele>
        <time>2012-01-29T09:47:21Z</time>
      </trkpt>
      <trkpt lat="47.73172" lon="7.37222">
        <ele>316.298553</ele>
        <time>2012-01-29T09:47:24Z</time>
      </trkpt>
      <trkpt lat="47.73172" lon="7.37222">
        <ele>331.670898</ele>
        <time>2012-01-29T09:47:28Z</time>
      </trkpt>
      <trkpt lat="47.73172" lon="7.37222">
        <ele>333.688416</ele>
        <time>2012-01-29T09:47:32Z</time>
      </trkpt>
      <trkpt lat="47.73172" lon="7.37222">
        <ele>343.335449</ele>
        <time>2012-01-29T09:47:35Z</time>
      </trkpt>
      <trkpt lat="47.73172" lon="7.37222">
        <ele>347.976776</ele>
        <time>2012-01-29T09:47:39Z</time>
      </trkpt>
      <trkpt lat="47.73172" lon="7.37222">
        <ele>325.850159</ele>
        <time>2012-01-29T09:47:43Z</time>
      </trkpt>
      <trkpt lat="47.73172" lon="7.37222">
        <ele>321.819214</ele>
        <time>2012-01-29T09:47:47Z</time>
      </trkpt>
      <trkpt lat="47.73172" lon="7.37222">
        <ele>320.204407</ele>
        <time>2012-01-29T09:47:50Z</time>
      </trkpt>
      <trkpt lat="47.73172" lon="7.37222">
        <ele>319.612976</ele>
        <time>2012-01-29T09:47:54Z</time>
      </trkpt>
      <trkpt lat="47.73172" lon="7.37222">
        <ele>317.790405</ele>
        <time>2012-01-29T09:47:58Z</time>
      </trkpt>
      <trkpt lat="47.73172" lon="7.37222">
        <ele>316.214386</ele>
        <time>2012-01-29T09:48:01Z</time>
      </trkpt>
      <trkpt lat="47.73172" lon="7.37222">
        <ele>309.389893</ele>
        <time>2012-01-29T09:48:05Z</time>
      </trkpt>
      <trkpt lat="47.73172" lon="7.37222">
        <ele>309.013672</ele>
        <time>2012-01-29T09:48:09Z</time>
      </trkpt>
      <trkpt lat="47.73172" lon="7.37222">
        <ele>314.026001</ele>
        <time>2012-01-29T09:48:13Z</time>
      </trkpt>
      <trkpt lat="47.73172" lon="7.37222">
        <ele>314.181915</ele>
        <time>2012-01-29T09:48:16Z</time>
      </trkpt>
      <trkpt lat="47.73172" lon="7.37222">
        <ele>310.422638</ele>
        <time>2012-01-29T09:48:20Z</time>
      </trkpt>
      <trkpt lat="47.73172" lon="7.37222">
        <ele>304.856934</ele>
        <time>2012-01-29T09:48:24Z</time>
      </trkpt>
      <trkpt lat="47.73172" lon="7.37222">
        <ele>309.408752</ele>
        <time>2012-01-29T09:48:28Z</time>
      </trkpt>
      <trkpt lat="47.73167" lon="7.37226">
        <ele>305.260101</ele>
        <time>2012-01-29T09:48:32Z</time>
      </trkpt>
      <trkpt lat="47.73167" lon="7.37226">
        <ele>308.322021</ele>
        <time>2012-01-29T09:48:35Z</time>
      </trkpt>
      <trkpt lat="47.73163" lon="7.37228">
        <ele>320.459564</ele>
        <time>2012-01-29T09:48:39Z</time>
      </trkpt>
      <trkpt lat="47.73148" lon="7.37232">
        <ele>324.989868</ele>
        <time>2012-01-29T09:48:43Z</time>
      </trkpt>
      <trkpt lat="47.73136" lon="7.3723">
        <ele>320.592529</ele>
        <time>2012-01-29T09:48:47Z</time>
      </trkpt>
      <trkpt lat="47.73103" lon="7.37221">
        <ele>330.024689</ele>
        <time>2012-01-29T09:48:54Z</time>
      </trkpt>
      <trkpt lat="47.7308" lon="7.37222">
        <ele>329.413177</ele>
        <time>2012-01-29T09:48:59Z</time>
      </trkpt>
      <trkpt lat="47.73041" lon="7.37219">
        <ele>324.809387</ele>
        <time>2012-01-29T09:49:05Z</time>
      </trkpt>
      <trkpt lat="47.7302" lon="7.37214">
        <ele>324.804443</ele>
        <time>2012-01-29T09:49:09Z</time>
      </trkpt>
      <trkpt lat="47.73006" lon="7.37205">
        <ele>327.891449</ele>
        <time>2012-01-29T09:49:13Z</time>
      </trkpt>
      <trkpt lat="47.72995" lon="7.372">
        <ele>333.505646</ele>
        <time>2012-01-29T09:49:17Z</time>
      </trkpt>
      <trkpt lat="47.72984" lon="7.37198">
        <ele>330.764954</ele>
        <time>2012-01-29T09:49:21Z</time>
      </trkpt>
      <trkpt lat="47.72975" lon="7.37194">
        <ele>328.678558</ele>
        <time>2012-01-29T09:49:25Z</time>
      </trkpt>
      <trkpt lat="47.72972" lon="7.37191">
        <ele>329.133606</ele>
        <time>2012-01-29T09:49:28Z</time>
      </trkpt>
      <trkpt lat="47.72966" lon="7.37188">
        <ele>329.390381</ele>
        <time>2012-01-29T09:49:32Z</time>
      </trkpt>
      <trkpt lat="47.72959" lon="7.37181">
        <ele>333.750885</ele>
        <time>2012-01-29T09:49:36Z</time>
      </trkpt>
      <trkpt lat="47.72952" lon="7.37173">
        <ele>330.43515</ele>
        <time>2012-01-29T09:49:40Z</time>
      </trkpt>
      <trkpt lat="47.72941" lon="7.37164">
        <ele>335.996857</ele>
        <time>2012-01-29T09:49:44Z</time>
      </trkpt>
      <trkpt lat="47.72925" lon="7.37152">
        <ele>332.520142</ele>
        <time>2012-01-29T09:49:49Z</time>
      </trkpt>
      <trkpt lat="47.72916" lon="7.37147">
        <ele>334.454315</ele>
        <time>2012-01-29T09:49:53Z</time>
      </trkpt>
      <trkpt lat="47.72909" lon="7.37142">
        <ele>328.901398</ele>
        <time>2012-01-29T09:49:57Z</time>
      </trkpt>
      <trkpt lat="47.72903" lon="7.37138">
        <ele>334.980896</ele>
        <time>2012-01-29T09:50:00Z</time>
      </trkpt>
      <trkpt lat="47.72892" lon="7.37133">
        <ele>334.654053</ele>
        <time>2012-01-29T09:50:04Z</time>
      </trkpt>
      <trkpt lat="47.72885" lon="7.37127">
        <ele>338.605682</ele>
        <time>2012-01-29T09:50:08Z</time>
      </trkpt>
      <trkpt lat="47.72877" lon="7.37122">
        <ele>337.107971</ele>
        <time>2012-01-29T09:50:12Z</time>
      </trkpt>
      <trkpt lat="47.72866" lon="7.37113">
        <ele>338.883392</ele>
        <time>2012-01-29T09:50:16Z</time>
      </trkpt>
      <trkpt lat="47.72862" lon="7.37103">
        <ele>339.561707</ele>
        <time>2012-01-29T09:50:20Z</time>
      </trkpt>
      <trkpt lat="47.72855" lon="7.37089">
        <ele>329.699097</ele>
        <time>2012-01-29T09:50:26Z</time>
      </trkpt>
      <trkpt lat="47.72849" lon="7.37084">
        <ele>331.624237</ele>
        <time>2012-01-29T09:50:30Z</time>
      </trkpt>
      <trkpt lat="47.72843" lon="7.37081">
        <ele>331.551117</ele>
        <time>2012-01-29T09:50:34Z</time>
      </trkpt>
      <trkpt lat="47.72833" lon="7.37078">
        <ele>341.396118</ele>
        <time>2012-01-29T09:50:39Z</time>
      </trkpt>
      <trkpt lat="47.72825" lon="7.37078">
        <ele>341.31424</ele>
        <time>2012-01-29T09:50:45Z</time>
      </trkpt>
      <trkpt lat="47.72818" lon="7.37078">
        <ele>332.729248</ele>
        <time>2012-01-29T09:50:49Z</time>
      </trkpt>
      <trkpt lat="47.72811" lon="7.37081">
        <ele>330.72644</ele>
        <time>2012-01-29T09:50:52Z</time>
      </trkpt>
      <trkpt lat="47.72801" lon="7.3708">
        <ele>331.351807</ele>
        <time>2012-01-29T09:50:56Z</time>
      </trkpt>
      <trkpt lat="47.72793" lon="7.37079">
        <ele>340.349854</ele>
        <time>2012-01-29T09:51:00Z</time>
      </trkpt>
      <trkpt lat="47.7278" lon="7.37073">
        <ele>342.409973</ele>
        <time>2012-01-29T09:51:06Z</time>
      </trkpt>
      <trkpt lat="47.72773" lon="7.37068">
        <ele>342.583771</ele>
        <time>2012-01-29T09:51:10Z</time>
      </trkpt>
      <trkpt lat="47.7277" lon="7.37065">
        <ele>346.517151</ele>
        <time>2012-01-29T09:51:14Z</time>
      </trkpt>
      <trkpt lat="47.72768" lon="7.37063">
        <ele>347.405853</ele>
        <time>2012-01-29T09:51:17Z</time>
      </trkpt>
      <trkpt lat="47.72754" lon="7.37071">
        <ele>339.436462</ele>
        <time>2012-01-29T09:51:23Z</time>
      </trkpt>
      <trkpt lat="47.72744" lon="7.37071">
        <ele>339.556122</ele>
        <time>2012-01-29T09:51:27Z</time>
      </trkpt>
      <trkpt lat="47.72734" lon="7.37069">
        <ele>339.219208</ele>
        <time>2012-01-29T09:51:31Z</time>
      </trkpt>
      <trkpt lat="47.72732" lon="7.3707">
        <ele>340.257477</ele>
        <time>2012-01-29T09:51:34Z</time>
      </trkpt>
      <trkpt lat="47.72725" lon="7.37074">
        <ele>345.778503</ele>
        <time>2012-01-29T09:51:38Z</time>
      </trkpt>
      <trkpt lat="47.72718" lon="7.37078">
        <ele>347.452118</ele>
        <time>2012-01-29T09:51:42Z</time>
      </trkpt>
      <trkpt lat="47.72711" lon="7.37081">
        <ele>345.789185</ele>
        <time>2012-01-29T09:51:46Z</time>
      </trkpt>
      <trkpt lat="47.72704" lon="7.37083">
        <ele>345.586456</ele>
        <time>2012-01-29T09:51:50Z</time>
      </trkpt>
      <trkpt lat="47.72692" lon="7.37081">
        <ele>347.903717</ele>
        <time>2012-01-29T09:51:54Z</time>
      </trkpt>
      <trkpt lat="47.72677" lon="7.37077">
        <ele>351.360718</ele>
        <time>2012-01-29T09:51:58Z</time>
      </trkpt>
      <trkpt lat="47.72669" lon="7.37075">
        <ele>351.931976</ele>
        <time>2012-01-29T09:52:01Z</time>
      </trkpt>
      <trkpt lat="47.72659" lon="7.37071">
        <ele>354.217834</ele>
        <time>2012-01-29T09:52:05Z</time>
      </trkpt>
      <trkpt lat="47.72652" lon="7.37067">
        <ele>355.029205</ele>
        <time>2012-01-29T09:52:09Z</time>
      </trkpt>
      <trkpt lat="47.72633" lon="7.37059">
        <ele>355.436737</ele>
        <time>2012-01-29T09:52:13Z</time>
      </trkpt>
      <trkpt lat="47.72622" lon="7.37051">
        <ele>356.358154</ele>
        <time>2012-01-29T09:52:17Z</time>
      </trkpt>
      <trkpt lat="47.72619" lon="7.37047">
        <ele>354.624847</ele>
        <time>2012-01-29T09:52:21Z</time>
      </trkpt>
      <trkpt lat="47.72613" lon="7.37042">
        <ele>362.238617</ele>
        <time>2012-01-29T09:52:25Z</time>
      </trkpt>
      <trkpt lat="47.72602" lon="7.37038">
        <ele>365.277252</ele>
        <time>2012-01-29T09:52:29Z</time>
      </trkpt>
      <trkpt lat="47.72592" lon="7.37028">
        <ele>360.309387</ele>
        <time>2012-01-29T09:52:33Z</time>
      </trkpt>
      <trkpt lat="47.7258" lon="7.3702">
        <ele>359.051208</ele>
        <time>2012-01-29T09:52:36Z</time>
      </trkpt>
      <trkpt lat="47.72563" lon="7.37012">
        <ele>360.97403</ele>
        <time>2012-01-29T09:52:40Z</time>
      </trkpt>
      <trkpt lat="47.72546" lon="7.37001">
        <ele>361.960205</ele>
        <time>2012-01-29T09:52:44Z</time>
      </trkpt>
      <trkpt lat="47.72514" lon="7.36986">
        <ele>355.693756</ele>
        <time>2012-01-29T09:52:50Z</time>
      </trkpt>
      <trkpt lat="47.72507" lon="7.36982">
        <ele>346.171844</ele>
        <time>2012-01-29T09:52:54Z</time>
      </trkpt>
      <trkpt lat="47.72504" lon="7.36979">
        <ele>342.311798</ele>
        <time>2012-01-29T09:52:57Z</time>
      </trkpt>
      <trkpt lat="47.72498" lon="7.3699">
        <ele>340.529419</ele>
        <time>2012-01-29T09:53:01Z</time>
      </trkpt>
      <trkpt lat="47.72494" lon="7.37002">
        <ele>341.640778</ele>
        <time>2012-01-29T09:53:05Z</time>
      </trkpt>
      <trkpt lat="47.72493" lon="7.37004">
        <ele>349.385529</ele>
        <time>2012-01-29T09:53:09Z</time>
      </trkpt>
      <trkpt lat="47.72485" lon="7.37011">
        <ele>350.074493</ele>
        <time>2012-01-29T09:53:13Z</time>
      </trkpt>
      <trkpt lat="47.72478" lon="7.37016">
        <ele>345.127502</ele>
        <time>2012-01-29T09:53:17Z</time>
      </trkpt>
      <trkpt lat="47.72468" lon="7.37026">
        <ele>339.760651</ele>
        <time>2012-01-29T09:53:22Z</time>
      </trkpt>
      <trkpt lat="47.72459" lon="7.37036">
        <ele>343.29248</ele>
        <time>2012-01-29T09:53:26Z</time>
      </trkpt>
      <trkpt lat="47.72449" lon="7.37043">
        <ele>342.800476</ele>
        <time>2012-01-29T09:53:30Z</time>
      </trkpt>
      <trkpt lat="47.72441" lon="7.37052">
        <ele>338.328491</ele>
        <time>2012-01-29T09:53:34Z</time>
      </trkpt>
      <trkpt lat="47.72433" lon="7.37064">
        <ele>337.308624</ele>
        <time>2012-01-29T09:53:39Z</time>
      </trkpt>
      <trkpt lat="47.72427" lon="7.37079">
        <ele>341.967529</ele>
        <time>2012-01-29T09:53:43Z</time>
      </trkpt>
      <trkpt lat="47.72424" lon="7.37094">
        <ele>343.951385</ele>
        <time>2012-01-29T09:53:47Z</time>
      </trkpt>
      <trkpt lat="47.7242" lon="7.37107">
        <ele>342.42926</ele>
        <time>2012-01-29T09:53:51Z</time>
      </trkpt>
      <trkpt lat="47.72416" lon="7.37122">
        <ele>345.036377</ele>
        <time>2012-01-29T09:53:55Z</time>
      </trkpt>
      <trkpt lat="47.72412" lon="7.37139">
        <ele>344.171082</ele>
        <time>2012-01-29T09:53:59Z</time>
      </trkpt>
      <trkpt lat="47.72409" lon="7.37159">
        <ele>348.156158</ele>
        <time>2012-01-29T09:54:03Z</time>
      </trkpt>
      <trkpt lat="47.72409" lon="7.37171">
        <ele>346.352295</ele>
        <time>2012-01-29T09:54:06Z</time>
      </trkpt>
      <trkpt lat="47.72409" lon="7.37184">
        <ele>344.944763</ele>
        <time>2012-01-29T09:54:10Z</time>
      </trkpt>
      <trkpt lat="47.72409" lon="7.37199">
        <ele>343.595856</ele>
        <time>2012-01-29T09:54:14Z</time>
      </trkpt>
      <trkpt lat="47.72409" lon="7.37206">
        <ele>344.110107</ele>
        <time>2012-01-29T09:54:18Z</time>
      </trkpt>
      <trkpt lat="47.72407" lon="7.37208">
        <ele>341.030823</ele>
        <time>2012-01-29T09:54:22Z</time>
      </trkpt>
      <trkpt lat="47.7241" lon="7.37215">
        <ele>335.285065</ele>
        <time>2012-01-29T09:54:26Z</time>
      </trkpt>
      <trkpt lat="47.7241" lon="7.37215">
        <ele>339.584686</ele>
        <time>2012-01-29T09:54:30Z</time>
      </trkpt>
      <trkpt lat="47.72409" lon="7.37217">
        <ele>350.580841</ele>
        <time>2012-01-29T09:54:34Z</time>
      </trkpt>
      <trkpt lat="47.72409" lon="7.37217">
        <ele>341.756622</ele>
        <time>2012-01-29T09:54:38Z</time>
      </trkpt>
      <trkpt lat="47.72409" lon="7.37217">
        <ele>338.110443</ele>
        <time>2012-01-29T09:54:41Z</time>
      </trkpt>
      <trkpt lat="47.72409" lon="7.37217">
        <ele>337.235657</ele>
        <time>2012-01-29T09:54:45Z</time>
      </trkpt>
      <trkpt lat="47.72409" lon="7.37217">
        <ele>341.109589</ele>
        <time>2012-01-29T09:54:49Z</time>
      </trkpt>
      <trkpt lat="47.72409" lon="7.37217">
        <ele>344.127411</ele>
        <time>2012-01-29T09:54:53Z</time>
      </trkpt>
      <trkpt lat="47.72409" lon="7.37217">
        <ele>342.564453</ele>
        <time>2012-01-29T09:54:57Z</time>
      </trkpt>
      <trkpt lat="47.72409" lon="7.37217">
        <ele>331.593536</ele>
        <time>2012-01-29T09:55:01Z</time>
      </trkpt>
      <trkpt lat="47.72409" lon="7.37217">
        <ele>327.697083</ele>
        <time>2012-01-29T09:55:05Z</time>
      </trkpt>
      <trkpt lat="47.72409" lon="7.37217">
        <ele>336.623901</ele>
        <time>2012-01-29T09:55:09Z</time>
      </trkpt>
      <trkpt lat="47.72409" lon="7.37217">
        <ele>341.706604</ele>
        <time>2012-01-29T09:55:12Z</time>
      </trkpt>
      <trkpt lat="47.72409" lon="7.37217">
        <ele>341.012421</ele>
        <time>2012-01-29T09:55:16Z</time>
      </trkpt>
      <trkpt lat="47.72409" lon="7.37217">
        <ele>337.6362</ele>
        <time>2012-01-29T09:55:20Z</time>
      </trkpt>
      <trkpt lat="47.72409" lon="7.37217">
        <ele>333.347839</ele>
        <time>2012-01-29T09:55:24Z</time>
      </trkpt>
      <trkpt lat="47.72411" lon="7.37218">
        <ele>326.668182</ele>
        <time>2012-01-29T09:55:28Z</time>
      </trkpt>
      <trkpt lat="47.72411" lon="7.37219">
        <ele>334.678833</ele>
        <time>2012-01-29T09:55:32Z</time>
      </trkpt>
      <trkpt lat="47.72417" lon="7.37215">
        <ele>337.466187</ele>
        <time>2012-01-29T09:55:38Z</time>
      </trkpt>
      <trkpt lat="47.72418" lon="7.37215">
        <ele>341.291809</ele>
        <time>2012-01-29T09:55:42Z</time>
      </trkpt>
      <trkpt lat="47.72418" lon="7.37215">
        <ele>343.52771</ele>
        <time>2012-01-29T09:55:46Z</time>
      </trkpt>
      <trkpt lat="47.72418" lon="7.37215">
        <ele>335.737305</ele>
        <time>2012-01-29T09:55:50Z</time>
      </trkpt>
      <trkpt lat="47.72418" lon="7.37215">
        <ele>325.499054</ele>
        <time>2012-01-29T09:55:54Z</time>
      </trkpt>
      <trkpt lat="47.72418" lon="7.37215">
        <ele>324.838074</ele>
        <time>2012-01-29T09:55:58Z</time>
      </trkpt>
      <trkpt lat="47.72418" lon="7.37215">
        <ele>338.621155</ele>
        <time>2012-01-29T09:56:01Z</time>
      </trkpt>
      <trkpt lat="47.72418" lon="7.37215">
        <ele>322.572327</ele>
        <time>2012-01-29T09:56:05Z</time>
      </trkpt>
      <trkpt lat="47.72418" lon="7.37215">
        <ele>309.918671</ele>
        <time>2012-01-29T09:56:09Z</time>
      </trkpt>
      <trkpt lat="47.72418" lon="7.37215">
        <ele>307.983582</ele>
        <time>2012-01-29T09:56:13Z</time>
      </trkpt>
      <trkpt lat="47.72418" lon="7.37215">
        <ele>311.329956</ele>
        <time>2012-01-29T09:56:17Z</time>
      </trkpt>
      <trkpt lat="47.72418" lon="7.37215">
        <ele>311.984192</ele>
        <time>2012-01-29T09:56:21Z</time>
      </trkpt>
      <trkpt lat="47.72418" lon="7.37215">
        <ele>314.322571</ele>
        <time>2012-01-29T09:56:26Z</time>
      </trkpt>
      <trkpt lat="47.72418" lon="7.37215">
        <ele>331.078644</ele>
        <time>2012-01-29T09:56:30Z</time>
      </trkpt>
      <trkpt lat="47.72418" lon="7.37215">
        <ele>332.039185</ele>
        <time>2012-01-29T09:56:34Z</time>
      </trkpt>
      <trkpt lat="47.72418" lon="7.37215">
        <ele>320.482941</ele>
        <time>2012-01-29T09:56:38Z</time>
      </trkpt>
      <trkpt lat="47.72418" lon="7.37215">
        <ele>307.497986</ele>
        <time>2012-01-29T09:56:41Z</time>
      </trkpt>
      <trkpt lat="47.72418" lon="7.37215">
        <ele>309.109131</ele>
        <time>2012-01-29T09:56:45Z</time>
      </trkpt>
      <trkpt lat="47.72418" lon="7.37215">
        <ele>313.190704</ele>
        <time>2012-01-29T09:56:49Z</time>
      </trkpt>
      <trkpt lat="47.72418" lon="7.37215">
        <ele>338.563385</ele>
        <time>2012-01-29T09:56:54Z</time>
      </trkpt>
      <trkpt lat="47.72413" lon="7.37219">
        <ele>332.546997</ele>
        <time>2012-01-29T09:57:01Z</time>
      </trkpt>
      <trkpt lat="47.72407" lon="7.37221">
        <ele>332.773865</ele>
        <time>2012-01-29T09:57:05Z</time>
      </trkpt>
      <trkpt lat="47.72396" lon="7.37238">
        <ele>332.933655</ele>
        <time>2012-01-29T09:57:09Z</time>
      </trkpt>
      <trkpt lat="47.7238" lon="7.37267">
        <ele>335.74707</ele>
        <time>2012-01-29T09:57:13Z</time>
      </trkpt>
      <trkpt lat="47.72369" lon="7.37288">
        <ele>340.921387</ele>
        <time>2012-01-29T09:57:17Z</time>
      </trkpt>
      <trkpt lat="47.72362" lon="7.37304">
        <ele>345.393219</ele>
        <time>2012-01-29T09:57:21Z</time>
      </trkpt>
      <trkpt lat="47.72358" lon="7.37315">
        <ele>340.387177</ele>
        <time>2012-01-29T09:57:25Z</time>
      </trkpt>
      <trkpt lat="47.72352" lon="7.37329">
        <ele>339.051819</ele>
        <time>2012-01-29T09:57:29Z</time>
      </trkpt>
      <trkpt lat="47.72345" lon="7.37344">
        <ele>335.620178</ele>
        <time>2012-01-29T09:57:33Z</time>
      </trkpt>
      <trkpt lat="47.72342" lon="7.37369">
        <ele>335.782349</ele>
        <time>2012-01-29T09:57:40Z</time>
      </trkpt>
      <trkpt lat="47.72339" lon="7.3738">
        <ele>338.087219</ele>
        <time>2012-01-29T09:57:44Z</time>
      </trkpt>
      <trkpt lat="47.72335" lon="7.37395">
        <ele>334.913361</ele>
        <time>2012-01-29T09:57:48Z</time>
      </trkpt>
      <trkpt lat="47.72333" lon="7.37413">
        <ele>336.154236</ele>
        <time>2012-01-29T09:57:52Z</time>
      </trkpt>
      <trkpt lat="47.72331" lon="7.37428">
        <ele>339.359894</ele>
        <time>2012-01-29T09:57:56Z</time>
      </trkpt>
      <trkpt lat="47.7233" lon="7.37443">
        <ele>344.739868</ele>
        <time>2012-01-29T09:58:00Z</time>
      </trkpt>
      <trkpt lat="47.72328" lon="7.37459">
        <ele>344.807434</ele>
        <time>2012-01-29T09:58:04Z</time>
      </trkpt>
      <trkpt lat="47.72329" lon="7.3748">
        <ele>341.747589</ele>
        <time>2012-01-29T09:58:08Z</time>
      </trkpt>
      <trkpt lat="47.72327" lon="7.37497">
        <ele>341.469055</ele>
        <time>2012-01-29T09:58:12Z</time>
      </trkpt>
      <trkpt lat="47.72326" lon="7.37522">
        <ele>341.986938</ele>
        <time>2012-01-29T09:58:16Z</time>
      </trkpt>
      <trkpt lat="47.72324" lon="7.37535">
        <ele>338.989838</ele>
        <time>2012-01-29T09:58:20Z</time>
      </trkpt>
      <trkpt lat="47.72321" lon="7.37548">
        <ele>341.005341</ele>
        <time>2012-01-29T09:58:24Z</time>
      </trkpt>
      <trkpt lat="47.72317" lon="7.37563">
        <ele>342.93866</ele>
        <time>2012-01-29T09:58:28Z</time>
      </trkpt>
      <trkpt lat="47.72315" lon="7.37579">
        <ele>342.63736</ele>
        <time>2012-01-29T09:58:32Z</time>
      </trkpt>
      <trkpt lat="47.72313" lon="7.37593">
        <ele>342.383148</ele>
        <time>2012-01-29T09:58:36Z</time>
      </trkpt>
      <trkpt lat="47.72311" lon="7.37602">
        <ele>342.179962</ele>
        <time>2012-01-29T09:58:43Z</time>
      </trkpt>
      <trkpt lat="47.72311" lon="7.37602">
        <ele>342.93631</ele>
        <time>2012-01-29T09:58:47Z</time>
      </trkpt>
      <trkpt lat="47.72311" lon="7.37602">
        <ele>342.630035</ele>
        <time>2012-01-29T09:58:51Z</time>
      </trkpt>
      <trkpt lat="47.72311" lon="7.37602">
        <ele>339.090546</ele>
        <time>2012-01-29T09:58:55Z</time>
      </trkpt>
      <trkpt lat="47.72311" lon="7.37602">
        <ele>340.866425</ele>
        <time>2012-01-29T09:58:59Z</time>
      </trkpt>
      <trkpt lat="47.72311" lon="7.37602">
        <ele>346.710266</ele>
        <time>2012-01-29T09:59:03Z</time>
      </trkpt>
      <trkpt lat="47.72311" lon="7.37602">
        <ele>342.326752</ele>
        <time>2012-01-29T09:59:07Z</time>
      </trkpt>
      <trkpt lat="47.72311" lon="7.37602">
        <ele>343.478546</ele>
        <time>2012-01-29T09:59:11Z</time>
      </trkpt>
      <trkpt lat="47.72311" lon="7.37602">
        <ele>338.597198</ele>
        <time>2012-01-29T09:59:15Z</time>
      </trkpt>
      <trkpt lat="47.72311" lon="7.37602">
        <ele>334.395691</ele>
        <time>2012-01-29T09:59:18Z</time>
      </trkpt>
      <trkpt lat="47.72311" lon="7.37602">
        <ele>332.655121</ele>
        <time>2012-01-29T09:59:22Z</time>
      </trkpt>
      <trkpt lat="47.72311" lon="7.37602">
        <ele>335.638489</ele>
        <time>2012-01-29T09:59:26Z</time>
      </trkpt>
      <trkpt lat="47.72311" lon="7.37602">
        <ele>337.686737</ele>
        <time>2012-01-29T09:59:30Z</time>
      </trkpt>
      <trkpt lat="47.72311" lon="7.37602">
        <ele>338.86673</ele>
        <time>2012-01-29T09:59:34Z</time>
      </trkpt>
      <trkpt lat="47.72311" lon="7.37602">
        <ele>343.473083</ele>
        <time>2012-01-29T09:59:38Z</time>
      </trkpt>
      <trkpt lat="47.72311" lon="7.37602">
        <ele>346.187134</ele>
        <time>2012-01-29T09:59:42Z</time>
      </trkpt>
      <trkpt lat="47.72311" lon="7.37602">
        <ele>343.81369</ele>
        <time>2012-01-29T09:59:46Z</time>
      </trkpt>
      <trkpt lat="47.72311" lon="7.37602">
        <ele>342.217255</ele>
        <time>2012-01-29T09:59:51Z</time>
      </trkpt>
      <trkpt lat="47.72311" lon="7.37602">
        <ele>350.676727</ele>
        <time>2012-01-29T09:59:55Z</time>
      </trkpt>
      <trkpt lat="47.72311" lon="7.37602">
        <ele>346.543793</ele>
        <time>2012-01-29T09:59:59Z</time>
      </trkpt>
      <trkpt lat="47.72311" lon="7.37602">
        <ele>345.773682</ele>
        <time>2012-01-29T10:00:04Z</time>
      </trkpt>
      <trkpt lat="47.72311" lon="7.37602">
        <ele>347.604858</ele>
        <time>2012-01-29T10:00:09Z</time>
      </trkpt>
      <trkpt lat="47.72312" lon="7.37602">
        <ele>345.272705</ele>
        <time>2012-01-29T10:00:15Z</time>
      </trkpt>
      <trkpt lat="47.72312" lon="7.37602">
        <ele>341.523834</ele>
        <time>2012-01-29T10:00:19Z</time>
      </trkpt>
      <trkpt lat="47.72312" lon="7.37601">
        <ele>351.108032</ele>
        <time>2012-01-29T10:00:23Z</time>
      </trkpt>
      <trkpt lat="47.72312" lon="7.37601">
        <ele>353.711639</ele>
        <time>2012-01-29T10:00:27Z</time>
      </trkpt>
      <trkpt lat="47.72312" lon="7.37601">
        <ele>347.261841</ele>
        <time>2012-01-29T10:00:32Z</time>
      </trkpt>
      <trkpt lat="47.72312" lon="7.37601">
        <ele>327.290833</ele>
        <time>2012-01-29T10:00:37Z</time>
      </trkpt>
      <trkpt lat="47.72312" lon="7.37601">
        <ele>323.418365</ele>
        <time>2012-01-29T10:00:43Z</time>
      </trkpt>
      <trkpt lat="47.72312" lon="7.37601">
        <ele>310.340607</ele>
        <time>2012-01-29T10:00:49Z</time>
      </trkpt>
      <trkpt lat="47.72312" lon="7.37601">
        <ele>307.150208</ele>
        <time>2012-01-29T10:00:53Z</time>
      </trkpt>
      <trkpt lat="47.72311" lon="7.37605">
        <ele>334.654968</ele>
        <time>2012-01-29T10:01:00Z</time>
      </trkpt>
      <trkpt lat="47.72311" lon="7.37605">
        <ele>339.075348</ele>
        <time>2012-01-29T10:01:04Z</time>
      </trkpt>
      <trkpt lat="47.72311" lon="7.37605">
        <ele>337.662964</ele>
        <time>2012-01-29T10:01:08Z</time>
      </trkpt>
      <trkpt lat="47.72311" lon="7.37605">
        <ele>338.109039</ele>
        <time>2012-01-29T10:01:12Z</time>
      </trkpt>
      <trkpt lat="47.72311" lon="7.37605">
        <ele>335.42804</ele>
        <time>2012-01-29T10:01:16Z</time>
      </trkpt>
      <trkpt lat="47.72311" lon="7.37605">
        <ele>336.222839</ele>
        <time>2012-01-29T10:01:20Z</time>
      </trkpt>
      <trkpt lat="47.72311" lon="7.37605">
        <ele>336.12326</ele>
        <time>2012-01-29T10:01:24Z</time>
      </trkpt>
      <trkpt lat="47.72311" lon="7.37605">
        <ele>334.447449</ele>
        <time>2012-01-29T10:01:28Z</time>
      </trkpt>
      <trkpt lat="47.72311" lon="7.37605">
        <ele>334.116974</ele>
        <time>2012-01-29T10:01:32Z</time>
      </trkpt>
      <trkpt lat="47.72311" lon="7.37605">
        <ele>334.121979</ele>
        <time>2012-01-29T10:01:35Z</time>
      </trkpt>
      <trkpt lat="47.72311" lon="7.37605">
        <ele>330.002655</ele>
        <time>2012-01-29T10:01:39Z</time>
      </trkpt>
      <trkpt lat="47.72311" lon="7.37605">
        <ele>326.586426</ele>
        <time>2012-01-29T10:01:43Z</time>
      </trkpt>
      <trkpt lat="47.72311" lon="7.37605">
        <ele>322.955841</ele>
        <time>2012-01-29T10:01:47Z</time>
      </trkpt>
      <trkpt lat="47.72311" lon="7.37605">
        <ele>321.225647</ele>
        <time>2012-01-29T10:01:51Z</time>
      </trkpt>
      <trkpt lat="47.72311" lon="7.37605">
        <ele>324.305511</ele>
        <time>2012-01-29T10:01:55Z</time>
      </trkpt>
      <trkpt lat="47.72311" lon="7.37605">
        <ele>324.348053</ele>
        <time>2012-01-29T10:01:59Z</time>
      </trkpt>
      <trkpt lat="47.72311" lon="7.37605">
        <ele>323.501068</ele>
        <time>2012-01-29T10:02:03Z</time>
      </trkpt>
      <trkpt lat="47.72311" lon="7.37605">
        <ele>325.282898</ele>
        <time>2012-01-29T10:02:07Z</time>
      </trkpt>
      <trkpt lat="47.72311" lon="7.37605">
        <ele>325.518768</ele>
        <time>2012-01-29T10:02:10Z</time>
      </trkpt>
      <trkpt lat="47.72311" lon="7.37605">
        <ele>325.579071</ele>
        <time>2012-01-29T10:02:14Z</time>
      </trkpt>
      <trkpt lat="47.72311" lon="7.37605">
        <ele>328.721039</ele>
        <time>2012-01-29T10:02:18Z</time>
      </trkpt>
      <trkpt lat="47.72311" lon="7.37605">
        <ele>334.600739</ele>
        <time>2012-01-29T10:02:22Z</time>
      </trkpt>
      <trkpt lat="47.72311" lon="7.37605">
        <ele>337.777924</ele>
        <time>2012-01-29T10:02:26Z</time>
      </trkpt>
      <trkpt lat="47.72311" lon="7.37605">
        <ele>340.598389</ele>
        <time>2012-01-29T10:02:39Z</time>
      </trkpt>
      <trkpt lat="47.72311" lon="7.37605">
        <ele>340.598389</ele>
        <time>2012-01-29T10:02:39Z</time>
      </trkpt>
      <trkpt lat="47.72311" lon="7.37605">
        <ele>340.886627</ele>
        <time>2012-01-29T10:02:40Z</time>
      </trkpt>
      <trkpt lat="47.72308" lon="7.37602">
        <ele>341.193939</ele>
        <time>2012-01-29T10:02:41Z</time>
      </trkpt>
      <trkpt lat="47.72314" lon="7.3761">
        <ele>343.166382</ele>
        <time>2012-01-29T10:02:46Z</time>
      </trkpt>
      <trkpt lat="47.7232" lon="7.37618">
        <ele>346.204468</ele>
        <time>2012-01-29T10:02:50Z</time>
      </trkpt>
      <trkpt lat="47.7233" lon="7.37631">
        <ele>342.59726</ele>
        <time>2012-01-29T10:02:55Z</time>
      </trkpt>
      <trkpt lat="47.72341" lon="7.37651">
        <ele>340.594971</ele>
        <time>2012-01-29T10:03:00Z</time>
      </trkpt>
      <trkpt lat="47.72352" lon="7.37677">
        <ele>342.675262</ele>
        <time>2012-01-29T10:03:04Z</time>
      </trkpt>
      <trkpt lat="47.72361" lon="7.377">
        <ele>341.1875</ele>
        <time>2012-01-29T10:03:08Z</time>
      </trkpt>
      <trkpt lat="47.7237" lon="7.37728">
        <ele>336.415009</ele>
        <time>2012-01-29T10:03:12Z</time>
      </trkpt>
      <trkpt lat="47.72378" lon="7.37755">
        <ele>335.890442</ele>
        <time>2012-01-29T10:03:16Z</time>
      </trkpt>
      <trkpt lat="47.72385" lon="7.37784">
        <ele>335.041656</ele>
        <time>2012-01-29T10:03:20Z</time>
      </trkpt>
      <trkpt lat="47.72388" lon="7.37809">
        <ele>340.212585</ele>
        <time>2012-01-29T10:03:24Z</time>
      </trkpt>
      <trkpt lat="47.72392" lon="7.37837">
        <ele>342.278229</ele>
        <time>2012-01-29T10:03:28Z</time>
      </trkpt>
      <trkpt lat="47.72399" lon="7.37863">
        <ele>340.861725</ele>
        <time>2012-01-29T10:03:32Z</time>
      </trkpt>
      <trkpt lat="47.72402" lon="7.37915">
        <ele>334.922913</ele>
        <time>2012-01-29T10:03:37Z</time>
      </trkpt>
      <trkpt lat="47.72398" lon="7.37958">
        <ele>327.940857</ele>
        <time>2012-01-29T10:03:41Z</time>
      </trkpt>
      <trkpt lat="47.72395" lon="7.38004">
        <ele>325.392975</ele>
        <time>2012-01-29T10:03:45Z</time>
      </trkpt>
      <trkpt lat="47.72392" lon="7.38048">
        <ele>326.779083</ele>
        <time>2012-01-29T10:03:49Z</time>
      </trkpt>
      <trkpt lat="47.72394" lon="7.38091">
        <ele>321.154297</ele>
        <time>2012-01-29T10:03:53Z</time>
      </trkpt>
      <trkpt lat="47.72399" lon="7.38131">
        <ele>315.313385</ele>
        <time>2012-01-29T10:03:57Z</time>
      </trkpt>
      <trkpt lat="47.72406" lon="7.38175">
        <ele>317.94339</ele>
        <time>2012-01-29T10:04:02Z</time>
      </trkpt>
      <trkpt lat="47.72411" lon="7.38199">
        <ele>317.659485</ele>
        <time>2012-01-29T10:04:05Z</time>
      </trkpt>
      <trkpt lat="47.72425" lon="7.38228">
        <ele>315.537537</ele>
        <time>2012-01-29T10:04:10Z</time>
      </trkpt>
      <trkpt lat="47.72429" lon="7.38235">
        <ele>321.431335</ele>
        <time>2012-01-29T10:04:14Z</time>
      </trkpt>
      <trkpt lat="47.72431" lon="7.38238">
        <ele>321.744446</ele>
        <time>2012-01-29T10:04:18Z</time>
      </trkpt>
      <trkpt lat="47.72433" lon="7.38245">
        <ele>322.10791</ele>
        <time>2012-01-29T10:04:22Z</time>
      </trkpt>
      <trkpt lat="47.72438" lon="7.38256">
        <ele>320.50412</ele>
        <time>2012-01-29T10:04:26Z</time>
      </trkpt>
      <trkpt lat="47.72443" lon="7.38254">
        <ele>320.839966</ele>
        <time>2012-01-29T10:04:30Z</time>
      </trkpt>
      <trkpt lat="47.72454" lon="7.38251">
        <ele>321.986694</ele>
        <time>2012-01-29T10:04:34Z</time>
      </trkpt>
      <trkpt lat="47.72466" lon="7.38247">
        <ele>322.288422</ele>
        <time>2012-01-29T10:04:38Z</time>
      </trkpt>
      <trkpt lat="47.7247" lon="7.38245">
        <ele>322.215851</ele>
        <time>2012-01-29T10:04:42Z</time>
      </trkpt>
      <trkpt lat="47.72472" lon="7.38244">
        <ele>322.399353</ele>
        <time>2012-01-29T10:04:46Z</time>
      </trkpt>
      <trkpt lat="47.72478" lon="7.38241">
        <ele>323.153046</ele>
        <time>2012-01-29T10:04:50Z</time>
      </trkpt>
      <trkpt lat="47.72488" lon="7.38235">
        <ele>323.758392</ele>
        <time>2012-01-29T10:04:54Z</time>
      </trkpt>
      <trkpt lat="47.72503" lon="7.38231">
        <ele>321.237427</ele>
        <time>2012-01-29T10:04:58Z</time>
      </trkpt>
      <trkpt lat="47.72524" lon="7.38226">
        <ele>322.568512</ele>
        <time>2012-01-29T10:05:03Z</time>
      </trkpt>
      <trkpt lat="47.72532" lon="7.38239">
        <ele>317.778137</ele>
        <time>2012-01-29T10:05:07Z</time>
      </trkpt>
      <trkpt lat="47.72536" lon="7.38261">
        <ele>315.540039</ele>
        <time>2012-01-29T10:05:11Z</time>
      </trkpt>
      <trkpt lat="47.72539" lon="7.38284">
        <ele>317.823029</ele>
        <time>2012-01-29T10:05:15Z</time>
      </trkpt>
      <trkpt lat="47.72538" lon="7.38308">
        <ele>318.168213</ele>
        <time>2012-01-29T10:05:19Z</time>
      </trkpt>
      <trkpt lat="47.72538" lon="7.38332">
        <ele>319.567261</ele>
        <time>2012-01-29T10:05:23Z</time>
      </trkpt>
      <trkpt lat="47.7254" lon="7.38359">
        <ele>320.633606</ele>
        <time>2012-01-29T10:05:28Z</time>
      </trkpt>
      <trkpt lat="47.7255" lon="7.38392">
        <ele>321.596375</ele>
        <time>2012-01-29T10:05:34Z</time>
      </trkpt>
      <trkpt lat="47.7256" lon="7.38418">
        <ele>324.478851</ele>
        <time>2012-01-29T10:05:39Z</time>
      </trkpt>
      <trkpt lat="47.72568" lon="7.38438">
        <ele>321.931458</ele>
        <time>2012-01-29T10:05:43Z</time>
      </trkpt>
      <trkpt lat="47.72576" lon="7.38456">
        <ele>320.273163</ele>
        <time>2012-01-29T10:05:47Z</time>
      </trkpt>
      <trkpt lat="47.72586" lon="7.38479">
        <ele>330.277039</ele>
        <time>2012-01-29T10:05:51Z</time>
      </trkpt>
      <trkpt lat="47.72599" lon="7.38504">
        <ele>328.671234</ele>
        <time>2012-01-29T10:05:56Z</time>
      </trkpt>
      <trkpt lat="47.72609" lon="7.38523">
        <ele>328.650818</ele>
        <time>2012-01-29T10:06:00Z</time>
      </trkpt>
      <trkpt lat="47.72619" lon="7.38539">
        <ele>329.510223</ele>
        <time>2012-01-29T10:06:04Z</time>
      </trkpt>
      <trkpt lat="47.72629" lon="7.38559">
        <ele>328.371643</ele>
        <time>2012-01-29T10:06:08Z</time>
      </trkpt>
      <trkpt lat="47.72641" lon="7.38579">
        <ele>330.974792</ele>
        <time>2012-01-29T10:06:12Z</time>
      </trkpt>
      <trkpt lat="47.72657" lon="7.38591">
        <ele>331.816528</ele>
        <time>2012-01-29T10:06:17Z</time>
      </trkpt>
      <trkpt lat="47.72674" lon="7.38595">
        <ele>331.653503</ele>
        <time>2012-01-29T10:06:22Z</time>
      </trkpt>
      <trkpt lat="47.72686" lon="7.38591">
        <ele>332.661285</ele>
        <time>2012-01-29T10:06:26Z</time>
      </trkpt>
      <trkpt lat="47.72698" lon="7.38593">
        <ele>332.179108</ele>
        <time>2012-01-29T10:06:30Z</time>
      </trkpt>
      <trkpt lat="47.72705" lon="7.38609">
        <ele>333.044922</ele>
        <time>2012-01-29T10:06:34Z</time>
      </trkpt>
      <trkpt lat="47.72712" lon="7.38634">
        <ele>331.49707</ele>
        <time>2012-01-29T10:06:39Z</time>
      </trkpt>
      <trkpt lat="47.72718" lon="7.38654">
        <ele>331.933289</ele>
        <time>2012-01-29T10:06:43Z</time>
      </trkpt>
      <trkpt lat="47.72724" lon="7.38676">
        <ele>333.77713</ele>
        <time>2012-01-29T10:06:47Z</time>
      </trkpt>
      <trkpt lat="47.72733" lon="7.38704">
        <ele>331.978302</ele>
        <time>2012-01-29T10:06:52Z</time>
      </trkpt>
      <trkpt lat="47.72738" lon="7.38727">
        <ele>333.019989</ele>
        <time>2012-01-29T10:06:56Z</time>
      </trkpt>
      <trkpt lat="47.72743" lon="7.38749">
        <ele>333.468018</ele>
        <time>2012-01-29T10:07:00Z</time>
      </trkpt>
      <trkpt lat="47.72749" lon="7.3878">
        <ele>332.996002</ele>
        <time>2012-01-29T10:07:05Z</time>
      </trkpt>
      <trkpt lat="47.72753" lon="7.38805">
        <ele>330.950287</ele>
        <time>2012-01-29T10:07:09Z</time>
      </trkpt>
      <trkpt lat="47.72758" lon="7.38838">
        <ele>332.364563</ele>
        <time>2012-01-29T10:07:14Z</time>
      </trkpt>
      <trkpt lat="47.72764" lon="7.38872">
        <ele>329.716614</ele>
        <time>2012-01-29T10:07:19Z</time>
      </trkpt>
      <trkpt lat="47.7277" lon="7.3891">
        <ele>326.745789</ele>
        <time>2012-01-29T10:07:25Z</time>
      </trkpt>
      <trkpt lat="47.72767" lon="7.38931">
        <ele>325.867645</ele>
        <time>2012-01-29T10:07:29Z</time>
      </trkpt>
      <trkpt lat="47.72752" lon="7.38957">
        <ele>324.146912</ele>
        <time>2012-01-29T10:07:36Z</time>
      </trkpt>
      <trkpt lat="47.72752" lon="7.38958">
        <ele>320.666992</ele>
        <time>2012-01-29T10:07:41Z</time>
      </trkpt>
      <trkpt lat="47.72752" lon="7.38958">
        <ele>320.666992</ele>
        <time>2012-01-29T10:07:45Z</time>
      </trkpt>
      <trkpt lat="47.7275" lon="7.38963">
        <ele>322.051575</ele>
        <time>2012-01-29T10:07:49Z</time>
      </trkpt>
      <trkpt lat="47.72752" lon="7.38981">
        <ele>322.829498</ele>
        <time>2012-01-29T10:07:53Z</time>
      </trkpt>
      <trkpt lat="47.72759" lon="7.39">
        <ele>324.394775</ele>
        <time>2012-01-29T10:07:58Z</time>
      </trkpt>
      <trkpt lat="47.72773" lon="7.39055">
        <ele>324.411957</ele>
        <time>2012-01-29T10:08:06Z</time>
      </trkpt>
      <trkpt lat="47.72786" lon="7.39108">
        <ele>328.403198</ele>
        <time>2012-01-29T10:08:14Z</time>
      </trkpt>
      <trkpt lat="47.72794" lon="7.39144">
        <ele>322.291718</ele>
        <time>2012-01-29T10:08:21Z</time>
      </trkpt>
      <trkpt lat="47.72801" lon="7.39174">
        <ele>319.573212</ele>
        <time>2012-01-29T10:08:28Z</time>
      </trkpt>
      <trkpt lat="47.72807" lon="7.39206">
        <ele>323.470093</ele>
        <time>2012-01-29T10:08:34Z</time>
      </trkpt>
      <trkpt lat="47.72815" lon="7.3924">
        <ele>321.387848</ele>
        <time>2012-01-29T10:08:40Z</time>
      </trkpt>
      <trkpt lat="47.7282" lon="7.39269">
        <ele>321.230011</ele>
        <time>2012-01-29T10:08:47Z</time>
      </trkpt>
      <trkpt lat="47.72824" lon="7.39287">
        <ele>324.930969</ele>
        <time>2012-01-29T10:08:53Z</time>
      </trkpt>
      <trkpt lat="47.72825" lon="7.39297">
        <ele>320.979767</ele>
        <time>2012-01-29T10:08:57Z</time>
      </trkpt>
      <trkpt lat="47.72831" lon="7.393">
        <ele>324.03476</ele>
        <time>2012-01-29T10:09:01Z</time>
      </trkpt>
      <trkpt lat="47.72835" lon="7.39302">
        <ele>322.882385</ele>
        <time>2012-01-29T10:09:05Z</time>
      </trkpt>
      <trkpt lat="47.72839" lon="7.39308">
        <ele>323.131531</ele>
        <time>2012-01-29T10:09:09Z</time>
      </trkpt>
      <trkpt lat="47.72842" lon="7.39309">
        <ele>325.737854</ele>
        <time>2012-01-29T10:09:14Z</time>
      </trkpt>
      <trkpt lat="47.72848" lon="7.39307">
        <ele>326.749786</ele>
        <time>2012-01-29T10:09:18Z</time>
      </trkpt>
      <trkpt lat="47.72852" lon="7.39305">
        <ele>327.169159</ele>
        <time>2012-01-29T10:09:22Z</time>
      </trkpt>
      <trkpt lat="47.72855" lon="7.39304">
        <ele>327.28183</ele>
        <time>2012-01-29T10:09:26Z</time>
      </trkpt>
      <trkpt lat="47.72859" lon="7.39303">
        <ele>327.176086</ele>
        <time>2012-01-29T10:09:30Z</time>
      </trkpt>
      <trkpt lat="47.72865" lon="7.393">
        <ele>326.316772</ele>
        <time>2012-01-29T10:09:34Z</time>
      </trkpt>
      <trkpt lat="47.72872" lon="7.393">
        <ele>326.608154</ele>
        <time>2012-01-29T10:09:38Z</time>
      </trkpt>
      <trkpt lat="47.72875" lon="7.39312">
        <ele>325.746368</ele>
        <time>2012-01-29T10:09:43Z</time>
      </trkpt>
      <trkpt lat="47.72876" lon="7.39327">
        <ele>325.675262</ele>
        <time>2012-01-29T10:09:47Z</time>
      </trkpt>
      <trkpt lat="47.72879" lon="7.39344">
        <ele>323.159851</ele>
        <time>2012-01-29T10:09:51Z</time>
      </trkpt>
      <trkpt lat="47.72882" lon="7.39358">
        <ele>326.23172</ele>
        <time>2012-01-29T10:09:55Z</time>
      </trkpt>
      <trkpt lat="47.72888" lon="7.39371">
        <ele>328.037079</ele>
        <time>2012-01-29T10:09:59Z</time>
      </trkpt>
      <trkpt lat="47.72891" lon="7.39392">
        <ele>327.400787</ele>
        <time>2012-01-29T10:10:03Z</time>
      </trkpt>
      <trkpt lat="47.72893" lon="7.39417">
        <ele>324.626068</ele>
        <time>2012-01-29T10:10:08Z</time>
      </trkpt>
      <trkpt lat="47.72899" lon="7.39433">
        <ele>328.223907</ele>
        <time>2012-01-29T10:10:12Z</time>
      </trkpt>
      <trkpt lat="47.72911" lon="7.3946">
        <ele>328.891602</ele>
        <time>2012-01-29T10:10:17Z</time>
      </trkpt>
      <trkpt lat="47.72916" lon="7.39481">
        <ele>334.817993</ele>
        <time>2012-01-29T10:10:22Z</time>
      </trkpt>
      <trkpt lat="47.72918" lon="7.39487">
        <ele>334.70224</ele>
        <time>2012-01-29T10:10:26Z</time>
      </trkpt>
      <trkpt lat="47.72919" lon="7.39488">
        <ele>329.605774</ele>
        <time>2012-01-29T10:10:31Z</time>
      </trkpt>
      <trkpt lat="47.72921" lon="7.3949">
        <ele>322.847046</ele>
        <time>2012-01-29T10:10:36Z</time>
      </trkpt>
      <trkpt lat="47.72921" lon="7.3949">
        <ele>324.027588</ele>
        <time>2012-01-29T10:10:40Z</time>
      </trkpt>
      <trkpt lat="47.72921" lon="7.3949">
        <ele>320.924408</ele>
        <time>2012-01-29T10:10:44Z</time>
      </trkpt>
      <trkpt lat="47.72921" lon="7.3949">
        <ele>324.792145</ele>
        <time>2012-01-29T10:10:48Z</time>
      </trkpt>
      <trkpt lat="47.72921" lon="7.3949">
        <ele>327.407013</ele>
        <time>2012-01-29T10:10:53Z</time>
      </trkpt>
      <trkpt lat="47.72921" lon="7.3949">
        <ele>328.119781</ele>
        <time>2012-01-29T10:10:58Z</time>
      </trkpt>
      <trkpt lat="47.72921" lon="7.3949">
        <ele>333.976501</ele>
        <time>2012-01-29T10:11:03Z</time>
      </trkpt>
      <trkpt lat="47.72921" lon="7.3949">
        <ele>325.457275</ele>
        <time>2012-01-29T10:11:07Z</time>
      </trkpt>
      <trkpt lat="47.72921" lon="7.3949">
        <ele>321.981628</ele>
        <time>2012-01-29T10:11:11Z</time>
      </trkpt>
      <trkpt lat="47.72921" lon="7.3949">
        <ele>321.392426</ele>
        <time>2012-01-29T10:11:15Z</time>
      </trkpt>
      <trkpt lat="47.72922" lon="7.39497">
        <ele>322.707306</ele>
        <time>2012-01-29T10:11:19Z</time>
      </trkpt>
      <trkpt lat="47.72922" lon="7.39512">
        <ele>325.387177</ele>
        <time>2012-01-29T10:11:24Z</time>
      </trkpt>
      <trkpt lat="47.72925" lon="7.39528">
        <ele>335.469849</ele>
        <time>2012-01-29T10:11:28Z</time>
      </trkpt>
      <trkpt lat="47.72927" lon="7.39543">
        <ele>336.565765</ele>
        <time>2012-01-29T10:11:32Z</time>
      </trkpt>
      <trkpt lat="47.72928" lon="7.39558">
        <ele>336.624725</ele>
        <time>2012-01-29T10:11:36Z</time>
      </trkpt>
      <trkpt lat="47.72937" lon="7.39568">
        <ele>329.886505</ele>
        <time>2012-01-29T10:11:40Z</time>
      </trkpt>
      <trkpt lat="47.72949" lon="7.39594">
        <ele>331.877716</ele>
        <time>2012-01-29T10:11:45Z</time>
      </trkpt>
      <trkpt lat="47.72956" lon="7.39616">
        <ele>331.401337</ele>
        <time>2012-01-29T10:11:49Z</time>
      </trkpt>
      <trkpt lat="47.72964" lon="7.39645">
        <ele>325.181366</ele>
        <time>2012-01-29T10:11:53Z</time>
      </trkpt>
      <trkpt lat="47.72967" lon="7.39668">
        <ele>324.899078</ele>
        <time>2012-01-29T10:11:57Z</time>
      </trkpt>
      <trkpt lat="47.72972" lon="7.39684">
        <ele>327.47876</ele>
        <time>2012-01-29T10:12:01Z</time>
      </trkpt>
      <trkpt lat="47.72978" lon="7.39702">
        <ele>329.91394</ele>
        <time>2012-01-29T10:12:06Z</time>
      </trkpt>
      <trkpt lat="47.72984" lon="7.3972">
        <ele>326.955109</ele>
        <time>2012-01-29T10:12:10Z</time>
      </trkpt>
      <trkpt lat="47.72991" lon="7.39745">
        <ele>325.709991</ele>
        <time>2012-01-29T10:12:14Z</time>
      </trkpt>
      <trkpt lat="47.72997" lon="7.39772">
        <ele>324.143585</ele>
        <time>2012-01-29T10:12:18Z</time>
      </trkpt>
      <trkpt lat="47.73001" lon="7.39799">
        <ele>321.429993</ele>
        <time>2012-01-29T10:12:22Z</time>
      </trkpt>
      <trkpt lat="47.73007" lon="7.3983">
        <ele>319.733002</ele>
        <time>2012-01-29T10:12:27Z</time>
      </trkpt>
      <trkpt lat="47.73011" lon="7.39853">
        <ele>319.008789</ele>
        <time>2012-01-29T10:12:31Z</time>
      </trkpt>
      <trkpt lat="47.73014" lon="7.39871">
        <ele>319.941132</ele>
        <time>2012-01-29T10:12:35Z</time>
      </trkpt>
      <trkpt lat="47.73016" lon="7.39882">
        <ele>319.766937</ele>
        <time>2012-01-29T10:12:39Z</time>
      </trkpt>
      <trkpt lat="47.73017" lon="7.39884">
        <ele>322.080719</ele>
        <time>2012-01-29T10:12:44Z</time>
      </trkpt>
      <trkpt lat="47.73017" lon="7.39884">
        <ele>321.83844</ele>
        <time>2012-01-29T10:12:49Z</time>
      </trkpt>
      <trkpt lat="47.73019" lon="7.39886">
        <ele>325.717651</ele>
        <time>2012-01-29T10:12:53Z</time>
      </trkpt>
      <trkpt lat="47.73019" lon="7.39885">
        <ele>324.100891</ele>
        <time>2012-01-29T10:12:57Z</time>
      </trkpt>
      <trkpt lat="47.7302" lon="7.39882">
        <ele>317.540039</ele>
        <time>2012-01-29T10:13:03Z</time>
      </trkpt>
      <trkpt lat="47.7302" lon="7.39879">
        <ele>315.696716</ele>
        <time>2012-01-29T10:13:07Z</time>
      </trkpt>
      <trkpt lat="47.7302" lon="7.39879">
        <ele>316.23587</ele>
        <time>2012-01-29T10:13:12Z</time>
      </trkpt>
      <trkpt lat="47.7302" lon="7.39876">
        <ele>321.024597</ele>
        <time>2012-01-29T10:13:17Z</time>
      </trkpt>
      <trkpt lat="47.7302" lon="7.39876">
        <ele>317.748627</ele>
        <time>2012-01-29T10:13:22Z</time>
      </trkpt>
      <trkpt lat="47.7302" lon="7.39876">
        <ele>314.596191</ele>
        <time>2012-01-29T10:13:26Z</time>
      </trkpt>
      <trkpt lat="47.7302" lon="7.39876">
        <ele>310.059998</ele>
        <time>2012-01-29T10:13:30Z</time>
      </trkpt>
      <trkpt lat="47.7302" lon="7.39876">
        <ele>317.281342</ele>
        <time>2012-01-29T10:13:34Z</time>
      </trkpt>
      <trkpt lat="47.7302" lon="7.39876">
        <ele>311.190948</ele>
        <time>2012-01-29T10:13:38Z</time>
      </trkpt>
      <trkpt lat="47.7302" lon="7.39876">
        <ele>309.755493</ele>
        <time>2012-01-29T10:13:43Z</time>
      </trkpt>
      <trkpt lat="47.73021" lon="7.39872">
        <ele>304.527252</ele>
        <time>2012-01-29T10:13:47Z</time>
      </trkpt>
      <trkpt lat="47.73021" lon="7.39872">
        <ele>300.27417</ele>
        <time>2012-01-29T10:13:51Z</time>
      </trkpt>
      <trkpt lat="47.73021" lon="7.39872">
        <ele>299.173584</ele>
        <time>2012-01-29T10:13:55Z</time>
      </trkpt>
      <trkpt lat="47.73021" lon="7.39872">
        <ele>299.831116</ele>
        <time>2012-01-29T10:13:59Z</time>
      </trkpt>
      <trkpt lat="47.73021" lon="7.39872">
        <ele>319.712067</ele>
        <time>2012-01-29T10:14:04Z</time>
      </trkpt>
      <trkpt lat="47.73021" lon="7.39872">
        <ele>326.523163</ele>
        <time>2012-01-29T10:14:08Z</time>
      </trkpt>
      <trkpt lat="47.73021" lon="7.39872">
        <ele>323.890686</ele>
        <time>2012-01-29T10:14:12Z</time>
      </trkpt>
      <trkpt lat="47.73021" lon="7.39872">
        <ele>331.248901</ele>
        <time>2012-01-29T10:14:16Z</time>
      </trkpt>
      <trkpt lat="47.73021" lon="7.39872">
        <ele>335.791473</ele>
        <time>2012-01-29T10:14:20Z</time>
      </trkpt>
      <trkpt lat="47.73021" lon="7.39872">
        <ele>334.036194</ele>
        <time>2012-01-29T10:14:26Z</time>
      </trkpt>
      <trkpt lat="47.73021" lon="7.39872">
        <ele>339.84613</ele>
        <time>2012-01-29T10:14:31Z</time>
      </trkpt>
      <trkpt lat="47.73021" lon="7.39872">
        <ele>333.902008</ele>
        <time>2012-01-29T10:14:36Z</time>
      </trkpt>
      <trkpt lat="47.73021" lon="7.39872">
        <ele>320.085632</ele>
        <time>2012-01-29T10:14:41Z</time>
      </trkpt>
      <trkpt lat="47.73021" lon="7.39872">
        <ele>317.937317</ele>
        <time>2012-01-29T10:14:46Z</time>
      </trkpt>
      <trkpt lat="47.73021" lon="7.39872">
        <ele>318.744324</ele>
        <time>2012-01-29T10:14:50Z</time>
      </trkpt>
      <trkpt lat="47.73021" lon="7.39872">
        <ele>317.577942</ele>
        <time>2012-01-29T10:14:54Z</time>
      </trkpt>
      <trkpt lat="47.73021" lon="7.39872">
        <ele>322.099731</ele>
        <time>2012-01-29T10:14:58Z</time>
      </trkpt>
      <trkpt lat="47.73021" lon="7.39872">
        <ele>318.028595</ele>
        <time>2012-01-29T10:15:02Z</time>
      </trkpt>
      <trkpt lat="47.73021" lon="7.39872">
        <ele>314.257935</ele>
        <time>2012-01-29T10:15:06Z</time>
      </trkpt>
      <trkpt lat="47.73021" lon="7.39872">
        <ele>317.887482</ele>
        <time>2012-01-29T10:15:13Z</time>
      </trkpt>
      <trkpt lat="47.73021" lon="7.39872">
        <ele>314.929077</ele>
        <time>2012-01-29T10:15:20Z</time>
      </trkpt>
      <trkpt lat="47.73021" lon="7.39872">
        <ele>312.075104</ele>
        <time>2012-01-29T10:15:26Z</time>
      </trkpt>
      <trkpt lat="47.73021" lon="7.39872">
        <ele>312.21759</ele>
        <time>2012-01-29T10:15:31Z</time>
      </trkpt>
      <trkpt lat="47.73021" lon="7.39872">
        <ele>312.524719</ele>
        <time>2012-01-29T10:15:35Z</time>
      </trkpt>
      <trkpt lat="47.73021" lon="7.39872">
        <ele>313.269135</ele>
        <time>2012-01-29T10:15:39Z</time>
      </trkpt>
      <trkpt lat="47.73021" lon="7.39872">
        <ele>314.349365</ele>
        <time>2012-01-29T10:15:43Z</time>
      </trkpt>
      <trkpt lat="47.73021" lon="7.39872">
        <ele>316.228149</ele>
        <time>2012-01-29T10:15:47Z</time>
      </trkpt>
      <trkpt lat="47.73017" lon="7.39886">
        <ele>319.29425</ele>
        <time>2012-01-29T10:15:53Z</time>
      </trkpt>
      <trkpt lat="47.73008" lon="7.39904">
        <ele>318.300537</ele>
        <time>2012-01-29T10:15:57Z</time>
      </trkpt>
      <trkpt lat="47.72998" lon="7.39931">
        <ele>319.2966</ele>
        <time>2012-01-29T10:16:01Z</time>
      </trkpt>
      <trkpt lat="47.7298" lon="7.40005">
        <ele>318.7146</ele>
        <time>2012-01-29T10:16:08Z</time>
      </trkpt>
      <trkpt lat="47.72967" lon="7.40078">
        <ele>304.871765</ele>
        <time>2012-01-29T10:16:13Z</time>
      </trkpt>
      <trkpt lat="47.72957" lon="7.40132">
        <ele>300.550873</ele>
        <time>2012-01-29T10:16:17Z</time>
      </trkpt>
      <trkpt lat="47.72949" lon="7.40215">
        <ele>296.10321</ele>
        <time>2012-01-29T10:16:22Z</time>
      </trkpt>
      <trkpt lat="47.72942" lon="7.40323">
        <ele>288.65213</ele>
        <time>2012-01-29T10:16:28Z</time>
      </trkpt>
      <trkpt lat="47.72936" lon="7.40416">
        <ele>281.751343</ele>
        <time>2012-01-29T10:16:33Z</time>
      </trkpt>
      <trkpt lat="47.72934" lon="7.40491">
        <ele>278.012634</ele>
        <time>2012-01-29T10:16:37Z</time>
      </trkpt>
      <trkpt lat="47.72932" lon="7.40562">
        <ele>274.071228</ele>
        <time>2012-01-29T10:16:41Z</time>
      </trkpt>
      <trkpt lat="47.72928" lon="7.40623">
        <ele>270.948151</ele>
        <time>2012-01-29T10:16:45Z</time>
      </trkpt>
      <trkpt lat="47.72922" lon="7.4068">
        <ele>269.842896</ele>
        <time>2012-01-29T10:16:49Z</time>
      </trkpt>
      <trkpt lat="47.72914" lon="7.40749">
        <ele>267.694397</ele>
        <time>2012-01-29T10:16:54Z</time>
      </trkpt>
      <trkpt lat="47.72915" lon="7.408">
        <ele>267.234406</ele>
        <time>2012-01-29T10:16:58Z</time>
      </trkpt>
      <trkpt lat="47.72922" lon="7.40848">
        <ele>264.463837</ele>
        <time>2012-01-29T10:17:02Z</time>
      </trkpt>
      <trkpt lat="47.72928" lon="7.40899">
        <ele>264.207336</ele>
        <time>2012-01-29T10:17:06Z</time>
      </trkpt>
      <trkpt lat="47.72926" lon="7.40965">
        <ele>260.287384</ele>
        <time>2012-01-29T10:17:11Z</time>
      </trkpt>
      <trkpt lat="47.72921" lon="7.41029">
        <ele>256.672485</ele>
        <time>2012-01-29T10:17:15Z</time>
      </trkpt>
      <trkpt lat="47.72925" lon="7.41095">
        <ele>253.797943</ele>
        <time>2012-01-29T10:17:19Z</time>
      </trkpt>
      <trkpt lat="47.72941" lon="7.4116">
        <ele>252.473663</ele>
        <time>2012-01-29T10:17:23Z</time>
      </trkpt>
      <trkpt lat="47.7296" lon="7.41241">
        <ele>246.869263</ele>
        <time>2012-01-29T10:17:28Z</time>
      </trkpt>
      <trkpt lat="47.72963" lon="7.41307">
        <ele>243.2099</ele>
        <time>2012-01-29T10:17:32Z</time>
      </trkpt>
      <trkpt lat="47.72965" lon="7.4137">
        <ele>244.206238</ele>
        <time>2012-01-29T10:17:36Z</time>
      </trkpt>
      <trkpt lat="47.72965" lon="7.41425">
        <ele>243.547974</ele>
        <time>2012-01-29T10:17:40Z</time>
      </trkpt>
      <trkpt lat="47.72952" lon="7.41485">
        <ele>242.460876</ele>
        <time>2012-01-29T10:17:45Z</time>
      </trkpt>
      <trkpt lat="47.72943" lon="7.4153">
        <ele>242.490143</ele>
        <time>2012-01-29T10:17:49Z</time>
      </trkpt>
      <trkpt lat="47.72933" lon="7.41574">
        <ele>244.40744</ele>
        <time>2012-01-29T10:17:53Z</time>
      </trkpt>
      <trkpt lat="47.72926" lon="7.41611">
        <ele>247.125275</ele>
        <time>2012-01-29T10:17:57Z</time>
      </trkpt>
      <trkpt lat="47.7292" lon="7.41648">
        <ele>245.326569</ele>
        <time>2012-01-29T10:18:02Z</time>
      </trkpt>
      <trkpt lat="47.72901" lon="7.4166">
        <ele>245.845673</ele>
        <time>2012-01-29T10:18:06Z</time>
      </trkpt>
      <trkpt lat="47.72883" lon="7.41669">
        <ele>249.183899</ele>
        <time>2012-01-29T10:18:10Z</time>
      </trkpt>
      <trkpt lat="47.72879" lon="7.417">
        <ele>244.895477</ele>
        <time>2012-01-29T10:18:14Z</time>
      </trkpt>
      <trkpt lat="47.72878" lon="7.41748">
        <ele>243.835876</ele>
        <time>2012-01-29T10:18:19Z</time>
      </trkpt>
      <trkpt lat="47.72875" lon="7.41789">
        <ele>242.858582</ele>
        <time>2012-01-29T10:18:23Z</time>
      </trkpt>
      <trkpt lat="47.7287" lon="7.4183">
        <ele>242.334045</ele>
        <time>2012-01-29T10:18:27Z</time>
      </trkpt>
      <trkpt lat="47.72864" lon="7.4187">
        <ele>242.618805</ele>
        <time>2012-01-29T10:18:31Z</time>
      </trkpt>
      <trkpt lat="47.72859" lon="7.41911">
        <ele>242.168518</ele>
        <time>2012-01-29T10:18:35Z</time>
      </trkpt>
      <trkpt lat="47.72855" lon="7.41966">
        <ele>241.447021</ele>
        <time>2012-01-29T10:18:40Z</time>
      </trkpt>
      <trkpt lat="47.7285" lon="7.42008">
        <ele>241.874023</ele>
        <time>2012-01-29T10:18:44Z</time>
      </trkpt>
      <trkpt lat="47.72842" lon="7.42049">
        <ele>242.228088</ele>
        <time>2012-01-29T10:18:48Z</time>
      </trkpt>
      <trkpt lat="47.72835" lon="7.42088">
        <ele>243.34903</ele>
        <time>2012-01-29T10:18:52Z</time>
      </trkpt>
      <trkpt lat="47.72831" lon="7.42136">
        <ele>238.017609</ele>
        <time>2012-01-29T10:18:57Z</time>
      </trkpt>
      <trkpt lat="47.72832" lon="7.42172">
        <ele>240.51297</ele>
        <time>2012-01-29T10:19:01Z</time>
      </trkpt>
      <trkpt lat="47.72832" lon="7.42206">
        <ele>238.886658</ele>
        <time>2012-01-29T10:19:05Z</time>
      </trkpt>
      <trkpt lat="47.72832" lon="7.4224">
        <ele>236.729492</ele>
        <time>2012-01-29T10:19:10Z</time>
      </trkpt>
      <trkpt lat="47.7283" lon="7.42269">
        <ele>235.821136</ele>
        <time>2012-01-29T10:19:14Z</time>
      </trkpt>
      <trkpt lat="47.72828" lon="7.42297">
        <ele>237.605652</ele>
        <time>2012-01-29T10:19:18Z</time>
      </trkpt>
      <trkpt lat="47.72828" lon="7.42325">
        <ele>241.420349</ele>
        <time>2012-01-29T10:19:22Z</time>
      </trkpt>
      <trkpt lat="47.72829" lon="7.42352">
        <ele>242.120056</ele>
        <time>2012-01-29T10:19:27Z</time>
      </trkpt>
      <trkpt lat="47.72825" lon="7.42366">
        <ele>240.023468</ele>
        <time>2012-01-29T10:19:31Z</time>
      </trkpt>
      <trkpt lat="47.72813" lon="7.42371">
        <ele>240.665192</ele>
        <time>2012-01-29T10:19:35Z</time>
      </trkpt>
      <trkpt lat="47.728" lon="7.42363">
        <ele>242.942902</ele>
        <time>2012-01-29T10:19:39Z</time>
      </trkpt>
      <trkpt lat="47.72782" lon="7.42356">
        <ele>235.886444</ele>
        <time>2012-01-29T10:19:44Z</time>
      </trkpt>
      <trkpt lat="47.72779" lon="7.42355">
        <ele>238.335449</ele>
        <time>2012-01-29T10:19:48Z</time>
      </trkpt>
      <trkpt lat="47.72779" lon="7.42355">
        <ele>238.335449</ele>
        <time>2012-01-29T10:19:52Z</time>
      </trkpt>
      <trkpt lat="47.72779" lon="7.42355">
        <ele>238.335449</ele>
        <time>2012-01-29T10:19:56Z</time>
      </trkpt>
      <trkpt lat="47.72779" lon="7.42355">
        <ele>238.335449</ele>
        <time>2012-01-29T10:20:01Z</time>
      </trkpt>
      <trkpt lat="47.72779" lon="7.42355">
        <ele>238.335449</ele>
        <time>2012-01-29T10:20:05Z</time>
      </trkpt>
      <trkpt lat="47.72779" lon="7.42355">
        <ele>238.335449</ele>
        <time>2012-01-29T10:20:09Z</time>
      </trkpt>
      <trkpt lat="47.72779" lon="7.42355">
        <ele>238.335449</ele>
        <time>2012-01-29T10:20:13Z</time>
      </trkpt>
      <trkpt lat="47.72779" lon="7.42355">
        <ele>238.335449</ele>
        <time>2012-01-29T10:20:17Z</time>
      </trkpt>
      <trkpt lat="47.72779" lon="7.42355">
        <ele>238.335449</ele>
        <time>2012-01-29T10:20:22Z</time>
      </trkpt>
      <trkpt lat="47.72779" lon="7.42355">
        <ele>238.335449</ele>
        <time>2012-01-29T10:20:26Z</time>
      </trkpt>
      <trkpt lat="47.72779" lon="7.42355">
        <ele>238.335449</ele>
        <time>2012-01-29T10:20:30Z</time>
      </trkpt>
      <trkpt lat="47.72779" lon="7.42355">
        <ele>238.335449</ele>
        <time>2012-01-29T10:20:34Z</time>
      </trkpt>
      <trkpt lat="47.72779" lon="7.42355">
        <ele>238.335449</ele>
        <time>2012-01-29T10:20:38Z</time>
      </trkpt>
      <trkpt lat="47.72779" lon="7.42355">
        <ele>238.335449</ele>
        <time>2012-01-29T10:20:42Z</time>
      </trkpt>
      <trkpt lat="47.72779" lon="7.42355">
        <ele>238.335449</ele>
        <time>2012-01-29T10:20:46Z</time>
      </trkpt>
      <trkpt lat="47.72779" lon="7.42355">
        <ele>238.335449</ele>
        <time>2012-01-29T10:20:51Z</time>
      </trkpt>
      <trkpt lat="47.72779" lon="7.42355">
        <ele>238.335449</ele>
        <time>2012-01-29T10:20:55Z</time>
      </trkpt>
      <trkpt lat="47.72779" lon="7.42355">
        <ele>238.335449</ele>
        <time>2012-01-29T10:20:59Z</time>
      </trkpt>
      <trkpt lat="47.72775" lon="7.42349">
        <ele>244.601227</ele>
        <time>2012-01-29T10:21:03Z</time>
      </trkpt>
      <trkpt lat="47.72775" lon="7.42349">
        <ele>244.601227</ele>
        <time>2012-01-29T10:21:07Z</time>
      </trkpt>
      <trkpt lat="47.72775" lon="7.42349">
        <ele>244.601227</ele>
        <time>2012-01-29T10:21:11Z</time>
      </trkpt>
      <trkpt lat="47.72775" lon="7.42349">
        <ele>244.601227</ele>
        <time>2012-01-29T10:21:16Z</time>
      </trkpt>
      <trkpt lat="47.72775" lon="7.42349">
        <ele>244.601227</ele>
        <time>2012-01-29T10:21:20Z</time>
      </trkpt>
      <trkpt lat="47.72775" lon="7.42349">
        <ele>244.601227</ele>
        <time>2012-01-29T10:21:24Z</time>
      </trkpt>
      <trkpt lat="47.72775" lon="7.42349">
        <ele>244.601227</ele>
        <time>2012-01-29T10:21:28Z</time>
      </trkpt>
      <trkpt lat="47.72775" lon="7.42349">
        <ele>244.601227</ele>
        <time>2012-01-29T10:21:32Z</time>
      </trkpt>
      <trkpt lat="47.72775" lon="7.42349">
        <ele>244.601227</ele>
        <time>2012-01-29T10:21:37Z</time>
      </trkpt>
      <trkpt lat="47.72775" lon="7.42349">
        <ele>244.601227</ele>
        <time>2012-01-29T10:21:41Z</time>
      </trkpt>
      <trkpt lat="47.72775" lon="7.42349">
        <ele>244.601227</ele>
        <time>2012-01-29T10:21:45Z</time>
      </trkpt>
      <trkpt lat="47.72775" lon="7.42349">
        <ele>244.601227</ele>
        <time>2012-01-29T10:21:49Z</time>
      </trkpt>
      <trkpt lat="47.72775" lon="7.42349">
        <ele>244.601227</ele>
        <time>2012-01-29T10:21:53Z</time>
      </trkpt>
      <trkpt lat="47.72775" lon="7.42349">
        <ele>244.601227</ele>
        <time>2012-01-29T10:21:57Z</time>
      </trkpt>
      <trkpt lat="47.72775" lon="7.42349">
        <ele>244.601227</ele>
        <time>2012-01-29T10:22:02Z</time>
      </trkpt>
      <trkpt lat="47.72775" lon="7.42349">
        <ele>244.601227</ele>
        <time>2012-01-29T10:22:06Z</time>
      </trkpt>
      <trkpt lat="47.72775" lon="7.42349">
        <ele>244.601227</ele>
        <time>2012-01-29T10:22:10Z</time>
      </trkpt>
      <trkpt lat="47.72775" lon="7.42349">
        <ele>244.601227</ele>
        <time>2012-01-29T10:22:14Z</time>
      </trkpt>
      <trkpt lat="47.72775" lon="7.42349">
        <ele>244.601227</ele>
        <time>2012-01-29T10:22:19Z</time>
      </trkpt>
      <trkpt lat="47.72775" lon="7.42349">
        <ele>244.601227</ele>
        <time>2012-01-29T10:22:23Z</time>
      </trkpt>
      <trkpt lat="47.72775" lon="7.42349">
        <ele>244.601227</ele>
        <time>2012-01-29T10:22:27Z</time>
      </trkpt>
      <trkpt lat="47.72775" lon="7.42349">
        <ele>244.601227</ele>
        <time>2012-01-29T10:22:31Z</time>
      </trkpt>
      <trkpt lat="47.72775" lon="7.42349">
        <ele>244.601227</ele>
        <time>2012-01-29T10:22:35Z</time>
      </trkpt>
      <trkpt lat="47.72775" lon="7.42349">
        <ele>244.601227</ele>
        <time>2012-01-29T10:22:40Z</time>
      </trkpt>
      <trkpt lat="47.72775" lon="7.42349">
        <ele>244.601227</ele>
        <time>2012-01-29T10:22:44Z</time>
      </trkpt>
      <trkpt lat="47.72775" lon="7.42349">
        <ele>244.601227</ele>
        <time>2012-01-29T10:22:48Z</time>
      </trkpt>
      <trkpt lat="47.72775" lon="7.42349">
        <ele>244.601227</ele>
        <time>2012-01-29T10:22:52Z</time>
      </trkpt>
      <trkpt lat="47.72775" lon="7.42349">
        <ele>244.601227</ele>
        <time>2012-01-29T10:22:56Z</time>
      </trkpt>
      <trkpt lat="47.72775" lon="7.42349">
        <ele>244.601227</ele>
        <time>2012-01-29T10:23:00Z</time>
      </trkpt>
      <trkpt lat="47.72775" lon="7.42349">
        <ele>244.601227</ele>
        <time>2012-01-29T10:23:05Z</time>
      </trkpt>
      <trkpt lat="47.72775" lon="7.42349">
        <ele>244.601227</ele>
        <time>2012-01-29T10:23:09Z</time>
      </trkpt>
      <trkpt lat="47.72775" lon="7.42349">
        <ele>244.601227</ele>
        <time>2012-01-29T10:23:13Z</time>
      </trkpt>
      <trkpt lat="47.72775" lon="7.42349">
        <ele>244.601227</ele>
        <time>2012-01-29T10:23:17Z</time>
      </trkpt>
      <trkpt lat="47.72775" lon="7.42349">
        <ele>244.601227</ele>
        <time>2012-01-29T10:23:22Z</time>
      </trkpt>
      <trkpt lat="47.72775" lon="7.42349">
        <ele>244.601227</ele>
        <time>2012-01-29T10:23:26Z</time>
      </trkpt>
      <trkpt lat="47.72775" lon="7.42349">
        <ele>244.601227</ele>
        <time>2012-01-29T10:23:30Z</time>
      </trkpt>
      <trkpt lat="47.72775" lon="7.42349">
        <ele>244.601227</ele>
        <time>2012-01-29T10:23:34Z</time>
      </trkpt>
      <trkpt lat="47.72775" lon="7.42349">
        <ele>244.601227</ele>
        <time>2012-01-29T10:23:39Z</time>
      </trkpt>
      <trkpt lat="47.72775" lon="7.42349">
        <ele>244.601227</ele>
        <time>2012-01-29T10:23:43Z</time>
      </trkpt>
      <trkpt lat="47.72775" lon="7.42349">
        <ele>244.601227</ele>
        <time>2012-01-29T10:23:47Z</time>
      </trkpt>
      <trkpt lat="47.72775" lon="7.42349">
        <ele>244.601227</ele>
        <time>2012-01-29T10:23:51Z</time>
      </trkpt>
      <trkpt lat="47.72775" lon="7.42349">
        <ele>244.601227</ele>
        <time>2012-01-29T10:23:56Z</time>
      </trkpt>
      <trkpt lat="47.72779" lon="7.42347">
        <ele>237.259583</ele>
        <time>2012-01-29T10:24:00Z</time>
      </trkpt>
      <trkpt lat="47.72778" lon="7.42347">
        <ele>237.102905</ele>
        <time>2012-01-29T10:24:05Z</time>
      </trkpt>
      <trkpt lat="47.72778" lon="7.42347">
        <ele>242.044037</ele>
        <time>2012-01-29T10:24:09Z</time>
      </trkpt>
      <trkpt lat="47.72778" lon="7.42347">
        <ele>242.705841</ele>
        <time>2012-01-29T10:24:13Z</time>
      </trkpt>
      <trkpt lat="47.72778" lon="7.42347">
        <ele>241.256378</ele>
        <time>2012-01-29T10:24:18Z</time>
      </trkpt>
      <trkpt lat="47.72776" lon="7.42347">
        <ele>239.136932</ele>
        <time>2012-01-29T10:24:22Z</time>
      </trkpt>
      <trkpt lat="47.72776" lon="7.42347">
        <ele>239.985748</ele>
        <time>2012-01-29T10:24:26Z</time>
      </trkpt>
      <trkpt lat="47.72776" lon="7.42346">
        <ele>234.129242</ele>
        <time>2012-01-29T10:24:31Z</time>
      </trkpt>
      <trkpt lat="47.72776" lon="7.42342">
        <ele>235.396667</ele>
        <time>2012-01-29T10:24:35Z</time>
      </trkpt>
      <trkpt lat="47.72776" lon="7.42342">
        <ele>237.906219</ele>
        <time>2012-01-29T10:24:40Z</time>
      </trkpt>
      <trkpt lat="47.72776" lon="7.42344">
        <ele>239.718506</ele>
        <time>2012-01-29T10:24:44Z</time>
      </trkpt>
      <trkpt lat="47.72776" lon="7.42343">
        <ele>241.267548</ele>
        <time>2012-01-29T10:24:49Z</time>
      </trkpt>
      <trkpt lat="47.72776" lon="7.42343">
        <ele>243.063721</ele>
        <time>2012-01-29T10:24:53Z</time>
      </trkpt>
      <trkpt lat="47.72776" lon="7.42343">
        <ele>244.050415</ele>
        <time>2012-01-29T10:24:57Z</time>
      </trkpt>
      <trkpt lat="47.72777" lon="7.42346">
        <ele>242.458191</ele>
        <time>2012-01-29T10:25:02Z</time>
      </trkpt>
      <trkpt lat="47.72777" lon="7.42346">
        <ele>243.137909</ele>
        <time>2012-01-29T10:25:06Z</time>
      </trkpt>
      <trkpt lat="47.72777" lon="7.42346">
        <ele>248.551117</ele>
        <time>2012-01-29T10:25:10Z</time>
      </trkpt>
      <trkpt lat="47.72777" lon="7.42346">
        <ele>242.553375</ele>
        <time>2012-01-29T10:25:15Z</time>
      </trkpt>
      <trkpt lat="47.72777" lon="7.42346">
        <ele>238.917419</ele>
        <time>2012-01-29T10:25:19Z</time>
      </trkpt>
      <trkpt lat="47.72777" lon="7.42346">
        <ele>236.135925</ele>
        <time>2012-01-29T10:25:24Z</time>
      </trkpt>
      <trkpt lat="47.72777" lon="7.42346">
        <ele>238.509949</ele>
        <time>2012-01-29T10:25:28Z</time>
      </trkpt>
      <trkpt lat="47.72777" lon="7.42346">
        <ele>236.55658</ele>
        <time>2012-01-29T10:25:32Z</time>
      </trkpt>
      <trkpt lat="47.72777" lon="7.42346">
        <ele>237.717285</ele>
        <time>2012-01-29T10:25:37Z</time>
      </trkpt>
      <trkpt lat="47.72777" lon="7.42346">
        <ele>238.033905</ele>
        <time>2012-01-29T10:25:41Z</time>
      </trkpt>
      <trkpt lat="47.72777" lon="7.42346">
        <ele>239.329285</ele>
        <time>2012-01-29T10:25:45Z</time>
      </trkpt>
      <trkpt lat="47.72777" lon="7.42346">
        <ele>241.01944</ele>
        <time>2012-01-29T10:25:50Z</time>
      </trkpt>
      <trkpt lat="47.72777" lon="7.42346">
        <ele>242.899902</ele>
        <time>2012-01-29T10:25:54Z</time>
      </trkpt>
      <trkpt lat="47.72777" lon="7.42346">
        <ele>243.191315</ele>
        <time>2012-01-29T10:25:58Z</time>
      </trkpt>
      <trkpt lat="47.72778" lon="7.42347">
        <ele>243.14325</ele>
        <time>2012-01-29T10:26:03Z</time>
      </trkpt>
      <trkpt lat="47.72778" lon="7.42347">
        <ele>244.675476</ele>
        <time>2012-01-29T10:26:07Z</time>
      </trkpt>
      <trkpt lat="47.72778" lon="7.42347">
        <ele>247.464691</ele>
        <time>2012-01-29T10:26:11Z</time>
      </trkpt>
      <trkpt lat="47.72778" lon="7.42347">
        <ele>245.001221</ele>
        <time>2012-01-29T10:26:16Z</time>
      </trkpt>
      <trkpt lat="47.72778" lon="7.42347">
        <ele>242.977386</ele>
        <time>2012-01-29T10:26:20Z</time>
      </trkpt>
      <trkpt lat="47.72778" lon="7.42347">
        <ele>244.539459</ele>
        <time>2012-01-29T10:26:24Z</time>
      </trkpt>
      <trkpt lat="47.72778" lon="7.42347">
        <ele>243.592346</ele>
        <time>2012-01-29T10:26:29Z</time>
      </trkpt>
      <trkpt lat="47.72778" lon="7.42347">
        <ele>242.824188</ele>
        <time>2012-01-29T10:26:33Z</time>
      </trkpt>
      <trkpt lat="47.72778" lon="7.42347">
        <ele>241.9664</ele>
        <time>2012-01-29T10:26:37Z</time>
      </trkpt>
      <trkpt lat="47.72778" lon="7.42347">
        <ele>240.889771</ele>
        <time>2012-01-29T10:26:42Z</time>
      </trkpt>
      <trkpt lat="47.72778" lon="7.42347">
        <ele>243.520386</ele>
        <time>2012-01-29T10:26:46Z</time>
      </trkpt>
      <trkpt lat="47.72778" lon="7.42347">
        <ele>243.417969</ele>
        <time>2012-01-29T10:26:51Z</time>
      </trkpt>
      <trkpt lat="47.72778" lon="7.42347">
        <ele>246.905792</ele>
        <time>2012-01-29T10:26:55Z</time>
      </trkpt>
      <trkpt lat="47.72778" lon="7.42347">
        <ele>244.427429</ele>
        <time>2012-01-29T10:26:59Z</time>
      </trkpt>
      <trkpt lat="47.72777" lon="7.42346">
        <ele>241.77475</ele>
        <time>2012-01-29T10:27:04Z</time>
      </trkpt>
      <trkpt lat="47.72777" lon="7.42346">
        <ele>237.033478</ele>
        <time>2012-01-29T10:27:08Z</time>
      </trkpt>
      <trkpt lat="47.72777" lon="7.42346">
        <ele>234.570099</ele>
        <time>2012-01-29T10:27:12Z</time>
      </trkpt>
      <trkpt lat="47.72777" lon="7.42346">
        <ele>235.653046</ele>
        <time>2012-01-29T10:27:17Z</time>
      </trkpt>
      <trkpt lat="47.72777" lon="7.42346">
        <ele>239.156464</ele>
        <time>2012-01-29T10:27:21Z</time>
      </trkpt>
      <trkpt lat="47.72777" lon="7.42346">
        <ele>227.650024</ele>
        <time>2012-01-29T10:27:26Z</time>
      </trkpt>
      <trkpt lat="47.72777" lon="7.42346">
        <ele>224.202545</ele>
        <time>2012-01-29T10:27:30Z</time>
      </trkpt>
      <trkpt lat="47.72777" lon="7.42346">
        <ele>224.464264</ele>
        <time>2012-01-29T10:27:34Z</time>
      </trkpt>
      <trkpt lat="47.72777" lon="7.42346">
        <ele>227.518585</ele>
        <time>2012-01-29T10:27:38Z</time>
      </trkpt>
      <trkpt lat="47.72777" lon="7.42346">
        <ele>233.582855</ele>
        <time>2012-01-29T10:27:43Z</time>
      </trkpt>
      <trkpt lat="47.72777" lon="7.42346">
        <ele>238.240356</ele>
        <time>2012-01-29T10:27:47Z</time>
      </trkpt>
      <trkpt lat="47.72777" lon="7.42346">
        <ele>242.219208</ele>
        <time>2012-01-29T10:27:51Z</time>
      </trkpt>
      <trkpt lat="47.72777" lon="7.42346">
        <ele>240.715576</ele>
        <time>2012-01-29T10:27:56Z</time>
      </trkpt>
      <trkpt lat="47.72777" lon="7.42346">
        <ele>242.451416</ele>
        <time>2012-01-29T10:28:00Z</time>
      </trkpt>
      <trkpt lat="47.72776" lon="7.42345">
        <ele>244.300537</ele>
        <time>2012-01-29T10:28:05Z</time>
      </trkpt>
      <trkpt lat="47.72774" lon="7.42346">
        <ele>244.456573</ele>
        <time>2012-01-29T10:28:09Z</time>
      </trkpt>
      <trkpt lat="47.72775" lon="7.42346">
        <ele>244.188599</ele>
        <time>2012-01-29T10:28:13Z</time>
      </trkpt>
      <trkpt lat="47.72774" lon="7.42345">
        <ele>241.783875</ele>
        <time>2012-01-29T10:28:18Z</time>
      </trkpt>
      <trkpt lat="47.72774" lon="7.42345">
        <ele>242.566132</ele>
        <time>2012-01-29T10:28:22Z</time>
      </trkpt>
      <trkpt lat="47.72774" lon="7.42345">
        <ele>241.884094</ele>
        <time>2012-01-29T10:28:27Z</time>
      </trkpt>
      <trkpt lat="47.72774" lon="7.42345">
        <ele>245.370422</ele>
        <time>2012-01-29T10:28:31Z</time>
      </trkpt>
      <trkpt lat="47.72774" lon="7.42345">
        <ele>242.135193</ele>
        <time>2012-01-29T10:28:36Z</time>
      </trkpt>
      <trkpt lat="47.72774" lon="7.42345">
        <ele>241.713684</ele>
        <time>2012-01-29T10:28:40Z</time>
      </trkpt>
      <trkpt lat="47.72774" lon="7.42345">
        <ele>246.948517</ele>
        <time>2012-01-29T10:28:44Z</time>
      </trkpt>
      <trkpt lat="47.72774" lon="7.42345">
        <ele>247.827972</ele>
        <time>2012-01-29T10:28:48Z</time>
      </trkpt>
      <trkpt lat="47.72774" lon="7.42345">
        <ele>250.422272</ele>
        <time>2012-01-29T10:28:52Z</time>
      </trkpt>
      <trkpt lat="47.72774" lon="7.42345">
        <ele>248.929596</ele>
        <time>2012-01-29T10:28:58Z</time>
      </trkpt>
      <trkpt lat="47.72774" lon="7.42345">
        <ele>249.747772</ele>
        <time>2012-01-29T10:29:02Z</time>
      </trkpt>
      <trkpt lat="47.72774" lon="7.42345">
        <ele>249.39798</ele>
        <time>2012-01-29T10:29:06Z</time>
      </trkpt>
      <trkpt lat="47.72774" lon="7.42345">
        <ele>251.192535</ele>
        <time>2012-01-29T10:29:11Z</time>
      </trkpt>
      <trkpt lat="47.72773" lon="7.42343">
        <ele>248.519928</ele>
        <time>2012-01-29T10:29:15Z</time>
      </trkpt>
      <trkpt lat="47.72773" lon="7.42343">
        <ele>247.253967</ele>
        <time>2012-01-29T10:29:20Z</time>
      </trkpt>
      <trkpt lat="47.72773" lon="7.42343">
        <ele>245.390564</ele>
        <time>2012-01-29T10:29:24Z</time>
      </trkpt>
      <trkpt lat="47.72773" lon="7.42343">
        <ele>246.10321</ele>
        <time>2012-01-29T10:29:29Z</time>
      </trkpt>
      <trkpt lat="47.72773" lon="7.42343">
        <ele>245.599762</ele>
        <time>2012-01-29T10:29:33Z</time>
      </trkpt>
      <trkpt lat="47.72773" lon="7.42343">
        <ele>241.831085</ele>
        <time>2012-01-29T10:29:37Z</time>
      </trkpt>
      <trkpt lat="47.72773" lon="7.42343">
        <ele>240.67746</ele>
        <time>2012-01-29T10:29:42Z</time>
      </trkpt>
      <trkpt lat="47.72773" lon="7.42343">
        <ele>240.715942</ele>
        <time>2012-01-29T10:29:46Z</time>
      </trkpt>
      <trkpt lat="47.72772" lon="7.42343">
        <ele>242.517975</ele>
        <time>2012-01-29T10:29:51Z</time>
      </trkpt>
      <trkpt lat="47.72773" lon="7.42344">
        <ele>242.434753</ele>
        <time>2012-01-29T10:29:55Z</time>
      </trkpt>
      <trkpt lat="47.72773" lon="7.42344">
        <ele>241.075226</ele>
        <time>2012-01-29T10:30:00Z</time>
      </trkpt>
      <trkpt lat="47.72773" lon="7.42344">
        <ele>240.894623</ele>
        <time>2012-01-29T10:30:04Z</time>
      </trkpt>
      <trkpt lat="47.72773" lon="7.42344">
        <ele>243.360291</ele>
        <time>2012-01-29T10:30:08Z</time>
      </trkpt>
      <trkpt lat="47.72773" lon="7.42344">
        <ele>240.773621</ele>
        <time>2012-01-29T10:30:12Z</time>
      </trkpt>
      <trkpt lat="47.72773" lon="7.42344">
        <ele>243.873535</ele>
        <time>2012-01-29T10:30:18Z</time>
      </trkpt>
      <trkpt lat="47.72773" lon="7.42344">
        <ele>242.423126</ele>
        <time>2012-01-29T10:30:22Z</time>
      </trkpt>
      <trkpt lat="47.72773" lon="7.42344">
        <ele>243.509094</ele>
        <time>2012-01-29T10:30:27Z</time>
      </trkpt>
      <trkpt lat="47.72773" lon="7.42344">
        <ele>246.015106</ele>
        <time>2012-01-29T10:30:31Z</time>
      </trkpt>
      <trkpt lat="47.72773" lon="7.42344">
        <ele>242.863098</ele>
        <time>2012-01-29T10:30:35Z</time>
      </trkpt>
      <trkpt lat="47.72773" lon="7.42344">
        <ele>243.363983</ele>
        <time>2012-01-29T10:30:40Z</time>
      </trkpt>
      <trkpt lat="47.72773" lon="7.42344">
        <ele>240.78479</ele>
        <time>2012-01-29T10:30:44Z</time>
      </trkpt>
      <trkpt lat="47.72773" lon="7.42344">
        <ele>246.277374</ele>
        <time>2012-01-29T10:30:49Z</time>
      </trkpt>
      <trkpt lat="47.72773" lon="7.42344">
        <ele>247.405762</ele>
        <time>2012-01-29T10:30:53Z</time>
      </trkpt>
      <trkpt lat="47.72773" lon="7.42344">
        <ele>247.598785</ele>
        <time>2012-01-29T10:30:57Z</time>
      </trkpt>
      <trkpt lat="47.72773" lon="7.42344">
        <ele>248.797913</ele>
        <time>2012-01-29T10:31:02Z</time>
      </trkpt>
      <trkpt lat="47.72773" lon="7.42344">
        <ele>251.397278</ele>
        <time>2012-01-29T10:31:06Z</time>
      </trkpt>
      <trkpt lat="47.72773" lon="7.42344">
        <ele>250.668304</ele>
        <time>2012-01-29T10:31:10Z</time>
      </trkpt>
      <trkpt lat="47.72773" lon="7.42344">
        <ele>251.167236</ele>
        <time>2012-01-29T10:31:14Z</time>
      </trkpt>
      <trkpt lat="47.72773" lon="7.42344">
        <ele>249.816315</ele>
        <time>2012-01-29T10:31:19Z</time>
      </trkpt>
      <trkpt lat="47.72773" lon="7.42344">
        <ele>251.839874</ele>
        <time>2012-01-29T10:31:24Z</time>
      </trkpt>
      <trkpt lat="47.72773" lon="7.42344">
        <ele>251.840118</ele>
        <time>2012-01-29T10:31:28Z</time>
      </trkpt>
      <trkpt lat="47.72773" lon="7.42344">
        <ele>252.019958</ele>
        <time>2012-01-29T10:31:32Z</time>
      </trkpt>
      <trkpt lat="47.72773" lon="7.42344">
        <ele>251.212952</ele>
        <time>2012-01-29T10:31:37Z</time>
      </trkpt>
      <trkpt lat="47.72773" lon="7.42344">
        <ele>253.406311</ele>
        <time>2012-01-29T10:31:41Z</time>
      </trkpt>
      <trkpt lat="47.72773" lon="7.42344">
        <ele>256.4039</ele>
        <time>2012-01-29T10:31:46Z</time>
      </trkpt>
      <trkpt lat="47.72773" lon="7.42344">
        <ele>259.042145</ele>
        <time>2012-01-29T10:31:50Z</time>
      </trkpt>
      <trkpt lat="47.72773" lon="7.42344">
        <ele>260.883362</ele>
        <time>2012-01-29T10:31:54Z</time>
      </trkpt>
      <trkpt lat="47.72773" lon="7.42344">
        <ele>262.206146</ele>
        <time>2012-01-29T10:31:59Z</time>
      </trkpt>
      <trkpt lat="47.72773" lon="7.42344">
        <ele>263.905579</ele>
        <time>2012-01-29T10:32:03Z</time>
      </trkpt>
      <trkpt lat="47.72773" lon="7.42344">
        <ele>260.106445</ele>
        <time>2012-01-29T10:32:08Z</time>
      </trkpt>
      <trkpt lat="47.72773" lon="7.42344">
        <ele>258.359283</ele>
        <time>2012-01-29T10:32:12Z</time>
      </trkpt>
      <trkpt lat="47.72773" lon="7.42344">
        <ele>258.769073</ele>
        <time>2012-01-29T10:32:16Z</time>
      </trkpt>
      <trkpt lat="47.72773" lon="7.42344">
        <ele>254.097168</ele>
        <time>2012-01-29T10:32:21Z</time>
      </trkpt>
      <trkpt lat="47.72776" lon="7.4234">
        <ele>251.301514</ele>
        <time>2012-01-29T10:32:25Z</time>
      </trkpt>
      <trkpt lat="47.72776" lon="7.4234">
        <ele>247.843475</ele>
        <time>2012-01-29T10:32:30Z</time>
      </trkpt>
      <trkpt lat="47.72776" lon="7.42341">
        <ele>249.327637</ele>
        <time>2012-01-29T10:32:35Z</time>
      </trkpt>
      <trkpt lat="47.72778" lon="7.42341">
        <ele>243.726013</ele>
        <time>2012-01-29T10:32:39Z</time>
      </trkpt>
      <trkpt lat="47.72778" lon="7.42341">
        <ele>248.534729</ele>
        <time>2012-01-29T10:32:44Z</time>
      </trkpt>
      <trkpt lat="47.72778" lon="7.42349">
        <ele>251.445709</ele>
        <time>2012-01-29T10:32:48Z</time>
      </trkpt>
      <trkpt lat="47.72778" lon="7.42349">
        <ele>243.58371</ele>
        <time>2012-01-29T10:32:53Z</time>
      </trkpt>
      <trkpt lat="47.72778" lon="7.42349">
        <ele>246.640442</ele>
        <time>2012-01-29T10:32:57Z</time>
      </trkpt>
      <trkpt lat="47.72778" lon="7.42352">
        <ele>249.268433</ele>
        <time>2012-01-29T10:33:02Z</time>
      </trkpt>
      <trkpt lat="47.7278" lon="7.42357">
        <ele>249.693481</ele>
        <time>2012-01-29T10:33:07Z</time>
      </trkpt>
      <trkpt lat="47.7278" lon="7.42357">
        <ele>258.080994</ele>
        <time>2012-01-29T10:33:11Z</time>
      </trkpt>
      <trkpt lat="47.72781" lon="7.42357">
        <ele>248.652924</ele>
        <time>2012-01-29T10:33:20Z</time>
      </trkpt>
      <trkpt lat="47.72781" lon="7.42357">
        <ele>247.453705</ele>
        <time>2012-01-29T10:33:21Z</time>
      </trkpt>
      <trkpt lat="47.72781" lon="7.42357">
        <ele>250.399628</ele>
        <time>2012-01-29T10:33:22Z</time>
      </trkpt>
      <trkpt lat="47.72779" lon="7.4236">
        <ele>249.008942</ele>
        <time>2012-01-29T10:33:23Z</time>
      </trkpt>
      <trkpt lat="47.72779" lon="7.4236">
        <ele>253.489014</ele>
        <time>2012-01-29T10:33:24Z</time>
      </trkpt>
      <trkpt lat="47.72779" lon="7.4236">
        <ele>249.742126</ele>
        <time>2012-01-29T10:33:25Z</time>
      </trkpt>
      <trkpt lat="47.72779" lon="7.4236">
        <ele>247.992462</ele>
        <time>2012-01-29T10:33:26Z</time>
      </trkpt>
      <trkpt lat="47.72779" lon="7.4236">
        <ele>248.388</ele>
        <time>2012-01-29T10:33:27Z</time>
      </trkpt>
      <trkpt lat="47.72779" lon="7.4236">
        <ele>247.971558</ele>
        <time>2012-01-29T10:33:28Z</time>
      </trkpt>
      <trkpt lat="47.72779" lon="7.4236">
        <ele>246.999451</ele>
        <time>2012-01-29T10:33:29Z</time>
      </trkpt>
      <trkpt lat="47.72779" lon="7.4236">
        <ele>246.820587</ele>
        <time>2012-01-29T10:33:30Z</time>
      </trkpt>
      <trkpt lat="47.72779" lon="7.4236">
        <ele>247.529419</ele>
        <time>2012-01-29T10:33:31Z</time>
      </trkpt>
      <trkpt lat="47.72779" lon="7.4236">
        <ele>246.680511</ele>
        <time>2012-01-29T10:33:32Z</time>
      </trkpt>
      <trkpt lat="47.72779" lon="7.4236">
        <ele>248.751648</ele>
        <time>2012-01-29T10:33:33Z</time>
      </trkpt>
      <trkpt lat="47.72779" lon="7.4236">
        <ele>253.532257</ele>
        <time>2012-01-29T10:33:34Z</time>
      </trkpt>
      <trkpt lat="47.72779" lon="7.4236">
        <ele>253.215515</ele>
        <time>2012-01-29T10:33:35Z</time>
      </trkpt>
      <trkpt lat="47.72779" lon="7.4236">
        <ele>255.120483</ele>
        <time>2012-01-29T10:33:36Z</time>
      </trkpt>
      <trkpt lat="47.72779" lon="7.4236">
        <ele>255.828674</ele>
        <time>2012-01-29T10:33:37Z</time>
      </trkpt>
      <trkpt lat="47.72779" lon="7.4236">
        <ele>254.904724</ele>
        <time>2012-01-29T10:33:38Z</time>
      </trkpt>
      <trkpt lat="47.72779" lon="7.4236">
        <ele>249.223541</ele>
        <time>2012-01-29T10:33:39Z</time>
      </trkpt>
      <trkpt lat="47.72779" lon="7.4236">
        <ele>245.630402</ele>
        <time>2012-01-29T10:33:40Z</time>
      </trkpt>
      <trkpt lat="47.72779" lon="7.4236">
        <ele>245.128448</ele>
        <time>2012-01-29T10:33:41Z</time>
      </trkpt>
      <trkpt lat="47.72779" lon="7.4236">
        <ele>245.515656</ele>
        <time>2012-01-29T10:33:42Z</time>
      </trkpt>
      <trkpt lat="47.72779" lon="7.4236">
        <ele>245.4086</ele>
        <time>2012-01-29T10:33:43Z</time>
      </trkpt>
      <trkpt lat="47.72779" lon="7.4236">
        <ele>243.457092</ele>
        <time>2012-01-29T10:33:44Z</time>
      </trkpt>
      <trkpt lat="47.72779" lon="7.4236">
        <ele>243.267426</ele>
        <time>2012-01-29T10:33:45Z</time>
      </trkpt>
      <trkpt lat="47.72779" lon="7.4236">
        <ele>244.546051</ele>
        <time>2012-01-29T10:33:46Z</time>
      </trkpt>
      <trkpt lat="47.72779" lon="7.4236">
        <ele>242.70166</ele>
        <time>2012-01-29T10:33:47Z</time>
      </trkpt>
      <trkpt lat="47.72779" lon="7.4236">
        <ele>241.832825</ele>
        <time>2012-01-29T10:33:48Z</time>
      </trkpt>
      <trkpt lat="47.72779" lon="7.4236">
        <ele>242.505859</ele>
        <time>2012-01-29T10:33:49Z</time>
      </trkpt>
      <trkpt lat="47.72779" lon="7.4236">
        <ele>243.26889</ele>
        <time>2012-01-29T10:33:50Z</time>
      </trkpt>
      <trkpt lat="47.72779" lon="7.4236">
        <ele>243.644073</ele>
        <time>2012-01-29T10:33:51Z</time>
      </trkpt>
      <trkpt lat="47.72779" lon="7.4236">
        <ele>242.86731</ele>
        <time>2012-01-29T10:33:52Z</time>
      </trkpt>
      <trkpt lat="47.72777" lon="7.42357">
        <ele>245.106964</ele>
        <time>2012-01-29T10:33:53Z</time>
      </trkpt>
      <trkpt lat="47.72777" lon="7.42357">
        <ele>243.843903</ele>
        <time>2012-01-29T10:33:54Z</time>
      </trkpt>
      <trkpt lat="47.72777" lon="7.42357">
        <ele>242.93573</ele>
        <time>2012-01-29T10:33:55Z</time>
      </trkpt>
      <trkpt lat="47.72777" lon="7.42357">
        <ele>239.737183</ele>
        <time>2012-01-29T10:33:56Z</time>
      </trkpt>
      <trkpt lat="47.72777" lon="7.42357">
        <ele>242.711517</ele>
        <time>2012-01-29T10:33:57Z</time>
      </trkpt>
      <trkpt lat="47.72777" lon="7.42357">
        <ele>239.098877</ele>
        <time>2012-01-29T10:33:58Z</time>
      </trkpt>
      <trkpt lat="47.72777" lon="7.42357">
        <ele>239.350128</ele>
        <time>2012-01-29T10:33:59Z</time>
      </trkpt>
      <trkpt lat="47.72777" lon="7.42357">
        <ele>240.392609</ele>
        <time>2012-01-29T10:34:00Z</time>
      </trkpt>
      <trkpt lat="47.72777" lon="7.42357">
        <ele>239.939056</ele>
        <time>2012-01-29T10:34:01Z</time>
      </trkpt>
      <trkpt lat="47.72777" lon="7.42357">
        <ele>241.513214</ele>
        <time>2012-01-29T10:34:02Z</time>
      </trkpt>
      <trkpt lat="47.72777" lon="7.42357">
        <ele>242.38797</ele>
        <time>2012-01-29T10:34:03Z</time>
      </trkpt>
      <trkpt lat="47.72777" lon="7.42357">
        <ele>241.466461</ele>
        <time>2012-01-29T10:34:04Z</time>
      </trkpt>
      <trkpt lat="47.72777" lon="7.42357">
        <ele>238.57962</ele>
        <time>2012-01-29T10:34:05Z</time>
      </trkpt>
      <trkpt lat="47.72777" lon="7.42357">
        <ele>238.49881</ele>
        <time>2012-01-29T10:34:06Z</time>
      </trkpt>
      <trkpt lat="47.72777" lon="7.42357">
        <ele>238.385284</ele>
        <time>2012-01-29T10:34:07Z</time>
      </trkpt>
      <trkpt lat="47.72777" lon="7.42357">
        <ele>239.926941</ele>
        <time>2012-01-29T10:34:08Z</time>
      </trkpt>
      <trkpt lat="47.72777" lon="7.42357">
        <ele>237.693848</ele>
        <time>2012-01-29T10:34:09Z</time>
      </trkpt>
      <trkpt lat="47.72777" lon="7.42357">
        <ele>236.222229</ele>
        <time>2012-01-29T10:34:10Z</time>
      </trkpt>
      <trkpt lat="47.72777" lon="7.42357">
        <ele>237.14917</ele>
        <time>2012-01-29T10:34:11Z</time>
      </trkpt>
      <trkpt lat="47.72777" lon="7.42357">
        <ele>237.871796</ele>
        <time>2012-01-29T10:34:12Z</time>
      </trkpt>
      <trkpt lat="47.72777" lon="7.42357">
        <ele>239.554474</ele>
        <time>2012-01-29T10:34:13Z</time>
      </trkpt>
      <trkpt lat="47.72777" lon="7.42357">
        <ele>239.417297</ele>
        <time>2012-01-29T10:34:14Z</time>
      </trkpt>
      <trkpt lat="47.72777" lon="7.42357">
        <ele>237.283142</ele>
        <time>2012-01-29T10:34:15Z</time>
      </trkpt>
      <trkpt lat="47.72777" lon="7.42357">
        <ele>239.14621</ele>
        <time>2012-01-29T10:34:16Z</time>
      </trkpt>
      <trkpt lat="47.72777" lon="7.42357">
        <ele>238.952698</ele>
        <time>2012-01-29T10:34:17Z</time>
      </trkpt>
      <trkpt lat="47.72776" lon="7.42356">
        <ele>240.902985</ele>
        <time>2012-01-29T10:34:18Z</time>
      </trkpt>
      <trkpt lat="47.72776" lon="7.42356">
        <ele>239.792389</ele>
        <time>2012-01-29T10:34:19Z</time>
      </trkpt>
      <trkpt lat="47.72776" lon="7.42356">
        <ele>237.926697</ele>
        <time>2012-01-29T10:34:20Z</time>
      </trkpt>
      <trkpt lat="47.72776" lon="7.42356">
        <ele>237.511688</ele>
        <time>2012-01-29T10:34:21Z</time>
      </trkpt>
      <trkpt lat="47.72776" lon="7.42356">
        <ele>237.893036</ele>
        <time>2012-01-29T10:34:22Z</time>
      </trkpt>
      <trkpt lat="47.72776" lon="7.42356">
        <ele>238.399139</ele>
        <time>2012-01-29T10:34:23Z</time>
      </trkpt>
      <trkpt lat="47.72776" lon="7.42356">
        <ele>237.802917</ele>
        <time>2012-01-29T10:34:24Z</time>
      </trkpt>
      <trkpt lat="47.72775" lon="7.42355">
        <ele>238.52005</ele>
        <time>2012-01-29T10:34:25Z</time>
      </trkpt>
      <trkpt lat="47.72776" lon="7.42354">
        <ele>240.030273</ele>
        <time>2012-01-29T10:34:26Z</time>
      </trkpt>
      <trkpt lat="47.72776" lon="7.42355">
        <ele>241.702667</ele>
        <time>2012-01-29T10:34:27Z</time>
      </trkpt>
      <trkpt lat="47.72775" lon="7.42355">
        <ele>242.884308</ele>
        <time>2012-01-29T10:34:28Z</time>
      </trkpt>
      <trkpt lat="47.72775" lon="7.42355">
        <ele>242.149048</ele>
        <time>2012-01-29T10:34:29Z</time>
      </trkpt>
      <trkpt lat="47.72775" lon="7.42355">
        <ele>241.235138</ele>
        <time>2012-01-29T10:34:30Z</time>
      </trkpt>
      <trkpt lat="47.72775" lon="7.42355">
        <ele>239.295746</ele>
        <time>2012-01-29T10:34:31Z</time>
      </trkpt>
      <trkpt lat="47.72775" lon="7.42355">
        <ele>243.688568</ele>
        <time>2012-01-29T10:34:32Z</time>
      </trkpt>
      <trkpt lat="47.72778" lon="7.42354">
        <ele>243.227448</ele>
        <time>2012-01-29T10:34:33Z</time>
      </trkpt>
      <trkpt lat="47.72778" lon="7.42354">
        <ele>246.894257</ele>
        <time>2012-01-29T10:34:34Z</time>
      </trkpt>
      <trkpt lat="47.72778" lon="7.42354">
        <ele>248.925323</ele>
        <time>2012-01-29T10:34:35Z</time>
      </trkpt>
      <trkpt lat="47.72778" lon="7.42354">
        <ele>246.686829</ele>
        <time>2012-01-29T10:34:36Z</time>
      </trkpt>
      <trkpt lat="47.72778" lon="7.42354">
        <ele>248.528625</ele>
        <time>2012-01-29T10:34:37Z</time>
      </trkpt>
      <trkpt lat="47.72778" lon="7.42354">
        <ele>250.694641</ele>
        <time>2012-01-29T10:34:38Z</time>
      </trkpt>
      <trkpt lat="47.72778" lon="7.42354">
        <ele>251.901215</ele>
        <time>2012-01-29T10:34:39Z</time>
      </trkpt>
      <trkpt lat="47.72778" lon="7.42354">
        <ele>252.646912</ele>
        <time>2012-01-29T10:34:40Z</time>
      </trkpt>
      <trkpt lat="47.72778" lon="7.42354">
        <ele>251.34964</ele>
        <time>2012-01-29T10:34:41Z</time>
      </trkpt>
      <trkpt lat="47.72778" lon="7.42354">
        <ele>252.789612</ele>
        <time>2012-01-29T10:34:42Z</time>
      </trkpt>
      <trkpt lat="47.72778" lon="7.42354">
        <ele>255.508575</ele>
        <time>2012-01-29T10:34:43Z</time>
      </trkpt>
      <trkpt lat="47.72778" lon="7.42354">
        <ele>257.665375</ele>
        <time>2012-01-29T10:34:44Z</time>
      </trkpt>
      <trkpt lat="47.72778" lon="7.42354">
        <ele>259.109161</ele>
        <time>2012-01-29T10:34:45Z</time>
      </trkpt>
      <trkpt lat="47.72778" lon="7.42354">
        <ele>259.944244</ele>
        <time>2012-01-29T10:34:46Z</time>
      </trkpt>
      <trkpt lat="47.72778" lon="7.42354">
        <ele>258.159943</ele>
        <time>2012-01-29T10:34:47Z</time>
      </trkpt>
      <trkpt lat="47.72778" lon="7.42354">
        <ele>257.725342</ele>
        <time>2012-01-29T10:34:48Z</time>
      </trkpt>
      <trkpt lat="47.72778" lon="7.42354">
        <ele>257.041748</ele>
        <time>2012-01-29T10:34:49Z</time>
      </trkpt>
      <trkpt lat="47.72778" lon="7.42354">
        <ele>258.196899</ele>
        <time>2012-01-29T10:34:50Z</time>
      </trkpt>
      <trkpt lat="47.72778" lon="7.42354">
        <ele>257.777191</ele>
        <time>2012-01-29T10:34:51Z</time>
      </trkpt>
      <trkpt lat="47.72778" lon="7.42354">
        <ele>257.771088</ele>
        <time>2012-01-29T10:34:52Z</time>
      </trkpt>
      <trkpt lat="47.72778" lon="7.42357">
        <ele>258.182648</ele>
        <time>2012-01-29T10:34:53Z</time>
      </trkpt>
      <trkpt lat="47.72778" lon="7.42358">
        <ele>256.797729</ele>
        <time>2012-01-29T10:34:54Z</time>
      </trkpt>
      <trkpt lat="47.72778" lon="7.4236">
        <ele>257.768005</ele>
        <time>2012-01-29T10:34:55Z</time>
      </trkpt>
      <trkpt lat="47.72778" lon="7.42361">
        <ele>258.305939</ele>
        <time>2012-01-29T10:34:56Z</time>
      </trkpt>
      <trkpt lat="47.72778" lon="7.42361">
        <ele>259.004974</ele>
        <time>2012-01-29T10:34:57Z</time>
      </trkpt>
      <trkpt lat="47.72778" lon="7.42361">
        <ele>258.803864</ele>
        <time>2012-01-29T10:34:58Z</time>
      </trkpt>
      <trkpt lat="47.72779" lon="7.42362">
        <ele>258.264069</ele>
        <time>2012-01-29T10:34:59Z</time>
      </trkpt>
      <trkpt lat="47.72779" lon="7.42362">
        <ele>259.068481</ele>
        <time>2012-01-29T10:35:00Z</time>
      </trkpt>
      <trkpt lat="47.72779" lon="7.42362">
        <ele>257.792267</ele>
        <time>2012-01-29T10:35:01Z</time>
      </trkpt>
      <trkpt lat="47.72779" lon="7.42362">
        <ele>255.265747</ele>
        <time>2012-01-29T10:35:02Z</time>
      </trkpt>
      <trkpt lat="47.72779" lon="7.42362">
        <ele>254.182495</ele>
        <time>2012-01-29T10:35:03Z</time>
      </trkpt>
      <trkpt lat="47.72779" lon="7.42362">
        <ele>255.828735</ele>
        <time>2012-01-29T10:35:04Z</time>
      </trkpt>
      <trkpt lat="47.72779" lon="7.42362">
        <ele>257.467468</ele>
        <time>2012-01-29T10:35:05Z</time>
      </trkpt>
      <trkpt lat="47.7278" lon="7.42362">
        <ele>259.774017</ele>
        <time>2012-01-29T10:35:06Z</time>
      </trkpt>
      <trkpt lat="47.7278" lon="7.42363">
        <ele>258.22226</ele>
        <time>2012-01-29T10:35:07Z</time>
      </trkpt>
      <trkpt lat="47.7278" lon="7.42363">
        <ele>259.490692</ele>
        <time>2012-01-29T10:35:08Z</time>
      </trkpt>
      <trkpt lat="47.7278" lon="7.42363">
        <ele>258.277893</ele>
        <time>2012-01-29T10:35:09Z</time>
      </trkpt>
      <trkpt lat="47.7278" lon="7.42363">
        <ele>258.7276</ele>
        <time>2012-01-29T10:35:10Z</time>
      </trkpt>
      <trkpt lat="47.7278" lon="7.42363">
        <ele>258.738098</ele>
        <time>2012-01-29T10:35:11Z</time>
      </trkpt>
      <trkpt lat="47.72781" lon="7.42363">
        <ele>257.529572</ele>
        <time>2012-01-29T10:35:12Z</time>
      </trkpt>
      <trkpt lat="47.72781" lon="7.42363">
        <ele>258.663391</ele>
        <time>2012-01-29T10:35:13Z</time>
      </trkpt>
      <trkpt lat="47.72781" lon="7.42363">
        <ele>261.615051</ele>
        <time>2012-01-29T10:35:14Z</time>
      </trkpt>
      <trkpt lat="47.72781" lon="7.42363">
        <ele>261.149841</ele>
        <time>2012-01-29T10:35:15Z</time>
      </trkpt>
      <trkpt lat="47.72781" lon="7.42363">
        <ele>261.590363</ele>
        <time>2012-01-29T10:35:16Z</time>
      </trkpt>
      <trkpt lat="47.72781" lon="7.42363">
        <ele>260.946686</ele>
        <time>2012-01-29T10:35:17Z</time>
      </trkpt>
      <trkpt lat="47.7278" lon="7.42362">
        <ele>261.023499</ele>
        <time>2012-01-29T10:35:18Z</time>
      </trkpt>
      <trkpt lat="47.7278" lon="7.42362">
        <ele>260.657227</ele>
        <time>2012-01-29T10:35:19Z</time>
      </trkpt>
      <trkpt lat="47.7278" lon="7.42362">
        <ele>260.219696</ele>
        <time>2012-01-29T10:35:20Z</time>
      </trkpt>
      <trkpt lat="47.7278" lon="7.42362">
        <ele>259.687653</ele>
        <time>2012-01-29T10:35:21Z</time>
      </trkpt>
      <trkpt lat="47.7278" lon="7.42362">
        <ele>259.140869</ele>
        <time>2012-01-29T10:35:22Z</time>
      </trkpt>
      <trkpt lat="47.7278" lon="7.42362">
        <ele>259.467285</ele>
        <time>2012-01-29T10:35:23Z</time>
      </trkpt>
      <trkpt lat="47.7278" lon="7.42362">
        <ele>259.256195</ele>
        <time>2012-01-29T10:35:24Z</time>
      </trkpt>
      <trkpt lat="47.7278" lon="7.42362">
        <ele>257.77887</ele>
        <time>2012-01-29T10:35:25Z</time>
      </trkpt>
      <trkpt lat="47.7278" lon="7.42362">
        <ele>255.352386</ele>
        <time>2012-01-29T10:35:26Z</time>
      </trkpt>
      <trkpt lat="47.7278" lon="7.42362">
        <ele>254.390625</ele>
        <time>2012-01-29T10:35:27Z</time>
      </trkpt>
      <trkpt lat="47.7278" lon="7.42362">
        <ele>254.740845</ele>
        <time>2012-01-29T10:35:28Z</time>
      </trkpt>
      <trkpt lat="47.7278" lon="7.42362">
        <ele>254.195465</ele>
        <time>2012-01-29T10:35:29Z</time>
      </trkpt>
      <trkpt lat="47.7278" lon="7.42361">
        <ele>253.661346</ele>
        <time>2012-01-29T10:35:30Z</time>
      </trkpt>
      <trkpt lat="47.7278" lon="7.4236">
        <ele>249.032898</ele>
        <time>2012-01-29T10:35:31Z</time>
      </trkpt>
      <trkpt lat="47.7278" lon="7.4236">
        <ele>242.1474</ele>
        <time>2012-01-29T10:35:32Z</time>
      </trkpt>
      <trkpt lat="47.7278" lon="7.4236">
        <ele>240.568604</ele>
        <time>2012-01-29T10:35:33Z</time>
      </trkpt>
      <trkpt lat="47.7278" lon="7.4236">
        <ele>238.622314</ele>
        <time>2012-01-29T10:35:34Z</time>
      </trkpt>
      <trkpt lat="47.7278" lon="7.4236">
        <ele>237.770996</ele>
        <time>2012-01-29T10:35:35Z</time>
      </trkpt>
      <trkpt lat="47.72779" lon="7.42359">
        <ele>238.797668</ele>
        <time>2012-01-29T10:35:36Z</time>
      </trkpt>
      <trkpt lat="47.72779" lon="7.42359">
        <ele>240.606903</ele>
        <time>2012-01-29T10:35:37Z</time>
      </trkpt>
      <trkpt lat="47.7278" lon="7.42359">
        <ele>239.18042</ele>
        <time>2012-01-29T10:35:38Z</time>
      </trkpt>
      <trkpt lat="47.72779" lon="7.42359">
        <ele>242.72641</ele>
        <time>2012-01-29T10:35:39Z</time>
      </trkpt>
      <trkpt lat="47.72779" lon="7.42359">
        <ele>243.996765</ele>
        <time>2012-01-29T10:35:40Z</time>
      </trkpt>
      <trkpt lat="47.72779" lon="7.42359">
        <ele>244.153656</ele>
        <time>2012-01-29T10:35:41Z</time>
      </trkpt>
      <trkpt lat="47.72779" lon="7.42359">
        <ele>244.964844</ele>
        <time>2012-01-29T10:35:42Z</time>
      </trkpt>
      <trkpt lat="47.72779" lon="7.42359">
        <ele>244.831421</ele>
        <time>2012-01-29T10:35:43Z</time>
      </trkpt>
      <trkpt lat="47.72779" lon="7.42359">
        <ele>245.593903</ele>
        <time>2012-01-29T10:35:44Z</time>
      </trkpt>
      <trkpt lat="47.72779" lon="7.42359">
        <ele>243.695435</ele>
        <time>2012-01-29T10:35:45Z</time>
      </trkpt>
      <trkpt lat="47.72779" lon="7.42359">
        <ele>244.06015</ele>
        <time>2012-01-29T10:35:46Z</time>
      </trkpt>
      <trkpt lat="47.72778" lon="7.42356">
        <ele>244.348602</ele>
        <time>2012-01-29T10:35:47Z</time>
      </trkpt>
      <trkpt lat="47.72778" lon="7.42356">
        <ele>245.056091</ele>
        <time>2012-01-29T10:35:48Z</time>
      </trkpt>
      <trkpt lat="47.72778" lon="7.42356">
        <ele>244.9216</ele>
        <time>2012-01-29T10:35:49Z</time>
      </trkpt>
      <trkpt lat="47.72778" lon="7.42356">
        <ele>242.520294</ele>
        <time>2012-01-29T10:35:50Z</time>
      </trkpt>
      <trkpt lat="47.72778" lon="7.42355">
        <ele>240.488678</ele>
        <time>2012-01-29T10:35:51Z</time>
      </trkpt>
      <trkpt lat="47.72778" lon="7.42354">
        <ele>241.980865</ele>
        <time>2012-01-29T10:35:52Z</time>
      </trkpt>
      <trkpt lat="47.72778" lon="7.42354">
        <ele>243.491119</ele>
        <time>2012-01-29T10:35:53Z</time>
      </trkpt>
      <trkpt lat="47.72777" lon="7.42354">
        <ele>245.205902</ele>
        <time>2012-01-29T10:35:54Z</time>
      </trkpt>
      <trkpt lat="47.72777" lon="7.42354">
        <ele>246.554871</ele>
        <time>2012-01-29T10:35:55Z</time>
      </trkpt>
      <trkpt lat="47.72777" lon="7.42354">
        <ele>246.313843</ele>
        <time>2012-01-29T10:35:56Z</time>
      </trkpt>
      <trkpt lat="47.72777" lon="7.42354">
        <ele>246.025116</ele>
        <time>2012-01-29T10:35:57Z</time>
      </trkpt>
      <trkpt lat="47.72777" lon="7.42354">
        <ele>246.517517</ele>
        <time>2012-01-29T10:35:58Z</time>
      </trkpt>
      <trkpt lat="47.72777" lon="7.42354">
        <ele>244.470673</ele>
        <time>2012-01-29T10:35:59Z</time>
      </trkpt>
      <trkpt lat="47.72776" lon="7.42354">
        <ele>243.949219</ele>
        <time>2012-01-29T10:36:00Z</time>
      </trkpt>
      <trkpt lat="47.72776" lon="7.42354">
        <ele>244.810211</ele>
        <time>2012-01-29T10:36:01Z</time>
      </trkpt>
      <trkpt lat="47.72776" lon="7.42354">
        <ele>246.831512</ele>
        <time>2012-01-29T10:36:02Z</time>
      </trkpt>
      <trkpt lat="47.72776" lon="7.42354">
        <ele>243.857544</ele>
        <time>2012-01-29T10:36:03Z</time>
      </trkpt>
      <trkpt lat="47.72776" lon="7.42353">
        <ele>242.527039</ele>
        <time>2012-01-29T10:36:04Z</time>
      </trkpt>
      <trkpt lat="47.72777" lon="7.42354">
        <ele>242.244904</ele>
        <time>2012-01-29T10:36:05Z</time>
      </trkpt>
      <trkpt lat="47.72778" lon="7.42354">
        <ele>242.773895</ele>
        <time>2012-01-29T10:36:06Z</time>
      </trkpt>
      <trkpt lat="47.72778" lon="7.42354">
        <ele>242.190247</ele>
        <time>2012-01-29T10:36:07Z</time>
      </trkpt>
      <trkpt lat="47.72777" lon="7.42354">
        <ele>241.550659</ele>
        <time>2012-01-29T10:36:08Z</time>
      </trkpt>
      <trkpt lat="47.72777" lon="7.42354">
        <ele>241.375244</ele>
        <time>2012-01-29T10:36:09Z</time>
      </trkpt>
      <trkpt lat="47.72777" lon="7.42354">
        <ele>241.298645</ele>
        <time>2012-01-29T10:36:10Z</time>
      </trkpt>
      <trkpt lat="47.72777" lon="7.42354">
        <ele>242.709747</ele>
        <time>2012-01-29T10:36:11Z</time>
      </trkpt>
      <trkpt lat="47.72777" lon="7.42354">
        <ele>244.974976</ele>
        <time>2012-01-29T10:36:12Z</time>
      </trkpt>
      <trkpt lat="47.72777" lon="7.42354">
        <ele>246.737732</ele>
        <time>2012-01-29T10:36:13Z</time>
      </trkpt>
      <trkpt lat="47.72777" lon="7.42354">
        <ele>246.966766</ele>
        <time>2012-01-29T10:36:14Z</time>
      </trkpt>
      <trkpt lat="47.72777" lon="7.42354">
        <ele>247.514496</ele>
        <time>2012-01-29T10:36:15Z</time>
      </trkpt>
      <trkpt lat="47.72776" lon="7.42355">
        <ele>243.195129</ele>
        <time>2012-01-29T10:36:16Z</time>
      </trkpt>
      <trkpt lat="47.72776" lon="7.42355">
        <ele>241.429993</ele>
        <time>2012-01-29T10:36:17Z</time>
      </trkpt>
      <trkpt lat="47.72776" lon="7.42355">
        <ele>242.128296</ele>
        <time>2012-01-29T10:36:18Z</time>
      </trkpt>
      <trkpt lat="47.72776" lon="7.42355">
        <ele>242.011749</ele>
        <time>2012-01-29T10:36:19Z</time>
      </trkpt>
      <trkpt lat="47.72776" lon="7.42355">
        <ele>243.914185</ele>
        <time>2012-01-29T10:36:20Z</time>
      </trkpt>
      <trkpt lat="47.72776" lon="7.42355">
        <ele>244.106323</ele>
        <time>2012-01-29T10:36:21Z</time>
      </trkpt>
      <trkpt lat="47.72776" lon="7.42355">
        <ele>245.328918</ele>
        <time>2012-01-29T10:36:22Z</time>
      </trkpt>
      <trkpt lat="47.72776" lon="7.42355">
        <ele>245.515045</ele>
        <time>2012-01-29T10:36:23Z</time>
      </trkpt>
      <trkpt lat="47.72777" lon="7.42355">
        <ele>246.640503</ele>
        <time>2012-01-29T10:36:24Z</time>
      </trkpt>
      <trkpt lat="47.72777" lon="7.42355">
        <ele>246.675385</ele>
        <time>2012-01-29T10:36:25Z</time>
      </trkpt>
      <trkpt lat="47.72777" lon="7.42355">
        <ele>244.967682</ele>
        <time>2012-01-29T10:36:26Z</time>
      </trkpt>
      <trkpt lat="47.72777" lon="7.42355">
        <ele>242.860016</ele>
        <time>2012-01-29T10:36:27Z</time>
      </trkpt>
      <trkpt lat="47.72777" lon="7.42355">
        <ele>238.359528</ele>
        <time>2012-01-29T10:36:28Z</time>
      </trkpt>
      <trkpt lat="47.72777" lon="7.42355">
        <ele>241.244843</ele>
        <time>2012-01-29T10:36:29Z</time>
      </trkpt>
      <trkpt lat="47.72777" lon="7.42355">
        <ele>243.12616</ele>
        <time>2012-01-29T10:36:30Z</time>
      </trkpt>
      <trkpt lat="47.72777" lon="7.42355">
        <ele>242.970551</ele>
        <time>2012-01-29T10:36:31Z</time>
      </trkpt>
      <trkpt lat="47.72777" lon="7.42355">
        <ele>241.321838</ele>
        <time>2012-01-29T10:36:32Z</time>
      </trkpt>
      <trkpt lat="47.72777" lon="7.42355">
        <ele>240.955048</ele>
        <time>2012-01-29T10:36:33Z</time>
      </trkpt>
      <trkpt lat="47.72777" lon="7.42355">
        <ele>242.87561</ele>
        <time>2012-01-29T10:36:34Z</time>
      </trkpt>
      <trkpt lat="47.72777" lon="7.42355">
        <ele>242.599518</ele>
        <time>2012-01-29T10:36:35Z</time>
      </trkpt>
      <trkpt lat="47.72777" lon="7.42355">
        <ele>243.546448</ele>
        <time>2012-01-29T10:36:36Z</time>
      </trkpt>
      <trkpt lat="47.72777" lon="7.42355">
        <ele>249.679993</ele>
        <time>2012-01-29T10:36:37Z</time>
      </trkpt>
      <trkpt lat="47.72777" lon="7.42355">
        <ele>252.952545</ele>
        <time>2012-01-29T10:36:38Z</time>
      </trkpt>
      <trkpt lat="47.72777" lon="7.42355">
        <ele>254.751495</ele>
        <time>2012-01-29T10:36:39Z</time>
      </trkpt>
      <trkpt lat="47.72777" lon="7.42356">
        <ele>255.197449</ele>
        <time>2012-01-29T10:36:40Z</time>
      </trkpt>
      <trkpt lat="47.72777" lon="7.42356">
        <ele>254.944611</ele>
        <time>2012-01-29T10:36:41Z</time>
      </trkpt>
      <trkpt lat="47.72777" lon="7.42356">
        <ele>256.154663</ele>
        <time>2012-01-29T10:36:42Z</time>
      </trkpt>
      <trkpt lat="47.72777" lon="7.42356">
        <ele>251.514954</ele>
        <time>2012-01-29T10:36:43Z</time>
      </trkpt>
      <trkpt lat="47.72777" lon="7.42356">
        <ele>250.229218</ele>
        <time>2012-01-29T10:36:44Z</time>
      </trkpt>
      <trkpt lat="47.72777" lon="7.42356">
        <ele>249.159485</ele>
        <time>2012-01-29T10:36:45Z</time>
      </trkpt>
      <trkpt lat="47.72777" lon="7.42356">
        <ele>248.984314</ele>
        <time>2012-01-29T10:36:46Z</time>
      </trkpt>
      <trkpt lat="47.72778" lon="7.42358">
        <ele>247.736938</ele>
        <time>2012-01-29T10:36:47Z</time>
      </trkpt>
      <trkpt lat="47.72778" lon="7.42358">
        <ele>247.818115</ele>
        <time>2012-01-29T10:36:48Z</time>
      </trkpt>
      <trkpt lat="47.72778" lon="7.42358">
        <ele>248.679474</ele>
        <time>2012-01-29T10:36:49Z</time>
      </trkpt>
      <trkpt lat="47.72779" lon="7.42358">
        <ele>250.094269</ele>
        <time>2012-01-29T10:36:50Z</time>
      </trkpt>
      <trkpt lat="47.72779" lon="7.42358">
        <ele>250.736176</ele>
        <time>2012-01-29T10:36:51Z</time>
      </trkpt>
      <trkpt lat="47.72779" lon="7.42358">
        <ele>251.082336</ele>
        <time>2012-01-29T10:36:52Z</time>
      </trkpt>
      <trkpt lat="47.72779" lon="7.42358">
        <ele>253.887726</ele>
        <time>2012-01-29T10:36:53Z</time>
      </trkpt>
      <trkpt lat="47.72779" lon="7.42358">
        <ele>255.465271</ele>
        <time>2012-01-29T10:36:54Z</time>
      </trkpt>
      <trkpt lat="47.72779" lon="7.42358">
        <ele>256.5896</ele>
        <time>2012-01-29T10:36:55Z</time>
      </trkpt>
      <trkpt lat="47.72779" lon="7.42358">
        <ele>256.845154</ele>
        <time>2012-01-29T10:36:56Z</time>
      </trkpt>
      <trkpt lat="47.72779" lon="7.42358">
        <ele>255.12381</ele>
        <time>2012-01-29T10:36:57Z</time>
      </trkpt>
      <trkpt lat="47.72779" lon="7.42358">
        <ele>252.63382</ele>
        <time>2012-01-29T10:36:58Z</time>
      </trkpt>
      <trkpt lat="47.72779" lon="7.42358">
        <ele>250.49118</ele>
        <time>2012-01-29T10:36:59Z</time>
      </trkpt>
      <trkpt lat="47.72779" lon="7.42358">
        <ele>250.639557</ele>
        <time>2012-01-29T10:37:00Z</time>
      </trkpt>
      <trkpt lat="47.72779" lon="7.42358">
        <ele>251.348633</ele>
        <time>2012-01-29T10:37:01Z</time>
      </trkpt>
      <trkpt lat="47.72779" lon="7.42358">
        <ele>252.143158</ele>
        <time>2012-01-29T10:37:02Z</time>
      </trkpt>
      <trkpt lat="47.72779" lon="7.42358">
        <ele>252.104675</ele>
        <time>2012-01-29T10:37:03Z</time>
      </trkpt>
      <trkpt lat="47.72779" lon="7.42358">
        <ele>251.003387</ele>
        <time>2012-01-29T10:37:04Z</time>
      </trkpt>
      <trkpt lat="47.72779" lon="7.42358">
        <ele>251.195526</ele>
        <time>2012-01-29T10:37:05Z</time>
      </trkpt>
      <trkpt lat="47.72779" lon="7.42358">
        <ele>250.071625</ele>
        <time>2012-01-29T10:37:06Z</time>
      </trkpt>
      <trkpt lat="47.72779" lon="7.42358">
        <ele>252.153412</ele>
        <time>2012-01-29T10:37:07Z</time>
      </trkpt>
      <trkpt lat="47.72779" lon="7.42358">
        <ele>253.672333</ele>
        <time>2012-01-29T10:37:08Z</time>
      </trkpt>
      <trkpt lat="47.72779" lon="7.42358">
        <ele>255.084747</ele>
        <time>2012-01-29T10:37:09Z</time>
      </trkpt>
      <trkpt lat="47.72779" lon="7.42358">
        <ele>256.296265</ele>
        <time>2012-01-29T10:37:10Z</time>
      </trkpt>
      <trkpt lat="47.72779" lon="7.42358">
        <ele>257.571198</ele>
        <time>2012-01-29T10:37:11Z</time>
      </trkpt>
      <trkpt lat="47.72779" lon="7.42358">
        <ele>255.862854</ele>
        <time>2012-01-29T10:37:12Z</time>
      </trkpt>
      <trkpt lat="47.72779" lon="7.42358">
        <ele>254.245361</ele>
        <time>2012-01-29T10:37:13Z</time>
      </trkpt>
      <trkpt lat="47.72779" lon="7.42358">
        <ele>254.330383</ele>
        <time>2012-01-29T10:37:14Z</time>
      </trkpt>
      <trkpt lat="47.72779" lon="7.42358">
        <ele>254.440613</ele>
        <time>2012-01-29T10:37:15Z</time>
      </trkpt>
      <trkpt lat="47.72779" lon="7.42358">
        <ele>254.276367</ele>
        <time>2012-01-29T10:37:16Z</time>
      </trkpt>
      <trkpt lat="47.72779" lon="7.42358">
        <ele>255.291962</ele>
        <time>2012-01-29T10:37:17Z</time>
      </trkpt>
      <trkpt lat="47.72779" lon="7.42358">
        <ele>261.735901</ele>
        <time>2012-01-29T10:37:18Z</time>
      </trkpt>
      <trkpt lat="47.72779" lon="7.42358">
        <ele>261.257629</ele>
        <time>2012-01-29T10:37:19Z</time>
      </trkpt>
      <trkpt lat="47.72779" lon="7.42361">
        <ele>261.862732</ele>
        <time>2012-01-29T10:37:20Z</time>
      </trkpt>
      <trkpt lat="47.72779" lon="7.42361">
        <ele>261.804901</ele>
        <time>2012-01-29T10:37:21Z</time>
      </trkpt>
      <trkpt lat="47.72779" lon="7.42361">
        <ele>260.729156</ele>
        <time>2012-01-29T10:37:22Z</time>
      </trkpt>
      <trkpt lat="47.72779" lon="7.42361">
        <ele>258.814606</ele>
        <time>2012-01-29T10:37:23Z</time>
      </trkpt>
      <trkpt lat="47.72779" lon="7.42361">
        <ele>259.671906</ele>
        <time>2012-01-29T10:37:24Z</time>
      </trkpt>
      <trkpt lat="47.72779" lon="7.42361">
        <ele>260.653229</ele>
        <time>2012-01-29T10:37:25Z</time>
      </trkpt>
      <trkpt lat="47.72779" lon="7.42361">
        <ele>260.135132</ele>
        <time>2012-01-29T10:37:26Z</time>
      </trkpt>
      <trkpt lat="47.72779" lon="7.42361">
        <ele>258.483154</ele>
        <time>2012-01-29T10:37:27Z</time>
      </trkpt>
      <trkpt lat="47.72779" lon="7.42361">
        <ele>257.31131</ele>
        <time>2012-01-29T10:37:28Z</time>
      </trkpt>
      <trkpt lat="47.72779" lon="7.42361">
        <ele>256.741608</ele>
        <time>2012-01-29T10:37:29Z</time>
      </trkpt>
      <trkpt lat="47.72779" lon="7.42361">
        <ele>256.658569</ele>
        <time>2012-01-29T10:37:30Z</time>
      </trkpt>
      <trkpt lat="47.72779" lon="7.42361">
        <ele>256.733582</ele>
        <time>2012-01-29T10:37:31Z</time>
      </trkpt>
      <trkpt lat="47.72779" lon="7.42361">
        <ele>255.796051</ele>
        <time>2012-01-29T10:37:32Z</time>
      </trkpt>
      <trkpt lat="47.72779" lon="7.42361">
        <ele>256.31424</ele>
        <time>2012-01-29T10:37:33Z</time>
      </trkpt>
      <trkpt lat="47.72779" lon="7.42361">
        <ele>256.10318</ele>
        <time>2012-01-29T10:37:34Z</time>
      </trkpt>
      <trkpt lat="47.72779" lon="7.42361">
        <ele>257.002106</ele>
        <time>2012-01-29T10:37:35Z</time>
      </trkpt>
      <trkpt lat="47.72779" lon="7.42361">
        <ele>258.423126</ele>
        <time>2012-01-29T10:37:36Z</time>
      </trkpt>
      <trkpt lat="47.72779" lon="7.42361">
        <ele>261.953979</ele>
        <time>2012-01-29T10:37:37Z</time>
      </trkpt>
      <trkpt lat="47.72779" lon="7.42361">
        <ele>262.097351</ele>
        <time>2012-01-29T10:37:38Z</time>
      </trkpt>
      <trkpt lat="47.72779" lon="7.42361">
        <ele>262.686157</ele>
        <time>2012-01-29T10:37:39Z</time>
      </trkpt>
      <trkpt lat="47.72779" lon="7.42361">
        <ele>258.252563</ele>
        <time>2012-01-29T10:37:40Z</time>
      </trkpt>
      <trkpt lat="47.72779" lon="7.42361">
        <ele>256.270844</ele>
        <time>2012-01-29T10:37:41Z</time>
      </trkpt>
      <trkpt lat="47.72779" lon="7.42361">
        <ele>256.7453</ele>
        <time>2012-01-29T10:37:42Z</time>
      </trkpt>
      <trkpt lat="47.72779" lon="7.42361">
        <ele>256.996185</ele>
        <time>2012-01-29T10:37:43Z</time>
      </trkpt>
      <trkpt lat="47.72779" lon="7.42361">
        <ele>258.127899</ele>
        <time>2012-01-29T10:37:44Z</time>
      </trkpt>
      <trkpt lat="47.72779" lon="7.42361">
        <ele>260.200043</ele>
        <time>2012-01-29T10:37:45Z</time>
      </trkpt>
      <trkpt lat="47.72779" lon="7.42361">
        <ele>261.175659</ele>
        <time>2012-01-29T10:37:46Z</time>
      </trkpt>
      <trkpt lat="47.72779" lon="7.42361">
        <ele>262.940552</ele>
        <time>2012-01-29T10:37:47Z</time>
      </trkpt>
      <trkpt lat="47.72779" lon="7.42363">
        <ele>261.292145</ele>
        <time>2012-01-29T10:37:48Z</time>
      </trkpt>
      <trkpt lat="47.72779" lon="7.42364">
        <ele>258.053284</ele>
        <time>2012-01-29T10:37:49Z</time>
      </trkpt>
      <trkpt lat="47.72781" lon="7.4236">
        <ele>254.761749</ele>
        <time>2012-01-29T10:37:50Z</time>
      </trkpt>
      <trkpt lat="47.72781" lon="7.42358">
        <ele>249.85965</ele>
        <time>2012-01-29T10:37:51Z</time>
      </trkpt>
      <trkpt lat="47.72781" lon="7.42359">
        <ele>246.636414</ele>
        <time>2012-01-29T10:37:52Z</time>
      </trkpt>
      <trkpt lat="47.72782" lon="7.4236">
        <ele>244.846069</ele>
        <time>2012-01-29T10:37:53Z</time>
      </trkpt>
      <trkpt lat="47.72783" lon="7.42361">
        <ele>244.484222</ele>
        <time>2012-01-29T10:37:54Z</time>
      </trkpt>
      <trkpt lat="47.72785" lon="7.42362">
        <ele>243.477203</ele>
        <time>2012-01-29T10:37:55Z</time>
      </trkpt>
      <trkpt lat="47.72788" lon="7.42363">
        <ele>243.783813</ele>
        <time>2012-01-29T10:37:56Z</time>
      </trkpt>
      <trkpt lat="47.7279" lon="7.42364">
        <ele>243.125977</ele>
        <time>2012-01-29T10:37:57Z</time>
      </trkpt>
      <trkpt lat="47.72793" lon="7.42366">
        <ele>243.311279</ele>
        <time>2012-01-29T10:37:58Z</time>
      </trkpt>
      <trkpt lat="47.72795" lon="7.42368">
        <ele>243.656738</ele>
        <time>2012-01-29T10:37:59Z</time>
      </trkpt>
      <trkpt lat="47.72798" lon="7.42368">
        <ele>244.129883</ele>
        <time>2012-01-29T10:38:00Z</time>
      </trkpt>
      <trkpt lat="47.728" lon="7.42368">
        <ele>245.211823</ele>
        <time>2012-01-29T10:38:01Z</time>
      </trkpt>
      <trkpt lat="47.72803" lon="7.42369">
        <ele>245.806793</ele>
        <time>2012-01-29T10:38:02Z</time>
      </trkpt>
      <trkpt lat="47.72806" lon="7.42368">
        <ele>245.594757</ele>
        <time>2012-01-29T10:38:03Z</time>
      </trkpt>
      <trkpt lat="47.7281" lon="7.42368">
        <ele>245.552368</ele>
        <time>2012-01-29T10:38:04Z</time>
      </trkpt>
      <trkpt lat="47.72813" lon="7.42369">
        <ele>245.890625</ele>
        <time>2012-01-29T10:38:05Z</time>
      </trkpt>
      <trkpt lat="47.72816" lon="7.42369">
        <ele>245.988647</ele>
        <time>2012-01-29T10:38:06Z</time>
      </trkpt>
      <trkpt lat="47.72819" lon="7.42369">
        <ele>246.244995</ele>
        <time>2012-01-29T10:38:07Z</time>
      </trkpt>
      <trkpt lat="47.72821" lon="7.42369">
        <ele>245.71225</ele>
        <time>2012-01-29T10:38:08Z</time>
      </trkpt>
      <trkpt lat="47.72822" lon="7.42368">
        <ele>246.195282</ele>
        <time>2012-01-29T10:38:09Z</time>
      </trkpt>
      <trkpt lat="47.72823" lon="7.42367">
        <ele>245.363251</ele>
        <time>2012-01-29T10:38:10Z</time>
      </trkpt>
      <trkpt lat="47.72823" lon="7.42367">
        <ele>244.754913</ele>
        <time>2012-01-29T10:38:11Z</time>
      </trkpt>
      <trkpt lat="47.72824" lon="7.42365">
        <ele>244.125519</ele>
        <time>2012-01-29T10:38:12Z</time>
      </trkpt>
      <trkpt lat="47.72826" lon="7.42362">
        <ele>244.217712</ele>
        <time>2012-01-29T10:38:13Z</time>
      </trkpt>
      <trkpt lat="47.72828" lon="7.42356">
        <ele>243.84726</ele>
        <time>2012-01-29T10:38:14Z</time>
      </trkpt>
      <trkpt lat="47.7283" lon="7.4235">
        <ele>243.391754</ele>
        <time>2012-01-29T10:38:15Z</time>
      </trkpt>
      <trkpt lat="47.7283" lon="7.42344">
        <ele>243.147491</ele>
        <time>2012-01-29T10:38:16Z</time>
      </trkpt>
      <trkpt lat="47.72831" lon="7.42338">
        <ele>244.112274</ele>
        <time>2012-01-29T10:38:17Z</time>
      </trkpt>
      <trkpt lat="47.72831" lon="7.42332">
        <ele>243.670532</ele>
        <time>2012-01-29T10:38:18Z</time>
      </trkpt>
      <trkpt lat="47.72831" lon="7.42325">
        <ele>243.904022</ele>
        <time>2012-01-29T10:38:19Z</time>
      </trkpt>
      <trkpt lat="47.72831" lon="7.42317">
        <ele>243.876312</ele>
        <time>2012-01-29T10:38:20Z</time>
      </trkpt>
      <trkpt lat="47.72832" lon="7.42311">
        <ele>242.164337</ele>
        <time>2012-01-29T10:38:21Z</time>
      </trkpt>
      <trkpt lat="47.72832" lon="7.42304">
        <ele>243.31131</ele>
        <time>2012-01-29T10:38:22Z</time>
      </trkpt>
      <trkpt lat="47.72832" lon="7.42297">
        <ele>243.899017</ele>
        <time>2012-01-29T10:38:23Z</time>
      </trkpt>
      <trkpt lat="47.72832" lon="7.42289">
        <ele>244.02713</ele>
        <time>2012-01-29T10:38:24Z</time>
      </trkpt>
      <trkpt lat="47.72832" lon="7.42281">
        <ele>244.212128</ele>
        <time>2012-01-29T10:38:25Z</time>
      </trkpt>
      <trkpt lat="47.72833" lon="7.42273">
        <ele>244.575775</ele>
        <time>2012-01-29T10:38:26Z</time>
      </trkpt>
      <trkpt lat="47.72833" lon="7.42264">
        <ele>244.943146</ele>
        <time>2012-01-29T10:38:27Z</time>
      </trkpt>
      <trkpt lat="47.72833" lon="7.42256">
        <ele>244.779205</ele>
        <time>2012-01-29T10:38:28Z</time>
      </trkpt>
      <trkpt lat="47.72833" lon="7.42248">
        <ele>244.596344</ele>
        <time>2012-01-29T10:38:29Z</time>
      </trkpt>
      <trkpt lat="47.72833" lon="7.4224">
        <ele>244.378601</ele>
        <time>2012-01-29T10:38:30Z</time>
      </trkpt>
      <trkpt lat="47.72834" lon="7.42231">
        <ele>244.032776</ele>
        <time>2012-01-29T10:38:31Z</time>
      </trkpt>
      <trkpt lat="47.72834" lon="7.42222">
        <ele>243.945709</ele>
        <time>2012-01-29T10:38:32Z</time>
      </trkpt>
      <trkpt lat="47.72834" lon="7.42213">
        <ele>244.56073</ele>
        <time>2012-01-29T10:38:33Z</time>
      </trkpt>
      <trkpt lat="47.72834" lon="7.42204">
        <ele>244.272247</ele>
        <time>2012-01-29T10:38:34Z</time>
      </trkpt>
      <trkpt lat="47.72835" lon="7.42196">
        <ele>244.882568</ele>
        <time>2012-01-29T10:38:35Z</time>
      </trkpt>
      <trkpt lat="47.72835" lon="7.42187">
        <ele>243.903442</ele>
        <time>2012-01-29T10:38:36Z</time>
      </trkpt>
      <trkpt lat="47.72836" lon="7.42178">
        <ele>243.545959</ele>
        <time>2012-01-29T10:38:37Z</time>
      </trkpt>
      <trkpt lat="47.72836" lon="7.4217">
        <ele>243.776764</ele>
        <time>2012-01-29T10:38:38Z</time>
      </trkpt>
      <trkpt lat="47.72837" lon="7.42161">
        <ele>244.135834</ele>
        <time>2012-01-29T10:38:39Z</time>
      </trkpt>
      <trkpt lat="47.72837" lon="7.42153">
        <ele>243.165039</ele>
        <time>2012-01-29T10:38:40Z</time>
      </trkpt>
      <trkpt lat="47.72838" lon="7.42144">
        <ele>242.633026</ele>
        <time>2012-01-29T10:38:41Z</time>
      </trkpt>
      <trkpt lat="47.72838" lon="7.42135">
        <ele>242.734131</ele>
        <time>2012-01-29T10:38:42Z</time>
      </trkpt>
      <trkpt lat="47.7284" lon="7.42125">
        <ele>241.694153</ele>
        <time>2012-01-29T10:38:43Z</time>
      </trkpt>
      <trkpt lat="47.7284" lon="7.42117">
        <ele>242.354492</ele>
        <time>2012-01-29T10:38:44Z</time>
      </trkpt>
      <trkpt lat="47.72841" lon="7.42109">
        <ele>244.970947</ele>
        <time>2012-01-29T10:38:45Z</time>
      </trkpt>
      <trkpt lat="47.72842" lon="7.421">
        <ele>245.134369</ele>
        <time>2012-01-29T10:38:46Z</time>
      </trkpt>
      <trkpt lat="47.72842" lon="7.42091">
        <ele>245.466827</ele>
        <time>2012-01-29T10:38:47Z</time>
      </trkpt>
      <trkpt lat="47.72843" lon="7.42083">
        <ele>245.527679</ele>
        <time>2012-01-29T10:38:48Z</time>
      </trkpt>
      <trkpt lat="47.72844" lon="7.42074">
        <ele>245.709869</ele>
        <time>2012-01-29T10:38:49Z</time>
      </trkpt>
      <trkpt lat="47.72845" lon="7.42066">
        <ele>244.666595</ele>
        <time>2012-01-29T10:38:50Z</time>
      </trkpt>
      <trkpt lat="47.72846" lon="7.42057">
        <ele>244.100098</ele>
        <time>2012-01-29T10:38:51Z</time>
      </trkpt>
      <trkpt lat="47.72847" lon="7.42048">
        <ele>243.807678</ele>
        <time>2012-01-29T10:38:52Z</time>
      </trkpt>
      <trkpt lat="47.72848" lon="7.42039">
        <ele>243.026459</ele>
        <time>2012-01-29T10:38:53Z</time>
      </trkpt>
      <trkpt lat="47.7285" lon="7.4203">
        <ele>243.388031</ele>
        <time>2012-01-29T10:38:54Z</time>
      </trkpt>
      <trkpt lat="47.72851" lon="7.42021">
        <ele>243.52417</ele>
        <time>2012-01-29T10:38:55Z</time>
      </trkpt>
      <trkpt lat="47.72853" lon="7.42013">
        <ele>243.050415</ele>
        <time>2012-01-29T10:38:56Z</time>
      </trkpt>
      <trkpt lat="47.72855" lon="7.42004">
        <ele>242.412506</ele>
        <time>2012-01-29T10:38:57Z</time>
      </trkpt>
      <trkpt lat="47.72856" lon="7.41995">
        <ele>242.326691</ele>
        <time>2012-01-29T10:38:58Z</time>
      </trkpt>
      <trkpt lat="47.72857" lon="7.41987">
        <ele>242.479645</ele>
        <time>2012-01-29T10:38:59Z</time>
      </trkpt>
      <trkpt lat="47.72859" lon="7.41978">
        <ele>242.580414</ele>
        <time>2012-01-29T10:39:00Z</time>
      </trkpt>
      <trkpt lat="47.7286" lon="7.41969">
        <ele>243.145508</ele>
        <time>2012-01-29T10:39:01Z</time>
      </trkpt>
      <trkpt lat="47.72861" lon="7.4196">
        <ele>243.784882</ele>
        <time>2012-01-29T10:39:02Z</time>
      </trkpt>
      <trkpt lat="47.72862" lon="7.41951">
        <ele>243.353943</ele>
        <time>2012-01-29T10:39:03Z</time>
      </trkpt>
      <trkpt lat="47.72862" lon="7.41942">
        <ele>243.4646</ele>
        <time>2012-01-29T10:39:04Z</time>
      </trkpt>
      <trkpt lat="47.72863" lon="7.41933">
        <ele>244.210876</ele>
        <time>2012-01-29T10:39:05Z</time>
      </trkpt>
      <trkpt lat="47.72863" lon="7.41925">
        <ele>244.854797</ele>
        <time>2012-01-29T10:39:06Z</time>
      </trkpt>
      <trkpt lat="47.72864" lon="7.41916">
        <ele>245.348877</ele>
        <time>2012-01-29T10:39:07Z</time>
      </trkpt>
      <trkpt lat="47.72864" lon="7.41908">
        <ele>243.917358</ele>
        <time>2012-01-29T10:39:08Z</time>
      </trkpt>
      <trkpt lat="47.72864" lon="7.41899">
        <ele>243.220886</ele>
        <time>2012-01-29T10:39:09Z</time>
      </trkpt>
      <trkpt lat="47.72866" lon="7.4189">
        <ele>242.908173</ele>
        <time>2012-01-29T10:39:10Z</time>
      </trkpt>
      <trkpt lat="47.72867" lon="7.41881">
        <ele>243.015717</ele>
        <time>2012-01-29T10:39:11Z</time>
      </trkpt>
      <trkpt lat="47.72868" lon="7.41873">
        <ele>241.955658</ele>
        <time>2012-01-29T10:39:12Z</time>
      </trkpt>
      <trkpt lat="47.7287" lon="7.41864">
        <ele>241.365875</ele>
        <time>2012-01-29T10:39:13Z</time>
      </trkpt>
      <trkpt lat="47.72871" lon="7.41856">
        <ele>241.231995</ele>
        <time>2012-01-29T10:39:14Z</time>
      </trkpt>
      <trkpt lat="47.72872" lon="7.41848">
        <ele>242.516876</ele>
        <time>2012-01-29T10:39:15Z</time>
      </trkpt>
      <trkpt lat="47.72873" lon="7.41839">
        <ele>243.053833</ele>
        <time>2012-01-29T10:39:16Z</time>
      </trkpt>
      <trkpt lat="47.72875" lon="7.41829">
        <ele>243.02002</ele>
        <time>2012-01-29T10:39:17Z</time>
      </trkpt>
      <trkpt lat="47.72875" lon="7.41818">
        <ele>247.077423</ele>
        <time>2012-01-29T10:39:18Z</time>
      </trkpt>
      <trkpt lat="47.72875" lon="7.41807">
        <ele>250.715302</ele>
        <time>2012-01-29T10:39:19Z</time>
      </trkpt>
      <trkpt lat="47.72875" lon="7.41798">
        <ele>254.486023</ele>
        <time>2012-01-29T10:39:20Z</time>
      </trkpt>
      <trkpt lat="47.72874" lon="7.4179">
        <ele>256.710358</ele>
        <time>2012-01-29T10:39:21Z</time>
      </trkpt>
      <trkpt lat="47.72874" lon="7.41781">
        <ele>256.152191</ele>
        <time>2012-01-29T10:39:22Z</time>
      </trkpt>
      <trkpt lat="47.72874" lon="7.41773">
        <ele>255.209381</ele>
        <time>2012-01-29T10:39:23Z</time>
      </trkpt>
      <trkpt lat="47.72875" lon="7.41765">
        <ele>252.903534</ele>
        <time>2012-01-29T10:39:24Z</time>
      </trkpt>
      <trkpt lat="47.72875" lon="7.41757">
        <ele>253.213318</ele>
        <time>2012-01-29T10:39:25Z</time>
      </trkpt>
      <trkpt lat="47.72876" lon="7.4175">
        <ele>250.820984</ele>
        <time>2012-01-29T10:39:26Z</time>
      </trkpt>
      <trkpt lat="47.72877" lon="7.41742">
        <ele>249.396271</ele>
        <time>2012-01-29T10:39:27Z</time>
      </trkpt>
      <trkpt lat="47.72877" lon="7.41735">
        <ele>250.611755</ele>
        <time>2012-01-29T10:39:28Z</time>
      </trkpt>
      <trkpt lat="47.72877" lon="7.41728">
        <ele>252.54776</ele>
        <time>2012-01-29T10:39:29Z</time>
      </trkpt>
      <trkpt lat="47.72878" lon="7.41722">
        <ele>251.071838</ele>
        <time>2012-01-29T10:39:30Z</time>
      </trkpt>
      <trkpt lat="47.72878" lon="7.41717">
        <ele>249.660034</ele>
        <time>2012-01-29T10:39:31Z</time>
      </trkpt>
      <trkpt lat="47.72878" lon="7.41711">
        <ele>248.410065</ele>
        <time>2012-01-29T10:39:32Z</time>
      </trkpt>
      <trkpt lat="47.72879" lon="7.41702">
        <ele>249.943146</ele>
        <time>2012-01-29T10:39:33Z</time>
      </trkpt>
      <trkpt lat="47.72879" lon="7.41695">
        <ele>249.496918</ele>
        <time>2012-01-29T10:39:34Z</time>
      </trkpt>
      <trkpt lat="47.72879" lon="7.41689">
        <ele>247.431183</ele>
        <time>2012-01-29T10:39:35Z</time>
      </trkpt>
      <trkpt lat="47.7288" lon="7.41684">
        <ele>246.097412</ele>
        <time>2012-01-29T10:39:36Z</time>
      </trkpt>
      <trkpt lat="47.7288" lon="7.4168">
        <ele>246.535919</ele>
        <time>2012-01-29T10:39:37Z</time>
      </trkpt>
      <trkpt lat="47.7288" lon="7.41673">
        <ele>249.00528</ele>
        <time>2012-01-29T10:39:38Z</time>
      </trkpt>
      <trkpt lat="47.7288" lon="7.41669">
        <ele>250.089661</ele>
        <time>2012-01-29T10:39:39Z</time>
      </trkpt>
      <trkpt lat="47.72879" lon="7.41664">
        <ele>252.7883</ele>
        <time>2012-01-29T10:39:40Z</time>
      </trkpt>
      <trkpt lat="47.72879" lon="7.41661">
        <ele>254.351532</ele>
        <time>2012-01-29T10:39:41Z</time>
      </trkpt>
      <trkpt lat="47.72876" lon="7.41658">
        <ele>251.749817</ele>
        <time>2012-01-29T10:39:42Z</time>
      </trkpt>
      <trkpt lat="47.72874" lon="7.41657">
        <ele>250.175812</ele>
        <time>2012-01-29T10:39:43Z</time>
      </trkpt>
      <trkpt lat="47.7287" lon="7.41657">
        <ele>246.901642</ele>
        <time>2012-01-29T10:39:44Z</time>
      </trkpt>
      <trkpt lat="47.72865" lon="7.41657">
        <ele>247.591187</ele>
        <time>2012-01-29T10:39:45Z</time>
      </trkpt>
      <trkpt lat="47.7286" lon="7.41658">
        <ele>249.642761</ele>
        <time>2012-01-29T10:39:46Z</time>
      </trkpt>
      <trkpt lat="47.72854" lon="7.41659">
        <ele>248.979736</ele>
        <time>2012-01-29T10:39:47Z</time>
      </trkpt>
      <trkpt lat="47.72847" lon="7.41661">
        <ele>247.141785</ele>
        <time>2012-01-29T10:39:48Z</time>
      </trkpt>
      <trkpt lat="47.72841" lon="7.41663">
        <ele>246.666779</ele>
        <time>2012-01-29T10:39:49Z</time>
      </trkpt>
      <trkpt lat="47.72836" lon="7.41666">
        <ele>246.322418</ele>
        <time>2012-01-29T10:39:50Z</time>
      </trkpt>
      <trkpt lat="47.7283" lon="7.41668">
        <ele>245.187286</ele>
        <time>2012-01-29T10:39:51Z</time>
      </trkpt>
      <trkpt lat="47.72825" lon="7.4167">
        <ele>244.526703</ele>
        <time>2012-01-29T10:39:52Z</time>
      </trkpt>
      <trkpt lat="47.7282" lon="7.41672">
        <ele>244.293213</ele>
        <time>2012-01-29T10:39:53Z</time>
      </trkpt>
      <trkpt lat="47.72815" lon="7.41675">
        <ele>245.281494</ele>
        <time>2012-01-29T10:39:54Z</time>
      </trkpt>
      <trkpt lat="47.7281" lon="7.41677">
        <ele>245.097137</ele>
        <time>2012-01-29T10:39:55Z</time>
      </trkpt>
      <trkpt lat="47.72805" lon="7.41681">
        <ele>248.520477</ele>
        <time>2012-01-29T10:39:56Z</time>
      </trkpt>
      <trkpt lat="47.728" lon="7.41685">
        <ele>252.365295</ele>
        <time>2012-01-29T10:39:57Z</time>
      </trkpt>
      <trkpt lat="47.72795" lon="7.41689">
        <ele>256.509216</ele>
        <time>2012-01-29T10:39:58Z</time>
      </trkpt>
      <trkpt lat="47.72789" lon="7.41694">
        <ele>255.751923</ele>
        <time>2012-01-29T10:39:59Z</time>
      </trkpt>
      <trkpt lat="47.72782" lon="7.41697">
        <ele>253.665741</ele>
        <time>2012-01-29T10:40:00Z</time>
      </trkpt>
      <trkpt lat="47.72775" lon="7.417">
        <ele>251.563812</ele>
        <time>2012-01-29T10:40:01Z</time>
      </trkpt>
      <trkpt lat="47.7277" lon="7.41702">
        <ele>250.972961</ele>
        <time>2012-01-29T10:40:02Z</time>
      </trkpt>
      <trkpt lat="47.72764" lon="7.41705">
        <ele>249.251129</ele>
        <time>2012-01-29T10:40:03Z</time>
      </trkpt>
      <trkpt lat="47.72759" lon="7.41707">
        <ele>247.424225</ele>
        <time>2012-01-29T10:40:04Z</time>
      </trkpt>
      <trkpt lat="47.72754" lon="7.41708">
        <ele>249.379669</ele>
        <time>2012-01-29T10:40:05Z</time>
      </trkpt>
      <trkpt lat="47.72749" lon="7.4171">
        <ele>251.842163</ele>
        <time>2012-01-29T10:40:06Z</time>
      </trkpt>
      <trkpt lat="47.72744" lon="7.41713">
        <ele>251.782959</ele>
        <time>2012-01-29T10:40:07Z</time>
      </trkpt>
      <trkpt lat="47.72738" lon="7.41715">
        <ele>251.590485</ele>
        <time>2012-01-29T10:40:08Z</time>
      </trkpt>
      <trkpt lat="47.72732" lon="7.41718">
        <ele>250.088654</ele>
        <time>2012-01-29T10:40:09Z</time>
      </trkpt>
      <trkpt lat="47.72726" lon="7.4172">
        <ele>249.729034</ele>
        <time>2012-01-29T10:40:10Z</time>
      </trkpt>
      <trkpt lat="47.7272" lon="7.41723">
        <ele>250.028473</ele>
        <time>2012-01-29T10:40:11Z</time>
      </trkpt>
      <trkpt lat="47.72714" lon="7.41725">
        <ele>249.637054</ele>
        <time>2012-01-29T10:40:12Z</time>
      </trkpt>
      <trkpt lat="47.72708" lon="7.41727">
        <ele>248.070099</ele>
        <time>2012-01-29T10:40:13Z</time>
      </trkpt>
      <trkpt lat="47.72702" lon="7.4173">
        <ele>248.66571</ele>
        <time>2012-01-29T10:40:14Z</time>
      </trkpt>
      <trkpt lat="47.72696" lon="7.41733">
        <ele>248.962982</ele>
        <time>2012-01-29T10:40:15Z</time>
      </trkpt>
      <trkpt lat="47.7269" lon="7.41736">
        <ele>250.443695</ele>
        <time>2012-01-29T10:40:16Z</time>
      </trkpt>
      <trkpt lat="47.72685" lon="7.41738">
        <ele>247.892975</ele>
        <time>2012-01-29T10:40:17Z</time>
      </trkpt>
      <trkpt lat="47.72679" lon="7.4174">
        <ele>247.206879</ele>
        <time>2012-01-29T10:40:18Z</time>
      </trkpt>
      <trkpt lat="47.72674" lon="7.41741">
        <ele>245.153717</ele>
        <time>2012-01-29T10:40:19Z</time>
      </trkpt>
      <trkpt lat="47.72668" lon="7.41742">
        <ele>244.108307</ele>
        <time>2012-01-29T10:40:20Z</time>
      </trkpt>
      <trkpt lat="47.72662" lon="7.41744">
        <ele>243.960327</ele>
        <time>2012-01-29T10:40:21Z</time>
      </trkpt>
      <trkpt lat="47.72655" lon="7.41744">
        <ele>242.386078</ele>
        <time>2012-01-29T10:40:22Z</time>
      </trkpt>
      <trkpt lat="47.72648" lon="7.41746">
        <ele>244.560638</ele>
        <time>2012-01-29T10:40:23Z</time>
      </trkpt>
      <trkpt lat="47.72642" lon="7.41746">
        <ele>245.41156</ele>
        <time>2012-01-29T10:40:24Z</time>
      </trkpt>
      <trkpt lat="47.72635" lon="7.41747">
        <ele>246.629608</ele>
        <time>2012-01-29T10:40:25Z</time>
      </trkpt>
      <trkpt lat="47.72629" lon="7.41747">
        <ele>246.390015</ele>
        <time>2012-01-29T10:40:26Z</time>
      </trkpt>
      <trkpt lat="47.72623" lon="7.41747">
        <ele>245.310303</ele>
        <time>2012-01-29T10:40:27Z</time>
      </trkpt>
      <trkpt lat="47.72617" lon="7.41747">
        <ele>244.443085</ele>
        <time>2012-01-29T10:40:28Z</time>
      </trkpt>
      <trkpt lat="47.7261" lon="7.41748">
        <ele>246.567291</ele>
        <time>2012-01-29T10:40:29Z</time>
      </trkpt>
      <trkpt lat="47.72604" lon="7.41748">
        <ele>246.230804</ele>
        <time>2012-01-29T10:40:30Z</time>
      </trkpt>
      <trkpt lat="47.72598" lon="7.41748">
        <ele>246.615601</ele>
        <time>2012-01-29T10:40:31Z</time>
      </trkpt>
      <trkpt lat="47.72592" lon="7.41749">
        <ele>246.010773</ele>
        <time>2012-01-29T10:40:32Z</time>
      </trkpt>
      <trkpt lat="47.72584" lon="7.41751">
        <ele>245.479706</ele>
        <time>2012-01-29T10:40:33Z</time>
      </trkpt>
      <trkpt lat="47.72577" lon="7.41752">
        <ele>245.224609</ele>
        <time>2012-01-29T10:40:34Z</time>
      </trkpt>
      <trkpt lat="47.7257" lon="7.41754">
        <ele>245.912506</ele>
        <time>2012-01-29T10:40:35Z</time>
      </trkpt>
      <trkpt lat="47.72564" lon="7.41755">
        <ele>244.016754</ele>
        <time>2012-01-29T10:40:36Z</time>
      </trkpt>
      <trkpt lat="47.72558" lon="7.41756">
        <ele>244.241364</ele>
        <time>2012-01-29T10:40:37Z</time>
      </trkpt>
      <trkpt lat="47.72552" lon="7.41758">
        <ele>245.39917</ele>
        <time>2012-01-29T10:40:38Z</time>
      </trkpt>
      <trkpt lat="47.72545" lon="7.4176">
        <ele>246.012695</ele>
        <time>2012-01-29T10:40:39Z</time>
      </trkpt>
      <trkpt lat="47.72539" lon="7.41761">
        <ele>245.639221</ele>
        <time>2012-01-29T10:40:40Z</time>
      </trkpt>
      <trkpt lat="47.72534" lon="7.41762">
        <ele>245.062561</ele>
        <time>2012-01-29T10:40:41Z</time>
      </trkpt>
      <trkpt lat="47.72528" lon="7.41763">
        <ele>245.106873</ele>
        <time>2012-01-29T10:40:42Z</time>
      </trkpt>
      <trkpt lat="47.72521" lon="7.41764">
        <ele>245.059204</ele>
        <time>2012-01-29T10:40:43Z</time>
      </trkpt>
      <trkpt lat="47.72515" lon="7.41766">
        <ele>245.69455</ele>
        <time>2012-01-29T10:40:44Z</time>
      </trkpt>
      <trkpt lat="47.72508" lon="7.41767">
        <ele>245.6315</ele>
        <time>2012-01-29T10:40:45Z</time>
      </trkpt>
      <trkpt lat="47.72502" lon="7.41769">
        <ele>245.424805</ele>
        <time>2012-01-29T10:40:46Z</time>
      </trkpt>
      <trkpt lat="47.72496" lon="7.4177">
        <ele>245.011688</ele>
        <time>2012-01-29T10:40:47Z</time>
      </trkpt>
      <trkpt lat="47.72489" lon="7.41772">
        <ele>245.458618</ele>
        <time>2012-01-29T10:40:48Z</time>
      </trkpt>
      <trkpt lat="47.72482" lon="7.41773">
        <ele>245.5737</ele>
        <time>2012-01-29T10:40:49Z</time>
      </trkpt>
      <trkpt lat="47.72476" lon="7.41774">
        <ele>244.616058</ele>
        <time>2012-01-29T10:40:50Z</time>
      </trkpt>
      <trkpt lat="47.72469" lon="7.41776">
        <ele>244.956177</ele>
        <time>2012-01-29T10:40:51Z</time>
      </trkpt>
      <trkpt lat="47.72462" lon="7.41777">
        <ele>245.430389</ele>
        <time>2012-01-29T10:40:52Z</time>
      </trkpt>
      <trkpt lat="47.72456" lon="7.41778">
        <ele>245.405487</ele>
        <time>2012-01-29T10:40:53Z</time>
      </trkpt>
      <trkpt lat="47.72449" lon="7.4178">
        <ele>245.865936</ele>
        <time>2012-01-29T10:40:54Z</time>
      </trkpt>
      <trkpt lat="47.72442" lon="7.41781">
        <ele>246.218201</ele>
        <time>2012-01-29T10:40:55Z</time>
      </trkpt>
      <trkpt lat="47.72436" lon="7.41782">
        <ele>245.05014</ele>
        <time>2012-01-29T10:40:56Z</time>
      </trkpt>
      <trkpt lat="47.7243" lon="7.41783">
        <ele>244.546082</ele>
        <time>2012-01-29T10:40:57Z</time>
      </trkpt>
      <trkpt lat="47.72423" lon="7.41784">
        <ele>246.249146</ele>
        <time>2012-01-29T10:40:58Z</time>
      </trkpt>
      <trkpt lat="47.72417" lon="7.41786">
        <ele>245.25296</ele>
        <time>2012-01-29T10:40:59Z</time>
      </trkpt>
      <trkpt lat="47.7241" lon="7.41787">
        <ele>244.07132</ele>
        <time>2012-01-29T10:41:00Z</time>
      </trkpt>
      <trkpt lat="47.72404" lon="7.41788">
        <ele>243.88092</ele>
        <time>2012-01-29T10:41:01Z</time>
      </trkpt>
      <trkpt lat="47.72397" lon="7.41788">
        <ele>243.366394</ele>
        <time>2012-01-29T10:41:02Z</time>
      </trkpt>
      <trkpt lat="47.72391" lon="7.41789">
        <ele>242.782318</ele>
        <time>2012-01-29T10:41:03Z</time>
      </trkpt>
      <trkpt lat="47.72384" lon="7.41791">
        <ele>242.922974</ele>
        <time>2012-01-29T10:41:04Z</time>
      </trkpt>
      <trkpt lat="47.72377" lon="7.41792">
        <ele>243.10379</ele>
        <time>2012-01-29T10:41:05Z</time>
      </trkpt>
      <trkpt lat="47.72371" lon="7.41794">
        <ele>244.170502</ele>
        <time>2012-01-29T10:41:06Z</time>
      </trkpt>
      <trkpt lat="47.72364" lon="7.41796">
        <ele>248.090668</ele>
        <time>2012-01-29T10:41:07Z</time>
      </trkpt>
      <trkpt lat="47.72357" lon="7.41798">
        <ele>249.383545</ele>
        <time>2012-01-29T10:41:08Z</time>
      </trkpt>
      <trkpt lat="47.72351" lon="7.41799">
        <ele>248.987274</ele>
        <time>2012-01-29T10:41:09Z</time>
      </trkpt>
      <trkpt lat="47.72344" lon="7.41801">
        <ele>246.82663</ele>
        <time>2012-01-29T10:41:10Z</time>
      </trkpt>
      <trkpt lat="47.72337" lon="7.41802">
        <ele>246.755402</ele>
        <time>2012-01-29T10:41:11Z</time>
      </trkpt>
      <trkpt lat="47.72331" lon="7.41803">
        <ele>248.752411</ele>
        <time>2012-01-29T10:41:12Z</time>
      </trkpt>
      <trkpt lat="47.72325" lon="7.41804">
        <ele>247.844788</ele>
        <time>2012-01-29T10:41:13Z</time>
      </trkpt>
      <trkpt lat="47.72319" lon="7.41805">
        <ele>247.519806</ele>
        <time>2012-01-29T10:41:14Z</time>
      </trkpt>
      <trkpt lat="47.72313" lon="7.41805">
        <ele>248.650421</ele>
        <time>2012-01-29T10:41:15Z</time>
      </trkpt>
      <trkpt lat="47.72306" lon="7.41806">
        <ele>248.509888</ele>
        <time>2012-01-29T10:41:16Z</time>
      </trkpt>
      <trkpt lat="47.723" lon="7.41807">
        <ele>247.865143</ele>
        <time>2012-01-29T10:41:17Z</time>
      </trkpt>
      <trkpt lat="47.72293" lon="7.41807">
        <ele>246.500214</ele>
        <time>2012-01-29T10:41:18Z</time>
      </trkpt>
      <trkpt lat="47.72287" lon="7.41802">
        <ele>244.973846</ele>
        <time>2012-01-29T10:41:19Z</time>
      </trkpt>
      <trkpt lat="47.72282" lon="7.41795">
        <ele>243.638092</ele>
        <time>2012-01-29T10:41:20Z</time>
      </trkpt>
      <trkpt lat="47.7228" lon="7.41787">
        <ele>243.875122</ele>
        <time>2012-01-29T10:41:21Z</time>
      </trkpt>
      <trkpt lat="47.72278" lon="7.41778">
        <ele>245.009094</ele>
        <time>2012-01-29T10:41:22Z</time>
      </trkpt>
      <trkpt lat="47.72277" lon="7.41768">
        <ele>246.832581</ele>
        <time>2012-01-29T10:41:23Z</time>
      </trkpt>
      <trkpt lat="47.72276" lon="7.41758">
        <ele>246.424042</ele>
        <time>2012-01-29T10:41:24Z</time>
      </trkpt>
      <trkpt lat="47.72275" lon="7.41748">
        <ele>245.78598</ele>
        <time>2012-01-29T10:41:25Z</time>
      </trkpt>
      <trkpt lat="47.72274" lon="7.41738">
        <ele>245.28363</ele>
        <time>2012-01-29T10:41:26Z</time>
      </trkpt>
      <trkpt lat="47.72274" lon="7.41728">
        <ele>244.361206</ele>
        <time>2012-01-29T10:41:27Z</time>
      </trkpt>
      <trkpt lat="47.72273" lon="7.41719">
        <ele>245.213989</ele>
        <time>2012-01-29T10:41:28Z</time>
      </trkpt>
      <trkpt lat="47.72271" lon="7.41709">
        <ele>244.421234</ele>
        <time>2012-01-29T10:41:29Z</time>
      </trkpt>
      <trkpt lat="47.7227" lon="7.417">
        <ele>245.121185</ele>
        <time>2012-01-29T10:41:30Z</time>
      </trkpt>
      <trkpt lat="47.72269" lon="7.4169">
        <ele>244.691284</ele>
        <time>2012-01-29T10:41:31Z</time>
      </trkpt>
      <trkpt lat="47.72268" lon="7.41679">
        <ele>244.188507</ele>
        <time>2012-01-29T10:41:32Z</time>
      </trkpt>
      <trkpt lat="47.72267" lon="7.41668">
        <ele>243.534271</ele>
        <time>2012-01-29T10:41:33Z</time>
      </trkpt>
      <trkpt lat="47.72265" lon="7.41658">
        <ele>242.906891</ele>
        <time>2012-01-29T10:41:34Z</time>
      </trkpt>
      <trkpt lat="47.72264" lon="7.41648">
        <ele>243.724121</ele>
        <time>2012-01-29T10:41:35Z</time>
      </trkpt>
      <trkpt lat="47.72263" lon="7.41637">
        <ele>244.021851</ele>
        <time>2012-01-29T10:41:36Z</time>
      </trkpt>
      <trkpt lat="47.72262" lon="7.41628">
        <ele>244.31134</ele>
        <time>2012-01-29T10:41:37Z</time>
      </trkpt>
      <trkpt lat="47.7226" lon="7.41618">
        <ele>244.549072</ele>
        <time>2012-01-29T10:41:38Z</time>
      </trkpt>
      <trkpt lat="47.72259" lon="7.41609">
        <ele>245.460052</ele>
        <time>2012-01-29T10:41:39Z</time>
      </trkpt>
      <trkpt lat="47.72257" lon="7.41599">
        <ele>246.052338</ele>
        <time>2012-01-29T10:41:40Z</time>
      </trkpt>
      <trkpt lat="47.72255" lon="7.41589">
        <ele>246.017883</ele>
        <time>2012-01-29T10:41:41Z</time>
      </trkpt>
      <trkpt lat="47.72253" lon="7.41579">
        <ele>244.455597</ele>
        <time>2012-01-29T10:41:42Z</time>
      </trkpt>
      <trkpt lat="47.72251" lon="7.4157">
        <ele>243.886322</ele>
        <time>2012-01-29T10:41:43Z</time>
      </trkpt>
      <trkpt lat="47.72248" lon="7.41561">
        <ele>243.477844</ele>
        <time>2012-01-29T10:41:44Z</time>
      </trkpt>
      <trkpt lat="47.72244" lon="7.41552">
        <ele>243.151276</ele>
        <time>2012-01-29T10:41:45Z</time>
      </trkpt>
      <trkpt lat="47.7224" lon="7.41543">
        <ele>243.463837</ele>
        <time>2012-01-29T10:41:46Z</time>
      </trkpt>
      <trkpt lat="47.72236" lon="7.41535">
        <ele>243.428345</ele>
        <time>2012-01-29T10:41:47Z</time>
      </trkpt>
      <trkpt lat="47.72232" lon="7.41527">
        <ele>243.553436</ele>
        <time>2012-01-29T10:41:48Z</time>
      </trkpt>
      <trkpt lat="47.72228" lon="7.41519">
        <ele>243.869171</ele>
        <time>2012-01-29T10:41:49Z</time>
      </trkpt>
      <trkpt lat="47.72223" lon="7.41511">
        <ele>244.05426</ele>
        <time>2012-01-29T10:41:50Z</time>
      </trkpt>
      <trkpt lat="47.72218" lon="7.41504">
        <ele>244.570709</ele>
        <time>2012-01-29T10:41:51Z</time>
      </trkpt>
      <trkpt lat="47.72213" lon="7.41497">
        <ele>244.160156</ele>
        <time>2012-01-29T10:41:52Z</time>
      </trkpt>
      <trkpt lat="47.72208" lon="7.41492">
        <ele>244.758545</ele>
        <time>2012-01-29T10:41:53Z</time>
      </trkpt>
      <trkpt lat="47.72203" lon="7.41486">
        <ele>246.452637</ele>
        <time>2012-01-29T10:41:54Z</time>
      </trkpt>
      <trkpt lat="47.72197" lon="7.41481">
        <ele>245.467468</ele>
        <time>2012-01-29T10:41:55Z</time>
      </trkpt>
      <trkpt lat="47.72191" lon="7.41476">
        <ele>245.15274</ele>
        <time>2012-01-29T10:41:56Z</time>
      </trkpt>
      <trkpt lat="47.72185" lon="7.41472">
        <ele>245.286499</ele>
        <time>2012-01-29T10:41:57Z</time>
      </trkpt>
      <trkpt lat="47.72178" lon="7.41468">
        <ele>245.37558</ele>
        <time>2012-01-29T10:41:58Z</time>
      </trkpt>
      <trkpt lat="47.72172" lon="7.41464">
        <ele>245.196411</ele>
        <time>2012-01-29T10:41:59Z</time>
      </trkpt>
      <trkpt lat="47.72165" lon="7.4146">
        <ele>244.851135</ele>
        <time>2012-01-29T10:42:00Z</time>
      </trkpt>
      <trkpt lat="47.72157" lon="7.41456">
        <ele>244.197968</ele>
        <time>2012-01-29T10:42:01Z</time>
      </trkpt>
      <trkpt lat="47.7215" lon="7.41452">
        <ele>243.623016</ele>
        <time>2012-01-29T10:42:02Z</time>
      </trkpt>
      <trkpt lat="47.72144" lon="7.41447">
        <ele>243.408356</ele>
        <time>2012-01-29T10:42:03Z</time>
      </trkpt>
      <trkpt lat="47.72138" lon="7.41442">
        <ele>243.484161</ele>
        <time>2012-01-29T10:42:04Z</time>
      </trkpt>
      <trkpt lat="47.72132" lon="7.41437">
        <ele>243.647217</ele>
        <time>2012-01-29T10:42:05Z</time>
      </trkpt>
      <trkpt lat="47.72126" lon="7.4143">
        <ele>243.839752</ele>
        <time>2012-01-29T10:42:06Z</time>
      </trkpt>
      <trkpt lat="47.7212" lon="7.41424">
        <ele>243.908112</ele>
        <time>2012-01-29T10:42:07Z</time>
      </trkpt>
      <trkpt lat="47.72115" lon="7.41417">
        <ele>243.820068</ele>
        <time>2012-01-29T10:42:08Z</time>
      </trkpt>
      <trkpt lat="47.72111" lon="7.4141">
        <ele>243.285156</ele>
        <time>2012-01-29T10:42:09Z</time>
      </trkpt>
      <trkpt lat="47.72106" lon="7.41403">
        <ele>242.557312</ele>
        <time>2012-01-29T10:42:10Z</time>
      </trkpt>
      <trkpt lat="47.72101" lon="7.41395">
        <ele>243.145874</ele>
        <time>2012-01-29T10:42:11Z</time>
      </trkpt>
      <trkpt lat="47.72097" lon="7.41387">
        <ele>242.7229</ele>
        <time>2012-01-29T10:42:12Z</time>
      </trkpt>
      <trkpt lat="47.72092" lon="7.41379">
        <ele>242.110596</ele>
        <time>2012-01-29T10:42:13Z</time>
      </trkpt>
      <trkpt lat="47.72087" lon="7.41371">
        <ele>241.496674</ele>
        <time>2012-01-29T10:42:14Z</time>
      </trkpt>
      <trkpt lat="47.72083" lon="7.41363">
        <ele>241.146576</ele>
        <time>2012-01-29T10:42:15Z</time>
      </trkpt>
      <trkpt lat="47.72078" lon="7.41356">
        <ele>240.852386</ele>
        <time>2012-01-29T10:42:16Z</time>
      </trkpt>
      <trkpt lat="47.72074" lon="7.41348">
        <ele>241.69397</ele>
        <time>2012-01-29T10:42:17Z</time>
      </trkpt>
      <trkpt lat="47.72069" lon="7.41339">
        <ele>242.392761</ele>
        <time>2012-01-29T10:42:18Z</time>
      </trkpt>
      <trkpt lat="47.72065" lon="7.41331">
        <ele>242.527008</ele>
        <time>2012-01-29T10:42:19Z</time>
      </trkpt>
      <trkpt lat="47.7206" lon="7.41323">
        <ele>242.831787</ele>
        <time>2012-01-29T10:42:20Z</time>
      </trkpt>
      <trkpt lat="47.72054" lon="7.41314">
        <ele>243.306274</ele>
        <time>2012-01-29T10:42:21Z</time>
      </trkpt>
      <trkpt lat="47.72049" lon="7.41306">
        <ele>243.535278</ele>
        <time>2012-01-29T10:42:22Z</time>
      </trkpt>
      <trkpt lat="47.72044" lon="7.41298">
        <ele>243.206818</ele>
        <time>2012-01-29T10:42:23Z</time>
      </trkpt>
      <trkpt lat="47.7204" lon="7.41291">
        <ele>243.056213</ele>
        <time>2012-01-29T10:42:24Z</time>
      </trkpt>
      <trkpt lat="47.72035" lon="7.41283">
        <ele>242.536438</ele>
        <time>2012-01-29T10:42:25Z</time>
      </trkpt>
      <trkpt lat="47.7203" lon="7.41275">
        <ele>243.28241</ele>
        <time>2012-01-29T10:42:26Z</time>
      </trkpt>
      <trkpt lat="47.72025" lon="7.41267">
        <ele>243.299072</ele>
        <time>2012-01-29T10:42:27Z</time>
      </trkpt>
      <trkpt lat="47.72021" lon="7.41259">
        <ele>243.345123</ele>
        <time>2012-01-29T10:42:28Z</time>
      </trkpt>
      <trkpt lat="47.72016" lon="7.41251">
        <ele>243.202301</ele>
        <time>2012-01-29T10:42:29Z</time>
      </trkpt>
      <trkpt lat="47.7201" lon="7.41243">
        <ele>243.22049</ele>
        <time>2012-01-29T10:42:30Z</time>
      </trkpt>
      <trkpt lat="47.72005" lon="7.41235">
        <ele>242.765137</ele>
        <time>2012-01-29T10:42:31Z</time>
      </trkpt>
      <trkpt lat="47.71999" lon="7.41226">
        <ele>243.03363</ele>
        <time>2012-01-29T10:42:32Z</time>
      </trkpt>
      <trkpt lat="47.71993" lon="7.41218">
        <ele>241.992554</ele>
        <time>2012-01-29T10:42:33Z</time>
      </trkpt>
      <trkpt lat="47.71988" lon="7.4121">
        <ele>243.0047</ele>
        <time>2012-01-29T10:42:34Z</time>
      </trkpt>
      <trkpt lat="47.71982" lon="7.41201">
        <ele>244.126923</ele>
        <time>2012-01-29T10:42:35Z</time>
      </trkpt>
      <trkpt lat="47.71977" lon="7.41193">
        <ele>243.928284</ele>
        <time>2012-01-29T10:42:36Z</time>
      </trkpt>
      <trkpt lat="47.71972" lon="7.41185">
        <ele>243.485962</ele>
        <time>2012-01-29T10:42:37Z</time>
      </trkpt>
      <trkpt lat="47.71967" lon="7.41177">
        <ele>243.692169</ele>
        <time>2012-01-29T10:42:38Z</time>
      </trkpt>
      <trkpt lat="47.71961" lon="7.4117">
        <ele>243.362305</ele>
        <time>2012-01-29T10:42:39Z</time>
      </trkpt>
      <trkpt lat="47.71956" lon="7.41163">
        <ele>242.897034</ele>
        <time>2012-01-29T10:42:40Z</time>
      </trkpt>
      <trkpt lat="47.7195" lon="7.41156">
        <ele>242.842133</ele>
        <time>2012-01-29T10:42:41Z</time>
      </trkpt>
      <trkpt lat="47.71943" lon="7.41149">
        <ele>242.553406</ele>
        <time>2012-01-29T10:42:42Z</time>
      </trkpt>
      <trkpt lat="47.71937" lon="7.41142">
        <ele>242.308868</ele>
        <time>2012-01-29T10:42:43Z</time>
      </trkpt>
      <trkpt lat="47.71931" lon="7.41135">
        <ele>242.157013</ele>
        <time>2012-01-29T10:42:44Z</time>
      </trkpt>
      <trkpt lat="47.71925" lon="7.41129">
        <ele>241.775269</ele>
        <time>2012-01-29T10:42:45Z</time>
      </trkpt>
      <trkpt lat="47.71918" lon="7.41123">
        <ele>241.118378</ele>
        <time>2012-01-29T10:42:46Z</time>
      </trkpt>
      <trkpt lat="47.71911" lon="7.41117">
        <ele>240.894684</ele>
        <time>2012-01-29T10:42:47Z</time>
      </trkpt>
      <trkpt lat="47.71904" lon="7.41112">
        <ele>241.121063</ele>
        <time>2012-01-29T10:42:48Z</time>
      </trkpt>
      <trkpt lat="47.71898" lon="7.41107">
        <ele>242.818115</ele>
        <time>2012-01-29T10:42:49Z</time>
      </trkpt>
      <trkpt lat="47.71891" lon="7.41102">
        <ele>243.009705</ele>
        <time>2012-01-29T10:42:50Z</time>
      </trkpt>
      <trkpt lat="47.71884" lon="7.41098">
        <ele>243.391937</ele>
        <time>2012-01-29T10:42:51Z</time>
      </trkpt>
      <trkpt lat="47.71876" lon="7.41093">
        <ele>243.467072</ele>
        <time>2012-01-29T10:42:52Z</time>
      </trkpt>
      <trkpt lat="47.71869" lon="7.41089">
        <ele>243.147522</ele>
        <time>2012-01-29T10:42:53Z</time>
      </trkpt>
      <trkpt lat="47.71861" lon="7.41085">
        <ele>242.907379</ele>
        <time>2012-01-29T10:42:54Z</time>
      </trkpt>
      <trkpt lat="47.71853" lon="7.41081">
        <ele>242.674591</ele>
        <time>2012-01-29T10:42:55Z</time>
      </trkpt>
      <trkpt lat="47.71845" lon="7.41077">
        <ele>242.721527</ele>
        <time>2012-01-29T10:42:56Z</time>
      </trkpt>
      <trkpt lat="47.71838" lon="7.41073">
        <ele>242.853088</ele>
        <time>2012-01-29T10:42:57Z</time>
      </trkpt>
      <trkpt lat="47.7183" lon="7.41068">
        <ele>242.785126</ele>
        <time>2012-01-29T10:42:58Z</time>
      </trkpt>
      <trkpt lat="47.71823" lon="7.41064">
        <ele>242.749298</ele>
        <time>2012-01-29T10:42:59Z</time>
      </trkpt>
      <trkpt lat="47.71815" lon="7.4106">
        <ele>242.862579</ele>
        <time>2012-01-29T10:43:00Z</time>
      </trkpt>
      <trkpt lat="47.71807" lon="7.41056">
        <ele>242.90509</ele>
        <time>2012-01-29T10:43:01Z</time>
      </trkpt>
      <trkpt lat="47.718" lon="7.41051">
        <ele>242.963623</ele>
        <time>2012-01-29T10:43:02Z</time>
      </trkpt>
      <trkpt lat="47.71792" lon="7.41046">
        <ele>242.999786</ele>
        <time>2012-01-29T10:43:03Z</time>
      </trkpt>
      <trkpt lat="47.71784" lon="7.41042">
        <ele>242.863342</ele>
        <time>2012-01-29T10:43:04Z</time>
      </trkpt>
      <trkpt lat="47.71777" lon="7.41036">
        <ele>242.788055</ele>
        <time>2012-01-29T10:43:05Z</time>
      </trkpt>
      <trkpt lat="47.71769" lon="7.41031">
        <ele>242.646881</ele>
        <time>2012-01-29T10:43:06Z</time>
      </trkpt>
      <trkpt lat="47.71762" lon="7.41024">
        <ele>242.717896</ele>
        <time>2012-01-29T10:43:07Z</time>
      </trkpt>
      <trkpt lat="47.71755" lon="7.41017">
        <ele>243.013977</ele>
        <time>2012-01-29T10:43:08Z</time>
      </trkpt>
      <trkpt lat="47.71748" lon="7.41009">
        <ele>243.346283</ele>
        <time>2012-01-29T10:43:09Z</time>
      </trkpt>
      <trkpt lat="47.71742" lon="7.41001">
        <ele>243.524292</ele>
        <time>2012-01-29T10:43:10Z</time>
      </trkpt>
      <trkpt lat="47.71736" lon="7.40993">
        <ele>243.632782</ele>
        <time>2012-01-29T10:43:11Z</time>
      </trkpt>
      <trkpt lat="47.7173" lon="7.40985">
        <ele>243.698059</ele>
        <time>2012-01-29T10:43:12Z</time>
      </trkpt>
      <trkpt lat="47.71724" lon="7.40976">
        <ele>242.944946</ele>
        <time>2012-01-29T10:43:13Z</time>
      </trkpt>
      <trkpt lat="47.71718" lon="7.40968">
        <ele>242.302124</ele>
        <time>2012-01-29T10:43:14Z</time>
      </trkpt>
      <trkpt lat="47.71712" lon="7.40959">
        <ele>242.050079</ele>
        <time>2012-01-29T10:43:15Z</time>
      </trkpt>
      <trkpt lat="47.71706" lon="7.40951">
        <ele>241.856964</ele>
        <time>2012-01-29T10:43:16Z</time>
      </trkpt>
      <trkpt lat="47.717" lon="7.40942">
        <ele>241.933838</ele>
        <time>2012-01-29T10:43:17Z</time>
      </trkpt>
      <trkpt lat="47.71695" lon="7.40933">
        <ele>242.090698</ele>
        <time>2012-01-29T10:43:18Z</time>
      </trkpt>
      <trkpt lat="47.71689" lon="7.40924">
        <ele>242.264313</ele>
        <time>2012-01-29T10:43:19Z</time>
      </trkpt>
      <trkpt lat="47.71684" lon="7.40916">
        <ele>242.387878</ele>
        <time>2012-01-29T10:43:20Z</time>
      </trkpt>
      <trkpt lat="47.71679" lon="7.40907">
        <ele>242.462891</ele>
        <time>2012-01-29T10:43:21Z</time>
      </trkpt>
      <trkpt lat="47.71673" lon="7.40898">
        <ele>243.066284</ele>
        <time>2012-01-29T10:43:22Z</time>
      </trkpt>
      <trkpt lat="47.71668" lon="7.40888">
        <ele>243.95993</ele>
        <time>2012-01-29T10:43:23Z</time>
      </trkpt>
      <trkpt lat="47.71663" lon="7.40879">
        <ele>243.576721</ele>
        <time>2012-01-29T10:43:24Z</time>
      </trkpt>
      <trkpt lat="47.71658" lon="7.4087">
        <ele>243.076935</ele>
        <time>2012-01-29T10:43:25Z</time>
      </trkpt>
      <trkpt lat="47.71653" lon="7.40861">
        <ele>243.222961</ele>
        <time>2012-01-29T10:43:26Z</time>
      </trkpt>
      <trkpt lat="47.71648" lon="7.40851">
        <ele>242.874908</ele>
        <time>2012-01-29T10:43:27Z</time>
      </trkpt>
      <trkpt lat="47.71643" lon="7.40842">
        <ele>244.209198</ele>
        <time>2012-01-29T10:43:28Z</time>
      </trkpt>
      <trkpt lat="47.71638" lon="7.40832">
        <ele>241.735291</ele>
        <time>2012-01-29T10:43:29Z</time>
      </trkpt>
      <trkpt lat="47.71633" lon="7.40822">
        <ele>241.746094</ele>
        <time>2012-01-29T10:43:30Z</time>
      </trkpt>
      <trkpt lat="47.71629" lon="7.40812">
        <ele>241.003265</ele>
        <time>2012-01-29T10:43:31Z</time>
      </trkpt>
      <trkpt lat="47.71625" lon="7.40801">
        <ele>241.131317</ele>
        <time>2012-01-29T10:43:32Z</time>
      </trkpt>
      <trkpt lat="47.71621" lon="7.40791">
        <ele>242.44928</ele>
        <time>2012-01-29T10:43:33Z</time>
      </trkpt>
      <trkpt lat="47.71617" lon="7.4078">
        <ele>243.39151</ele>
        <time>2012-01-29T10:43:34Z</time>
      </trkpt>
      <trkpt lat="47.71614" lon="7.40769">
        <ele>245.957794</ele>
        <time>2012-01-29T10:43:35Z</time>
      </trkpt>
      <trkpt lat="47.71611" lon="7.40759">
        <ele>243.843536</ele>
        <time>2012-01-29T10:43:36Z</time>
      </trkpt>
      <trkpt lat="47.71608" lon="7.40749">
        <ele>242.307556</ele>
        <time>2012-01-29T10:43:37Z</time>
      </trkpt>
      <trkpt lat="47.71605" lon="7.4074">
        <ele>242.875671</ele>
        <time>2012-01-29T10:43:38Z</time>
      </trkpt>
      <trkpt lat="47.71602" lon="7.40731">
        <ele>243.832153</ele>
        <time>2012-01-29T10:43:39Z</time>
      </trkpt>
      <trkpt lat="47.71599" lon="7.40722">
        <ele>244.594574</ele>
        <time>2012-01-29T10:43:40Z</time>
      </trkpt>
      <trkpt lat="47.71596" lon="7.40712">
        <ele>243.983948</ele>
        <time>2012-01-29T10:43:41Z</time>
      </trkpt>
      <trkpt lat="47.71593" lon="7.40704">
        <ele>242.677582</ele>
        <time>2012-01-29T10:43:42Z</time>
      </trkpt>
      <trkpt lat="47.71589" lon="7.40697">
        <ele>244.088776</ele>
        <time>2012-01-29T10:43:43Z</time>
      </trkpt>
      <trkpt lat="47.71585" lon="7.40688">
        <ele>241.22464</ele>
        <time>2012-01-29T10:43:44Z</time>
      </trkpt>
      <trkpt lat="47.7158" lon="7.40679">
        <ele>239.241455</ele>
        <time>2012-01-29T10:43:45Z</time>
      </trkpt>
      <trkpt lat="47.71576" lon="7.40672">
        <ele>238.332489</ele>
        <time>2012-01-29T10:43:46Z</time>
      </trkpt>
      <trkpt lat="47.71571" lon="7.40666">
        <ele>238.572815</ele>
        <time>2012-01-29T10:43:47Z</time>
      </trkpt>
      <trkpt lat="47.71567" lon="7.40661">
        <ele>242.189117</ele>
        <time>2012-01-29T10:43:48Z</time>
      </trkpt>
      <trkpt lat="47.71562" lon="7.40654">
        <ele>243.084229</ele>
        <time>2012-01-29T10:43:49Z</time>
      </trkpt>
      <trkpt lat="47.71556" lon="7.40648">
        <ele>243.615692</ele>
        <time>2012-01-29T10:43:50Z</time>
      </trkpt>
      <trkpt lat="47.71551" lon="7.40641">
        <ele>241.208588</ele>
        <time>2012-01-29T10:43:51Z</time>
      </trkpt>
      <trkpt lat="47.71545" lon="7.40635">
        <ele>238.911774</ele>
        <time>2012-01-29T10:43:52Z</time>
      </trkpt>
      <trkpt lat="47.71539" lon="7.40629">
        <ele>237.806549</ele>
        <time>2012-01-29T10:43:53Z</time>
      </trkpt>
      <trkpt lat="47.71534" lon="7.40623">
        <ele>237.563324</ele>
        <time>2012-01-29T10:43:54Z</time>
      </trkpt>
      <trkpt lat="47.71528" lon="7.40617">
        <ele>238.058289</ele>
        <time>2012-01-29T10:43:55Z</time>
      </trkpt>
      <trkpt lat="47.71523" lon="7.40611">
        <ele>240.654388</ele>
        <time>2012-01-29T10:43:56Z</time>
      </trkpt>
      <trkpt lat="47.71518" lon="7.40605">
        <ele>241.624207</ele>
        <time>2012-01-29T10:43:57Z</time>
      </trkpt>
      <trkpt lat="47.71512" lon="7.40598">
        <ele>244.399872</ele>
        <time>2012-01-29T10:43:58Z</time>
      </trkpt>
      <trkpt lat="47.71506" lon="7.40591">
        <ele>246.624725</ele>
        <time>2012-01-29T10:43:59Z</time>
      </trkpt>
      <trkpt lat="47.71501" lon="7.40585">
        <ele>246.518494</ele>
        <time>2012-01-29T10:44:00Z</time>
      </trkpt>
      <trkpt lat="47.71496" lon="7.40579">
        <ele>245.283691</ele>
        <time>2012-01-29T10:44:01Z</time>
      </trkpt>
      <trkpt lat="47.71491" lon="7.40573">
        <ele>243.903748</ele>
        <time>2012-01-29T10:44:02Z</time>
      </trkpt>
      <trkpt lat="47.71486" lon="7.40566">
        <ele>242.536438</ele>
        <time>2012-01-29T10:44:03Z</time>
      </trkpt>
      <trkpt lat="47.71481" lon="7.4056">
        <ele>241.871155</ele>
        <time>2012-01-29T10:44:04Z</time>
      </trkpt>
      <trkpt lat="47.71475" lon="7.40553">
        <ele>243.734955</ele>
        <time>2012-01-29T10:44:05Z</time>
      </trkpt>
      <trkpt lat="47.7147" lon="7.40547">
        <ele>242.970825</ele>
        <time>2012-01-29T10:44:06Z</time>
      </trkpt>
      <trkpt lat="47.71465" lon="7.40541">
        <ele>240.242584</ele>
        <time>2012-01-29T10:44:07Z</time>
      </trkpt>
      <trkpt lat="47.71459" lon="7.40535">
        <ele>243.353119</ele>
        <time>2012-01-29T10:44:08Z</time>
      </trkpt>
      <trkpt lat="47.71455" lon="7.4053">
        <ele>243.385895</ele>
        <time>2012-01-29T10:44:09Z</time>
      </trkpt>
      <trkpt lat="47.7145" lon="7.40524">
        <ele>243.328003</ele>
        <time>2012-01-29T10:44:10Z</time>
      </trkpt>
      <trkpt lat="47.71445" lon="7.40517">
        <ele>244.073761</ele>
        <time>2012-01-29T10:44:11Z</time>
      </trkpt>
      <trkpt lat="47.71441" lon="7.40512">
        <ele>245.174164</ele>
        <time>2012-01-29T10:44:12Z</time>
      </trkpt>
      <trkpt lat="47.71438" lon="7.40504">
        <ele>245.957275</ele>
        <time>2012-01-29T10:44:13Z</time>
      </trkpt>
      <trkpt lat="47.71435" lon="7.40494">
        <ele>245.908295</ele>
        <time>2012-01-29T10:44:14Z</time>
      </trkpt>
      <trkpt lat="47.71434" lon="7.40483">
        <ele>246.585052</ele>
        <time>2012-01-29T10:44:15Z</time>
      </trkpt>
      <trkpt lat="47.71433" lon="7.40475">
        <ele>248.591217</ele>
        <time>2012-01-29T10:44:16Z</time>
      </trkpt>
      <trkpt lat="47.71434" lon="7.40467">
        <ele>249.850494</ele>
        <time>2012-01-29T10:44:17Z</time>
      </trkpt>
      <trkpt lat="47.71436" lon="7.40456">
        <ele>246.624634</ele>
        <time>2012-01-29T10:44:18Z</time>
      </trkpt>
      <trkpt lat="47.71438" lon="7.40449">
        <ele>247.195435</ele>
        <time>2012-01-29T10:44:19Z</time>
      </trkpt>
      <trkpt lat="47.71441" lon="7.40441">
        <ele>241.460785</ele>
        <time>2012-01-29T10:44:20Z</time>
      </trkpt>
      <trkpt lat="47.71445" lon="7.40435">
        <ele>241.719849</ele>
        <time>2012-01-29T10:44:21Z</time>
      </trkpt>
      <trkpt lat="47.71451" lon="7.4043">
        <ele>240.921509</ele>
        <time>2012-01-29T10:44:22Z</time>
      </trkpt>
      <trkpt lat="47.71455" lon="7.40425">
        <ele>240.963409</ele>
        <time>2012-01-29T10:44:23Z</time>
      </trkpt>
      <trkpt lat="47.7146" lon="7.40421">
        <ele>239.426483</ele>
        <time>2012-01-29T10:44:24Z</time>
      </trkpt>
      <trkpt lat="47.71465" lon="7.40417">
        <ele>239.411774</ele>
        <time>2012-01-29T10:44:25Z</time>
      </trkpt>
      <trkpt lat="47.7147" lon="7.40412">
        <ele>243.093018</ele>
        <time>2012-01-29T10:44:26Z</time>
      </trkpt>
      <trkpt lat="47.71475" lon="7.40408">
        <ele>244.40976</ele>
        <time>2012-01-29T10:44:27Z</time>
      </trkpt>
      <trkpt lat="47.71479" lon="7.40404">
        <ele>244.679199</ele>
        <time>2012-01-29T10:44:28Z</time>
      </trkpt>
      <trkpt lat="47.71484" lon="7.404">
        <ele>244.665283</ele>
        <time>2012-01-29T10:44:29Z</time>
      </trkpt>
      <trkpt lat="47.71488" lon="7.40395">
        <ele>244.235809</ele>
        <time>2012-01-29T10:44:30Z</time>
      </trkpt>
      <trkpt lat="47.71492" lon="7.40391">
        <ele>243.946289</ele>
        <time>2012-01-29T10:44:31Z</time>
      </trkpt>
      <trkpt lat="47.71497" lon="7.40386">
        <ele>243.480804</ele>
        <time>2012-01-29T10:44:32Z</time>
      </trkpt>
      <trkpt lat="47.71501" lon="7.40382">
        <ele>243.06601</ele>
        <time>2012-01-29T10:44:33Z</time>
      </trkpt>
      <trkpt lat="47.71505" lon="7.40378">
        <ele>242.954193</ele>
        <time>2012-01-29T10:44:34Z</time>
      </trkpt>
      <trkpt lat="47.71509" lon="7.40373">
        <ele>241.455719</ele>
        <time>2012-01-29T10:44:35Z</time>
      </trkpt>
      <trkpt lat="47.71513" lon="7.40369">
        <ele>243.268219</ele>
        <time>2012-01-29T10:44:36Z</time>
      </trkpt>
      <trkpt lat="47.71518" lon="7.40364">
        <ele>246.208496</ele>
        <time>2012-01-29T10:44:37Z</time>
      </trkpt>
      <trkpt lat="47.71521" lon="7.40359">
        <ele>246.700012</ele>
        <time>2012-01-29T10:44:38Z</time>
      </trkpt>
      <trkpt lat="47.71524" lon="7.40354">
        <ele>243.208771</ele>
        <time>2012-01-29T10:44:39Z</time>
      </trkpt>
      <trkpt lat="47.71529" lon="7.40349">
        <ele>241.114899</ele>
        <time>2012-01-29T10:44:40Z</time>
      </trkpt>
      <trkpt lat="47.71532" lon="7.40344">
        <ele>243.772095</ele>
        <time>2012-01-29T10:44:41Z</time>
      </trkpt>
      <trkpt lat="47.71535" lon="7.40339">
        <ele>243.898651</ele>
        <time>2012-01-29T10:44:42Z</time>
      </trkpt>
      <trkpt lat="47.71538" lon="7.40332">
        <ele>244.123474</ele>
        <time>2012-01-29T10:44:43Z</time>
      </trkpt>
      <trkpt lat="47.71542" lon="7.40326">
        <ele>243.759125</ele>
        <time>2012-01-29T10:44:44Z</time>
      </trkpt>
      <trkpt lat="47.71545" lon="7.4032">
        <ele>244.815643</ele>
        <time>2012-01-29T10:44:45Z</time>
      </trkpt>
      <trkpt lat="47.71548" lon="7.40313">
        <ele>242.661224</ele>
        <time>2012-01-29T10:44:46Z</time>
      </trkpt>
      <trkpt lat="47.71551" lon="7.40308">
        <ele>244.166779</ele>
        <time>2012-01-29T10:44:47Z</time>
      </trkpt>
      <trkpt lat="47.71554" lon="7.40301">
        <ele>242.953339</ele>
        <time>2012-01-29T10:44:48Z</time>
      </trkpt>
      <trkpt lat="47.71558" lon="7.40293">
        <ele>244.458893</ele>
        <time>2012-01-29T10:44:49Z</time>
      </trkpt>
      <trkpt lat="47.71561" lon="7.40287">
        <ele>244.060974</ele>
        <time>2012-01-29T10:44:50Z</time>
      </trkpt>
      <trkpt lat="47.71565" lon="7.40279">
        <ele>245.571655</ele>
        <time>2012-01-29T10:44:51Z</time>
      </trkpt>
      <trkpt lat="47.71567" lon="7.40272">
        <ele>244.878967</ele>
        <time>2012-01-29T10:44:52Z</time>
      </trkpt>
      <trkpt lat="47.71569" lon="7.40266">
        <ele>245.811157</ele>
        <time>2012-01-29T10:44:53Z</time>
      </trkpt>
      <trkpt lat="47.71571" lon="7.40258">
        <ele>245.235382</ele>
        <time>2012-01-29T10:44:54Z</time>
      </trkpt>
      <trkpt lat="47.71573" lon="7.40251">
        <ele>245.585266</ele>
        <time>2012-01-29T10:44:55Z</time>
      </trkpt>
      <trkpt lat="47.71575" lon="7.40243">
        <ele>245.62146</ele>
        <time>2012-01-29T10:44:56Z</time>
      </trkpt>
      <trkpt lat="47.71578" lon="7.40235">
        <ele>243.567291</ele>
        <time>2012-01-29T10:44:57Z</time>
      </trkpt>
      <trkpt lat="47.7158" lon="7.40226">
        <ele>242.423676</ele>
        <time>2012-01-29T10:44:58Z</time>
      </trkpt>
      <trkpt lat="47.71582" lon="7.40218">
        <ele>243.763763</ele>
        <time>2012-01-29T10:44:59Z</time>
      </trkpt>
      <trkpt lat="47.71583" lon="7.4021">
        <ele>245.70816</ele>
        <time>2012-01-29T10:45:00Z</time>
      </trkpt>
      <trkpt lat="47.71584" lon="7.40203">
        <ele>246.778656</ele>
        <time>2012-01-29T10:45:01Z</time>
      </trkpt>
      <trkpt lat="47.71584" lon="7.40196">
        <ele>246.772125</ele>
        <time>2012-01-29T10:45:02Z</time>
      </trkpt>
      <trkpt lat="47.71585" lon="7.40187">
        <ele>246.091736</ele>
        <time>2012-01-29T10:45:03Z</time>
      </trkpt>
      <trkpt lat="47.71585" lon="7.4018">
        <ele>246.308624</ele>
        <time>2012-01-29T10:45:04Z</time>
      </trkpt>
      <trkpt lat="47.71586" lon="7.40172">
        <ele>244.671509</ele>
        <time>2012-01-29T10:45:05Z</time>
      </trkpt>
      <trkpt lat="47.71586" lon="7.40165">
        <ele>244.07428</ele>
        <time>2012-01-29T10:45:06Z</time>
      </trkpt>
      <trkpt lat="47.71587" lon="7.40156">
        <ele>245.293335</ele>
        <time>2012-01-29T10:45:07Z</time>
      </trkpt>
      <trkpt lat="47.71588" lon="7.40149">
        <ele>246.712067</ele>
        <time>2012-01-29T10:45:08Z</time>
      </trkpt>
      <trkpt lat="47.7159" lon="7.40141">
        <ele>244.757324</ele>
        <time>2012-01-29T10:45:09Z</time>
      </trkpt>
      <trkpt lat="47.71591" lon="7.40134">
        <ele>244.359314</ele>
        <time>2012-01-29T10:45:10Z</time>
      </trkpt>
      <trkpt lat="47.71592" lon="7.40126">
        <ele>245.201782</ele>
        <time>2012-01-29T10:45:11Z</time>
      </trkpt>
      <trkpt lat="47.71593" lon="7.40119">
        <ele>246.050507</ele>
        <time>2012-01-29T10:45:12Z</time>
      </trkpt>
      <trkpt lat="47.71593" lon="7.40111">
        <ele>242.167664</ele>
        <time>2012-01-29T10:45:13Z</time>
      </trkpt>
      <trkpt lat="47.71594" lon="7.40103">
        <ele>245.723358</ele>
        <time>2012-01-29T10:45:14Z</time>
      </trkpt>
      <trkpt lat="47.71594" lon="7.40095">
        <ele>246.733643</ele>
        <time>2012-01-29T10:45:15Z</time>
      </trkpt>
      <trkpt lat="47.71595" lon="7.40088">
        <ele>249.699738</ele>
        <time>2012-01-29T10:45:16Z</time>
      </trkpt>
      <trkpt lat="47.71596" lon="7.40081">
        <ele>249.241974</ele>
        <time>2012-01-29T10:45:17Z</time>
      </trkpt>
      <trkpt lat="47.71596" lon="7.40075">
        <ele>248.205261</ele>
        <time>2012-01-29T10:45:18Z</time>
      </trkpt>
      <trkpt lat="47.71596" lon="7.40067">
        <ele>249.653076</ele>
        <time>2012-01-29T10:45:19Z</time>
      </trkpt>
      <trkpt lat="47.71596" lon="7.40058">
        <ele>248.88913</ele>
        <time>2012-01-29T10:45:20Z</time>
      </trkpt>
      <trkpt lat="47.71597" lon="7.40049">
        <ele>249.248932</ele>
        <time>2012-01-29T10:45:21Z</time>
      </trkpt>
      <trkpt lat="47.71597" lon="7.40042">
        <ele>248.226532</ele>
        <time>2012-01-29T10:45:22Z</time>
      </trkpt>
      <trkpt lat="47.71598" lon="7.40034">
        <ele>250.447906</ele>
        <time>2012-01-29T10:45:23Z</time>
      </trkpt>
      <trkpt lat="47.71599" lon="7.40027">
        <ele>250.966522</ele>
        <time>2012-01-29T10:45:24Z</time>
      </trkpt>
      <trkpt lat="47.71599" lon="7.40021">
        <ele>249.832642</ele>
        <time>2012-01-29T10:45:25Z</time>
      </trkpt>
      <trkpt lat="47.716" lon="7.40012">
        <ele>253.010315</ele>
        <time>2012-01-29T10:45:26Z</time>
      </trkpt>
      <trkpt lat="47.71599" lon="7.40003">
        <ele>252.254211</ele>
        <time>2012-01-29T10:45:27Z</time>
      </trkpt>
      <trkpt lat="47.71599" lon="7.39996">
        <ele>251.446625</ele>
        <time>2012-01-29T10:45:28Z</time>
      </trkpt>
      <trkpt lat="47.71599" lon="7.39989">
        <ele>251.968018</ele>
        <time>2012-01-29T10:45:29Z</time>
      </trkpt>
      <trkpt lat="47.716" lon="7.3998">
        <ele>253.362793</ele>
        <time>2012-01-29T10:45:30Z</time>
      </trkpt>
      <trkpt lat="47.716" lon="7.39973">
        <ele>254.667999</ele>
        <time>2012-01-29T10:45:31Z</time>
      </trkpt>
      <trkpt lat="47.716" lon="7.39964">
        <ele>252.822327</ele>
        <time>2012-01-29T10:45:32Z</time>
      </trkpt>
      <trkpt lat="47.716" lon="7.39955">
        <ele>251.576874</ele>
        <time>2012-01-29T10:45:33Z</time>
      </trkpt>
      <trkpt lat="47.716" lon="7.39946">
        <ele>250.40036</ele>
        <time>2012-01-29T10:45:34Z</time>
      </trkpt>
      <trkpt lat="47.716" lon="7.39939">
        <ele>250.813171</ele>
        <time>2012-01-29T10:45:35Z</time>
      </trkpt>
      <trkpt lat="47.71601" lon="7.39933">
        <ele>249.516205</ele>
        <time>2012-01-29T10:45:36Z</time>
      </trkpt>
      <trkpt lat="47.71601" lon="7.39928">
        <ele>249.234222</ele>
        <time>2012-01-29T10:45:37Z</time>
      </trkpt>
      <trkpt lat="47.71603" lon="7.39924">
        <ele>250.654938</ele>
        <time>2012-01-29T10:45:38Z</time>
      </trkpt>
      <trkpt lat="47.71605" lon="7.39918">
        <ele>250.209137</ele>
        <time>2012-01-29T10:45:39Z</time>
      </trkpt>
      <trkpt lat="47.71608" lon="7.39913">
        <ele>250.039886</ele>
        <time>2012-01-29T10:45:40Z</time>
      </trkpt>
      <trkpt lat="47.7161" lon="7.39909">
        <ele>250.046082</ele>
        <time>2012-01-29T10:45:41Z</time>
      </trkpt>
      <trkpt lat="47.71611" lon="7.39904">
        <ele>250.328552</ele>
        <time>2012-01-29T10:45:42Z</time>
      </trkpt>
      <trkpt lat="47.71611" lon="7.39898">
        <ele>249.792664</ele>
        <time>2012-01-29T10:45:43Z</time>
      </trkpt>
      <trkpt lat="47.7161" lon="7.39892">
        <ele>250.324799</ele>
        <time>2012-01-29T10:45:44Z</time>
      </trkpt>
      <trkpt lat="47.71609" lon="7.39886">
        <ele>249.882874</ele>
        <time>2012-01-29T10:45:45Z</time>
      </trkpt>
      <trkpt lat="47.71607" lon="7.3988">
        <ele>250.390839</ele>
        <time>2012-01-29T10:45:46Z</time>
      </trkpt>
      <trkpt lat="47.71606" lon="7.39874">
        <ele>250.540771</ele>
        <time>2012-01-29T10:45:47Z</time>
      </trkpt>
      <trkpt lat="47.71605" lon="7.39867">
        <ele>250.78891</ele>
        <time>2012-01-29T10:45:48Z</time>
      </trkpt>
      <trkpt lat="47.71604" lon="7.3986">
        <ele>250.436615</ele>
        <time>2012-01-29T10:45:49Z</time>
      </trkpt>
      <trkpt lat="47.71604" lon="7.39854">
        <ele>251.234589</ele>
        <time>2012-01-29T10:45:50Z</time>
      </trkpt>
      <trkpt lat="47.71603" lon="7.39847">
        <ele>250.473206</ele>
        <time>2012-01-29T10:45:51Z</time>
      </trkpt>
      <trkpt lat="47.71602" lon="7.39841">
        <ele>251.537628</ele>
        <time>2012-01-29T10:45:52Z</time>
      </trkpt>
      <trkpt lat="47.71601" lon="7.39835">
        <ele>252.102173</ele>
        <time>2012-01-29T10:45:53Z</time>
      </trkpt>
      <trkpt lat="47.71599" lon="7.39828">
        <ele>252.374207</ele>
        <time>2012-01-29T10:45:54Z</time>
      </trkpt>
      <trkpt lat="47.71598" lon="7.39821">
        <ele>251.052521</ele>
        <time>2012-01-29T10:45:55Z</time>
      </trkpt>
      <trkpt lat="47.71596" lon="7.39814">
        <ele>250.927124</ele>
        <time>2012-01-29T10:45:56Z</time>
      </trkpt>
      <trkpt lat="47.71593" lon="7.39807">
        <ele>250.235809</ele>
        <time>2012-01-29T10:45:57Z</time>
      </trkpt>
      <trkpt lat="47.71591" lon="7.39801">
        <ele>249.826691</ele>
        <time>2012-01-29T10:45:58Z</time>
      </trkpt>
      <trkpt lat="47.71589" lon="7.39794">
        <ele>251.213043</ele>
        <time>2012-01-29T10:45:59Z</time>
      </trkpt>
      <trkpt lat="47.71587" lon="7.39787">
        <ele>250.745728</ele>
        <time>2012-01-29T10:46:00Z</time>
      </trkpt>
      <trkpt lat="47.71586" lon="7.39779">
        <ele>251.33017</ele>
        <time>2012-01-29T10:46:01Z</time>
      </trkpt>
      <trkpt lat="47.71586" lon="7.39772">
        <ele>250.769897</ele>
        <time>2012-01-29T10:46:02Z</time>
      </trkpt>
      <trkpt lat="47.71586" lon="7.39764">
        <ele>249.036469</ele>
        <time>2012-01-29T10:46:03Z</time>
      </trkpt>
      <trkpt lat="47.71588" lon="7.39757">
        <ele>248.496277</ele>
        <time>2012-01-29T10:46:04Z</time>
      </trkpt>
      <trkpt lat="47.7159" lon="7.3975">
        <ele>248.664673</ele>
        <time>2012-01-29T10:46:05Z</time>
      </trkpt>
      <trkpt lat="47.71593" lon="7.39744">
        <ele>248.742523</ele>
        <time>2012-01-29T10:46:06Z</time>
      </trkpt>
      <trkpt lat="47.71597" lon="7.39738">
        <ele>248.884918</ele>
        <time>2012-01-29T10:46:07Z</time>
      </trkpt>
      <trkpt lat="47.71602" lon="7.39734">
        <ele>248.932495</ele>
        <time>2012-01-29T10:46:08Z</time>
      </trkpt>
      <trkpt lat="47.71608" lon="7.39731">
        <ele>249.111053</ele>
        <time>2012-01-29T10:46:09Z</time>
      </trkpt>
      <trkpt lat="47.71613" lon="7.39728">
        <ele>249.7258</ele>
        <time>2012-01-29T10:46:10Z</time>
      </trkpt>
      <trkpt lat="47.71618" lon="7.39726">
        <ele>249.968201</ele>
        <time>2012-01-29T10:46:11Z</time>
      </trkpt>
      <trkpt lat="47.71623" lon="7.39724">
        <ele>250.780029</ele>
        <time>2012-01-29T10:46:12Z</time>
      </trkpt>
      <trkpt lat="47.71629" lon="7.39722">
        <ele>251.969788</ele>
        <time>2012-01-29T10:46:13Z</time>
      </trkpt>
      <trkpt lat="47.71635" lon="7.39721">
        <ele>252.146881</ele>
        <time>2012-01-29T10:46:14Z</time>
      </trkpt>
      <trkpt lat="47.71639" lon="7.3972">
        <ele>251.858459</ele>
        <time>2012-01-29T10:46:15Z</time>
      </trkpt>
      <trkpt lat="47.71644" lon="7.39718">
        <ele>252.963898</ele>
        <time>2012-01-29T10:46:16Z</time>
      </trkpt>
      <trkpt lat="47.71648" lon="7.39717">
        <ele>253.343353</ele>
        <time>2012-01-29T10:46:17Z</time>
      </trkpt>
      <trkpt lat="47.71652" lon="7.39715">
        <ele>253.055481</ele>
        <time>2012-01-29T10:46:18Z</time>
      </trkpt>
      <trkpt lat="47.71655" lon="7.39713">
        <ele>253.922791</ele>
        <time>2012-01-29T10:46:19Z</time>
      </trkpt>
      <trkpt lat="47.71659" lon="7.39709">
        <ele>254.7005</ele>
        <time>2012-01-29T10:46:20Z</time>
      </trkpt>
      <trkpt lat="47.71663" lon="7.39706">
        <ele>255.568024</ele>
        <time>2012-01-29T10:46:21Z</time>
      </trkpt>
      <trkpt lat="47.71666" lon="7.39702">
        <ele>255.619629</ele>
        <time>2012-01-29T10:46:22Z</time>
      </trkpt>
      <trkpt lat="47.71671" lon="7.39697">
        <ele>255.680206</ele>
        <time>2012-01-29T10:46:23Z</time>
      </trkpt>
      <trkpt lat="47.71675" lon="7.39692">
        <ele>257.033203</ele>
        <time>2012-01-29T10:46:24Z</time>
      </trkpt>
      <trkpt lat="47.71679" lon="7.39689">
        <ele>258.212738</ele>
        <time>2012-01-29T10:46:25Z</time>
      </trkpt>
      <trkpt lat="47.71683" lon="7.39685">
        <ele>260.162292</ele>
        <time>2012-01-29T10:46:26Z</time>
      </trkpt>
      <trkpt lat="47.71686" lon="7.39683">
        <ele>259.791809</ele>
        <time>2012-01-29T10:46:27Z</time>
      </trkpt>
      <trkpt lat="47.7169" lon="7.3968">
        <ele>261.005402</ele>
        <time>2012-01-29T10:46:28Z</time>
      </trkpt>
      <trkpt lat="47.71694" lon="7.39677">
        <ele>260.764404</ele>
        <time>2012-01-29T10:46:29Z</time>
      </trkpt>
      <trkpt lat="47.71698" lon="7.39673">
        <ele>262.862305</ele>
        <time>2012-01-29T10:46:30Z</time>
      </trkpt>
      <trkpt lat="47.71702" lon="7.39669">
        <ele>265.336365</ele>
        <time>2012-01-29T10:46:31Z</time>
      </trkpt>
      <trkpt lat="47.71705" lon="7.39664">
        <ele>264.856567</ele>
        <time>2012-01-29T10:46:32Z</time>
      </trkpt>
      <trkpt lat="47.71707" lon="7.39659">
        <ele>263.443451</ele>
        <time>2012-01-29T10:46:33Z</time>
      </trkpt>
      <trkpt lat="47.7171" lon="7.39652">
        <ele>262.430603</ele>
        <time>2012-01-29T10:46:34Z</time>
      </trkpt>
      <trkpt lat="47.7171" lon="7.39646">
        <ele>262.084686</ele>
        <time>2012-01-29T10:46:35Z</time>
      </trkpt>
      <trkpt lat="47.71709" lon="7.3964">
        <ele>261.632355</ele>
        <time>2012-01-29T10:46:36Z</time>
      </trkpt>
      <trkpt lat="47.71708" lon="7.39633">
        <ele>259.52243</ele>
        <time>2012-01-29T10:46:37Z</time>
      </trkpt>
      <trkpt lat="47.71707" lon="7.39627">
        <ele>258.01828</ele>
        <time>2012-01-29T10:46:38Z</time>
      </trkpt>
      <trkpt lat="47.71709" lon="7.39621">
        <ele>256.694214</ele>
        <time>2012-01-29T10:46:39Z</time>
      </trkpt>
      <trkpt lat="47.71712" lon="7.39615">
        <ele>255.497467</ele>
        <time>2012-01-29T10:46:40Z</time>
      </trkpt>
      <trkpt lat="47.71715" lon="7.39611">
        <ele>255.569092</ele>
        <time>2012-01-29T10:46:41Z</time>
      </trkpt>
      <trkpt lat="47.71718" lon="7.39608">
        <ele>256.691132</ele>
        <time>2012-01-29T10:46:42Z</time>
      </trkpt>
      <trkpt lat="47.71721" lon="7.39605">
        <ele>257.308868</ele>
        <time>2012-01-29T10:46:43Z</time>
      </trkpt>
      <trkpt lat="47.71723" lon="7.39603">
        <ele>258.64563</ele>
        <time>2012-01-29T10:46:44Z</time>
      </trkpt>
      <trkpt lat="47.71725" lon="7.396">
        <ele>260.719574</ele>
        <time>2012-01-29T10:46:45Z</time>
      </trkpt>
      <trkpt lat="47.71726" lon="7.39597">
        <ele>262.188812</ele>
        <time>2012-01-29T10:46:46Z</time>
      </trkpt>
      <trkpt lat="47.71727" lon="7.39593">
        <ele>263.09848</ele>
        <time>2012-01-29T10:46:47Z</time>
      </trkpt>
      <trkpt lat="47.71728" lon="7.39588">
        <ele>263.151672</ele>
        <time>2012-01-29T10:46:48Z</time>
      </trkpt>
      <trkpt lat="47.7173" lon="7.39582">
        <ele>263.177368</ele>
        <time>2012-01-29T10:46:49Z</time>
      </trkpt>
      <trkpt lat="47.7173" lon="7.39574">
        <ele>261.230988</ele>
        <time>2012-01-29T10:46:50Z</time>
      </trkpt>
      <trkpt lat="47.7173" lon="7.39568">
        <ele>260.28598</ele>
        <time>2012-01-29T10:46:51Z</time>
      </trkpt>
      <trkpt lat="47.7173" lon="7.39562">
        <ele>260.180023</ele>
        <time>2012-01-29T10:46:52Z</time>
      </trkpt>
      <trkpt lat="47.71729" lon="7.39557">
        <ele>259.378815</ele>
        <time>2012-01-29T10:46:53Z</time>
      </trkpt>
      <trkpt lat="47.71728" lon="7.39552">
        <ele>260.678741</ele>
        <time>2012-01-29T10:46:54Z</time>
      </trkpt>
      <trkpt lat="47.71727" lon="7.39547">
        <ele>262.193451</ele>
        <time>2012-01-29T10:46:55Z</time>
      </trkpt>
      <trkpt lat="47.71726" lon="7.39542">
        <ele>264.584808</ele>
        <time>2012-01-29T10:46:56Z</time>
      </trkpt>
      <trkpt lat="47.71726" lon="7.39538">
        <ele>266.252441</ele>
        <time>2012-01-29T10:46:57Z</time>
      </trkpt>
      <trkpt lat="47.71726" lon="7.39532">
        <ele>265.264191</ele>
        <time>2012-01-29T10:46:58Z</time>
      </trkpt>
      <trkpt lat="47.71725" lon="7.39527">
        <ele>265.619507</ele>
        <time>2012-01-29T10:46:59Z</time>
      </trkpt>
      <trkpt lat="47.71725" lon="7.39522">
        <ele>265.314789</ele>
        <time>2012-01-29T10:47:00Z</time>
      </trkpt>
      <trkpt lat="47.71724" lon="7.39517">
        <ele>264.675293</ele>
        <time>2012-01-29T10:47:01Z</time>
      </trkpt>
      <trkpt lat="47.71723" lon="7.39512">
        <ele>263.27475</ele>
        <time>2012-01-29T10:47:02Z</time>
      </trkpt>
      <trkpt lat="47.71722" lon="7.39508">
        <ele>262.874207</ele>
        <time>2012-01-29T10:47:03Z</time>
      </trkpt>
      <trkpt lat="47.71721" lon="7.39503">
        <ele>261.495026</ele>
        <time>2012-01-29T10:47:04Z</time>
      </trkpt>
      <trkpt lat="47.7172" lon="7.395">
        <ele>263.024872</ele>
        <time>2012-01-29T10:47:05Z</time>
      </trkpt>
      <trkpt lat="47.7172" lon="7.39496">
        <ele>262.807556</ele>
        <time>2012-01-29T10:47:06Z</time>
      </trkpt>
      <trkpt lat="47.71719" lon="7.39491">
        <ele>263.154144</ele>
        <time>2012-01-29T10:47:07Z</time>
      </trkpt>
      <trkpt lat="47.71718" lon="7.39487">
        <ele>264.330109</ele>
        <time>2012-01-29T10:47:08Z</time>
      </trkpt>
      <trkpt lat="47.71717" lon="7.39483">
        <ele>265.263214</ele>
        <time>2012-01-29T10:47:09Z</time>
      </trkpt>
      <trkpt lat="47.71716" lon="7.39479">
        <ele>265.625</ele>
        <time>2012-01-29T10:47:10Z</time>
      </trkpt>
      <trkpt lat="47.71716" lon="7.39475">
        <ele>264.434479</ele>
        <time>2012-01-29T10:47:11Z</time>
      </trkpt>
      <trkpt lat="47.71716" lon="7.39471">
        <ele>263.67572</ele>
        <time>2012-01-29T10:47:12Z</time>
      </trkpt>
      <trkpt lat="47.71717" lon="7.39467">
        <ele>263.108398</ele>
        <time>2012-01-29T10:47:13Z</time>
      </trkpt>
      <trkpt lat="47.71718" lon="7.39464">
        <ele>262.784454</ele>
        <time>2012-01-29T10:47:14Z</time>
      </trkpt>
      <trkpt lat="47.71718" lon="7.39464">
        <ele>262.784454</ele>
        <time>2012-01-29T10:47:15Z</time>
      </trkpt>
      <trkpt lat="47.71718" lon="7.39464">
        <ele>262.784454</ele>
        <time>2012-01-29T10:47:16Z</time>
      </trkpt>
      <trkpt lat="47.71718" lon="7.39464">
        <ele>262.784454</ele>
        <time>2012-01-29T10:47:17Z</time>
      </trkpt>
      <trkpt lat="47.71723" lon="7.39458">
        <ele>264.314514</ele>
        <time>2012-01-29T10:47:18Z</time>
      </trkpt>
      <trkpt lat="47.71723" lon="7.39458">
        <ele>264.314514</ele>
        <time>2012-01-29T10:47:19Z</time>
      </trkpt>
      <trkpt lat="47.71723" lon="7.39458">
        <ele>264.314514</ele>
        <time>2012-01-29T10:47:20Z</time>
      </trkpt>
      <trkpt lat="47.71723" lon="7.39458">
        <ele>264.314514</ele>
        <time>2012-01-29T10:47:21Z</time>
      </trkpt>
      <trkpt lat="47.71723" lon="7.39458">
        <ele>264.314514</ele>
        <time>2012-01-29T10:47:22Z</time>
      </trkpt>
      <trkpt lat="47.71723" lon="7.39458">
        <ele>264.314514</ele>
        <time>2012-01-29T10:47:23Z</time>
      </trkpt>
      <trkpt lat="47.71723" lon="7.39458">
        <ele>264.314514</ele>
        <time>2012-01-29T10:47:24Z</time>
      </trkpt>
      <trkpt lat="47.71723" lon="7.39458">
        <ele>264.314514</ele>
        <time>2012-01-29T10:47:25Z</time>
      </trkpt>
      <trkpt lat="47.71723" lon="7.39458">
        <ele>264.314514</ele>
        <time>2012-01-29T10:47:26Z</time>
      </trkpt>
      <trkpt lat="47.71723" lon="7.39458">
        <ele>264.314514</ele>
        <time>2012-01-29T10:47:27Z</time>
      </trkpt>
      <trkpt lat="47.71723" lon="7.39458">
        <ele>264.314514</ele>
        <time>2012-01-29T10:47:28Z</time>
      </trkpt>
      <trkpt lat="47.71723" lon="7.39458">
        <ele>264.314514</ele>
        <time>2012-01-29T10:47:29Z</time>
      </trkpt>
      <trkpt lat="47.71723" lon="7.39458">
        <ele>264.314514</ele>
        <time>2012-01-29T10:47:30Z</time>
      </trkpt>
      <trkpt lat="47.71723" lon="7.39458">
        <ele>264.314514</ele>
        <time>2012-01-29T10:47:31Z</time>
      </trkpt>
      <trkpt lat="47.71723" lon="7.39458">
        <ele>264.314514</ele>
        <time>2012-01-29T10:47:32Z</time>
      </trkpt>
      <trkpt lat="47.71723" lon="7.39458">
        <ele>264.314514</ele>
        <time>2012-01-29T10:47:33Z</time>
      </trkpt>
      <trkpt lat="47.71723" lon="7.39458">
        <ele>264.314514</ele>
        <time>2012-01-29T10:47:34Z</time>
      </trkpt>
      <trkpt lat="47.71723" lon="7.39458">
        <ele>264.314514</ele>
        <time>2012-01-29T10:47:35Z</time>
      </trkpt>
      <trkpt lat="47.71723" lon="7.39458">
        <ele>264.314514</ele>
        <time>2012-01-29T10:47:36Z</time>
      </trkpt>
      <trkpt lat="47.71723" lon="7.39458">
        <ele>264.314514</ele>
        <time>2012-01-29T10:47:37Z</time>
      </trkpt>
      <trkpt lat="47.71723" lon="7.39458">
        <ele>264.314514</ele>
        <time>2012-01-29T10:47:38Z</time>
      </trkpt>
      <trkpt lat="47.71723" lon="7.39458">
        <ele>264.314514</ele>
        <time>2012-01-29T10:47:39Z</time>
      </trkpt>
      <trkpt lat="47.71723" lon="7.39458">
        <ele>264.314514</ele>
        <time>2012-01-29T10:47:40Z</time>
      </trkpt>
      <trkpt lat="47.71723" lon="7.39458">
        <ele>264.314514</ele>
        <time>2012-01-29T10:47:41Z</time>
      </trkpt>
      <trkpt lat="47.71723" lon="7.39458">
        <ele>264.314514</ele>
        <time>2012-01-29T10:47:42Z</time>
      </trkpt>
      <trkpt lat="47.71723" lon="7.39458">
        <ele>264.314514</ele>
        <time>2012-01-29T10:47:43Z</time>
      </trkpt>
      <trkpt lat="47.71723" lon="7.39458">
        <ele>264.314514</ele>
        <time>2012-01-29T10:47:44Z</time>
      </trkpt>
      <trkpt lat="47.71723" lon="7.39458">
        <ele>264.314514</ele>
        <time>2012-01-29T10:47:45Z</time>
      </trkpt>
      <trkpt lat="47.71723" lon="7.39458">
        <ele>264.314514</ele>
        <time>2012-01-29T10:47:46Z</time>
      </trkpt>
      <trkpt lat="47.71723" lon="7.39458">
        <ele>264.314514</ele>
        <time>2012-01-29T10:47:47Z</time>
      </trkpt>
      <trkpt lat="47.71723" lon="7.39458">
        <ele>264.314514</ele>
        <time>2012-01-29T10:47:48Z</time>
      </trkpt>
      <trkpt lat="47.71723" lon="7.39458">
        <ele>264.314514</ele>
        <time>2012-01-29T10:47:49Z</time>
      </trkpt>
      <trkpt lat="47.71723" lon="7.39458">
        <ele>264.314514</ele>
        <time>2012-01-29T10:47:50Z</time>
      </trkpt>
      <trkpt lat="47.71723" lon="7.39458">
        <ele>264.314514</ele>
        <time>2012-01-29T10:47:51Z</time>
      </trkpt>
      <trkpt lat="47.71723" lon="7.39458">
        <ele>264.314514</ele>
        <time>2012-01-29T10:47:52Z</time>
      </trkpt>
      <trkpt lat="47.71723" lon="7.39458">
        <ele>264.314514</ele>
        <time>2012-01-29T10:47:53Z</time>
      </trkpt>
      <trkpt lat="47.71723" lon="7.39458">
        <ele>264.314514</ele>
        <time>2012-01-29T10:47:54Z</time>
      </trkpt>
      <trkpt lat="47.71723" lon="7.39458">
        <ele>264.314514</ele>
        <time>2012-01-29T10:47:55Z</time>
      </trkpt>
      <trkpt lat="47.71723" lon="7.39458">
        <ele>264.314514</ele>
        <time>2012-01-29T10:47:56Z</time>
      </trkpt>
      <trkpt lat="47.71723" lon="7.39458">
        <ele>264.314514</ele>
        <time>2012-01-29T10:47:57Z</time>
      </trkpt>
      <trkpt lat="47.71723" lon="7.39458">
        <ele>264.314514</ele>
        <time>2012-01-29T10:47:58Z</time>
      </trkpt>
      <trkpt lat="47.71723" lon="7.39458">
        <ele>264.314514</ele>
        <time>2012-01-29T10:47:59Z</time>
      </trkpt>
      <trkpt lat="47.71723" lon="7.39458">
        <ele>264.314514</ele>
        <time>2012-01-29T10:48:00Z</time>
      </trkpt>
      <trkpt lat="47.71723" lon="7.39458">
        <ele>264.314514</ele>
        <time>2012-01-29T10:48:01Z</time>
      </trkpt>
      <trkpt lat="47.71723" lon="7.39458">
        <ele>264.314514</ele>
        <time>2012-01-29T10:48:02Z</time>
      </trkpt>
      <trkpt lat="47.71723" lon="7.39458">
        <ele>264.314514</ele>
        <time>2012-01-29T10:48:03Z</time>
      </trkpt>
      <trkpt lat="47.71723" lon="7.39458">
        <ele>264.314514</ele>
        <time>2012-01-29T10:48:04Z</time>
      </trkpt>
      <trkpt lat="47.71723" lon="7.39458">
        <ele>264.314514</ele>
        <time>2012-01-29T10:48:05Z</time>
      </trkpt>
      <trkpt lat="47.71723" lon="7.39458">
        <ele>264.314514</ele>
        <time>2012-01-29T10:48:06Z</time>
      </trkpt>
      <trkpt lat="47.71723" lon="7.39458">
        <ele>264.314514</ele>
        <time>2012-01-29T10:48:07Z</time>
      </trkpt>
      <trkpt lat="47.71723" lon="7.39458">
        <ele>264.314514</ele>
        <time>2012-01-29T10:48:08Z</time>
      </trkpt>
      <trkpt lat="47.71723" lon="7.39458">
        <ele>264.314514</ele>
        <time>2012-01-29T10:48:09Z</time>
      </trkpt>
      <trkpt lat="47.71723" lon="7.39458">
        <ele>264.314514</ele>
        <time>2012-01-29T10:48:10Z</time>
      </trkpt>
      <trkpt lat="47.71723" lon="7.39458">
        <ele>264.314514</ele>
        <time>2012-01-29T10:48:11Z</time>
      </trkpt>
      <trkpt lat="47.71723" lon="7.39458">
        <ele>264.314514</ele>
        <time>2012-01-29T10:48:12Z</time>
      </trkpt>
      <trkpt lat="47.71723" lon="7.39458">
        <ele>264.314514</ele>
        <time>2012-01-29T10:48:13Z</time>
      </trkpt>
      <trkpt lat="47.71723" lon="7.39458">
        <ele>264.314514</ele>
        <time>2012-01-29T10:48:14Z</time>
      </trkpt>
      <trkpt lat="47.71723" lon="7.39458">
        <ele>264.314514</ele>
        <time>2012-01-29T10:48:15Z</time>
      </trkpt>
      <trkpt lat="47.71723" lon="7.39458">
        <ele>264.314514</ele>
        <time>2012-01-29T10:48:16Z</time>
      </trkpt>
      <trkpt lat="47.71723" lon="7.39458">
        <ele>264.314514</ele>
        <time>2012-01-29T10:48:17Z</time>
      </trkpt>
      <trkpt lat="47.71723" lon="7.39458">
        <ele>264.314514</ele>
        <time>2012-01-29T10:48:18Z</time>
      </trkpt>
      <trkpt lat="47.71723" lon="7.39458">
        <ele>264.314514</ele>
        <time>2012-01-29T10:48:19Z</time>
      </trkpt>
      <trkpt lat="47.71723" lon="7.39458">
        <ele>264.314514</ele>
        <time>2012-01-29T10:48:21Z</time>
      </trkpt>
    </trkseg>
  </trk>
</gpx>